<?xml version='1.0' encoding='UTF-8'?><gpx version="1.1" creator="JPX - https://github.com/jenetics/jpx" xmlns="http://www.topografix.com/GPX/1/1"><trk><trkseg><trkpt lat="44.977870825665136" lon="7.384502487319832"><ele>338.0</ele><time>2026-03-28T08:54:04Z</time></trkpt><trkpt lat="44.97795576253543" lon="7.384472057600829"><ele>338.0</ele><time>2026-03-28T08:56:37Z</time></trkpt><trkpt lat="44.97790145748084" lon="7.384417225516444"><ele>338.0</ele><time>2026-03-28T08:58:42Z</time></trkpt><trkpt lat="44.97790548302257" lon="7.384315037810754"><ele>338.0</ele><time>2026-03-28T08:58:45Z</time></trkpt><trkpt lat="44.977916490202325" lon="7.384206909851376"><ele>338.0</ele><time>2026-03-28T08:58:47.999Z</time></trkpt><trkpt lat="44.97789930082509" lon="7.384114315140282"><ele>338.0</ele><time>2026-03-28T08:58:52.999Z</time></trkpt><trkpt lat="44.97783377553997" lon="7.384098376786092"><ele>338.0</ele><time>2026-03-28T08:58:54.999Z</time></trkpt><trkpt lat="44.97774563487795" lon="7.384088344476863"><ele>338.0</ele><time>2026-03-28T08:58:56.999Z</time></trkpt><trkpt lat="44.977646589077324" lon="7.384070718489487"><ele>338.0</ele><time>2026-03-28T08:58:58.999Z</time></trkpt><trkpt lat="44.97753509964345" lon="7.3840525070634255"><ele>338.0</ele><time>2026-03-28T08:59:00.999Z</time></trkpt><trkpt lat="44.977470203279246" lon="7.384039110693016"><ele>338.0</ele><time>2026-03-28T08:59:01.999Z</time></trkpt><trkpt lat="44.97740221874005" lon="7.384025131573224"><ele>338.0</ele><time>2026-03-28T08:59:02.999Z</time></trkpt><trkpt lat="44.97732868158456" lon="7.384010726540027"><ele>338.0</ele><time>2026-03-28T08:59:03.999Z</time></trkpt><trkpt lat="44.977249789349194" lon="7.383989233668882"><ele>338.0</ele><time>2026-03-28T08:59:04.999Z</time></trkpt><trkpt lat="44.97716909047149" lon="7.383958992349235"><ele>338.0</ele><time>2026-03-28T08:59:05.999Z</time></trkpt><trkpt lat="44.97709173127518" lon="7.383933011815024"><ele>338.0</ele><time>2026-03-28T08:59:06.999Z</time></trkpt><trkpt lat="44.97702087797258" lon="7.383914488145463"><ele>338.0</ele><time>2026-03-28T08:59:07.999Z</time></trkpt><trkpt lat="44.97692287679777" lon="7.383896663065859"><ele>338.0</ele><time>2026-03-28T08:59:09.999Z</time></trkpt><trkpt lat="44.976859807626376" lon="7.3838263463149625"><ele>338.0</ele><time>2026-03-28T08:59:12.999Z</time></trkpt><trkpt lat="44.976841632872905" lon="7.383683003775991"><ele>338.5</ele><time>2026-03-28T08:59:14.999Z</time></trkpt><trkpt lat="44.97681007723643" lon="7.3835100705935295"><ele>339.0</ele><time>2026-03-28T08:59:16.999Z</time></trkpt><trkpt lat="44.976767734456416" lon="7.383336430092297"><ele>339.5</ele><time>2026-03-28T08:59:17.999Z</time></trkpt><trkpt lat="44.976733347046306" lon="7.383200766624714"><ele>340.0</ele><time>2026-03-28T08:59:18.999Z</time></trkpt><trkpt lat="44.97670572303914" lon="7.383066877210861"><ele>339.8</ele><time>2026-03-28T08:59:19.999Z</time></trkpt><trkpt lat="44.976679155367584" lon="7.382950072137404"><ele>339.6</ele><time>2026-03-28T08:59:20.999Z</time></trkpt><trkpt lat="44.97665334380913" lon="7.382851859697699"><ele>339.4</ele><time>2026-03-28T08:59:21.999Z</time></trkpt><trkpt lat="44.97662822369855" lon="7.38270840811935"><ele>339.2</ele><time>2026-03-28T08:59:23.999Z</time></trkpt><trkpt lat="44.97674683550743" lon="7.382630957202982"><ele>339.0</ele><time>2026-03-28T08:59:26.999Z</time></trkpt><trkpt lat="44.97683186033379" lon="7.382652875490838"><ele>339.4</ele><time>2026-03-28T08:59:27.999Z</time></trkpt><trkpt lat="44.97693246461125" lon="7.382681605428391"><ele>339.79999999999995</ele><time>2026-03-28T08:59:28.999Z</time></trkpt><trkpt lat="44.97704490192504" lon="7.3827091187170435"><ele>340.20000000000005</ele><time>2026-03-28T08:59:29.999Z</time></trkpt><trkpt lat="44.97715183616713" lon="7.382741428689468"><ele>340.6</ele><time>2026-03-28T08:59:30.999Z</time></trkpt><trkpt lat="44.97725398766058" lon="7.3827560513574975"><ele>341.0</ele><time>2026-03-28T08:59:31.999Z</time></trkpt><trkpt lat="44.97735505088903" lon="7.382771147922317"><ele>341.0</ele><time>2026-03-28T08:59:32.999Z</time></trkpt><trkpt lat="44.97746246614261" lon="7.382783009796455"><ele>341.0</ele><time>2026-03-28T08:59:33.999Z</time></trkpt><trkpt lat="44.97757529501994" lon="7.38280351376615"><ele>341.0</ele><time>2026-03-28T08:59:34.999Z</time></trkpt><trkpt lat="44.977692754562554" lon="7.3828282114359185"><ele>341.0</ele><time>2026-03-28T08:59:35.999Z</time></trkpt><trkpt lat="44.97781008519779" lon="7.382859669084767"><ele>341.25</ele><time>2026-03-28T08:59:36.999Z</time></trkpt><trkpt lat="44.97792628865667" lon="7.382895522521736"><ele>341.5</ele><time>2026-03-28T08:59:37.999Z</time></trkpt><trkpt lat="44.978048374564786" lon="7.382939271743709"><ele>341.75</ele><time>2026-03-28T08:59:38.999Z</time></trkpt><trkpt lat="44.9781694604153" lon="7.382989682339769"><ele>342.0</ele><time>2026-03-28T08:59:39.999Z</time></trkpt><trkpt lat="44.978296501972636" lon="7.383055270510536"><ele>342.25</ele><time>2026-03-28T08:59:40.999Z</time></trkpt><trkpt lat="44.97841746058467" lon="7.383125029743528"><ele>342.5</ele><time>2026-03-28T08:59:41.999Z</time></trkpt><trkpt lat="44.97853121713831" lon="7.38319172802651"><ele>342.75</ele><time>2026-03-28T08:59:42.999Z</time></trkpt><trkpt lat="44.978642420868084" lon="7.383257302172146"><ele>343.0</ele><time>2026-03-28T08:59:43.999Z</time></trkpt><trkpt lat="44.9787432787742" lon="7.383323701290735"><ele>343.0</ele><time>2026-03-28T08:59:44.999Z</time></trkpt><trkpt lat="44.97884229697079" lon="7.383393953701229"><ele>343.0</ele><time>2026-03-28T08:59:45.999Z</time></trkpt><trkpt lat="44.97893984893883" lon="7.383466863152148"><ele>343.0</ele><time>2026-03-28T08:59:46.999Z</time></trkpt><trkpt lat="44.9790411251849" lon="7.383542184966986"><ele>343.0</ele><time>2026-03-28T08:59:47.999Z</time></trkpt><trkpt lat="44.97914118748521" lon="7.383621135701756"><ele>343.0</ele><time>2026-03-28T08:59:48.999Z</time></trkpt><trkpt lat="44.979235148561486" lon="7.383707216298522"><ele>343.0</ele><time>2026-03-28T08:59:49.999Z</time></trkpt><trkpt lat="44.97933737023708" lon="7.383793233013691"><ele>343.0</ele><time>2026-03-28T08:59:50.999Z</time></trkpt><trkpt lat="44.97942894246183" lon="7.383866660755181"><ele>343.0</ele><time>2026-03-28T08:59:51.999Z</time></trkpt><trkpt lat="44.97951073473449" lon="7.383922698710973"><ele>343.0</ele><time>2026-03-28T08:59:52.999Z</time></trkpt><trkpt lat="44.97959036965424" lon="7.38397141064695"><ele>343.0</ele><time>2026-03-28T08:59:53.999Z</time></trkpt><trkpt lat="44.979664254586496" lon="7.384012689517918"><ele>343.0</ele><time>2026-03-28T08:59:54.999Z</time></trkpt><trkpt lat="44.979736853497066" lon="7.384041450286203"><ele>343.0</ele><time>2026-03-28T08:59:55.999Z</time></trkpt><trkpt lat="44.97980464805493" lon="7.384049120552121"><ele>343.0</ele><time>2026-03-28T08:59:56.999Z</time></trkpt><trkpt lat="44.979877550866625" lon="7.384056726103245"><ele>343.0</ele><time>2026-03-28T08:59:57.999Z</time></trkpt><trkpt lat="44.97994585499034" lon="7.383962642634257"><ele>343.0</ele><time>2026-03-28T08:59:58.999Z</time></trkpt><trkpt lat="44.98002989684536" lon="7.383905551978771"><ele>343.25</ele><time>2026-03-28T08:59:59.999Z</time></trkpt><trkpt lat="44.98012152494735" lon="7.383847411975422"><ele>343.5</ele><time>2026-03-28T09:00:00.999Z</time></trkpt><trkpt lat="44.9802255963601" lon="7.383798903924851"><ele>343.75</ele><time>2026-03-28T09:00:01.999Z</time></trkpt><trkpt lat="44.9803301297757" lon="7.383722329605004"><ele>344.0</ele><time>2026-03-28T09:00:02.999Z</time></trkpt><trkpt lat="44.98044396835707" lon="7.383625802272767"><ele>344.0</ele><time>2026-03-28T09:00:03.999Z</time></trkpt><trkpt lat="44.98055379526308" lon="7.383487599037377"><ele>344.0</ele><time>2026-03-28T09:00:04.999Z</time></trkpt><trkpt lat="44.980669376043004" lon="7.383357472084075"><ele>344.0</ele><time>2026-03-28T09:00:05.999Z</time></trkpt><trkpt lat="44.98077106097073" lon="7.383212853855072"><ele>344.0</ele><time>2026-03-28T09:00:06.999Z</time></trkpt><trkpt lat="44.980866429344694" lon="7.383065826168809"><ele>345.0</ele><time>2026-03-28T09:00:08Z</time></trkpt><trkpt lat="44.98095375450138" lon="7.382914201169602"><ele>346.0</ele><time>2026-03-28T09:00:09Z</time></trkpt><trkpt lat="44.981033319007935" lon="7.382756194551377"><ele>347.0</ele><time>2026-03-28T09:00:10Z</time></trkpt><trkpt lat="44.9811146698826" lon="7.382599466115453"><ele>348.0</ele><time>2026-03-28T09:00:11Z</time></trkpt><trkpt lat="44.98120920439246" lon="7.382451586455528"><ele>348.0</ele><time>2026-03-28T09:00:12Z</time></trkpt><trkpt lat="44.98126699235431" lon="7.382272659207129"><ele>348.0</ele><time>2026-03-28T09:00:13Z</time></trkpt><trkpt lat="44.98132434099274" lon="7.382106366560561"><ele>348.0</ele><time>2026-03-28T09:00:14Z</time></trkpt><trkpt lat="44.98136184945602" lon="7.38194347299984"><ele>348.0</ele><time>2026-03-28T09:00:15Z</time></trkpt><trkpt lat="44.98138016405071" lon="7.381779995574883"><ele>348.75</ele><time>2026-03-28T09:00:16Z</time></trkpt><trkpt lat="44.9813915495539" lon="7.381605795669233"><ele>349.5</ele><time>2026-03-28T09:00:17Z</time></trkpt><trkpt lat="44.9814030252401" lon="7.381425631566557"><ele>350.25</ele><time>2026-03-28T09:00:18Z</time></trkpt><trkpt lat="44.9814194651771" lon="7.3812497648205095"><ele>351.0</ele><time>2026-03-28T09:00:19Z</time></trkpt><trkpt lat="44.98144012063659" lon="7.381099100576747"><ele>351.3333333333333</ele><time>2026-03-28T09:00:20Z</time></trkpt><trkpt lat="44.98146260084982" lon="7.380982038118456"><ele>351.6666666666667</ele><time>2026-03-28T09:00:21Z</time></trkpt><trkpt lat="44.98150022134613" lon="7.380879626037739"><ele>352.0</ele><time>2026-03-28T09:00:22Z</time></trkpt><trkpt lat="44.981556937200196" lon="7.380788242718961"><ele>352.33333333333337</ele><time>2026-03-28T09:00:23Z</time></trkpt><trkpt lat="44.98162848987358" lon="7.380738054370717"><ele>352.6666666666667</ele><time>2026-03-28T09:00:24Z</time></trkpt><trkpt lat="44.98170354280057" lon="7.380685155775333"><ele>353.0</ele><time>2026-03-28T09:00:25Z</time></trkpt><trkpt lat="44.981791128460216" lon="7.380619942500638"><ele>353.0</ele><time>2026-03-28T09:00:26Z</time></trkpt><trkpt lat="44.98187238357626" lon="7.3805320679715445"><ele>353.0</ele><time>2026-03-28T09:00:27Z</time></trkpt><trkpt lat="44.98194058087926" lon="7.380436955249435"><ele>353.0</ele><time>2026-03-28T09:00:28Z</time></trkpt><trkpt lat="44.981986589408564" lon="7.380355916664125"><ele>353.0</ele><time>2026-03-28T09:00:29Z</time></trkpt><trkpt lat="44.98198091927027" lon="7.380151606666517"><ele>353.0</ele><time>2026-03-28T09:00:31Z</time></trkpt><trkpt lat="44.98197339457185" lon="7.380061310229908"><ele>353.59999999999997</ele><time>2026-03-28T09:00:32Z</time></trkpt><trkpt lat="44.982028425627824" lon="7.379940046007807"><ele>354.2</ele><time>2026-03-28T09:00:34Z</time></trkpt><trkpt lat="44.98207224581455" lon="7.3798525613694155"><ele>354.8</ele><time>2026-03-28T09:00:35Z</time></trkpt><trkpt lat="44.98212081954227" lon="7.37973440165798"><ele>355.4</ele><time>2026-03-28T09:00:36Z</time></trkpt><trkpt lat="44.98219586216214" lon="7.379631552526549"><ele>356.0</ele><time>2026-03-28T09:00:37Z</time></trkpt><trkpt lat="44.982270413770976" lon="7.37951259677914"><ele>356.5</ele><time>2026-03-28T09:00:38Z</time></trkpt><trkpt lat="44.98235663596687" lon="7.379398228651966"><ele>357.0</ele><time>2026-03-28T09:00:39Z</time></trkpt><trkpt lat="44.98242834719959" lon="7.379241881074962"><ele>357.5</ele><time>2026-03-28T09:00:40Z</time></trkpt><trkpt lat="44.98250073105839" lon="7.379082718233782"><ele>358.0</ele><time>2026-03-28T09:00:41Z</time></trkpt><trkpt lat="44.9825786508919" lon="7.378918874074492"><ele>359.0</ele><time>2026-03-28T09:00:42Z</time></trkpt><trkpt lat="44.9826588274197" lon="7.378748309954174"><ele>360.0</ele><time>2026-03-28T09:00:43Z</time></trkpt><trkpt lat="44.98273795827629" lon="7.37856832979444"><ele>361.0</ele><time>2026-03-28T09:00:44Z</time></trkpt><trkpt lat="44.98280892034687" lon="7.3783738195252955"><ele>361.0</ele><time>2026-03-28T09:00:45Z</time></trkpt><trkpt lat="44.98288228526855" lon="7.378174152992401"><ele>361.0</ele><time>2026-03-28T09:00:46Z</time></trkpt><trkpt lat="44.98295043689862" lon="7.3779768705435025"><ele>361.0</ele><time>2026-03-28T09:00:47Z</time></trkpt><trkpt lat="44.982987785241534" lon="7.3777729857274625"><ele>362.25</ele><time>2026-03-28T09:00:48Z</time></trkpt><trkpt lat="44.983033257083136" lon="7.377585831385207"><ele>363.5</ele><time>2026-03-28T09:00:49Z</time></trkpt><trkpt lat="44.98307516038283" lon="7.377420018583178"><ele>364.75</ele><time>2026-03-28T09:00:50Z</time></trkpt><trkpt lat="44.98312234762779" lon="7.377279214585532"><ele>366.0</ele><time>2026-03-28T09:00:51Z</time></trkpt><trkpt lat="44.983165882635355" lon="7.377168480254026"><ele>366.8333333333333</ele><time>2026-03-28T09:00:52Z</time></trkpt><trkpt lat="44.983213380042066" lon="7.377053727009099"><ele>367.6666666666667</ele><time>2026-03-28T09:00:54Z</time></trkpt><trkpt lat="44.983261630654624" lon="7.376958044044597"><ele>368.5</ele><time>2026-03-28T09:01:07Z</time></trkpt><trkpt lat="44.98321081476482" lon="7.37682921971283"><ele>369.33333333333337</ele><time>2026-03-28T09:01:10Z</time></trkpt><trkpt lat="44.98317781260361" lon="7.376751419451893"><ele>370.1666666666667</ele><time>2026-03-28T09:01:11Z</time></trkpt><trkpt lat="44.98312114687356" lon="7.37668489241953"><ele>371.0</ele><time>2026-03-28T09:01:12Z</time></trkpt><trkpt lat="44.98306787038331" lon="7.3766010301000575"><ele>371.0</ele><time>2026-03-28T09:01:13Z</time></trkpt><trkpt lat="44.98301703861561" lon="7.376533154731347"><ele>371.0</ele><time>2026-03-28T09:01:14Z</time></trkpt><trkpt lat="44.982934738756654" lon="7.376449620539838"><ele>371.0</ele><time>2026-03-28T09:01:16Z</time></trkpt><trkpt lat="44.98287021893345" lon="7.376363247134299"><ele>371.0</ele><time>2026-03-28T09:01:18Z</time></trkpt><trkpt lat="44.98281026735093" lon="7.376303498100589"><ele>371.0</ele><time>2026-03-28T09:01:20Z</time></trkpt><trkpt lat="44.98277488755656" lon="7.376219656111085"><ele>371.0</ele><time>2026-03-28T09:01:22Z</time></trkpt><trkpt lat="44.982759124706924" lon="7.376105914594299"><ele>372.6</ele><time>2026-03-28T09:01:25Z</time></trkpt><trkpt lat="44.982745632725894" lon="7.375994431914403"><ele>374.20000000000005</ele><time>2026-03-28T09:01:30Z</time></trkpt><trkpt lat="44.98286919911291" lon="7.375999349655528"><ele>375.79999999999995</ele><time>2026-03-28T09:01:32Z</time></trkpt><trkpt lat="44.98298613828472" lon="7.375958991101091"><ele>377.4</ele><time>2026-03-28T09:01:34Z</time></trkpt><trkpt lat="44.98306097726903" lon="7.375966970994327"><ele>379.0</ele><time>2026-03-28T09:01:35Z</time></trkpt><trkpt lat="44.98320368149031" lon="7.375882194498308"><ele>379.0</ele><time>2026-03-28T09:01:37Z</time></trkpt><trkpt lat="44.98330370821416" lon="7.375806576414338"><ele>379.0</ele><time>2026-03-28T09:01:38Z</time></trkpt><trkpt lat="44.98335566077951" lon="7.375656390493705"><ele>379.0</ele><time>2026-03-28T09:01:39Z</time></trkpt><trkpt lat="44.98340074802445" lon="7.375481037737121"><ele>379.0</ele><time>2026-03-28T09:01:40Z</time></trkpt><trkpt lat="44.98344288162009" lon="7.3753053073899055"><ele>377.79999999999995</ele><time>2026-03-28T09:01:41Z</time></trkpt><trkpt lat="44.98347917789017" lon="7.375150908443288"><ele>376.59999999999997</ele><time>2026-03-28T09:01:42Z</time></trkpt><trkpt lat="44.98351482516834" lon="7.375067103273983"><ele>375.4</ele><time>2026-03-28T09:01:43Z</time></trkpt><trkpt lat="44.983559658682594" lon="7.3749436072134325"><ele>374.2</ele><time>2026-03-28T09:01:46Z</time></trkpt><trkpt lat="44.98362578039758" lon="7.374861789403815"><ele>373.0</ele><time>2026-03-28T09:01:47Z</time></trkpt><trkpt lat="44.983664506930104" lon="7.374736069292263"><ele>373.0</ele><time>2026-03-28T09:01:48Z</time></trkpt><trkpt lat="44.98372056608775" lon="7.3746308992787775"><ele>373.0</ele><time>2026-03-28T09:01:49Z</time></trkpt><trkpt lat="44.98376096006796" lon="7.37452299846556"><ele>373.0</ele><time>2026-03-28T09:01:50Z</time></trkpt><trkpt lat="44.98380111744062" lon="7.374405582334403"><ele>373.0</ele><time>2026-03-28T09:01:51Z</time></trkpt><trkpt lat="44.98382823162532" lon="7.374315863423487"><ele>373.0</ele><time>2026-03-28T09:01:52Z</time></trkpt><trkpt lat="44.98390121283222" lon="7.374282026436836"><ele>373.0</ele><time>2026-03-28T09:01:53Z</time></trkpt><trkpt lat="44.983987365287426" lon="7.374262103085032"><ele>373.0</ele><time>2026-03-28T09:01:54Z</time></trkpt><trkpt lat="44.98412325477653" lon="7.3742853550632566"><ele>373.0</ele><time>2026-03-28T09:01:56Z</time></trkpt><trkpt lat="44.984234780266114" lon="7.374285355062088"><ele>373.0</ele><time>2026-03-28T09:01:57Z</time></trkpt><trkpt lat="44.984441883014505" lon="7.374274846668489"><ele>373.0</ele><time>2026-03-28T09:01:58Z</time></trkpt><trkpt lat="44.98458263392916" lon="7.374270783151426"><ele>373.0</ele><time>2026-03-28T09:01:59Z</time></trkpt><trkpt lat="44.98471967308432" lon="7.374276520211049"><ele>373.0</ele><time>2026-03-28T09:02:00Z</time></trkpt><trkpt lat="44.98484140338196" lon="7.374281355075763"><ele>373.0</ele><time>2026-03-28T09:02:01Z</time></trkpt><trkpt lat="44.9849232538548" lon="7.374270953248295"><ele>373.0</ele><time>2026-03-28T09:02:02Z</time></trkpt><trkpt lat="44.98500422394676" lon="7.374255044268855"><ele>373.0</ele><time>2026-03-28T09:02:03Z</time></trkpt><trkpt lat="44.98506870061005" lon="7.3741103353740804"><ele>373.0</ele><time>2026-03-28T09:02:04Z</time></trkpt><trkpt lat="44.985085796765716" lon="7.373903298561338"><ele>373.0</ele><time>2026-03-28T09:02:06Z</time></trkpt><trkpt lat="44.985140793584705" lon="7.373766408079933"><ele>374.5</ele><time>2026-03-28T09:02:07Z</time></trkpt><trkpt lat="44.985205313281995" lon="7.373618448779178"><ele>376.0</ele><time>2026-03-28T09:02:08Z</time></trkpt><trkpt lat="44.985288374306414" lon="7.3734499922385615"><ele>377.5</ele><time>2026-03-28T09:02:09Z</time></trkpt><trkpt lat="44.98536570470963" lon="7.373279335653042"><ele>379.0</ele><time>2026-03-28T09:02:10Z</time></trkpt><trkpt lat="44.985451284541696" lon="7.373085280084238"><ele>379.3333333333333</ele><time>2026-03-28T09:02:11Z</time></trkpt><trkpt lat="44.98552875910925" lon="7.372879177071297"><ele>379.6666666666667</ele><time>2026-03-28T09:02:12Z</time></trkpt><trkpt lat="44.98561019475555" lon="7.372689038401356"><ele>380.0</ele><time>2026-03-28T09:02:13Z</time></trkpt><trkpt lat="44.98569529295968" lon="7.37249481499854"><ele>380.0</ele><time>2026-03-28T09:02:14Z</time></trkpt><trkpt lat="44.985757318856166" lon="7.372303173815867"><ele>380.0</ele><time>2026-03-28T09:02:15Z</time></trkpt><trkpt lat="44.98581835727636" lon="7.3721099606145915"><ele>380.0</ele><time>2026-03-28T09:02:16Z</time></trkpt><trkpt lat="44.98586623048386" lon="7.371904392051815"><ele>381.33333333333337</ele><time>2026-03-28T09:02:17Z</time></trkpt><trkpt lat="44.9859266959013" lon="7.371706852818088"><ele>382.6666666666667</ele><time>2026-03-28T09:02:18Z</time></trkpt><trkpt lat="44.985977223329634" lon="7.371504834162833"><ele>384.0</ele><time>2026-03-28T09:02:19Z</time></trkpt><trkpt lat="44.98601062910048" lon="7.371297838856449"><ele>384.25</ele><time>2026-03-28T09:02:20Z</time></trkpt><trkpt lat="44.98605154023092" lon="7.371093060873885"><ele>384.5</ele><time>2026-03-28T09:02:21Z</time></trkpt><trkpt lat="44.98609462924169" lon="7.370896642897056"><ele>384.75</ele><time>2026-03-28T09:02:22Z</time></trkpt><trkpt lat="44.98613843801486" lon="7.370704919153774"><ele>385.0</ele><time>2026-03-28T09:02:23Z</time></trkpt><trkpt lat="44.98618262744798" lon="7.3705108656474545"><ele>385.25</ele><time>2026-03-28T09:02:24Z</time></trkpt><trkpt lat="44.9862209409176" lon="7.370308825144011"><ele>385.5</ele><time>2026-03-28T09:02:25Z</time></trkpt><trkpt lat="44.986263277238415" lon="7.370112913463344"><ele>385.75</ele><time>2026-03-28T09:02:26Z</time></trkpt><trkpt lat="44.98632133249016" lon="7.369921006512795"><ele>386.0</ele><time>2026-03-28T09:02:27Z</time></trkpt><trkpt lat="44.98640002681924" lon="7.369734863514923"><ele>385.75</ele><time>2026-03-28T09:02:28Z</time></trkpt><trkpt lat="44.98649766926737" lon="7.369567702947761"><ele>385.5</ele><time>2026-03-28T09:02:29Z</time></trkpt><trkpt lat="44.986603960100844" lon="7.369428290810963"><ele>385.25</ele><time>2026-03-28T09:02:30Z</time></trkpt><trkpt lat="44.986718345202874" lon="7.369295323345936"><ele>385.0</ele><time>2026-03-28T09:02:31Z</time></trkpt><trkpt lat="44.986847216937534" lon="7.369176454476076"><ele>386.0</ele><time>2026-03-28T09:02:32Z</time></trkpt><trkpt lat="44.986983875724825" lon="7.369066394624565"><ele>387.0</ele><time>2026-03-28T09:02:33Z</time></trkpt><trkpt lat="44.98712224992211" lon="7.36895593364367"><ele>388.0</ele><time>2026-03-28T09:02:34Z</time></trkpt><trkpt lat="44.98725653224465" lon="7.368835293950173"><ele>388.0</ele><time>2026-03-28T09:02:35Z</time></trkpt><trkpt lat="44.98738889768919" lon="7.368705778765536"><ele>388.0</ele><time>2026-03-28T09:02:36Z</time></trkpt><trkpt lat="44.98752038935142" lon="7.368567131759663"><ele>388.0</ele><time>2026-03-28T09:02:37Z</time></trkpt><trkpt lat="44.987648119410984" lon="7.3684381524399996"><ele>390.75</ele><time>2026-03-28T09:02:38Z</time></trkpt><trkpt lat="44.98777085413808" lon="7.368320189090245"><ele>393.5</ele><time>2026-03-28T09:02:39Z</time></trkpt><trkpt lat="44.98788676723365" lon="7.368207453740896"><ele>396.25</ele><time>2026-03-28T09:02:40Z</time></trkpt><trkpt lat="44.987985545764545" lon="7.368110456559739"><ele>399.0</ele><time>2026-03-28T09:02:41Z</time></trkpt><trkpt lat="44.988071365446885" lon="7.368030269151591"><ele>398.5</ele><time>2026-03-28T09:02:42Z</time></trkpt><trkpt lat="44.98814777450682" lon="7.367958286358193"><ele>398.0</ele><time>2026-03-28T09:02:43Z</time></trkpt><trkpt lat="44.98820866293724" lon="7.367895189342194"><ele>397.5</ele><time>2026-03-28T09:02:44Z</time></trkpt><trkpt lat="44.98825165858521" lon="7.367825582735009"><ele>397.0</ele><time>2026-03-28T09:02:45Z</time></trkpt><trkpt lat="44.98833583190782" lon="7.367729642715329"><ele>396.5</ele><time>2026-03-28T09:02:47Z</time></trkpt><trkpt lat="44.98831386191854" lon="7.367589871930569"><ele>396.0</ele><time>2026-03-28T09:02:48Z</time></trkpt><trkpt lat="44.98834859451049" lon="7.367449053834396"><ele>396.1666666666667</ele><time>2026-03-28T09:02:50Z</time></trkpt><trkpt lat="44.9883718151021" lon="7.367361812925657"><ele>396.33333333333337</ele><time>2026-03-28T09:02:52Z</time></trkpt><trkpt lat="44.988384829908306" lon="7.367264752285483"><ele>396.5</ele><time>2026-03-28T09:02:55Z</time></trkpt><trkpt lat="44.98834108296646" lon="7.367171444036599"><ele>396.6666666666667</ele><time>2026-03-28T09:02:58Z</time></trkpt><trkpt lat="44.988270129227665" lon="7.367079587811758"><ele>396.83333333333337</ele><time>2026-03-28T09:03:01Z</time></trkpt><trkpt lat="44.988252672089935" lon="7.366973011321147"><ele>397.0</ele><time>2026-03-28T09:03:03Z</time></trkpt><trkpt lat="44.98830549476286" lon="7.366873163993127"><ele>398.00000000000006</ele><time>2026-03-28T09:03:05Z</time></trkpt><trkpt lat="44.988358824014284" lon="7.366791917194816"><ele>399.0</ele><time>2026-03-28T09:03:06Z</time></trkpt><trkpt lat="44.98840237673587" lon="7.366708225335199"><ele>400.0</ele><time>2026-03-28T09:03:07Z</time></trkpt><trkpt lat="44.988437741643594" lon="7.366632310036752"><ele>401.0</ele><time>2026-03-28T09:03:08Z</time></trkpt><trkpt lat="44.98848433077806" lon="7.366540684184111"><ele>402.00000000000006</ele><time>2026-03-28T09:03:09Z</time></trkpt><trkpt lat="44.988524463767654" lon="7.366428038067456"><ele>403.0</ele><time>2026-03-28T09:03:10Z</time></trkpt><trkpt lat="44.988573529863466" lon="7.36630719341661"><ele>403.0</ele><time>2026-03-28T09:03:11Z</time></trkpt><trkpt lat="44.98862794661023" lon="7.366182790382166"><ele>403.0</ele><time>2026-03-28T09:03:12Z</time></trkpt><trkpt lat="44.98869973311383" lon="7.36606644716709"><ele>403.0</ele><time>2026-03-28T09:03:13Z</time></trkpt><trkpt lat="44.98878434198828" lon="7.365949737430684"><ele>403.0</ele><time>2026-03-28T09:03:14Z</time></trkpt><trkpt lat="44.98887098956104" lon="7.365824665847331"><ele>403.0</ele><time>2026-03-28T09:03:15Z</time></trkpt><trkpt lat="44.988953836369085" lon="7.365700600019136"><ele>403.0</ele><time>2026-03-28T09:03:16Z</time></trkpt><trkpt lat="44.98901954482925" lon="7.365591128798515"><ele>403.0</ele><time>2026-03-28T09:03:17Z</time></trkpt><trkpt lat="44.98906526400346" lon="7.365488363639827"><ele>403.0</ele><time>2026-03-28T09:03:18Z</time></trkpt><trkpt lat="44.989080378237496" lon="7.365350706021604"><ele>403.0</ele><time>2026-03-28T09:03:19Z</time></trkpt><trkpt lat="44.98907576320884" lon="7.3651481650887884"><ele>404.59999999999997</ele><time>2026-03-28T09:03:20Z</time></trkpt><trkpt lat="44.989127043649454" lon="7.365025176566949"><ele>406.2</ele><time>2026-03-28T09:03:21Z</time></trkpt><trkpt lat="44.98922640017199" lon="7.364938653588991"><ele>407.8</ele><time>2026-03-28T09:03:22Z</time></trkpt><trkpt lat="44.98930768894294" lon="7.36485698050709"><ele>409.4</ele><time>2026-03-28T09:03:23Z</time></trkpt><trkpt lat="44.989373394595674" lon="7.364752050289124"><ele>411.0</ele><time>2026-03-28T09:03:24Z</time></trkpt><trkpt lat="44.98943187315262" lon="7.364676631583667"><ele>412.20000000000005</ele><time>2026-03-28T09:03:25Z</time></trkpt><trkpt lat="44.98948916567667" lon="7.364568144383851"><ele>413.40000000000003</ele><time>2026-03-28T09:03:26Z</time></trkpt><trkpt lat="44.98955332811781" lon="7.364448745205376"><ele>414.6</ele><time>2026-03-28T09:03:27Z</time></trkpt><trkpt lat="44.98956185963218" lon="7.364307889550732"><ele>415.8</ele><time>2026-03-28T09:03:28Z</time></trkpt><trkpt lat="44.98956144367929" lon="7.3641642300462795"><ele>417.0</ele><time>2026-03-28T09:03:29Z</time></trkpt><trkpt lat="44.9895634347397" lon="7.364003990192779"><ele>417.8</ele><time>2026-03-28T09:03:30Z</time></trkpt><trkpt lat="44.989573897321485" lon="7.363849419547284"><ele>418.6</ele><time>2026-03-28T09:03:31Z</time></trkpt><trkpt lat="44.989590981217155" lon="7.363694140546319"><ele>419.40000000000003</ele><time>2026-03-28T09:03:32Z</time></trkpt><trkpt lat="44.98963792066309" lon="7.363558469057553"><ele>420.20000000000005</ele><time>2026-03-28T09:03:33Z</time></trkpt><trkpt lat="44.98971223391475" lon="7.363484354806686"><ele>421.0</ele><time>2026-03-28T09:03:34Z</time></trkpt><trkpt lat="44.98979364200275" lon="7.363401083963872"><ele>421.0</ele><time>2026-03-28T09:03:35Z</time></trkpt><trkpt lat="44.989881281218246" lon="7.363316821236646"><ele>421.0</ele><time>2026-03-28T09:03:36Z</time></trkpt><trkpt lat="44.989970354063736" lon="7.363224601400403"><ele>421.0</ele><time>2026-03-28T09:03:37Z</time></trkpt><trkpt lat="44.990062675353" lon="7.363121141618458"><ele>421.0</ele><time>2026-03-28T09:03:38Z</time></trkpt><trkpt lat="44.990162488321616" lon="7.363020786917903"><ele>421.75</ele><time>2026-03-28T09:03:39Z</time></trkpt><trkpt lat="44.990254332219855" lon="7.362900626024618"><ele>422.5</ele><time>2026-03-28T09:03:40Z</time></trkpt><trkpt lat="44.990340626117984" lon="7.362760279572093"><ele>423.25</ele><time>2026-03-28T09:03:41Z</time></trkpt><trkpt lat="44.99042732137775" lon="7.362610602301538"><ele>424.0</ele><time>2026-03-28T09:03:42Z</time></trkpt><trkpt lat="44.99049917778889" lon="7.362471135646608"><ele>424.0</ele><time>2026-03-28T09:03:42.999Z</time></trkpt><trkpt lat="44.990549000403554" lon="7.362343007926034"><ele>424.0</ele><time>2026-03-28T09:03:43.999Z</time></trkpt><trkpt lat="44.99058700562441" lon="7.362204106049534"><ele>424.0</ele><time>2026-03-28T09:03:44.999Z</time></trkpt><trkpt lat="44.990625213766236" lon="7.362051084718989"><ele>424.0</ele><time>2026-03-28T09:03:45.999Z</time></trkpt><trkpt lat="44.99065816156367" lon="7.36188782659511"><ele>424.0</ele><time>2026-03-28T09:03:46.999Z</time></trkpt><trkpt lat="44.9906832749066" lon="7.361705275422041"><ele>425.25</ele><time>2026-03-28T09:03:47.999Z</time></trkpt><trkpt lat="44.99070885652833" lon="7.36151670792037"><ele>426.5</ele><time>2026-03-28T09:03:48.999Z</time></trkpt><trkpt lat="44.99074625696149" lon="7.361333875730638"><ele>427.75</ele><time>2026-03-28T09:03:49.999Z</time></trkpt><trkpt lat="44.99079536865225" lon="7.361152304440723"><ele>429.0</ele><time>2026-03-28T09:03:50.999Z</time></trkpt><trkpt lat="44.99085229334074" lon="7.3609758579144335"><ele>430.25</ele><time>2026-03-28T09:03:51.999Z</time></trkpt><trkpt lat="44.990914494906534" lon="7.360815468987395"><ele>431.5</ele><time>2026-03-28T09:03:52.999Z</time></trkpt><trkpt lat="44.990996099890616" lon="7.360682805544769"><ele>432.75</ele><time>2026-03-28T09:03:53.999Z</time></trkpt><trkpt lat="44.99105678886936" lon="7.360529899090427"><ele>434.0</ele><time>2026-03-28T09:03:54.999Z</time></trkpt><trkpt lat="44.991128353281375" lon="7.360400811168005"><ele>435.99999999999994</ele><time>2026-03-28T09:03:55.999Z</time></trkpt><trkpt lat="44.99118710821943" lon="7.3602890597302215"><ele>438.0</ele><time>2026-03-28T09:03:56.999Z</time></trkpt><trkpt lat="44.991246048080676" lon="7.360214903361598"><ele>440.0</ele><time>2026-03-28T09:03:57.999Z</time></trkpt><trkpt lat="44.99130054601213" lon="7.360124581482976"><ele>442.0</ele><time>2026-03-28T09:03:59.999Z</time></trkpt><trkpt lat="44.99139582859697" lon="7.360224212211261"><ele>443.99999999999994</ele><time>2026-03-28T09:04:01.999Z</time></trkpt><trkpt lat="44.99145633703288" lon="7.3602515199536"><ele>446.0</ele><time>2026-03-28T09:04:02.999Z</time></trkpt><trkpt lat="44.99153216798943" lon="7.360247685958913"><ele>445.99999999999994</ele><time>2026-03-28T09:04:03.999Z</time></trkpt><trkpt lat="44.991604240359585" lon="7.360224473779981"><ele>446.0</ele><time>2026-03-28T09:04:04.999Z</time></trkpt><trkpt lat="44.991677349196316" lon="7.3601873561679305"><ele>446.0</ele><time>2026-03-28T09:04:05.999Z</time></trkpt><trkpt lat="44.991750011368985" lon="7.360136676207106"><ele>446.0</ele><time>2026-03-28T09:04:06.999Z</time></trkpt><trkpt lat="44.99181828001534" lon="7.3600827592536024"><ele>445.99999999999994</ele><time>2026-03-28T09:04:07.999Z</time></trkpt><trkpt lat="44.991884327223644" lon="7.360007042854499"><ele>446.0</ele><time>2026-03-28T09:04:08.999Z</time></trkpt><trkpt lat="44.9919954683747" lon="7.359953130441749"><ele>445.99999999999994</ele><time>2026-03-28T09:04:10.999Z</time></trkpt><trkpt lat="44.9920608684427" lon="7.359979922772199"><ele>446.0</ele><time>2026-03-28T09:04:11.999Z</time></trkpt><trkpt lat="44.992146358096754" lon="7.360020607996093"><ele>446.0</ele><time>2026-03-28T09:04:12.999Z</time></trkpt><trkpt lat="44.992235746437615" lon="7.360043055577526"><ele>446.0</ele><time>2026-03-28T09:04:13.999Z</time></trkpt><trkpt lat="44.992329569584534" lon="7.360043971063445"><ele>445.99999999999994</ele><time>2026-03-28T09:04:14.999Z</time></trkpt><trkpt lat="44.99240811045644" lon="7.360042460659215"><ele>446.0</ele><time>2026-03-28T09:04:15.999Z</time></trkpt><trkpt lat="44.99249790221211" lon="7.360032630199933"><ele>445.49999999999994</ele><time>2026-03-28T09:04:16.999Z</time></trkpt><trkpt lat="44.992590113746864" lon="7.360015082610562"><ele>445.0</ele><time>2026-03-28T09:04:17.999Z</time></trkpt><trkpt lat="44.99267847651005" lon="7.359993509195294"><ele>444.5</ele><time>2026-03-28T09:04:19Z</time></trkpt><trkpt lat="44.99275575134308" lon="7.359962111107477"><ele>444.0</ele><time>2026-03-28T09:04:20Z</time></trkpt><trkpt lat="44.99282825811901" lon="7.359903823424252"><ele>443.49999999999994</ele><time>2026-03-28T09:04:21Z</time></trkpt><trkpt lat="44.99289608437888" lon="7.359888480492004"><ele>443.0</ele><time>2026-03-28T09:04:22Z</time></trkpt><trkpt lat="44.99299586940888" lon="7.359809766420162"><ele>443.0</ele><time>2026-03-28T09:04:24Z</time></trkpt><trkpt lat="44.99320458762258" lon="7.360077356842761"><ele>443.0</ele><time>2026-03-28T09:04:26Z</time></trkpt><trkpt lat="44.993279499740304" lon="7.360099424939625"><ele>443.0</ele><time>2026-03-28T09:04:27Z</time></trkpt><trkpt lat="44.993356560159405" lon="7.360110985629206"><ele>443.0</ele><time>2026-03-28T09:04:28Z</time></trkpt><trkpt lat="44.9934422123936" lon="7.360102760138048"><ele>441.8333333333333</ele><time>2026-03-28T09:04:29Z</time></trkpt><trkpt lat="44.993519049176015" lon="7.360086336838565"><ele>440.66666666666663</ele><time>2026-03-28T09:04:30Z</time></trkpt><trkpt lat="44.99358463223313" lon="7.360049499835737"><ele>439.5</ele><time>2026-03-28T09:04:31Z</time></trkpt><trkpt lat="44.99365372462761" lon="7.359987848767712"><ele>438.33333333333337</ele><time>2026-03-28T09:04:32Z</time></trkpt><trkpt lat="44.99374935004747" lon="7.35990132502868"><ele>437.1666666666667</ele><time>2026-03-28T09:04:33Z</time></trkpt><trkpt lat="44.993821018065795" lon="7.359800847195683"><ele>436.0</ele><time>2026-03-28T09:04:34Z</time></trkpt><trkpt lat="44.99391076593484" lon="7.359705005911245"><ele>438.0</ele><time>2026-03-28T09:04:35Z</time></trkpt><trkpt lat="44.99400842023284" lon="7.359607504676733"><ele>440.0</ele><time>2026-03-28T09:04:36Z</time></trkpt><trkpt lat="44.99410505079299" lon="7.359512442119892"><ele>442.0</ele><time>2026-03-28T09:04:37Z</time></trkpt><trkpt lat="44.99417972571655" lon="7.359412282023002"><ele>444.0</ele><time>2026-03-28T09:04:38Z</time></trkpt><trkpt lat="44.99426705933002" lon="7.3592858818011635"><ele>444.4</ele><time>2026-03-28T09:04:39Z</time></trkpt><trkpt lat="44.994361576033945" lon="7.359177640067209"><ele>444.79999999999995</ele><time>2026-03-28T09:04:40Z</time></trkpt><trkpt lat="44.99441703315234" lon="7.3590833573911025"><ele>445.20000000000005</ele><time>2026-03-28T09:04:41Z</time></trkpt><trkpt lat="44.994522612178024" lon="7.35902822560456"><ele>445.6</ele><time>2026-03-28T09:04:43Z</time></trkpt><trkpt lat="44.99458805556157" lon="7.359019284874772"><ele>446.0</ele><time>2026-03-28T09:04:44Z</time></trkpt><trkpt lat="44.994678096192565" lon="7.358992014968021"><ele>446.0</ele><time>2026-03-28T09:04:45Z</time></trkpt><trkpt lat="44.99475204186245" lon="7.358983847464745"><ele>446.0</ele><time>2026-03-28T09:04:46Z</time></trkpt><trkpt lat="44.99481665180572" lon="7.358995916906016"><ele>446.0</ele><time>2026-03-28T09:04:47Z</time></trkpt><trkpt lat="44.99490328957038" lon="7.359099702886763"><ele>446.0</ele><time>2026-03-28T09:04:49Z</time></trkpt><trkpt lat="44.99486619932388" lon="7.359192486309165"><ele>446.0</ele><time>2026-03-28T09:04:50Z</time></trkpt><trkpt lat="44.994757542165324" lon="7.359284254433437"><ele>445.99999999999994</ele><time>2026-03-28T09:04:51Z</time></trkpt><trkpt lat="44.99474260936064" lon="7.3593738507008535"><ele>446.0</ele><time>2026-03-28T09:04:52Z</time></trkpt><trkpt lat="44.9947467542179" lon="7.3594740750475465"><ele>446.0</ele><time>2026-03-28T09:04:53Z</time></trkpt><trkpt lat="44.99479106580143" lon="7.359558287317782"><ele>446.0</ele><time>2026-03-28T09:04:54Z</time></trkpt><trkpt lat="44.994880232932914" lon="7.359598139478129"><ele>445.99999999999994</ele><time>2026-03-28T09:04:55Z</time></trkpt><trkpt lat="44.99485483039873" lon="7.359713027199582"><ele>446.0</ele><time>2026-03-28T09:04:59Z</time></trkpt><trkpt lat="44.99479044316264" lon="7.359851716582106"><ele>446.20000000000005</ele><time>2026-03-28T09:05:01Z</time></trkpt><trkpt lat="44.994745889971774" lon="7.359951548612652"><ele>446.40000000000003</ele><time>2026-03-28T09:05:02Z</time></trkpt><trkpt lat="44.994702062013175" lon="7.360074205138957"><ele>446.6</ele><time>2026-03-28T09:05:03Z</time></trkpt><trkpt lat="44.99467230465053" lon="7.360223136769191"><ele>446.8</ele><time>2026-03-28T09:05:04Z</time></trkpt><trkpt lat="44.99465058584777" lon="7.360393942398929"><ele>447.0</ele><time>2026-03-28T09:05:05Z</time></trkpt><trkpt lat="44.99463562249827" lon="7.360572141357225"><ele>447.40000000000003</ele><time>2026-03-28T09:05:06Z</time></trkpt><trkpt lat="44.99463251644203" lon="7.360719289152392"><ele>447.80000000000007</ele><time>2026-03-28T09:05:07Z</time></trkpt><trkpt lat="44.99462623102968" lon="7.360853014855282"><ele>448.2</ele><time>2026-03-28T09:05:08Z</time></trkpt><trkpt lat="44.9945947542492" lon="7.360979977614524"><ele>448.6</ele><time>2026-03-28T09:05:09Z</time></trkpt><trkpt lat="44.99455801720238" lon="7.3611056648017685"><ele>449.0</ele><time>2026-03-28T09:05:10Z</time></trkpt><trkpt lat="44.99452810609127" lon="7.361235043780701"><ele>448.0</ele><time>2026-03-28T09:05:11Z</time></trkpt><trkpt lat="44.994494795705144" lon="7.361365845286278"><ele>447.0</ele><time>2026-03-28T09:05:12Z</time></trkpt><trkpt lat="44.99444951360519" lon="7.36149632394093"><ele>446.0</ele><time>2026-03-28T09:05:13Z</time></trkpt><trkpt lat="44.99439806565333" lon="7.361625582832901"><ele>445.0</ele><time>2026-03-28T09:05:14Z</time></trkpt><trkpt lat="44.994338923954174" lon="7.361722164033505"><ele>444.0</ele><time>2026-03-28T09:05:15Z</time></trkpt><trkpt lat="44.99428865512342" lon="7.36183518393019"><ele>444.0</ele><time>2026-03-28T09:05:16Z</time></trkpt><trkpt lat="44.994244550083785" lon="7.361950321874412"><ele>444.0</ele><time>2026-03-28T09:05:17Z</time></trkpt><trkpt lat="44.99421809114004" lon="7.362070735629918"><ele>444.0</ele><time>2026-03-28T09:05:18Z</time></trkpt><trkpt lat="44.994206982336514" lon="7.362180362860703"><ele>444.0</ele><time>2026-03-28T09:05:19Z</time></trkpt><trkpt lat="44.994209525485175" lon="7.362277093095446"><ele>444.0</ele><time>2026-03-28T09:05:20Z</time></trkpt><trkpt lat="44.99421085207814" lon="7.362400814308104"><ele>444.0</ele><time>2026-03-28T09:05:22Z</time></trkpt><trkpt lat="44.994359528432305" lon="7.362408267337732"><ele>444.0</ele><time>2026-03-28T09:05:25Z</time></trkpt><trkpt lat="44.994455536166434" lon="7.362319853920704"><ele>444.0</ele><time>2026-03-28T09:05:27Z</time></trkpt><trkpt lat="44.99452343861032" lon="7.362293839572169"><ele>444.0</ele><time>2026-03-28T09:05:28Z</time></trkpt><trkpt lat="44.99458479102694" lon="7.362239924605357"><ele>444.0</ele><time>2026-03-28T09:05:28.999Z</time></trkpt><trkpt lat="44.99464854877996" lon="7.362224352970387"><ele>444.0</ele><time>2026-03-28T09:05:29.999Z</time></trkpt><trkpt lat="44.994783725261044" lon="7.362193289373451"><ele>444.0</ele><time>2026-03-28T09:05:31.999Z</time></trkpt><trkpt lat="44.994862384856454" lon="7.36216180399285"><ele>444.0</ele><time>2026-03-28T09:05:32.999Z</time></trkpt><trkpt lat="44.99494236160942" lon="7.362116205369701"><ele>444.0</ele><time>2026-03-28T09:05:33.999Z</time></trkpt><trkpt lat="44.99501437210274" lon="7.362039761263703"><ele>444.0</ele><time>2026-03-28T09:05:34.999Z</time></trkpt><trkpt lat="44.99508346140292" lon="7.361940615190249"><ele>444.0</ele><time>2026-03-28T09:05:35.999Z</time></trkpt><trkpt lat="44.995165912924584" lon="7.361844287739875"><ele>443.79999999999995</ele><time>2026-03-28T09:05:36.999Z</time></trkpt><trkpt lat="44.99521864670157" lon="7.3617130672403155"><ele>443.59999999999997</ele><time>2026-03-28T09:05:37.999Z</time></trkpt><trkpt lat="44.99528168257657" lon="7.361612039521281"><ele>443.4</ele><time>2026-03-28T09:05:38.999Z</time></trkpt><trkpt lat="44.9953511126445" lon="7.3615381751832345"><ele>443.2</ele><time>2026-03-28T09:05:39.999Z</time></trkpt><trkpt lat="44.99543858433463" lon="7.3614886050386055"><ele>443.0</ele><time>2026-03-28T09:05:40.999Z</time></trkpt><trkpt lat="44.99554342066617" lon="7.361462205667773"><ele>443.0</ele><time>2026-03-28T09:05:41.999Z</time></trkpt><trkpt lat="44.99565631038069" lon="7.361473816004"><ele>443.0</ele><time>2026-03-28T09:05:42.999Z</time></trkpt><trkpt lat="44.99577745087322" lon="7.361467162295116"><ele>443.0</ele><time>2026-03-28T09:05:43.999Z</time></trkpt><trkpt lat="44.995900960128964" lon="7.361460177402747"><ele>443.0</ele><time>2026-03-28T09:05:44.999Z</time></trkpt><trkpt lat="44.996019406751856" lon="7.361448759086908"><ele>444.0</ele><time>2026-03-28T09:05:45.999Z</time></trkpt><trkpt lat="44.996133447494714" lon="7.361420530782209"><ele>445.0</ele><time>2026-03-28T09:05:46.999Z</time></trkpt><trkpt lat="44.99623971688629" lon="7.3613203064974995"><ele>446.0</ele><time>2026-03-28T09:05:47.999Z</time></trkpt><trkpt lat="44.99635159110242" lon="7.361242912810234"><ele>447.0</ele><time>2026-03-28T09:05:48.999Z</time></trkpt><trkpt lat="44.99644739098635" lon="7.361122289347357"><ele>448.6</ele><time>2026-03-28T09:05:49.999Z</time></trkpt><trkpt lat="44.99651321927822" lon="7.360991770412849"><ele>450.20000000000005</ele><time>2026-03-28T09:05:50.999Z</time></trkpt><trkpt lat="44.99655813945199" lon="7.360849187614998"><ele>451.8</ele><time>2026-03-28T09:05:51.999Z</time></trkpt><trkpt lat="44.99660502787781" lon="7.36071185974425"><ele>453.4</ele><time>2026-03-28T09:05:52.999Z</time></trkpt><trkpt lat="44.996666875470595" lon="7.360598174922515"><ele>455.0</ele><time>2026-03-28T09:05:53.999Z</time></trkpt><trkpt lat="44.996738048077646" lon="7.36050490479728"><ele>458.0</ele><time>2026-03-28T09:05:54.999Z</time></trkpt><trkpt lat="44.996816846678826" lon="7.36043499337541"><ele>461.0</ele><time>2026-03-28T09:05:55.999Z</time></trkpt><trkpt lat="44.99690665745647" lon="7.360434004771653"><ele>464.0</ele><time>2026-03-28T09:05:56.999Z</time></trkpt><trkpt lat="44.99699017237996" lon="7.360438820314506"><ele>467.0</ele><time>2026-03-28T09:05:57.999Z</time></trkpt><trkpt lat="44.99709155356118" lon="7.3604519413826015"><ele>470.0</ele><time>2026-03-28T09:05:58.999Z</time></trkpt><trkpt lat="44.997188783662416" lon="7.360482120126763"><ele>470.0</ele><time>2026-03-28T09:05:59.999Z</time></trkpt><trkpt lat="44.99729140107651" lon="7.360514034947606"><ele>470.0</ele><time>2026-03-28T09:06:00.999Z</time></trkpt><trkpt lat="44.997410278322754" lon="7.360543444706228"><ele>470.0</ele><time>2026-03-28T09:06:01.999Z</time></trkpt><trkpt lat="44.997522489576156" lon="7.36057089056294"><ele>470.0</ele><time>2026-03-28T09:06:02.999Z</time></trkpt><trkpt lat="44.99763726535615" lon="7.360595858078736"><ele>469.25</ele><time>2026-03-28T09:06:03.999Z</time></trkpt><trkpt lat="44.99775916409612" lon="7.36061885848961"><ele>468.5</ele><time>2026-03-28T09:06:04.999Z</time></trkpt><trkpt lat="44.997871056891995" lon="7.360614787096324"><ele>467.75</ele><time>2026-03-28T09:06:05.999Z</time></trkpt><trkpt lat="44.99799011617347" lon="7.360614393981312"><ele>467.0</ele><time>2026-03-28T09:06:06.999Z</time></trkpt><trkpt lat="44.998114150632674" lon="7.360603022659244"><ele>467.0</ele><time>2026-03-28T09:06:07.999Z</time></trkpt><trkpt lat="44.99823929903463" lon="7.360588938961588"><ele>467.00000000000006</ele><time>2026-03-28T09:06:08.999Z</time></trkpt><trkpt lat="44.99835716611321" lon="7.360569753116675"><ele>467.00000000000006</ele><time>2026-03-28T09:06:09.999Z</time></trkpt><trkpt lat="44.99845015926854" lon="7.360584260072008"><ele>467.0</ele><time>2026-03-28T09:06:10.999Z</time></trkpt><trkpt lat="44.998525565318175" lon="7.360588714728299"><ele>467.0</ele><time>2026-03-28T09:06:11.999Z</time></trkpt><trkpt lat="44.99859492477603" lon="7.360600017573283"><ele>468.8333333333333</ele><time>2026-03-28T09:06:12.999Z</time></trkpt><trkpt lat="44.99871577618222" lon="7.360665697987093"><ele>470.66666666666663</ele><time>2026-03-28T09:06:14.999Z</time></trkpt><trkpt lat="44.99877467677752" lon="7.360715316323884"><ele>472.5</ele><time>2026-03-28T09:06:15.999Z</time></trkpt><trkpt lat="44.99883601474796" lon="7.360760490072951"><ele>474.33333333333337</ele><time>2026-03-28T09:06:16.999Z</time></trkpt><trkpt lat="44.99891958329539" lon="7.360786639861086"><ele>476.1666666666667</ele><time>2026-03-28T09:06:17.999Z</time></trkpt><trkpt lat="44.999004961556324" lon="7.360816531254099"><ele>478.0</ele><time>2026-03-28T09:06:18.999Z</time></trkpt><trkpt lat="44.99908372539294" lon="7.360825408843887"><ele>478.00000000000006</ele><time>2026-03-28T09:06:19.999Z</time></trkpt><trkpt lat="44.99915824149797" lon="7.3608305263355085"><ele>478.0</ele><time>2026-03-28T09:06:20.999Z</time></trkpt><trkpt lat="44.99923130070826" lon="7.360859698775718"><ele>478.0</ele><time>2026-03-28T09:06:21.999Z</time></trkpt><trkpt lat="44.9993094014391" lon="7.360822468969626"><ele>478.0</ele><time>2026-03-28T09:06:22.999Z</time></trkpt><trkpt lat="44.9993883207597" lon="7.360794412991689"><ele>478.00000000000006</ele><time>2026-03-28T09:06:23.999Z</time></trkpt><trkpt lat="44.99946440099906" lon="7.3607577571866845"><ele>478.0</ele><time>2026-03-28T09:06:25Z</time></trkpt><trkpt lat="44.99953103474995" lon="7.360717771699746"><ele>479.1666666666667</ele><time>2026-03-28T09:06:26Z</time></trkpt><trkpt lat="44.999590518367576" lon="7.360680730814328"><ele>480.33333333333337</ele><time>2026-03-28T09:06:27Z</time></trkpt><trkpt lat="44.999649642195536" lon="7.360633478894527"><ele>481.5</ele><time>2026-03-28T09:06:28Z</time></trkpt><trkpt lat="44.999709053484274" lon="7.360582824668579"><ele>482.66666666666663</ele><time>2026-03-28T09:06:29Z</time></trkpt><trkpt lat="44.9997756965451" lon="7.360540005118562"><ele>483.8333333333333</ele><time>2026-03-28T09:06:30Z</time></trkpt><trkpt lat="44.999843473316" lon="7.360507194259054"><ele>485.0</ele><time>2026-03-28T09:06:31Z</time></trkpt><trkpt lat="44.999966552464116" lon="7.360451749697563"><ele>485.8333333333333</ele><time>2026-03-28T09:06:33Z</time></trkpt><trkpt lat="45.000070078939665" lon="7.360347859387697"><ele>486.66666666666663</ele><time>2026-03-28T09:06:35Z</time></trkpt><trkpt lat="45.00013631139551" lon="7.360315693547703"><ele>487.5</ele><time>2026-03-28T09:06:36Z</time></trkpt><trkpt lat="45.000200888233614" lon="7.360262066507658"><ele>488.33333333333337</ele><time>2026-03-28T09:06:37Z</time></trkpt><trkpt lat="45.000268750443205" lon="7.360204319916851"><ele>489.1666666666667</ele><time>2026-03-28T09:06:38Z</time></trkpt><trkpt lat="45.00033246695801" lon="7.3601474079633755"><ele>490.0</ele><time>2026-03-28T09:06:39Z</time></trkpt><trkpt lat="45.0003907156959" lon="7.360089122202674"><ele>490.00000000000006</ele><time>2026-03-28T09:06:40Z</time></trkpt><trkpt lat="45.00044435783075" lon="7.360026534528506"><ele>490.0</ele><time>2026-03-28T09:06:41Z</time></trkpt><trkpt lat="45.00048739873811" lon="7.359933939170085"><ele>490.0</ele><time>2026-03-28T09:06:42Z</time></trkpt><trkpt lat="45.000499480187" lon="7.3598043368880575"><ele>490.0</ele><time>2026-03-28T09:06:43Z</time></trkpt><trkpt lat="45.000513568357725" lon="7.359714987308678"><ele>490.00000000000006</ele><time>2026-03-28T09:06:44Z</time></trkpt><trkpt lat="45.000498791287136" lon="7.359621698051284"><ele>490.0</ele><time>2026-03-28T09:06:45Z</time></trkpt><trkpt lat="45.00043085779686" lon="7.359461758397974"><ele>492.8</ele><time>2026-03-28T09:06:47Z</time></trkpt><trkpt lat="45.000413274329524" lon="7.359356256682431"><ele>495.6</ele><time>2026-03-28T09:06:48Z</time></trkpt><trkpt lat="45.000589842780336" lon="7.359198813744386"><ele>498.4</ele><time>2026-03-28T09:06:49Z</time></trkpt><trkpt lat="45.00060242222061" lon="7.359102286064504"><ele>501.2</ele><time>2026-03-28T09:06:50Z</time></trkpt><trkpt lat="45.000602960635156" lon="7.359009633102011"><ele>504.0</ele><time>2026-03-28T09:06:51Z</time></trkpt><trkpt lat="45.00057321367015" lon="7.358865371811953"><ele>505.3333333333333</ele><time>2026-03-28T09:06:53Z</time></trkpt><trkpt lat="45.00059908129639" lon="7.358700443082463"><ele>506.66666666666663</ele><time>2026-03-28T09:06:55Z</time></trkpt><trkpt lat="45.00061816129296" lon="7.358594452444767"><ele>508.0</ele><time>2026-03-28T09:06:56Z</time></trkpt><trkpt lat="45.000631476690465" lon="7.358505281961956"><ele>509.3333333333333</ele><time>2026-03-28T09:06:57Z</time></trkpt><trkpt lat="45.00067358883233" lon="7.358426144014733"><ele>510.66666666666663</ele><time>2026-03-28T09:06:59Z</time></trkpt><trkpt lat="45.00077420590168" lon="7.358428467747164"><ele>512.0</ele><time>2026-03-28T09:07:01Z</time></trkpt><trkpt lat="45.00085299510455" lon="7.358475433677141"><ele>511.99999999999994</ele><time>2026-03-28T09:07:05Z</time></trkpt><trkpt lat="45.0009140939028" lon="7.358521859796799"><ele>512.0</ele><time>2026-03-28T09:07:06Z</time></trkpt><trkpt lat="45.00101346104695" lon="7.358599466101764"><ele>512.0</ele><time>2026-03-28T09:07:08Z</time></trkpt><trkpt lat="45.00108507748655" lon="7.358629325787308"><ele>512.0</ele><time>2026-03-28T09:07:09Z</time></trkpt><trkpt lat="45.00114837727388" lon="7.358625664850038"><ele>511.99999999999994</ele><time>2026-03-28T09:07:10Z</time></trkpt><trkpt lat="45.001227144046325" lon="7.35861108350774"><ele>512.0</ele><time>2026-03-28T09:07:12Z</time></trkpt><trkpt lat="45.00132065338776" lon="7.358542936734942"><ele>511.99999999999994</ele><time>2026-03-28T09:07:14Z</time></trkpt><trkpt lat="45.001403270686374" lon="7.358555958643357"><ele>512.0</ele><time>2026-03-28T09:07:17Z</time></trkpt><trkpt lat="45.00147202451361" lon="7.358524889834275"><ele>512.0</ele><time>2026-03-28T09:07:18Z</time></trkpt><trkpt lat="45.00154207861038" lon="7.358511165244117"><ele>512.0</ele><time>2026-03-28T09:07:20Z</time></trkpt><trkpt lat="45.001586032086514" lon="7.358443966146533"><ele>511.99999999999994</ele><time>2026-03-28T09:07:22Z</time></trkpt><trkpt lat="45.00168510068632" lon="7.358355658198338"><ele>512.0</ele><time>2026-03-28T09:07:24Z</time></trkpt><trkpt lat="45.00175490817646" lon="7.358306962998096"><ele>514.0</ele><time>2026-03-28T09:07:27Z</time></trkpt><trkpt lat="45.001802653497826" lon="7.358243969526717"><ele>516.0</ele><time>2026-03-28T09:07:29Z</time></trkpt><trkpt lat="45.00186096246774" lon="7.3581923234192175"><ele>518.0</ele><time>2026-03-28T09:07:30Z</time></trkpt><trkpt lat="45.0019520118129" lon="7.358121306607854"><ele>520.0</ele><time>2026-03-28T09:07:32Z</time></trkpt><trkpt lat="45.00200358278673" lon="7.3580413074543065"><ele>522.0</ele><time>2026-03-28T09:07:35Z</time></trkpt><trkpt lat="45.00207020940944" lon="7.357990377740009"><ele>524.0</ele><time>2026-03-28T09:07:37Z</time></trkpt><trkpt lat="45.00213112652616" lon="7.35790105964926"><ele>526.1666666666666</ele><time>2026-03-28T09:07:40Z</time></trkpt><trkpt lat="45.00218755194797" lon="7.3578610806843505"><ele>528.3333333333333</ele><time>2026-03-28T09:07:42Z</time></trkpt><trkpt lat="45.0022348981124" lon="7.35780193261904"><ele>530.5</ele><time>2026-03-28T09:07:44Z</time></trkpt><trkpt lat="45.002296625455955" lon="7.357715806115788"><ele>532.6666666666666</ele><time>2026-03-28T09:07:47Z</time></trkpt><trkpt lat="45.002355208411295" lon="7.357593254770344"><ele>534.8333333333334</ele><time>2026-03-28T09:07:50Z</time></trkpt><trkpt lat="45.00243706126208" lon="7.357485404964977"><ele>537.0</ele><time>2026-03-28T09:07:52Z</time></trkpt><trkpt lat="45.002492402737545" lon="7.357436892810722"><ele>538.2</ele><time>2026-03-28T09:07:53Z</time></trkpt><trkpt lat="45.00256777528476" lon="7.357345938484232"><ele>539.4000000000001</ele><time>2026-03-28T09:07:55Z</time></trkpt><trkpt lat="45.00269442194639" lon="7.35726696600903"><ele>540.5999999999999</ele><time>2026-03-28T09:07:57Z</time></trkpt><trkpt lat="45.00279584726444" lon="7.357256151053251"><ele>541.8</ele><time>2026-03-28T09:07:58Z</time></trkpt><trkpt lat="45.0028750178818" lon="7.357226191239592"><ele>543.0</ele><time>2026-03-28T09:07:59Z</time></trkpt><trkpt lat="45.002969713175844" lon="7.357187755407219"><ele>546.8</ele><time>2026-03-28T09:08:00Z</time></trkpt><trkpt lat="45.003091292222734" lon="7.35708986870596"><ele>550.5999999999999</ele><time>2026-03-28T09:08:02Z</time></trkpt><trkpt lat="45.00316509031576" lon="7.35705495844961"><ele>554.4000000000001</ele><time>2026-03-28T09:08:03Z</time></trkpt><trkpt lat="45.00326418532969" lon="7.3569506582812645"><ele>558.2</ele><time>2026-03-28T09:08:05Z</time></trkpt><trkpt lat="45.00332042170599" lon="7.356907680659205"><ele>562.0</ele><time>2026-03-28T09:08:06Z</time></trkpt><trkpt lat="45.00342076989528" lon="7.356822424307422"><ele>563.0</ele><time>2026-03-28T09:08:08Z</time></trkpt><trkpt lat="45.0034948213211" lon="7.356773821731411"><ele>564.0</ele><time>2026-03-28T09:08:09Z</time></trkpt><trkpt lat="45.00358941021566" lon="7.356694670961373"><ele>565.0</ele><time>2026-03-28T09:08:11Z</time></trkpt><trkpt lat="45.003659963461864" lon="7.356599525996582"><ele>566.0</ele><time>2026-03-28T09:08:13Z</time></trkpt><trkpt lat="45.003744576907266" lon="7.356473036467849"><ele>567.0</ele><time>2026-03-28T09:08:15Z</time></trkpt><trkpt lat="45.00378093693898" lon="7.356394029554225"><ele>569.6</ele><time>2026-03-28T09:08:16Z</time></trkpt><trkpt lat="45.003833867317724" lon="7.356260747633443"><ele>572.2</ele><time>2026-03-28T09:08:18Z</time></trkpt><trkpt lat="45.00387850211664" lon="7.356125937657294"><ele>574.8</ele><time>2026-03-28T09:08:20Z</time></trkpt><trkpt lat="45.00379924716224" lon="7.3559927579661535"><ele>577.4</ele><time>2026-03-28T09:08:22Z</time></trkpt><trkpt lat="45.003733464254516" lon="7.355993711079279"><ele>580.0</ele><time>2026-03-28T09:08:23Z</time></trkpt><trkpt lat="45.00366048825015" lon="7.356038668984751"><ele>580.0</ele><time>2026-03-28T09:08:24Z</time></trkpt><trkpt lat="45.003605762972505" lon="7.35608493882523"><ele>580.0</ele><time>2026-03-28T09:08:25Z</time></trkpt><trkpt lat="45.003537563648926" lon="7.356095537482298"><ele>580.0</ele><time>2026-03-28T09:08:27Z</time></trkpt><trkpt lat="45.00344159841814" lon="7.356119198583324"><ele>580.0</ele><time>2026-03-28T09:08:29Z</time></trkpt><trkpt lat="45.00334698632307" lon="7.356150590495701"><ele>580.0</ele><time>2026-03-28T09:08:31Z</time></trkpt><trkpt lat="45.00328212795969" lon="7.356115433310972"><ele>580.0</ele><time>2026-03-28T09:08:33Z</time></trkpt><trkpt lat="45.00329477749882" lon="7.355972892959478"><ele>580.0</ele><time>2026-03-28T09:08:36Z</time></trkpt><trkpt lat="45.00334580475203" lon="7.355915210731064"><ele>580.0</ele><time>2026-03-28T09:08:37Z</time></trkpt><trkpt lat="45.003411109542036" lon="7.355782206765399"><ele>580.0</ele><time>2026-03-28T09:08:39Z</time></trkpt><trkpt lat="45.00344332936751" lon="7.355702998985255"><ele>580.0</ele><time>2026-03-28T09:08:41Z</time></trkpt><trkpt lat="45.00350718062561" lon="7.355575632550426"><ele>580.0</ele><time>2026-03-28T09:08:43Z</time></trkpt><trkpt lat="45.003537387610656" lon="7.35549701037042"><ele>580.0</ele><time>2026-03-28T09:08:44Z</time></trkpt><trkpt lat="45.0035964822202" lon="7.355345121248075"><ele>580.3333333333334</ele><time>2026-03-28T09:08:46Z</time></trkpt><trkpt lat="45.00366291018426" lon="7.355209835854109"><ele>580.6666666666667</ele><time>2026-03-28T09:08:48Z</time></trkpt><trkpt lat="45.00369895458045" lon="7.355136482123149"><ele>581.0</ele><time>2026-03-28T09:08:49Z</time></trkpt><trkpt lat="45.0037657219851" lon="7.355016149568386"><ele>581.3333333333334</ele><time>2026-03-28T09:08:51Z</time></trkpt><trkpt lat="45.003833092623495" lon="7.354934950720363"><ele>581.6666666666666</ele><time>2026-03-28T09:08:53Z</time></trkpt><trkpt lat="45.00387890246127" lon="7.354856228410742"><ele>582.0</ele><time>2026-03-28T09:08:55Z</time></trkpt><trkpt lat="45.00391523178292" lon="7.354775268422649"><ele>582.0</ele><time>2026-03-28T09:08:58Z</time></trkpt><trkpt lat="45.004123989901046" lon="7.354667663091673"><ele>582.0</ele><time>2026-03-28T09:09:00Z</time></trkpt><trkpt lat="45.004206941797314" lon="7.354660832647263"><ele>582.0</ele><time>2026-03-28T09:09:04Z</time></trkpt><trkpt lat="45.00426764782255" lon="7.354633972969835"><ele>582.0</ele><time>2026-03-28T09:09:07Z</time></trkpt><trkpt lat="45.004356497429036" lon="7.354616823308167"><ele>584.4</ele><time>2026-03-28T09:09:09Z</time></trkpt><trkpt lat="45.00447260736723" lon="7.3545872550851445"><ele>586.8000000000001</ele><time>2026-03-28T09:09:11Z</time></trkpt><trkpt lat="45.00453699501198" lon="7.35459078965547"><ele>589.2</ele><time>2026-03-28T09:09:12Z</time></trkpt><trkpt lat="45.0046399500761" lon="7.354667948656384"><ele>591.6</ele><time>2026-03-28T09:09:14Z</time></trkpt><trkpt lat="45.00475170347617" lon="7.354722308999602"><ele>594.0</ele><time>2026-03-28T09:09:16Z</time></trkpt><trkpt lat="45.004849339467626" lon="7.354718987500837"><ele>594.0</ele><time>2026-03-28T09:09:18Z</time></trkpt><trkpt lat="45.00492280496742" lon="7.354742540223168"><ele>594.0</ele><time>2026-03-28T09:09:19Z</time></trkpt><trkpt lat="45.00499561864075" lon="7.354738026505435"><ele>594.0</ele><time>2026-03-28T09:09:20Z</time></trkpt><trkpt lat="45.00505863293013" lon="7.354719465251001"><ele>594.0</ele><time>2026-03-28T09:09:21Z</time></trkpt><trkpt lat="45.005119895023135" lon="7.354758408100223"><ele>594.0</ele><time>2026-03-28T09:09:22Z</time></trkpt><trkpt lat="45.005177870636295" lon="7.354839921206862"><ele>594.0</ele><time>2026-03-28T09:09:23Z</time></trkpt><trkpt lat="45.00520003333749" lon="7.3549625161680146"><ele>596.1666666666666</ele><time>2026-03-28T09:09:24Z</time></trkpt><trkpt lat="45.005205014414855" lon="7.355071397680029"><ele>598.3333333333334</ele><time>2026-03-28T09:09:25Z</time></trkpt><trkpt lat="45.00519583186039" lon="7.35517898684447"><ele>600.5</ele><time>2026-03-28T09:09:26Z</time></trkpt><trkpt lat="45.005182691604574" lon="7.3552821890926054"><ele>602.6666666666667</ele><time>2026-03-28T09:09:27Z</time></trkpt><trkpt lat="45.0051776667529" lon="7.355381209420153"><ele>604.8333333333334</ele><time>2026-03-28T09:09:28Z</time></trkpt><trkpt lat="45.00521052536691" lon="7.355479395048019"><ele>607.0</ele><time>2026-03-28T09:09:29Z</time></trkpt><trkpt lat="45.005220885056474" lon="7.355599761763756"><ele>607.0</ele><time>2026-03-28T09:09:30Z</time></trkpt><trkpt lat="45.00526119486427" lon="7.355713154683406"><ele>607.0</ele><time>2026-03-28T09:09:31Z</time></trkpt><trkpt lat="45.00529156669282" lon="7.355825718588801"><ele>607.0</ele><time>2026-03-28T09:09:32Z</time></trkpt><trkpt lat="45.00530580852883" lon="7.355977198339944"><ele>607.0</ele><time>2026-03-28T09:09:33Z</time></trkpt><trkpt lat="45.00531317225397" lon="7.356131094482351"><ele>607.0</ele><time>2026-03-28T09:09:34Z</time></trkpt><trkpt lat="45.005319955438004" lon="7.35629359214882"><ele>606.8000000000001</ele><time>2026-03-28T09:09:35Z</time></trkpt><trkpt lat="45.00533718020022" lon="7.356452627271186"><ele>606.6</ele><time>2026-03-28T09:09:36Z</time></trkpt><trkpt lat="45.00534703982149" lon="7.356599560529858"><ele>606.4000000000001</ele><time>2026-03-28T09:09:37Z</time></trkpt><trkpt lat="45.00535238641441" lon="7.356746995823011"><ele>606.2</ele><time>2026-03-28T09:09:38Z</time></trkpt><trkpt lat="45.00535547389033" lon="7.356903357360351"><ele>606.0</ele><time>2026-03-28T09:09:39Z</time></trkpt><trkpt lat="45.00535966765869" lon="7.357075138674128"><ele>606.25</ele><time>2026-03-28T09:09:40Z</time></trkpt><trkpt lat="45.00536310416113" lon="7.357254549143581"><ele>606.5</ele><time>2026-03-28T09:09:41Z</time></trkpt><trkpt lat="45.005367382934196" lon="7.357417897485334"><ele>606.75</ele><time>2026-03-28T09:09:42Z</time></trkpt><trkpt lat="45.00537843684431" lon="7.357569121080805"><ele>607.0</ele><time>2026-03-28T09:09:43Z</time></trkpt><trkpt lat="45.00539407045803" lon="7.357715813879577"><ele>607.0</ele><time>2026-03-28T09:09:44Z</time></trkpt><trkpt lat="45.00539598614991" lon="7.357865373870882"><ele>607.0</ele><time>2026-03-28T09:09:45Z</time></trkpt><trkpt lat="45.00538988085242" lon="7.358026556060238"><ele>607.0</ele><time>2026-03-28T09:09:46Z</time></trkpt><trkpt lat="45.00538272335526" lon="7.3581830106203165"><ele>607.0</ele><time>2026-03-28T09:09:47Z</time></trkpt><trkpt lat="45.005427400908985" lon="7.358286056268917"><ele>607.0</ele><time>2026-03-28T09:09:48Z</time></trkpt><trkpt lat="45.00546418106049" lon="7.358393934492102"><ele>607.2</ele><time>2026-03-28T09:09:49Z</time></trkpt><trkpt lat="45.005508758797234" lon="7.358511862322317"><ele>607.4000000000001</ele><time>2026-03-28T09:09:50Z</time></trkpt><trkpt lat="45.005558590562124" lon="7.358655861142691"><ele>607.5999999999999</ele><time>2026-03-28T09:09:51Z</time></trkpt><trkpt lat="45.00562262713434" lon="7.3587980968178535"><ele>607.8</ele><time>2026-03-28T09:09:52Z</time></trkpt><trkpt lat="45.00567544788245" lon="7.358922446850509"><ele>608.0</ele><time>2026-03-28T09:09:53Z</time></trkpt><trkpt lat="45.005730005437215" lon="7.3589920675873755"><ele>606.6</ele><time>2026-03-28T09:09:54Z</time></trkpt><trkpt lat="45.00578813334451" lon="7.359073926349216"><ele>605.1999999999999</ele><time>2026-03-28T09:09:58Z</time></trkpt><trkpt lat="45.00587395730778" lon="7.359228983537632"><ele>603.8</ele><time>2026-03-28T09:10:00Z</time></trkpt><trkpt lat="45.00595543152877" lon="7.359273856493762"><ele>602.4</ele><time>2026-03-28T09:10:01Z</time></trkpt><trkpt lat="45.00605538185367" lon="7.359300483666379"><ele>601.0</ele><time>2026-03-28T09:10:02Z</time></trkpt><trkpt lat="45.006152923011676" lon="7.359307149360284"><ele>604.6666666666667</ele><time>2026-03-28T09:10:03Z</time></trkpt><trkpt lat="45.00623545158321" lon="7.359299538552174"><ele>608.3333333333334</ele><time>2026-03-28T09:10:04Z</time></trkpt><trkpt lat="45.00631787456819" lon="7.359275156810226"><ele>612.0</ele><time>2026-03-28T09:10:05Z</time></trkpt><trkpt lat="45.006398114202504" lon="7.359234502050906"><ele>615.6666666666666</ele><time>2026-03-28T09:10:06Z</time></trkpt><trkpt lat="45.00646475999478" lon="7.3591902425875775"><ele>619.3333333333333</ele><time>2026-03-28T09:10:07Z</time></trkpt><trkpt lat="45.00652256033798" lon="7.3591512345041705"><ele>623.0</ele><time>2026-03-28T09:10:08Z</time></trkpt><trkpt lat="45.006596567557786" lon="7.3591128809168005"><ele>623.5</ele><time>2026-03-28T09:10:09Z</time></trkpt><trkpt lat="45.00666243008837" lon="7.3590959256052395"><ele>624.0</ele><time>2026-03-28T09:10:11Z</time></trkpt><trkpt lat="45.00675575840587" lon="7.359126013712937"><ele>624.5</ele><time>2026-03-28T09:10:13Z</time></trkpt><trkpt lat="45.00684796616444" lon="7.359058685272175"><ele>625.0</ele><time>2026-03-28T09:10:15Z</time></trkpt><trkpt lat="45.006923355995255" lon="7.358998059545457"><ele>625.5</ele><time>2026-03-28T09:10:17Z</time></trkpt><trkpt lat="45.006985543969215" lon="7.358966247516853"><ele>626.0</ele><time>2026-03-28T09:10:19.999Z</time></trkpt><trkpt lat="45.00703597267494" lon="7.358858170315416"><ele>628.4</ele><time>2026-03-28T09:12:28.999Z</time></trkpt><trkpt lat="45.00710903248124" lon="7.358772660212189"><ele>630.8</ele><time>2026-03-28T09:12:30.999Z</time></trkpt><trkpt lat="45.00718583382507" lon="7.358646480394852"><ele>633.1999999999999</ele><time>2026-03-28T09:12:32.999Z</time></trkpt><trkpt lat="45.0072753674719" lon="7.358539885874092"><ele>635.6</ele><time>2026-03-28T09:12:34.999Z</time></trkpt><trkpt lat="45.00731718044845" lon="7.358469767282373"><ele>638.0</ele><time>2026-03-28T09:12:35.999Z</time></trkpt><trkpt lat="45.00736307357729" lon="7.358391689561014"><ele>638.0</ele><time>2026-03-28T09:12:36.999Z</time></trkpt><trkpt lat="45.00740186861948" lon="7.358287614576216"><ele>638.0</ele><time>2026-03-28T09:12:37.999Z</time></trkpt><trkpt lat="45.007455659305606" lon="7.358195284195948"><ele>638.0</ele><time>2026-03-28T09:12:38.999Z</time></trkpt><trkpt lat="45.007504826027684" lon="7.3580998219384055"><ele>638.0</ele><time>2026-03-28T09:12:39.999Z</time></trkpt><trkpt lat="45.00755134507341" lon="7.358002826319963"><ele>638.0</ele><time>2026-03-28T09:12:40.999Z</time></trkpt><trkpt lat="45.00758932214586" lon="7.357896563202646"><ele>638.0</ele><time>2026-03-28T09:12:42Z</time></trkpt><trkpt lat="45.00761768340891" lon="7.357786414411742"><ele>635.5</ele><time>2026-03-28T09:12:43Z</time></trkpt><trkpt lat="45.00763908183675" lon="7.357669144770614"><ele>633.0</ele><time>2026-03-28T09:12:44Z</time></trkpt><trkpt lat="45.0076577062203" lon="7.357546517697505"><ele>630.5</ele><time>2026-03-28T09:12:45Z</time></trkpt><trkpt lat="45.00767947861568" lon="7.357424474105631"><ele>628.0</ele><time>2026-03-28T09:12:46Z</time></trkpt><trkpt lat="45.00769551394609" lon="7.3573006146735525"><ele>625.5</ele><time>2026-03-28T09:12:47Z</time></trkpt><trkpt lat="45.0077286826923" lon="7.3571901910881845"><ele>623.0</ele><time>2026-03-28T09:12:48Z</time></trkpt><trkpt lat="45.0077518153273" lon="7.3570858723559365"><ele>623.0</ele><time>2026-03-28T09:12:49Z</time></trkpt><trkpt lat="45.007785517246504" lon="7.356993082936464"><ele>623.0</ele><time>2026-03-28T09:12:50Z</time></trkpt><trkpt lat="45.007828128665" lon="7.356915047566615"><ele>623.0</ele><time>2026-03-28T09:12:51Z</time></trkpt><trkpt lat="45.00792964658648" lon="7.356819281476129"><ele>623.0</ele><time>2026-03-28T09:12:53Z</time></trkpt><trkpt lat="45.00803497116149" lon="7.356847871438398"><ele>623.0</ele><time>2026-03-28T09:12:55Z</time></trkpt><trkpt lat="45.00815343490326" lon="7.356834500469749"><ele>623.0</ele><time>2026-03-28T09:12:56Z</time></trkpt><trkpt lat="45.008246097091344" lon="7.3568193412968395"><ele>623.0</ele><time>2026-03-28T09:12:57Z</time></trkpt><trkpt lat="45.00836292507142" lon="7.356790198479925"><ele>623.0</ele><time>2026-03-28T09:12:58Z</time></trkpt><trkpt lat="45.00847169180945" lon="7.356739855539006"><ele>623.0</ele><time>2026-03-28T09:12:59Z</time></trkpt><trkpt lat="45.00854749455418" lon="7.356700799876027"><ele>623.0</ele><time>2026-03-28T09:13:00Z</time></trkpt><trkpt lat="45.00867661708429" lon="7.356670200579436"><ele>618.8</ele><time>2026-03-28T09:13:02Z</time></trkpt><trkpt lat="45.00876740958047" lon="7.356705166609652"><ele>614.5999999999999</ele><time>2026-03-28T09:13:03Z</time></trkpt><trkpt lat="45.00885777687358" lon="7.356761976269883"><ele>610.4000000000001</ele><time>2026-03-28T09:13:04Z</time></trkpt><trkpt lat="45.00894345660714" lon="7.356826092760773"><ele>606.2</ele><time>2026-03-28T09:13:05Z</time></trkpt><trkpt lat="45.00904080039265" lon="7.356850641481691"><ele>602.0</ele><time>2026-03-28T09:13:06Z</time></trkpt><trkpt lat="45.00915369324933" lon="7.356826441238609"><ele>600.8000000000001</ele><time>2026-03-28T09:13:07Z</time></trkpt><trkpt lat="45.009265372845896" lon="7.356740105619679"><ele>599.6</ele><time>2026-03-28T09:13:08Z</time></trkpt><trkpt lat="45.00934497004972" lon="7.356618419685264"><ele>598.4000000000001</ele><time>2026-03-28T09:13:09Z</time></trkpt><trkpt lat="45.00941412794268" lon="7.356502822032116"><ele>597.2</ele><time>2026-03-28T09:13:10Z</time></trkpt><trkpt lat="45.00946603813562" lon="7.356412734079249"><ele>596.0</ele><time>2026-03-28T09:13:11Z</time></trkpt><trkpt lat="45.0095239835553" lon="7.356326374191348"><ele>596.0</ele><time>2026-03-28T09:13:12Z</time></trkpt><trkpt lat="45.00957742314443" lon="7.356261935204415"><ele>596.0</ele><time>2026-03-28T09:13:13Z</time></trkpt><trkpt lat="45.00966337824751" lon="7.356189718138153"><ele>596.0</ele><time>2026-03-28T09:13:15Z</time></trkpt><trkpt lat="45.00973100969564" lon="7.356257500118773"><ele>596.0</ele><time>2026-03-28T09:13:16Z</time></trkpt><trkpt lat="45.009780274435286" lon="7.35634766492887"><ele>596.0</ele><time>2026-03-28T09:13:17Z</time></trkpt><trkpt lat="45.009834736387646" lon="7.356465398876627"><ele>596.0</ele><time>2026-03-28T09:13:18Z</time></trkpt><trkpt lat="45.00981499717092" lon="7.35660716384124"><ele>594.8</ele><time>2026-03-28T09:13:19Z</time></trkpt><trkpt lat="45.00982743922209" lon="7.356761490909695"><ele>593.6</ele><time>2026-03-28T09:13:20Z</time></trkpt><trkpt lat="45.009873321814055" lon="7.356905403023282"><ele>592.4</ele><time>2026-03-28T09:13:21Z</time></trkpt><trkpt lat="45.00991596644582" lon="7.357020603100349"><ele>591.2</ele><time>2026-03-28T09:13:22Z</time></trkpt><trkpt lat="45.00997590271199" lon="7.357125963618605"><ele>590.0</ele><time>2026-03-28T09:13:23Z</time></trkpt><trkpt lat="45.010057965504934" lon="7.357211111254489"><ele>586.6666666666666</ele><time>2026-03-28T09:13:24Z</time></trkpt><trkpt lat="45.010139825015244" lon="7.357332535264646"><ele>583.3333333333333</ele><time>2026-03-28T09:13:25Z</time></trkpt><trkpt lat="45.01021594614254" lon="7.357413584224511"><ele>580.0</ele><time>2026-03-28T09:13:26Z</time></trkpt><trkpt lat="45.01026920875733" lon="7.357477753406164"><ele>576.6666666666666</ele><time>2026-03-28T09:13:27Z</time></trkpt><trkpt lat="45.010328058975915" lon="7.357539151552009"><ele>573.3333333333334</ele><time>2026-03-28T09:13:28Z</time></trkpt><trkpt lat="45.01039513003766" lon="7.357595311657362"><ele>570.0</ele><time>2026-03-28T09:13:29Z</time></trkpt><trkpt lat="45.01046817027853" lon="7.357642617996814"><ele>570.0</ele><time>2026-03-28T09:13:30Z</time></trkpt><trkpt lat="45.01054895599295" lon="7.357632437020141"><ele>570.0</ele><time>2026-03-28T09:13:31Z</time></trkpt><trkpt lat="45.01061379394334" lon="7.357579927206459"><ele>570.0</ele><time>2026-03-28T09:13:33Z</time></trkpt><trkpt lat="45.010813549549624" lon="7.357671188665748"><ele>570.0</ele><time>2026-03-28T09:13:34Z</time></trkpt><trkpt lat="45.01091462220351" lon="7.357985545765653"><ele>567.6</ele><time>2026-03-28T09:13:35Z</time></trkpt><trkpt lat="45.01092876642777" lon="7.358075754310587"><ele>565.2</ele><time>2026-03-28T09:13:36Z</time></trkpt><trkpt lat="45.01094753209742" lon="7.358174750633481"><ele>562.8</ele><time>2026-03-28T09:13:37Z</time></trkpt><trkpt lat="45.01101550556043" lon="7.358388083644974"><ele>560.4</ele><time>2026-03-28T09:13:38Z</time></trkpt><trkpt lat="45.011079436438706" lon="7.358518680709273"><ele>558.0</ele><time>2026-03-28T09:13:39Z</time></trkpt><trkpt lat="45.011140001942" lon="7.358654997989902"><ele>558.0</ele><time>2026-03-28T09:13:40Z</time></trkpt><trkpt lat="45.01123653075264" lon="7.358771250475187"><ele>558.0</ele><time>2026-03-28T09:13:41Z</time></trkpt><trkpt lat="45.01134640970946" lon="7.358896350959902"><ele>558.0</ele><time>2026-03-28T09:13:42Z</time></trkpt><trkpt lat="45.011472295270785" lon="7.358998479580551"><ele>558.0</ele><time>2026-03-28T09:13:43Z</time></trkpt><trkpt lat="45.011608503528045" lon="7.359085310949869"><ele>557.6666666666666</ele><time>2026-03-28T09:13:44Z</time></trkpt><trkpt lat="45.01175190399251" lon="7.359181788487913"><ele>557.3333333333333</ele><time>2026-03-28T09:13:45Z</time></trkpt><trkpt lat="45.01189815572323" lon="7.359288050157548"><ele>557.0</ele><time>2026-03-28T09:13:46Z</time></trkpt><trkpt lat="45.012038809221366" lon="7.359390988300876"><ele>557.0</ele><time>2026-03-28T09:13:47Z</time></trkpt><trkpt lat="45.01216766156008" lon="7.359483057160591"><ele>557.0</ele><time>2026-03-28T09:13:48Z</time></trkpt><trkpt lat="45.01229982000812" lon="7.359577592184304"><ele>557.0</ele><time>2026-03-28T09:13:49Z</time></trkpt><trkpt lat="45.01241277883501" lon="7.359670597440695"><ele>557.0</ele><time>2026-03-28T09:13:50Z</time></trkpt><trkpt lat="45.01252221282958" lon="7.359754344024666"><ele>555.75</ele><time>2026-03-28T09:13:51Z</time></trkpt><trkpt lat="45.012613535756074" lon="7.359842705111554"><ele>554.5</ele><time>2026-03-28T09:13:52Z</time></trkpt><trkpt lat="45.01271008473612" lon="7.359957507178771"><ele>553.25</ele><time>2026-03-28T09:13:53Z</time></trkpt><trkpt lat="45.012773613818126" lon="7.360095450762171"><ele>552.0</ele><time>2026-03-28T09:13:54Z</time></trkpt><trkpt lat="45.012829134015654" lon="7.360229616144935"><ele>552.0</ele><time>2026-03-28T09:13:55Z</time></trkpt><trkpt lat="45.01292843495099" lon="7.36039293092631"><ele>552.0</ele><time>2026-03-28T09:13:56Z</time></trkpt><trkpt lat="45.01301903400408" lon="7.360359928579279"><ele>552.0</ele><time>2026-03-28T09:13:58Z</time></trkpt><trkpt lat="45.01293166532975" lon="7.360315786241639"><ele>552.0</ele><time>2026-03-28T09:14:11Z</time></trkpt><trkpt lat="45.01293321219466" lon="7.360193373371206"><ele>552.0</ele><time>2026-03-28T09:14:12Z</time></trkpt><trkpt lat="45.01289787871628" lon="7.360069271297945"><ele>552.0</ele><time>2026-03-28T09:14:14Z</time></trkpt><trkpt lat="45.01289799336302" lon="7.359976177160392"><ele>552.0</ele><time>2026-03-28T09:14:15Z</time></trkpt><trkpt lat="45.01288723662732" lon="7.35979886625535"><ele>552.0</ele><time>2026-03-28T09:14:17Z</time></trkpt><trkpt lat="45.01291748278941" lon="7.359654535540992"><ele>552.0</ele><time>2026-03-28T09:14:19Z</time></trkpt><trkpt lat="45.01292028948487" lon="7.359559605706288"><ele>552.0</ele><time>2026-03-28T09:14:20Z</time></trkpt><trkpt lat="45.012919371018775" lon="7.359408287149214"><ele>554.8333333333334</ele><time>2026-03-28T09:14:22Z</time></trkpt><trkpt lat="45.0128800225802" lon="7.359308218673453"><ele>557.6666666666666</ele><time>2026-03-28T09:14:24Z</time></trkpt><trkpt lat="45.012819768023874" lon="7.359211789856242"><ele>560.5</ele><time>2026-03-28T09:14:26Z</time></trkpt><trkpt lat="45.012722888765815" lon="7.359167415645417"><ele>563.3333333333333</ele><time>2026-03-28T09:14:28Z</time></trkpt><trkpt lat="45.01263735383462" lon="7.359123460443278"><ele>566.1666666666666</ele><time>2026-03-28T09:14:31Z</time></trkpt><trkpt lat="45.012611193250365" lon="7.359011707446979"><ele>569.0</ele><time>2026-03-28T09:14:33Z</time></trkpt><trkpt lat="45.012559249522575" lon="7.358867468932088"><ele>572.2</ele><time>2026-03-28T09:14:35Z</time></trkpt><trkpt lat="45.01253646730672" lon="7.358749106274946"><ele>575.4</ele><time>2026-03-28T09:14:37Z</time></trkpt><trkpt lat="45.01252271445422" lon="7.358630415302723"><ele>578.6</ele><time>2026-03-28T09:14:39Z</time></trkpt><trkpt lat="45.01252857826822" lon="7.358496092460444"><ele>581.8</ele><time>2026-03-28T09:14:41Z</time></trkpt><trkpt lat="45.012537293845305" lon="7.358323871198683"><ele>585.0</ele><time>2026-03-28T09:14:43Z</time></trkpt><trkpt lat="45.01254358840622" lon="7.358164422980189"><ele>585.0</ele><time>2026-03-28T09:14:45Z</time></trkpt><trkpt lat="45.012546866559816" lon="7.3580497166711725"><ele>585.0</ele><time>2026-03-28T09:14:47Z</time></trkpt><trkpt lat="45.01259115751628" lon="7.357973574152727"><ele>585.0</ele><time>2026-03-28T09:14:52Z</time></trkpt><trkpt lat="45.0125572541502" lon="7.357866935651569"><ele>585.0</ele><time>2026-03-28T09:14:59Z</time></trkpt><trkpt lat="45.012538315091135" lon="7.3577744724641505"><ele>585.0</ele><time>2026-03-28T09:15:02Z</time></trkpt><trkpt lat="45.01250192817568" lon="7.357672390136746"><ele>585.0</ele><time>2026-03-28T09:15:05Z</time></trkpt><trkpt lat="45.012462211708886" lon="7.3575810855813595"><ele>584.0</ele><time>2026-03-28T09:15:07Z</time></trkpt><trkpt lat="45.01242975927977" lon="7.35748554221822"><ele>583.0</ele><time>2026-03-28T09:15:10Z</time></trkpt><trkpt lat="45.01220739809998" lon="7.357037877520438"><ele>585.1999999999999</ele><time>2026-03-28T09:15:13Z</time></trkpt><trkpt lat="45.01220227181881" lon="7.356896978316662"><ele>587.4</ele><time>2026-03-28T09:15:15Z</time></trkpt><trkpt lat="45.01220583826984" lon="7.356787600301934"><ele>589.5999999999999</ele><time>2026-03-28T09:15:16Z</time></trkpt><trkpt lat="45.012222353244596" lon="7.356632692932016"><ele>591.8</ele><time>2026-03-28T09:15:18Z</time></trkpt><trkpt lat="45.012250932379814" lon="7.35647925454005"><ele>594.0</ele><time>2026-03-28T09:15:20Z</time></trkpt><trkpt lat="45.01229687435101" lon="7.356342059396213"><ele>596.8333333333334</ele><time>2026-03-28T09:15:22Z</time></trkpt><trkpt lat="45.012330530416286" lon="7.35626206908128"><ele>599.6666666666666</ele><time>2026-03-28T09:15:23Z</time></trkpt><trkpt lat="45.0123711485414" lon="7.35619199269272"><ele>602.5</ele><time>2026-03-28T09:15:24Z</time></trkpt><trkpt lat="45.0123723801505" lon="7.356090867236196"><ele>605.3333333333333</ele><time>2026-03-28T09:15:26Z</time></trkpt><trkpt lat="45.012307009545935" lon="7.355996412966963"><ele>608.1666666666666</ele><time>2026-03-28T09:15:29Z</time></trkpt><trkpt lat="45.01222387716921" lon="7.355934365127559"><ele>611.0</ele><time>2026-03-28T09:15:31Z</time></trkpt><trkpt lat="45.01217455951425" lon="7.355836240071267"><ele>611.0</ele><time>2026-03-28T09:15:33Z</time></trkpt><trkpt lat="45.01211219415803" lon="7.355713217068713"><ele>611.0</ele><time>2026-03-28T09:15:35Z</time></trkpt><trkpt lat="45.01207158082359" lon="7.355631736090329"><ele>611.0</ele><time>2026-03-28T09:15:37Z</time></trkpt><trkpt lat="45.012029199538006" lon="7.355514594075985"><ele>611.0</ele><time>2026-03-28T09:15:41Z</time></trkpt><trkpt lat="45.0119964708753" lon="7.355390223238784"><ele>611.0</ele><time>2026-03-28T09:15:44Z</time></trkpt><trkpt lat="45.01193343518007" lon="7.355337716650793"><ele>611.0</ele><time>2026-03-28T09:15:46Z</time></trkpt><trkpt lat="45.01185363262714" lon="7.355315668546392"><ele>613.5</ele><time>2026-03-28T09:15:48Z</time></trkpt><trkpt lat="45.01178336795446" lon="7.355349697900442"><ele>616.0</ele><time>2026-03-28T09:15:50Z</time></trkpt><trkpt lat="45.01176807148952" lon="7.355261838503357"><ele>618.5</ele><time>2026-03-28T09:15:53Z</time></trkpt><trkpt lat="45.01174932858881" lon="7.355161204304609"><ele>621.0</ele><time>2026-03-28T09:15:55Z</time></trkpt><trkpt lat="45.01171654784254" lon="7.355062393091034"><ele>623.5</ele><time>2026-03-28T09:15:57Z</time></trkpt><trkpt lat="45.01173658740581" lon="7.354940724829671"><ele>626.0</ele><time>2026-03-28T09:16:00Z</time></trkpt><trkpt lat="45.011783973134555" lon="7.35484182645278"><ele>626.0</ele><time>2026-03-28T09:16:02Z</time></trkpt><trkpt lat="45.01179293586242" lon="7.354729460067568"><ele>626.0</ele><time>2026-03-28T09:16:04Z</time></trkpt><trkpt lat="45.011805203322936" lon="7.3546214998803014"><ele>626.0</ele><time>2026-03-28T09:16:06Z</time></trkpt><trkpt lat="45.01179631863226" lon="7.354525947415973"><ele>626.0</ele><time>2026-03-28T09:16:08Z</time></trkpt><trkpt lat="45.011741844089045" lon="7.354437739765782"><ele>626.0</ele><time>2026-03-28T09:16:12Z</time></trkpt><trkpt lat="45.011677883738344" lon="7.354443143425753"><ele>626.0</ele><time>2026-03-28T09:16:14Z</time></trkpt><trkpt lat="45.01158953939425" lon="7.354476176211263"><ele>631.3333333333333</ele><time>2026-03-28T09:16:17Z</time></trkpt><trkpt lat="45.011519202806" lon="7.3544692335390565"><ele>636.6666666666666</ele><time>2026-03-28T09:16:19Z</time></trkpt><trkpt lat="45.011445416623296" lon="7.354477249185336"><ele>642.0</ele><time>2026-03-28T09:16:23Z</time></trkpt><trkpt lat="45.01137076465808" lon="7.354482966796545"><ele>647.3333333333334</ele><time>2026-03-28T09:16:25Z</time></trkpt><trkpt lat="45.01124033779132" lon="7.354442107102398"><ele>652.6666666666667</ele><time>2026-03-28T09:16:27Z</time></trkpt><trkpt lat="45.011175563064725" lon="7.354396788436753"><ele>658.0</ele><time>2026-03-28T09:16:28Z</time></trkpt><trkpt lat="45.01111879166104" lon="7.3543445364125"><ele>658.0</ele><time>2026-03-28T09:16:30Z</time></trkpt><trkpt lat="45.01103830241087" lon="7.354281819606187"><ele>658.0</ele><time>2026-03-28T09:16:33Z</time></trkpt><trkpt lat="45.010966970140956" lon="7.354223705418525"><ele>658.0</ele><time>2026-03-28T09:16:35Z</time></trkpt><trkpt lat="45.01098522100814" lon="7.354124323241985"><ele>658.0</ele><time>2026-03-28T09:16:37Z</time></trkpt><trkpt lat="45.01094563844937" lon="7.354038986998655"><ele>658.0</ele><time>2026-03-28T09:17:29.999Z</time></trkpt><trkpt lat="45.01092470790066" lon="7.353914499706852"><ele>658.0</ele><time>2026-03-28T09:17:32.999Z</time></trkpt><trkpt lat="45.010934044093354" lon="7.353767493186336"><ele>660.8</ele><time>2026-03-28T09:17:34.999Z</time></trkpt><trkpt lat="45.011020377001586" lon="7.353655274253008"><ele>663.5999999999999</ele><time>2026-03-28T09:17:36.999Z</time></trkpt><trkpt lat="45.01109282402056" lon="7.353601617668557"><ele>666.4000000000001</ele><time>2026-03-28T09:17:38.999Z</time></trkpt><trkpt lat="45.01108853759269" lon="7.353452495309281"><ele>669.2</ele><time>2026-03-28T09:17:41.999Z</time></trkpt><trkpt lat="45.01104749319549" lon="7.35337640003932"><ele>672.0</ele><time>2026-03-28T09:17:43.999Z</time></trkpt><trkpt lat="45.01097214473682" lon="7.35328729963007"><ele>672.0</ele><time>2026-03-28T09:17:45.999Z</time></trkpt><trkpt lat="45.010876504620235" lon="7.353262711046908"><ele>672.0</ele><time>2026-03-28T09:17:47.999Z</time></trkpt><trkpt lat="45.01079249041218" lon="7.353233328130177"><ele>672.0</ele><time>2026-03-28T09:17:50.999Z</time></trkpt><trkpt lat="45.01071917569497" lon="7.353216998349984"><ele>672.0</ele><time>2026-03-28T09:17:53.999Z</time></trkpt><trkpt lat="45.01065012315175" lon="7.353210125956306"><ele>672.0</ele><time>2026-03-28T09:17:55.999Z</time></trkpt><trkpt lat="45.01056047153732" lon="7.35322261021166"><ele>672.0</ele><time>2026-03-28T09:17:58.999Z</time></trkpt><trkpt lat="45.010489879541566" lon="7.3532136184393355"><ele>672.4000000000001</ele><time>2026-03-28T09:18:04.999Z</time></trkpt><trkpt lat="45.01035506542552" lon="7.353125211540602"><ele>672.8000000000001</ele><time>2026-03-28T09:18:21.999Z</time></trkpt><trkpt lat="45.01033402001822" lon="7.3529590479141795"><ele>673.2</ele><time>2026-03-28T09:18:23.999Z</time></trkpt><trkpt lat="45.01032413747387" lon="7.35284658677712"><ele>673.6</ele><time>2026-03-28T09:18:25.999Z</time></trkpt><trkpt lat="45.010295528494204" lon="7.352740898361879"><ele>674.0</ele><time>2026-03-28T09:18:27.999Z</time></trkpt><trkpt lat="45.01029515594008" lon="7.352634068162234"><ele>677.8333333333333</ele><time>2026-03-28T09:18:30.999Z</time></trkpt><trkpt lat="45.010277236106965" lon="7.352544809151482"><ele>681.6666666666666</ele><time>2026-03-28T09:18:33.999Z</time></trkpt><trkpt lat="45.010207355838524" lon="7.35253435162983"><ele>685.5</ele><time>2026-03-28T09:18:43.999Z</time></trkpt><trkpt lat="45.01013188989869" lon="7.35252732959076"><ele>689.3333333333334</ele><time>2026-03-28T09:18:50.999Z</time></trkpt><trkpt lat="45.01006919684538" lon="7.352465077932229"><ele>693.1666666666667</ele><time>2026-03-28T09:18:53.999Z</time></trkpt><trkpt lat="45.0100640770386" lon="7.352355316637132"><ele>697.0</ele><time>2026-03-28T09:18:55.999Z</time></trkpt><trkpt lat="45.010097487306915" lon="7.352229721041201"><ele>700.5</ele><time>2026-03-28T09:18:59Z</time></trkpt><trkpt lat="45.01010551647228" lon="7.352105025579231"><ele>704.0</ele><time>2026-03-28T09:19:03Z</time></trkpt><trkpt lat="45.01012527972487" lon="7.351998280568454"><ele>707.5</ele><time>2026-03-28T09:19:08Z</time></trkpt><trkpt lat="45.01016739630441" lon="7.351918238813014"><ele>711.0</ele><time>2026-03-28T09:19:11Z</time></trkpt><trkpt lat="45.01024155570881" lon="7.35184363322862"><ele>714.5</ele><time>2026-03-28T09:19:14Z</time></trkpt><trkpt lat="45.01031583851932" lon="7.351795628640184"><ele>718.0</ele><time>2026-03-28T09:19:16Z</time></trkpt><trkpt lat="45.0103728038661" lon="7.35175729782453"><ele>718.0</ele><time>2026-03-28T09:19:19Z</time></trkpt><trkpt lat="45.010473414629224" lon="7.351699677826516"><ele>718.0</ele><time>2026-03-28T09:23:54.999Z</time></trkpt><trkpt lat="45.010580888056936" lon="7.3516899359638455"><ele>718.0</ele><time>2026-03-28T09:24:02.999Z</time></trkpt><trkpt lat="45.01064202153113" lon="7.351641956674012"><ele>718.0</ele><time>2026-03-28T09:24:03.999Z</time></trkpt><trkpt lat="45.01073741533616" lon="7.351555266043558"><ele>718.0</ele><time>2026-03-28T09:24:05.999Z</time></trkpt><trkpt lat="45.01080966669968" lon="7.351519541694767"><ele>717.5</ele><time>2026-03-28T09:24:06.999Z</time></trkpt><trkpt lat="45.01086453736039" lon="7.35147436961879"><ele>717.0</ele><time>2026-03-28T09:24:07.999Z</time></trkpt><trkpt lat="45.01092537849351" lon="7.351429604259146"><ele>716.5</ele><time>2026-03-28T09:24:08.999Z</time></trkpt><trkpt lat="45.01099686443816" lon="7.351335400445743"><ele>716.0</ele><time>2026-03-28T09:24:10.999Z</time></trkpt><trkpt lat="45.011056458388175" lon="7.351279377213608"><ele>715.5</ele><time>2026-03-28T09:24:11.999Z</time></trkpt><trkpt lat="45.011109214924936" lon="7.351211381676903"><ele>715.0</ele><time>2026-03-28T09:24:12.999Z</time></trkpt><trkpt lat="45.01120827869072" lon="7.351153557777628"><ele>719.6666666666667</ele><time>2026-03-28T09:24:14.999Z</time></trkpt><trkpt lat="45.01125408646836" lon="7.351021674818307"><ele>724.3333333333334</ele><time>2026-03-28T09:24:16.999Z</time></trkpt><trkpt lat="45.01130469024567" lon="7.350945783580541"><ele>729.0</ele><time>2026-03-28T09:24:17.999Z</time></trkpt><trkpt lat="45.0113563728544" lon="7.350885989254127"><ele>733.6666666666666</ele><time>2026-03-28T09:24:18.999Z</time></trkpt><trkpt lat="45.0114114122572" lon="7.350778787439312"><ele>738.3333333333333</ele><time>2026-03-28T09:24:20.999Z</time></trkpt><trkpt lat="45.011423621977485" lon="7.350664987176858"><ele>743.0</ele><time>2026-03-28T09:24:22.999Z</time></trkpt><trkpt lat="45.01146399912776" lon="7.350563841395984"><ele>743.8571428571429</ele><time>2026-03-28T09:24:24.999Z</time></trkpt><trkpt lat="45.01150091514689" lon="7.350463258360032"><ele>744.7142857142857</ele><time>2026-03-28T09:24:26.999Z</time></trkpt><trkpt lat="45.011524626789225" lon="7.350370108542345"><ele>745.5714285714286</ele><time>2026-03-28T09:24:29.999Z</time></trkpt><trkpt lat="45.011548112780865" lon="7.3502776544047315"><ele>746.4285714285714</ele><time>2026-03-28T09:24:31.999Z</time></trkpt><trkpt lat="45.011538789327545" lon="7.350173610613652"><ele>747.2857142857142</ele><time>2026-03-28T09:24:34.999Z</time></trkpt><trkpt lat="45.01146704274724" lon="7.350136860480687"><ele>748.1428571428571</ele><time>2026-03-28T09:24:38.999Z</time></trkpt><trkpt lat="45.01138954590548" lon="7.35011369519214"><ele>749.0</ele><time>2026-03-28T09:24:41.999Z</time></trkpt><trkpt lat="45.011304120943464" lon="7.350088208833883"><ele>749.0</ele><time>2026-03-28T09:24:44.999Z</time></trkpt><trkpt lat="45.01122514332531" lon="7.350046094664951"><ele>749.0</ele><time>2026-03-28T09:24:47.999Z</time></trkpt><trkpt lat="45.01080947941613" lon="7.350036876821588"><ele>751.4000000000001</ele><time>2026-03-28T09:24:51.999Z</time></trkpt><trkpt lat="45.010747069821214" lon="7.350010333955869"><ele>753.8</ele><time>2026-03-28T09:24:53.999Z</time></trkpt><trkpt lat="45.01063718102495" lon="7.349976426330824"><ele>756.2</ele><time>2026-03-28T09:24:56.999Z</time></trkpt><trkpt lat="45.01055448325094" lon="7.349967799811867"><ele>758.5999999999999</ele><time>2026-03-28T09:24:58.999Z</time></trkpt><trkpt lat="45.01046095443551" lon="7.349952365608464"><ele>761.0</ele><time>2026-03-28T09:25:00.999Z</time></trkpt><trkpt lat="45.010363978262085" lon="7.349927637955316"><ele>761.0</ele><time>2026-03-28T09:25:02.999Z</time></trkpt><trkpt lat="45.0102459763529" lon="7.349910153639036"><ele>761.0</ele><time>2026-03-28T09:25:04.999Z</time></trkpt><trkpt lat="45.010177131500896" lon="7.349912768672411"><ele>761.0</ele><time>2026-03-28T09:25:05.999Z</time></trkpt><trkpt lat="45.010067711109876" lon="7.349915341242105"><ele>761.0</ele><time>2026-03-28T09:25:07.999Z</time></trkpt><trkpt lat="45.00995942801169" lon="7.349801808526184"><ele>761.0</ele><time>2026-03-28T09:25:09.999Z</time></trkpt><trkpt lat="45.00988254582193" lon="7.349901476923585"><ele>758.0</ele><time>2026-03-28T09:25:11.999Z</time></trkpt><trkpt lat="45.009884030057194" lon="7.349755950745125"><ele>755.0</ele><time>2026-03-28T09:25:13.999Z</time></trkpt><trkpt lat="45.00980476830414" lon="7.349638627187271"><ele>752.0</ele><time>2026-03-28T09:25:15.999Z</time></trkpt><trkpt lat="45.00974474604953" lon="7.3495871643351505"><ele>749.0</ele><time>2026-03-28T09:25:17Z</time></trkpt><trkpt lat="45.009677875469635" lon="7.349499746164904"><ele>746.0</ele><time>2026-03-28T09:25:19Z</time></trkpt><trkpt lat="45.009628461749955" lon="7.349382884088087"><ele>746.0</ele><time>2026-03-28T09:25:21Z</time></trkpt><trkpt lat="45.00960106830981" lon="7.349264196749812"><ele>746.0</ele><time>2026-03-28T09:25:23Z</time></trkpt><trkpt lat="45.00958304877473" lon="7.349159216265764"><ele>746.0</ele><time>2026-03-28T09:25:25Z</time></trkpt><trkpt lat="45.00960680619194" lon="7.349050686417373"><ele>746.0</ele><time>2026-03-28T09:25:27Z</time></trkpt><trkpt lat="45.00968332939248" lon="7.349013662216079"><ele>746.0</ele><time>2026-03-28T09:25:29Z</time></trkpt><trkpt lat="45.00975714763909" lon="7.348985797888684"><ele>746.0</ele><time>2026-03-28T09:25:31Z</time></trkpt><trkpt lat="45.0097857299627" lon="7.3489047250873645"><ele>747.1999999999999</ele><time>2026-03-28T09:25:32Z</time></trkpt><trkpt lat="45.00978846640733" lon="7.348724524653459"><ele>748.4</ele><time>2026-03-28T09:25:34Z</time></trkpt><trkpt lat="45.00977455291797" lon="7.348627098705924"><ele>749.6</ele><time>2026-03-28T09:25:35Z</time></trkpt><trkpt lat="45.009774462955896" lon="7.348469035184795"><ele>750.8</ele><time>2026-03-28T09:25:37Z</time></trkpt><trkpt lat="45.00976364914661" lon="7.348316899222538"><ele>752.0</ele><time>2026-03-28T09:25:39Z</time></trkpt><trkpt lat="45.00974554315807" lon="7.348210226761284"><ele>752.0</ele><time>2026-03-28T09:25:41Z</time></trkpt><trkpt lat="45.00964404752942" lon="7.348160449570677"><ele>752.0</ele><time>2026-03-28T09:25:43Z</time></trkpt><trkpt lat="45.0095682137671" lon="7.348079552102071"><ele>752.0</ele><time>2026-03-28T09:25:45Z</time></trkpt><trkpt lat="45.009550956765594" lon="7.347982552289162"><ele>752.0</ele><time>2026-03-28T09:25:46Z</time></trkpt><trkpt lat="45.00951528268641" lon="7.347899879957389"><ele>752.0</ele><time>2026-03-28T09:25:47Z</time></trkpt><trkpt lat="45.00951495579973" lon="7.347746574158395"><ele>753.8333333333333</ele><time>2026-03-28T09:25:49Z</time></trkpt><trkpt lat="45.00950768358084" lon="7.347649152464782"><ele>755.6666666666666</ele><time>2026-03-28T09:25:50Z</time></trkpt><trkpt lat="45.00951060382927" lon="7.347539205479369"><ele>757.5</ele><time>2026-03-28T09:25:51Z</time></trkpt><trkpt lat="45.00950158704351" lon="7.347442104558737"><ele>759.3333333333334</ele><time>2026-03-28T09:25:52Z</time></trkpt><trkpt lat="45.00951771089791" lon="7.3473517614783646"><ele>761.1666666666667</ele><time>2026-03-28T09:25:53Z</time></trkpt><trkpt lat="45.00955485400131" lon="7.347262328858101"><ele>763.0</ele><time>2026-03-28T09:25:55Z</time></trkpt><trkpt lat="45.00962397461154" lon="7.347146367619703"><ele>766.0</ele><time>2026-03-28T09:25:57Z</time></trkpt><trkpt lat="45.00964942258692" lon="7.347057373214008"><ele>769.0</ele><time>2026-03-28T09:25:58Z</time></trkpt><trkpt lat="45.00967081553652" lon="7.346963921673938"><ele>772.0</ele><time>2026-03-28T09:25:59Z</time></trkpt><trkpt lat="45.00971407425746" lon="7.346810857365823"><ele>775.0</ele><time>2026-03-28T09:26:01Z</time></trkpt><trkpt lat="45.00978463814674" lon="7.346732905355944"><ele>778.0</ele><time>2026-03-28T09:26:03Z</time></trkpt><trkpt lat="45.00987991747977" lon="7.346615765466991"><ele>778.0</ele><time>2026-03-28T09:26:05Z</time></trkpt><trkpt lat="45.00993583951404" lon="7.346562027631285"><ele>778.0</ele><time>2026-03-28T09:26:06Z</time></trkpt><trkpt lat="45.010210046024014" lon="7.346531456560971"><ele>778.0</ele><time>2026-03-28T09:26:07Z</time></trkpt><trkpt lat="45.01026057390691" lon="7.34646824141266"><ele>778.0</ele><time>2026-03-28T09:26:08Z</time></trkpt><trkpt lat="45.01034520822822" lon="7.3464002179348435"><ele>784.5999999999999</ele><time>2026-03-28T09:26:09Z</time></trkpt><trkpt lat="45.01043801764654" lon="7.346322778729302"><ele>791.1999999999999</ele><time>2026-03-28T09:26:10Z</time></trkpt><trkpt lat="45.01051622987146" lon="7.3462437320018665"><ele>797.8</ele><time>2026-03-28T09:26:11Z</time></trkpt><trkpt lat="45.010592973984394" lon="7.346159638112446"><ele>804.4</ele><time>2026-03-28T09:26:12Z</time></trkpt><trkpt lat="45.01067112217089" lon="7.346024931225093"><ele>811.0</ele><time>2026-03-28T09:26:14Z</time></trkpt><trkpt lat="45.01074674201698" lon="7.345960645872617"><ele>805.8</ele><time>2026-03-28T09:26:15Z</time></trkpt><trkpt lat="45.01084008088811" lon="7.345875919848494"><ele>800.5999999999999</ele><time>2026-03-28T09:26:16Z</time></trkpt><trkpt lat="45.010907337286135" lon="7.345814668451847"><ele>795.4</ele><time>2026-03-28T09:26:17Z</time></trkpt><trkpt lat="45.010983078168174" lon="7.345790453989947"><ele>790.2</ele><time>2026-03-28T09:26:18Z</time></trkpt><trkpt lat="45.011047770115034" lon="7.345687000049163"><ele>785.0</ele><time>2026-03-28T09:26:20Z</time></trkpt><trkpt lat="45.01109481069421" lon="7.345584345569419"><ele>782.6</ele><time>2026-03-28T09:26:22Z</time></trkpt><trkpt lat="45.01109264079693" lon="7.345471945091401"><ele>780.2</ele><time>2026-03-28T09:26:24Z</time></trkpt><trkpt lat="45.01100571630849" lon="7.345408747375836"><ele>777.8</ele><time>2026-03-28T09:26:28Z</time></trkpt><trkpt lat="45.010939678053596" lon="7.345381488256744"><ele>775.4</ele><time>2026-03-28T09:26:29Z</time></trkpt><trkpt lat="45.01085870787327" lon="7.345298173091935"><ele>773.0</ele><time>2026-03-28T09:26:31Z</time></trkpt><trkpt lat="45.01076840664993" lon="7.345162673320782"><ele>778.3333333333334</ele><time>2026-03-28T09:26:33Z</time></trkpt><trkpt lat="45.010725953079366" lon="7.345091447939598"><ele>783.6666666666667</ele><time>2026-03-28T09:26:34Z</time></trkpt><trkpt lat="45.01066841357025" lon="7.345016186175585"><ele>789.0</ele><time>2026-03-28T09:26:35Z</time></trkpt><trkpt lat="45.01060644670085" lon="7.344964414595832"><ele>794.3333333333333</ele><time>2026-03-28T09:26:36Z</time></trkpt><trkpt lat="45.010523462106335" lon="7.344878162984348"><ele>799.6666666666666</ele><time>2026-03-28T09:26:38Z</time></trkpt><trkpt lat="45.01047187855561" lon="7.344812561873984"><ele>805.0</ele><time>2026-03-28T09:26:39Z</time></trkpt><trkpt lat="45.0103955674517" lon="7.344769747354071"><ele>805.0</ele><time>2026-03-28T09:26:41Z</time></trkpt><trkpt lat="45.01031322477746" lon="7.344713070250092"><ele>805.0</ele><time>2026-03-28T09:26:43Z</time></trkpt><trkpt lat="45.01022605858456" lon="7.344642854212543"><ele>805.0</ele><time>2026-03-28T09:26:45Z</time></trkpt><trkpt lat="45.01013217847781" lon="7.344549539262139"><ele>805.0</ele><time>2026-03-28T09:26:47Z</time></trkpt><trkpt lat="45.01005543634899" lon="7.344443265240184"><ele>805.0</ele><time>2026-03-28T09:26:49Z</time></trkpt><trkpt lat="45.009941065041254" lon="7.344351570572897"><ele>806.6666666666666</ele><time>2026-03-28T09:26:51Z</time></trkpt><trkpt lat="45.00989329897856" lon="7.344282623489102"><ele>808.3333333333333</ele><time>2026-03-28T09:26:52Z</time></trkpt><trkpt lat="45.00984587574302" lon="7.344207708425875"><ele>810.0</ele><time>2026-03-28T09:26:53Z</time></trkpt><trkpt lat="45.009731588002246" lon="7.344110462559638"><ele>811.6666666666667</ele><time>2026-03-28T09:26:55Z</time></trkpt><trkpt lat="45.00963224543355" lon="7.344080165131768"><ele>813.3333333333334</ele><time>2026-03-28T09:26:57Z</time></trkpt><trkpt lat="45.009566004756714" lon="7.3440829743598925"><ele>815.0</ele><time>2026-03-28T09:26:58Z</time></trkpt><trkpt lat="45.0094432527006" lon="7.344049255029336"><ele>815.0</ele><time>2026-03-28T09:27:00Z</time></trkpt><trkpt lat="45.00938961166453" lon="7.343999943393978"><ele>815.0</ele><time>2026-03-28T09:27:01Z</time></trkpt><trkpt lat="45.00929282898648" lon="7.344088897472577"><ele>815.0</ele><time>2026-03-28T09:27:02Z</time></trkpt><trkpt lat="45.00923340727471" lon="7.343978888147875"><ele>815.0</ele><time>2026-03-28T09:27:04Z</time></trkpt><trkpt lat="45.009180764810814" lon="7.34381522055436"><ele>815.0</ele><time>2026-03-28T09:27:06Z</time></trkpt><trkpt lat="45.0091500831562" lon="7.343724040488309"><ele>816.8</ele><time>2026-03-28T09:27:07Z</time></trkpt><trkpt lat="45.00911980707573" lon="7.343643891927017"><ele>818.6</ele><time>2026-03-28T09:27:08Z</time></trkpt><trkpt lat="45.00907971299692" lon="7.343563794204519"><ele>820.4000000000001</ele><time>2026-03-28T09:27:09Z</time></trkpt><trkpt lat="45.00900934064882" lon="7.343466487201166"><ele>822.2</ele><time>2026-03-28T09:27:11Z</time></trkpt><trkpt lat="45.00889520377833" lon="7.343396055869132"><ele>824.0</ele><time>2026-03-28T09:27:13Z</time></trkpt><trkpt lat="45.00880542823708" lon="7.343310744446581"><ele>824.0000000000001</ele><time>2026-03-28T09:27:13.999Z</time></trkpt><trkpt lat="45.008717106661464" lon="7.343216984354784"><ele>824.0</ele><time>2026-03-28T09:27:14.999Z</time></trkpt><trkpt lat="45.00862809607614" lon="7.343155130560703"><ele>824.0</ele><time>2026-03-28T09:27:15.999Z</time></trkpt><trkpt lat="45.008564539141936" lon="7.343132488292573"><ele>824.0</ele><time>2026-03-28T09:27:16.999Z</time></trkpt><trkpt lat="45.00849763017251" lon="7.343113307854049"><ele>824.0000000000001</ele><time>2026-03-28T09:27:17.999Z</time></trkpt><trkpt lat="45.00842061849755" lon="7.343105604182006"><ele>824.0</ele><time>2026-03-28T09:27:18.999Z</time></trkpt><trkpt lat="45.00833290730852" lon="7.3430874766856045"><ele>825.1666666666667</ele><time>2026-03-28T09:27:19.999Z</time></trkpt><trkpt lat="45.00826441607397" lon="7.343080613549345"><ele>826.3333333333334</ele><time>2026-03-28T09:27:20.999Z</time></trkpt><trkpt lat="45.008200545433034" lon="7.343013241243155"><ele>827.5</ele><time>2026-03-28T09:27:23Z</time></trkpt><trkpt lat="45.0081792492078" lon="7.342900342819005"><ele>828.6666666666667</ele><time>2026-03-28T09:27:25Z</time></trkpt><trkpt lat="45.008159015687696" lon="7.342782505232847"><ele>829.8333333333334</ele><time>2026-03-28T09:27:27Z</time></trkpt><trkpt lat="45.00807848442089" lon="7.34265585964273"><ele>831.0</ele><time>2026-03-28T09:27:29Z</time></trkpt><trkpt lat="45.008015116021404" lon="7.342553543331081"><ele>831.5999999999999</ele><time>2026-03-28T09:27:31Z</time></trkpt><trkpt lat="45.00797354552039" lon="7.342477628499601"><ele>832.2</ele><time>2026-03-28T09:27:32Z</time></trkpt><trkpt lat="45.00790867171457" lon="7.34233628512008"><ele>832.8</ele><time>2026-03-28T09:27:34Z</time></trkpt><trkpt lat="45.00784530302934" lon="7.342234045341508"><ele>833.4000000000001</ele><time>2026-03-28T09:27:36Z</time></trkpt><trkpt lat="45.00775397336831" lon="7.342141690780462"><ele>834.0</ele><time>2026-03-28T09:27:38Z</time></trkpt><trkpt lat="45.007678860258906" lon="7.342095181122121"><ele>833.6666666666666</ele><time>2026-03-28T09:27:40Z</time></trkpt><trkpt lat="45.007610516978374" lon="7.342029881897005"><ele>833.3333333333333</ele><time>2026-03-28T09:27:42Z</time></trkpt><trkpt lat="45.00753438284965" lon="7.342001456495714"><ele>833.0</ele><time>2026-03-28T09:27:44Z</time></trkpt><trkpt lat="45.00746946515433" lon="7.341988343703332"><ele>832.6666666666666</ele><time>2026-03-28T09:27:45Z</time></trkpt><trkpt lat="45.00738434033995" lon="7.341999905026087"><ele>832.3333333333333</ele><time>2026-03-28T09:27:47Z</time></trkpt><trkpt lat="45.00729337103309" lon="7.342037955489444"><ele>832.0</ele><time>2026-03-28T09:27:50Z</time></trkpt><trkpt lat="45.007192045586834" lon="7.342100875132688"><ele>831.9999999999999</ele><time>2026-03-28T09:27:52Z</time></trkpt><trkpt lat="45.007124340508526" lon="7.3421779284896935"><ele>832.0</ele><time>2026-03-28T09:27:54Z</time></trkpt><trkpt lat="45.007037383147086" lon="7.342262464180577"><ele>832.0</ele><time>2026-03-28T09:27:56Z</time></trkpt><trkpt lat="45.00696189606936" lon="7.342309917428655"><ele>832.0</ele><time>2026-03-28T09:27:58Z</time></trkpt><trkpt lat="45.00689197960399" lon="7.34234687507443"><ele>831.9999999999999</ele><time>2026-03-28T09:28:00Z</time></trkpt><trkpt lat="45.006801390836166" lon="7.342341729623262"><ele>832.0</ele><time>2026-03-28T09:28:02Z</time></trkpt><trkpt lat="45.006689902099524" lon="7.342332581811659"><ele>838.0</ele><time>2026-03-28T09:28:04Z</time></trkpt><trkpt lat="45.006585584710486" lon="7.342288696811318"><ele>844.0</ele><time>2026-03-28T09:28:06Z</time></trkpt><trkpt lat="45.00649107136249" lon="7.342220569696121"><ele>850.0</ele><time>2026-03-28T09:28:08Z</time></trkpt><trkpt lat="45.00638023173248" lon="7.3421661935204385"><ele>856.0</ele><time>2026-03-28T09:28:10Z</time></trkpt><trkpt lat="45.0062924765498" lon="7.34202639391755"><ele>857.1999999999999</ele><time>2026-03-28T09:28:12Z</time></trkpt><trkpt lat="45.006235752712094" lon="7.34196998038189"><ele>858.3999999999999</ele><time>2026-03-28T09:28:13Z</time></trkpt><trkpt lat="45.006139394663435" lon="7.341870858987619"><ele>859.6</ele><time>2026-03-28T09:28:15Z</time></trkpt><trkpt lat="45.00608098306914" lon="7.341752847799728"><ele>860.8</ele><time>2026-03-28T09:28:17Z</time></trkpt><trkpt lat="45.00607718139699" lon="7.341632299598039"><ele>862.0</ele><time>2026-03-28T09:28:19Z</time></trkpt><trkpt lat="45.006035884419255" lon="7.341467211629766"><ele>862.4000000000001</ele><time>2026-03-28T09:28:21Z</time></trkpt><trkpt lat="45.00599066449164" lon="7.341366130965491"><ele>862.8000000000001</ele><time>2026-03-28T09:28:22Z</time></trkpt><trkpt lat="45.00593400113801" lon="7.341214465415006"><ele>863.2</ele><time>2026-03-28T09:28:24Z</time></trkpt><trkpt lat="45.00592297275878" lon="7.341121355062162"><ele>863.6</ele><time>2026-03-28T09:28:25Z</time></trkpt><trkpt lat="45.00591319979334" lon="7.341030864165822"><ele>864.0</ele><time>2026-03-28T09:28:26Z</time></trkpt><trkpt lat="45.005914332511104" lon="7.34082896985638"><ele>864.0</ele><time>2026-03-28T09:28:28Z</time></trkpt><trkpt lat="45.00592465807988" lon="7.340726351102548"><ele>864.0</ele><time>2026-03-28T09:28:29Z</time></trkpt><trkpt lat="45.00594903084444" lon="7.340621287827786"><ele>864.0</ele><time>2026-03-28T09:28:30Z</time></trkpt><trkpt lat="45.00595867824441" lon="7.340458494565241"><ele>864.0</ele><time>2026-03-28T09:28:32Z</time></trkpt><trkpt lat="45.00595164333031" lon="7.3403504766003245"><ele>864.0</ele><time>2026-03-28T09:28:34Z</time></trkpt><trkpt lat="45.006020074008326" lon="7.340274337930893"><ele>864.0</ele><time>2026-03-28T09:28:36Z</time></trkpt><trkpt lat="45.00609954244395" lon="7.340239251725155"><ele>865.6</ele><time>2026-03-28T09:28:38Z</time></trkpt><trkpt lat="45.00617938021992" lon="7.340151895752066"><ele>867.2</ele><time>2026-03-28T09:28:40Z</time></trkpt><trkpt lat="45.00624803298416" lon="7.340031404218229"><ele>868.8000000000001</ele><time>2026-03-28T09:28:42Z</time></trkpt><trkpt lat="45.00631253882821" lon="7.339925134241745"><ele>870.4000000000001</ele><time>2026-03-28T09:28:44Z</time></trkpt><trkpt lat="45.00636617761498" lon="7.3397850247302845"><ele>872.0</ele><time>2026-03-28T09:28:46Z</time></trkpt><trkpt lat="45.00639699779356" lon="7.339643256294059"><ele>873.6</ele><time>2026-03-28T09:28:48Z</time></trkpt><trkpt lat="45.00644365827802" lon="7.3394768181663155"><ele>875.2</ele><time>2026-03-28T09:28:50Z</time></trkpt><trkpt lat="45.006507785371994" lon="7.339316250692168"><ele>876.8</ele><time>2026-03-28T09:28:52Z</time></trkpt><trkpt lat="45.006554828627934" lon="7.339236900965701"><ele>878.4</ele><time>2026-03-28T09:28:53Z</time></trkpt><trkpt lat="45.00660470430263" lon="7.339171563292262"><ele>880.0</ele><time>2026-03-28T09:28:54Z</time></trkpt><trkpt lat="45.00666354798794" lon="7.339138272003471"><ele>874.9999999999999</ele><time>2026-03-28T09:28:55Z</time></trkpt><trkpt lat="45.00670842028581" lon="7.339071477019813"><ele>870.0</ele><time>2026-03-28T09:28:56Z</time></trkpt><trkpt lat="45.00676290805866" lon="7.339005366428466"><ele>865.0</ele><time>2026-03-28T09:28:57Z</time></trkpt><trkpt lat="45.00682001172325" lon="7.338946640097692"><ele>860.0</ele><time>2026-03-28T09:28:58Z</time></trkpt><trkpt lat="45.006867655972805" lon="7.338875503977934"><ele>855.0</ele><time>2026-03-28T09:28:59Z</time></trkpt><trkpt lat="45.00692410355263" lon="7.338813253177342"><ele>849.9999999999999</ele><time>2026-03-28T09:29:00Z</time></trkpt><trkpt lat="45.00698437609028" lon="7.338735385698301"><ele>845.0</ele><time>2026-03-28T09:29:01Z</time></trkpt><trkpt lat="45.007047545570856" lon="7.338659295317108"><ele>845.0</ele><time>2026-03-28T09:29:02Z</time></trkpt><trkpt lat="45.007092075092494" lon="7.338596095921895"><ele>845.0</ele><time>2026-03-28T09:29:03Z</time></trkpt><trkpt lat="45.00719065011466" lon="7.3385084389536654"><ele>845.0</ele><time>2026-03-28T09:29:05Z</time></trkpt><trkpt lat="45.00726548105209" lon="7.338473722965947"><ele>845.0</ele><time>2026-03-28T09:29:06Z</time></trkpt><trkpt lat="45.007368404002065" lon="7.33837867743711"><ele>845.0</ele><time>2026-03-28T09:29:08Z</time></trkpt><trkpt lat="45.00743980289036" lon="7.338266586389856"><ele>845.0000000000001</ele><time>2026-03-28T09:29:10Z</time></trkpt><trkpt lat="45.007400452926376" lon="7.338187999915489"><ele>845.0</ele><time>2026-03-28T09:29:12Z</time></trkpt><trkpt lat="45.0073665147757" lon="7.3380732030130265"><ele>845.0</ele><time>2026-03-28T09:29:14Z</time></trkpt><trkpt lat="45.00731886530787" lon="7.337973118665711"><ele>845.0</ele><time>2026-03-28T09:29:15Z</time></trkpt><trkpt lat="45.007250126944754" lon="7.3378733196636095"><ele>845.0000000000001</ele><time>2026-03-28T09:29:16Z</time></trkpt><trkpt lat="45.00718690863285" lon="7.337765406033375"><ele>845.0</ele><time>2026-03-28T09:29:17Z</time></trkpt><trkpt lat="45.00717334718827" lon="7.33766454585856"><ele>843.0</ele><time>2026-03-28T09:29:18Z</time></trkpt><trkpt lat="45.00715088547053" lon="7.33758038557921"><ele>841.0</ele><time>2026-03-28T09:29:19Z</time></trkpt><trkpt lat="45.007058520892464" lon="7.337455414717888"><ele>839.0</ele><time>2026-03-28T09:29:21Z</time></trkpt><trkpt lat="45.006976082320335" lon="7.337371791567721"><ele>837.0</ele><time>2026-03-28T09:29:22Z</time></trkpt><trkpt lat="45.006913435805785" lon="7.337307034588972"><ele>835.0</ele><time>2026-03-28T09:29:23Z</time></trkpt><trkpt lat="45.00684025460382" lon="7.3372615636461465"><ele>838.1666666666666</ele><time>2026-03-28T09:29:24Z</time></trkpt><trkpt lat="45.006769426502565" lon="7.337216894542993"><ele>841.3333333333333</ele><time>2026-03-28T09:29:25Z</time></trkpt><trkpt lat="45.006706069545295" lon="7.3371787522924015"><ele>844.5</ele><time>2026-03-28T09:29:26Z</time></trkpt><trkpt lat="45.00665267500528" lon="7.337124714927136"><ele>847.6666666666667</ele><time>2026-03-28T09:29:27Z</time></trkpt><trkpt lat="45.00659357443045" lon="7.337000357584564"><ele>850.8333333333334</ele><time>2026-03-28T09:29:29Z</time></trkpt><trkpt lat="45.00653228064504" lon="7.3369075361174305"><ele>854.0</ele><time>2026-03-28T09:29:31Z</time></trkpt><trkpt lat="45.006470208139625" lon="7.336865045969023"><ele>854.0000000000001</ele><time>2026-03-28T09:29:33Z</time></trkpt><trkpt lat="45.00638558303162" lon="7.336790946966375"><ele>854.0</ele><time>2026-03-28T09:29:35Z</time></trkpt><trkpt lat="45.00632567160399" lon="7.3366901302967165"><ele>854.0</ele><time>2026-03-28T09:29:37Z</time></trkpt><trkpt lat="45.00628945679404" lon="7.336534562772676"><ele>854.0</ele><time>2026-03-28T09:29:39Z</time></trkpt><trkpt lat="45.00627820200287" lon="7.336434313886444"><ele>854.0000000000001</ele><time>2026-03-28T09:29:40Z</time></trkpt><trkpt lat="45.00627440556668" lon="7.336339461620501"><ele>854.0</ele><time>2026-03-28T09:29:41Z</time></trkpt><trkpt lat="45.006286800473504" lon="7.336183698984681"><ele>849.6</ele><time>2026-03-28T09:29:43Z</time></trkpt><trkpt lat="45.00628155042794" lon="7.3360194787418225"><ele>845.2</ele><time>2026-03-28T09:29:45Z</time></trkpt><trkpt lat="45.006270395182426" lon="7.335931627670871"><ele>840.8000000000001</ele><time>2026-03-28T09:29:46Z</time></trkpt><trkpt lat="45.00624661823946" lon="7.335835754394409"><ele>836.4000000000001</ele><time>2026-03-28T09:29:47Z</time></trkpt><trkpt lat="45.00616876945763" lon="7.335682982483644"><ele>832.0</ele><time>2026-03-28T09:29:49Z</time></trkpt><trkpt lat="45.00615495747359" lon="7.335529971915597"><ele>833.8</ele><time>2026-03-28T09:29:51Z</time></trkpt><trkpt lat="45.00610304611943" lon="7.335386215705422"><ele>835.6</ele><time>2026-03-28T09:29:53Z</time></trkpt><trkpt lat="45.006050899457406" lon="7.335319415112777"><ele>837.4</ele><time>2026-03-28T09:29:54Z</time></trkpt><trkpt lat="45.00598867774613" lon="7.335249866375329"><ele>839.1999999999999</ele><time>2026-03-28T09:29:55Z</time></trkpt><trkpt lat="45.00589121817318" lon="7.335160437128157"><ele>841.0</ele><time>2026-03-28T09:29:57Z</time></trkpt><trkpt lat="45.00578294765817" lon="7.335103701655757"><ele>840.9999999999999</ele><time>2026-03-28T09:29:59Z</time></trkpt><trkpt lat="45.00571350403361" lon="7.335104951746321"><ele>841.0</ele><time>2026-03-28T09:30:00Z</time></trkpt><trkpt lat="45.0056371841693" lon="7.33513253681101"><ele>841.0</ele><time>2026-03-28T09:30:01Z</time></trkpt><trkpt lat="45.005555545763826" lon="7.335155987440324"><ele>841.0</ele><time>2026-03-28T09:30:02Z</time></trkpt><trkpt lat="45.005483718347264" lon="7.3351692436803235"><ele>840.9999999999999</ele><time>2026-03-28T09:30:03Z</time></trkpt><trkpt lat="45.00539630004339" lon="7.33516705169342"><ele>841.0</ele><time>2026-03-28T09:30:04Z</time></trkpt><trkpt lat="45.00531390334895" lon="7.33515032056405"><ele>840.9999999999999</ele><time>2026-03-28T09:30:05Z</time></trkpt><trkpt lat="45.00525615072498" lon="7.335073624670708"><ele>841.0</ele><time>2026-03-28T09:30:07Z</time></trkpt><trkpt lat="45.0052327913549" lon="7.33492000879799"><ele>841.0</ele><time>2026-03-28T09:30:08.999Z</time></trkpt><trkpt lat="45.00525188913969" lon="7.33481954503814"><ele>841.0</ele><time>2026-03-28T09:30:09.999Z</time></trkpt><trkpt lat="45.00524031894141" lon="7.3347151439400164"><ele>840.9999999999999</ele><time>2026-03-28T09:30:10.999Z</time></trkpt><trkpt lat="45.005226850011496" lon="7.334603787698229"><ele>841.0</ele><time>2026-03-28T09:30:11.999Z</time></trkpt><trkpt lat="45.00521212338429" lon="7.334475686297837"><ele>841.4</ele><time>2026-03-28T09:30:12.999Z</time></trkpt><trkpt lat="45.00518968129691" lon="7.334323287123456"><ele>841.8</ele><time>2026-03-28T09:30:13.999Z</time></trkpt><trkpt lat="45.00519859404117" lon="7.334193015886871"><ele>842.1999999999999</ele><time>2026-03-28T09:30:14.999Z</time></trkpt><trkpt lat="45.005209492413044" lon="7.334062862894947"><ele>842.5999999999999</ele><time>2026-03-28T09:30:15.999Z</time></trkpt><trkpt lat="45.00522921470885" lon="7.3339361692845975"><ele>843.0</ele><time>2026-03-28T09:30:16.999Z</time></trkpt><trkpt lat="45.00527065840011" lon="7.333829596109659"><ele>845.8333333333334</ele><time>2026-03-28T09:30:17.999Z</time></trkpt><trkpt lat="45.00531539047492" lon="7.333717491692759"><ele>848.6666666666667</ele><time>2026-03-28T09:30:18.999Z</time></trkpt><trkpt lat="45.005362838995254" lon="7.333633522158932"><ele>851.5</ele><time>2026-03-28T09:30:19.999Z</time></trkpt><trkpt lat="45.00543100293791" lon="7.333558586910407"><ele>854.3333333333334</ele><time>2026-03-28T09:30:20.999Z</time></trkpt><trkpt lat="45.00552061282443" lon="7.333518211118859"><ele>857.1666666666667</ele><time>2026-03-28T09:30:21.999Z</time></trkpt><trkpt lat="45.00558479069569" lon="7.333460182167006"><ele>860.0</ele><time>2026-03-28T09:30:22.999Z</time></trkpt><trkpt lat="45.00564375999076" lon="7.333385773859765"><ele>860.0</ele><time>2026-03-28T09:30:23.999Z</time></trkpt><trkpt lat="45.00569556766484" lon="7.333303205505286"><ele>860.0</ele><time>2026-03-28T09:30:24.999Z</time></trkpt><trkpt lat="45.005764446849014" lon="7.333211863124014"><ele>860.0</ele><time>2026-03-28T09:30:25.999Z</time></trkpt><trkpt lat="45.00584305908505" lon="7.333080212885889"><ele>860.0</ele><time>2026-03-28T09:30:26.999Z</time></trkpt><trkpt lat="45.00591533387591" lon="7.332945899289929"><ele>860.0</ele><time>2026-03-28T09:30:27.999Z</time></trkpt><trkpt lat="45.0059711561601" lon="7.332842463289562"><ele>854.0</ele><time>2026-03-28T09:30:28.999Z</time></trkpt><trkpt lat="45.005999969136646" lon="7.332749110467699"><ele>848.0</ele><time>2026-03-28T09:30:29.999Z</time></trkpt><trkpt lat="45.006010924743244" lon="7.332657619949499"><ele>842.0</ele><time>2026-03-28T09:30:30.999Z</time></trkpt><trkpt lat="45.00603624031394" lon="7.3325106621797005"><ele>836.0</ele><time>2026-03-28T09:30:32.999Z</time></trkpt><trkpt lat="45.006027908986056" lon="7.332347071017643"><ele>830.0</ele><time>2026-03-28T09:30:34.999Z</time></trkpt><trkpt lat="45.00600800284414" lon="7.332171186462138"><ele>829.3333333333334</ele><time>2026-03-28T09:30:36.999Z</time></trkpt><trkpt lat="45.006004222682705" lon="7.332076533005019"><ele>828.6666666666667</ele><time>2026-03-28T09:30:37.999Z</time></trkpt><trkpt lat="45.005995458208105" lon="7.331969759280933"><ele>828.0</ele><time>2026-03-28T09:30:38.999Z</time></trkpt><trkpt lat="45.00599596698427" lon="7.331876543843956"><ele>827.3333333333333</ele><time>2026-03-28T09:30:39.999Z</time></trkpt><trkpt lat="45.006003012859196" lon="7.331712396085259"><ele>826.6666666666666</ele><time>2026-03-28T09:30:41.999Z</time></trkpt><trkpt lat="45.00595441311701" lon="7.331590182022234"><ele>826.0</ele><time>2026-03-28T09:30:43.999Z</time></trkpt><trkpt lat="45.00587803466162" lon="7.331498229617117"><ele>828.5999999999999</ele><time>2026-03-28T09:30:45.999Z</time></trkpt><trkpt lat="45.00578261731819" lon="7.331438337051079"><ele>831.2</ele><time>2026-03-28T09:30:47.999Z</time></trkpt><trkpt lat="45.00564147577371" lon="7.33139503749864"><ele>833.8</ele><time>2026-03-28T09:30:49.999Z</time></trkpt><trkpt lat="45.00556588065332" lon="7.331400776812495"><ele>836.4000000000001</ele><time>2026-03-28T09:30:50.999Z</time></trkpt><trkpt lat="45.005466388606585" lon="7.33143440520602"><ele>839.0</ele><time>2026-03-28T09:30:51.999Z</time></trkpt><trkpt lat="45.00539479878089" lon="7.331482419833623"><ele>839.0000000000001</ele><time>2026-03-28T09:30:52.999Z</time></trkpt><trkpt lat="45.005313753673704" lon="7.331561791270322"><ele>839.0</ele><time>2026-03-28T09:30:53.999Z</time></trkpt><trkpt lat="45.00523726509812" lon="7.331642121690975"><ele>839.0</ele><time>2026-03-28T09:30:54.999Z</time></trkpt><trkpt lat="45.00517037365167" lon="7.3316817440829976"><ele>839.0</ele><time>2026-03-28T09:30:55.999Z</time></trkpt><trkpt lat="45.00506649853763" lon="7.331709424410946"><ele>839.0000000000001</ele><time>2026-03-28T09:30:56.999Z</time></trkpt><trkpt lat="45.004993984024324" lon="7.331726435664271"><ele>839.0</ele><time>2026-03-28T09:30:57.999Z</time></trkpt><trkpt lat="45.00492655113514" lon="7.331765817294506"><ele>841.6</ele><time>2026-03-28T09:30:58.999Z</time></trkpt><trkpt lat="45.004862554115974" lon="7.33180988966471"><ele>844.2</ele><time>2026-03-28T09:30:59.999Z</time></trkpt><trkpt lat="45.00472560227431" lon="7.331832037799988"><ele>846.8000000000001</ele><time>2026-03-28T09:31:01.999Z</time></trkpt><trkpt lat="45.00462983884185" lon="7.331834564355127"><ele>849.4000000000001</ele><time>2026-03-28T09:31:02.999Z</time></trkpt><trkpt lat="45.0045418228994" lon="7.331813663479032"><ele>852.0</ele><time>2026-03-28T09:31:03.999Z</time></trkpt><trkpt lat="45.00446316756118" lon="7.331815590304554"><ele>852.0</ele><time>2026-03-28T09:31:04.999Z</time></trkpt><trkpt lat="45.00438566344882" lon="7.331846669856375"><ele>852.0</ele><time>2026-03-28T09:31:05.999Z</time></trkpt><trkpt lat="45.00432121006396" lon="7.331886124955161"><ele>852.0</ele><time>2026-03-28T09:31:06.999Z</time></trkpt><trkpt lat="45.00425690771471" lon="7.33189788704314"><ele>852.0</ele><time>2026-03-28T09:31:07.999Z</time></trkpt><trkpt lat="45.00418313575412" lon="7.331912735357006"><ele>852.0</ele><time>2026-03-28T09:31:08.999Z</time></trkpt><trkpt lat="45.004108938706224" lon="7.331916906196248"><ele>852.0</ele><time>2026-03-28T09:31:09.999Z</time></trkpt><trkpt lat="45.00401739033093" lon="7.331878789880874"><ele>856.25</ele><time>2026-03-28T09:31:11.999Z</time></trkpt><trkpt lat="45.003931279325464" lon="7.3317137637778025"><ele>860.5</ele><time>2026-03-28T09:31:13.999Z</time></trkpt><trkpt lat="45.00389860182925" lon="7.3315987094586115"><ele>864.75</ele><time>2026-03-28T09:31:14.999Z</time></trkpt><trkpt lat="45.00385118062277" lon="7.331463307646268"><ele>869.0</ele><time>2026-03-28T09:31:15.999Z</time></trkpt><trkpt lat="45.00378396457921" lon="7.331339248040497"><ele>869.0</ele><time>2026-03-28T09:31:16.999Z</time></trkpt><trkpt lat="45.00371884860069" lon="7.331251146656284"><ele>869.0000000000001</ele><time>2026-03-28T09:31:17.999Z</time></trkpt><trkpt lat="45.0036643734073" lon="7.33116018505135"><ele>869.0000000000001</ele><time>2026-03-28T09:31:18.999Z</time></trkpt><trkpt lat="45.00361213278889" lon="7.331047632294785"><ele>869.0</ele><time>2026-03-28T09:31:19.999Z</time></trkpt><trkpt lat="45.00355572943394" lon="7.330918791491902"><ele>869.0</ele><time>2026-03-28T09:31:20.999Z</time></trkpt><trkpt lat="45.00349115131964" lon="7.330825497811143"><ele>869.0000000000001</ele><time>2026-03-28T09:31:21.999Z</time></trkpt><trkpt lat="45.00342378014449" lon="7.330694896438373"><ele>869.0</ele><time>2026-03-28T09:31:22.999Z</time></trkpt><trkpt lat="45.00334177697288" lon="7.330593850543351"><ele>869.0</ele><time>2026-03-28T09:31:23.999Z</time></trkpt><trkpt lat="45.003296856864345" lon="7.330518902476798"><ele>869.0</ele><time>2026-03-28T09:31:24.999Z</time></trkpt><trkpt lat="45.00323955082832" lon="7.330453582879184"><ele>869.0000000000001</ele><time>2026-03-28T09:31:25.999Z</time></trkpt><trkpt lat="45.00317254731818" lon="7.33040239239053"><ele>869.0</ele><time>2026-03-28T09:31:26.999Z</time></trkpt><trkpt lat="45.00308813444427" lon="7.330356107526514"><ele>870.6666666666667</ele><time>2026-03-28T09:31:27.999Z</time></trkpt><trkpt lat="45.00301158015853" lon="7.330324426501109"><ele>872.3333333333334</ele><time>2026-03-28T09:31:28.999Z</time></trkpt><trkpt lat="45.00293863218597" lon="7.330291120993599"><ele>874.0</ele><time>2026-03-28T09:31:29.999Z</time></trkpt><trkpt lat="45.00285436893792" lon="7.330247426426423"><ele>875.6666666666667</ele><time>2026-03-28T09:31:30.999Z</time></trkpt><trkpt lat="45.0027706822937" lon="7.330205692019218"><ele>877.3333333333334</ele><time>2026-03-28T09:31:31.999Z</time></trkpt><trkpt lat="45.00269358058115" lon="7.330164402116032"><ele>879.0</ele><time>2026-03-28T09:31:32.999Z</time></trkpt><trkpt lat="45.00262738111009" lon="7.330165319150292"><ele>879.0</ele><time>2026-03-28T09:31:33.999Z</time></trkpt><trkpt lat="45.00255256057494" lon="7.330183889893867"><ele>879.0</ele><time>2026-03-28T09:31:35Z</time></trkpt><trkpt lat="45.00247611746294" lon="7.330189262125841"><ele>879.0</ele><time>2026-03-28T09:31:36Z</time></trkpt><trkpt lat="45.00239749524067" lon="7.3302282030797254"><ele>879.0</ele><time>2026-03-28T09:31:37Z</time></trkpt><trkpt lat="45.00230237080709" lon="7.3302711577225885"><ele>879.0</ele><time>2026-03-28T09:31:38Z</time></trkpt><trkpt lat="45.002201677582796" lon="7.330305954218878"><ele>879.0</ele><time>2026-03-28T09:31:39Z</time></trkpt><trkpt lat="45.00209531393796" lon="7.330330007393275"><ele>879.8000000000001</ele><time>2026-03-28T09:31:40Z</time></trkpt><trkpt lat="45.0019891997788" lon="7.3303498304150345"><ele>880.6000000000001</ele><time>2026-03-28T09:31:41Z</time></trkpt><trkpt lat="45.00191564082576" lon="7.33037616868244"><ele>881.4</ele><time>2026-03-28T09:31:42Z</time></trkpt><trkpt lat="45.00184514997034" lon="7.330382366500082"><ele>882.2</ele><time>2026-03-28T09:31:43Z</time></trkpt><trkpt lat="45.001768417470906" lon="7.330335826036767"><ele>883.0</ele><time>2026-03-28T09:31:44Z</time></trkpt><trkpt lat="45.00167089387053" lon="7.330248909916503"><ele>883.75</ele><time>2026-03-28T09:31:45Z</time></trkpt><trkpt lat="45.00157312490957" lon="7.330178172474287"><ele>884.5</ele><time>2026-03-28T09:31:46Z</time></trkpt><trkpt lat="45.00144930173123" lon="7.330147208873973"><ele>885.25</ele><time>2026-03-28T09:31:47Z</time></trkpt><trkpt lat="45.00131914910731" lon="7.330119637349966"><ele>886.0</ele><time>2026-03-28T09:31:48Z</time></trkpt><trkpt lat="45.00123043872593" lon="7.330119156393344"><ele>885.9999999999999</ele><time>2026-03-28T09:31:49Z</time></trkpt><trkpt lat="45.00115939284041" lon="7.330036666552361"><ele>886.0</ele><time>2026-03-28T09:31:51Z</time></trkpt><trkpt lat="45.001191284992984" lon="7.329938783551701"><ele>886.0</ele><time>2026-03-28T09:31:54Z</time></trkpt><trkpt lat="45.001204556007494" lon="7.32984211589417"><ele>886.0</ele><time>2026-03-28T09:31:56Z</time></trkpt><trkpt lat="45.00121927344714" lon="7.329717223646985"><ele>885.9999999999999</ele><time>2026-03-28T09:31:58Z</time></trkpt><trkpt lat="45.001222544346845" lon="7.3295500062984305"><ele>886.0</ele><time>2026-03-28T09:32:00Z</time></trkpt><trkpt lat="45.00123088515136" lon="7.329400559754001"><ele>889.0</ele><time>2026-03-28T09:32:02Z</time></trkpt><trkpt lat="45.001199071976366" lon="7.329239411712415"><ele>891.9999999999999</ele><time>2026-03-28T09:32:04Z</time></trkpt><trkpt lat="45.0011922782764" lon="7.329066357233872"><ele>894.9999999999999</ele><time>2026-03-28T09:32:06Z</time></trkpt><trkpt lat="45.0011641701833" lon="7.32898034372932"><ele>898.0</ele><time>2026-03-28T09:32:07Z</time></trkpt><trkpt lat="45.001131665796066" lon="7.328901625724508"><ele>901.0</ele><time>2026-03-28T09:32:08Z</time></trkpt><trkpt lat="45.00105796004492" lon="7.328778571926787"><ele>900.9999999999999</ele><time>2026-03-28T09:32:10Z</time></trkpt><trkpt lat="45.000962057266605" lon="7.328663176016133"><ele>901.0</ele><time>2026-03-28T09:32:12Z</time></trkpt><trkpt lat="45.0009042076524" lon="7.3285983382043725"><ele>901.0</ele><time>2026-03-28T09:32:13Z</time></trkpt><trkpt lat="45.0008372144478" lon="7.328520173043885"><ele>901.0</ele><time>2026-03-28T09:32:14Z</time></trkpt><trkpt lat="45.00077714578958" lon="7.328439228795571"><ele>900.9999999999999</ele><time>2026-03-28T09:32:15Z</time></trkpt><trkpt lat="45.00072435248427" lon="7.3283574220451335"><ele>901.0</ele><time>2026-03-28T09:32:16Z</time></trkpt><trkpt lat="45.00067360594898" lon="7.328275325647271"><ele>899.6666666666666</ele><time>2026-03-28T09:32:17Z</time></trkpt><trkpt lat="45.00062333110209" lon="7.328190010738101"><ele>898.3333333333333</ele><time>2026-03-28T09:32:18Z</time></trkpt><trkpt lat="45.00057475519566" lon="7.328103230441496"><ele>897.0</ele><time>2026-03-28T09:32:19Z</time></trkpt><trkpt lat="45.00052797567223" lon="7.328018305173185"><ele>895.6666666666667</ele><time>2026-03-28T09:32:20Z</time></trkpt><trkpt lat="45.00048263794781" lon="7.327931873403101"><ele>894.3333333333334</ele><time>2026-03-28T09:32:21Z</time></trkpt><trkpt lat="45.00043868393391" lon="7.327846685857723"><ele>893.0</ele><time>2026-03-28T09:32:22Z</time></trkpt><trkpt lat="45.00039656403199" lon="7.327760555474413"><ele>892.5000000000001</ele><time>2026-03-28T09:32:23Z</time></trkpt><trkpt lat="45.00035761759724" lon="7.32768091451172"><ele>892.0</ele><time>2026-03-28T09:32:24Z</time></trkpt><trkpt lat="45.00031954103089" lon="7.32759744907767"><ele>891.5</ele><time>2026-03-28T09:32:25Z</time></trkpt><trkpt lat="45.00028055820053" lon="7.327507895849624"><ele>891.0</ele><time>2026-03-28T09:32:26Z</time></trkpt><trkpt lat="45.00023765598162" lon="7.327405505102621"><ele>890.5000000000001</ele><time>2026-03-28T09:32:27Z</time></trkpt><trkpt lat="45.00019669587709" lon="7.327302390020916"><ele>890.0</ele><time>2026-03-28T09:32:28Z</time></trkpt><trkpt lat="45.000159753560084" lon="7.32720292276236"><ele>891.6666666666667</ele><time>2026-03-28T09:32:29Z</time></trkpt><trkpt lat="45.00012484422428" lon="7.327108929207706"><ele>893.3333333333334</ele><time>2026-03-28T09:32:30Z</time></trkpt><trkpt lat="45.00007978174951" lon="7.327011792922731"><ele>895.0</ele><time>2026-03-28T09:32:31Z</time></trkpt><trkpt lat="45.000027233348476" lon="7.326947314254258"><ele>896.6666666666667</ele><time>2026-03-28T09:32:32Z</time></trkpt><trkpt lat="44.999984247180734" lon="7.326829662348677"><ele>898.3333333333334</ele><time>2026-03-28T09:32:34Z</time></trkpt><trkpt lat="44.99992832865833" lon="7.326750670870228"><ele>900.0</ele><time>2026-03-28T09:32:36Z</time></trkpt><trkpt lat="45.000078459051906" lon="7.326456161594611"><ele>901.0</ele><time>2026-03-28T09:32:39Z</time></trkpt><trkpt lat="45.00007154227893" lon="7.3263462178253"><ele>902.0</ele><time>2026-03-28T09:32:42Z</time></trkpt><trkpt lat="45.00007310246696" lon="7.326251670306442"><ele>903.0</ele><time>2026-03-28T09:32:44Z</time></trkpt><trkpt lat="45.00007229685965" lon="7.326116255470216"><ele>904.0</ele><time>2026-03-28T09:32:46Z</time></trkpt><trkpt lat="45.00006497140632" lon="7.326003821453949"><ele>905.0</ele><time>2026-03-28T09:32:48Z</time></trkpt><trkpt lat="45.000102191350145" lon="7.3258723748730565"><ele>906.0</ele><time>2026-03-28T09:32:50Z</time></trkpt><trkpt lat="45.0001714584423" lon="7.325764616821936"><ele>906.0</ele><time>2026-03-28T09:32:52Z</time></trkpt><trkpt lat="45.00017217475515" lon="7.3256727842014"><ele>905.9999999999999</ele><time>2026-03-28T09:32:54Z</time></trkpt><trkpt lat="45.000130351446856" lon="7.325533549513488"><ele>905.9999999999999</ele><time>2026-03-28T09:32:56Z</time></trkpt><trkpt lat="45.000047384299165" lon="7.325402955814412"><ele>906.0</ele><time>2026-03-28T09:32:58Z</time></trkpt><trkpt lat="45.00000305388073" lon="7.325339087388294"><ele>906.0</ele><time>2026-03-28T09:32:59Z</time></trkpt><trkpt lat="44.999953856076516" lon="7.32521366690493"><ele>908.1999999999999</ele><time>2026-03-28T09:33:01Z</time></trkpt><trkpt lat="44.99998181679451" lon="7.325057224837577"><ele>910.3999999999999</ele><time>2026-03-28T09:33:03Z</time></trkpt><trkpt lat="45.00004567020493" lon="7.324889378534529"><ele>912.6</ele><time>2026-03-28T09:33:05Z</time></trkpt><trkpt lat="45.00009497585167" lon="7.324795092615295"><ele>914.8</ele><time>2026-03-28T09:33:06Z</time></trkpt><trkpt lat="45.00015225993193" lon="7.324690135252494"><ele>917.0</ele><time>2026-03-28T09:33:07Z</time></trkpt><trkpt lat="45.00023172257931" lon="7.324595684693913"><ele>918.8333333333334</ele><time>2026-03-28T09:33:08Z</time></trkpt><trkpt lat="45.00028691432554" lon="7.324508261471931"><ele>920.6666666666667</ele><time>2026-03-28T09:33:09Z</time></trkpt><trkpt lat="45.00033900545107" lon="7.32439816358745"><ele>922.5</ele><time>2026-03-28T09:33:11Z</time></trkpt><trkpt lat="45.00032720726515" lon="7.324266521036756"><ele>924.3333333333333</ele><time>2026-03-28T09:33:13Z</time></trkpt><trkpt lat="45.00033540240951" lon="7.3241403044166695"><ele>926.1666666666666</ele><time>2026-03-28T09:33:15Z</time></trkpt><trkpt lat="45.00032608349992" lon="7.324045140947214"><ele>928.0</ele><time>2026-03-28T09:33:17Z</time></trkpt><trkpt lat="45.00032185326883" lon="7.323902940176658"><ele>927.8333333333333</ele><time>2026-03-28T09:33:19Z</time></trkpt><trkpt lat="45.00032799193076" lon="7.323781746214435"><ele>927.6666666666666</ele><time>2026-03-28T09:33:21Z</time></trkpt><trkpt lat="45.00028190116621" lon="7.323710520016012"><ele>927.5</ele><time>2026-03-28T09:33:23Z</time></trkpt><trkpt lat="45.00021252096218" lon="7.32363771377042"><ele>927.3333333333333</ele><time>2026-03-28T09:33:25Z</time></trkpt><trkpt lat="45.000114776710504" lon="7.323585252721122"><ele>927.1666666666666</ele><time>2026-03-28T09:33:26.999Z</time></trkpt><trkpt lat="45.00004791490403" lon="7.323581670223437"><ele>927.0</ele><time>2026-03-28T09:33:27.999Z</time></trkpt><trkpt lat="44.999926666695345" lon="7.323583383740799"><ele>927.0</ele><time>2026-03-28T09:33:29.999Z</time></trkpt><trkpt lat="44.99982999100469" lon="7.323564162530195"><ele>927.0</ele><time>2026-03-28T09:33:31.999Z</time></trkpt><trkpt lat="44.99975960927568" lon="7.323581607928236"><ele>927.0</ele><time>2026-03-28T09:33:33.999Z</time></trkpt><trkpt lat="44.99966975386117" lon="7.3235862144741395"><ele>927.0</ele><time>2026-03-28T09:33:35.999Z</time></trkpt><trkpt lat="44.99958354136478" lon="7.323613187924932"><ele>927.0</ele><time>2026-03-28T09:33:37.999Z</time></trkpt><trkpt lat="44.99951969677287" lon="7.323591231861509"><ele>927.0</ele><time>2026-03-28T09:33:39.999Z</time></trkpt><trkpt lat="44.9994444163549" lon="7.323628263325252"><ele>927.0</ele><time>2026-03-28T09:33:43Z</time></trkpt><trkpt lat="44.9993881215483" lon="7.3236737537789915"><ele>927.0</ele><time>2026-03-28T09:33:45Z</time></trkpt><trkpt lat="44.99931117405684" lon="7.3236914673306845"><ele>927.0</ele><time>2026-03-28T09:33:48Z</time></trkpt><trkpt lat="44.99924048501438" lon="7.323660573245482"><ele>927.0</ele><time>2026-03-28T09:33:52Z</time></trkpt><trkpt lat="44.999174538211925" lon="7.323557483708081"><ele>927.0</ele><time>2026-03-28T09:33:55Z</time></trkpt><trkpt lat="44.999074850495184" lon="7.323495608410936"><ele>927.0</ele><time>2026-03-28T09:34:30Z</time></trkpt><trkpt lat="44.999084818873754" lon="7.323401353673924"><ele>925.8333333333334</ele><time>2026-03-28T09:34:35Z</time></trkpt><trkpt lat="44.999010358090175" lon="7.323356640183166"><ele>924.6666666666667</ele><time>2026-03-28T09:34:38Z</time></trkpt><trkpt lat="44.998931446669964" lon="7.323277390918874"><ele>923.5</ele><time>2026-03-28T09:35:13Z</time></trkpt><trkpt lat="44.99886937476826" lon="7.323254837875036"><ele>922.3333333333334</ele><time>2026-03-28T09:35:16Z</time></trkpt><trkpt lat="44.99885302738366" lon="7.323144516385163"><ele>921.1666666666667</ele><time>2026-03-28T09:35:19Z</time></trkpt><trkpt lat="44.998862116463265" lon="7.323028929052626"><ele>920.0</ele><time>2026-03-28T09:35:21Z</time></trkpt><trkpt lat="44.998828882816625" lon="7.3229239423069865"><ele>918.1666666666667</ele><time>2026-03-28T09:35:24Z</time></trkpt><trkpt lat="44.99878734342916" lon="7.322846052165751"><ele>916.3333333333334</ele><time>2026-03-28T09:35:26Z</time></trkpt><trkpt lat="44.9987512980467" lon="7.322741232805085"><ele>914.5</ele><time>2026-03-28T09:35:29Z</time></trkpt><trkpt lat="44.998758328881635" lon="7.322607560243315"><ele>912.6666666666667</ele><time>2026-03-28T09:35:33Z</time></trkpt><trkpt lat="44.99880781455468" lon="7.322543374707064"><ele>910.8333333333334</ele><time>2026-03-28T09:35:37Z</time></trkpt><trkpt lat="44.998853979164934" lon="7.322478925153184"><ele>909.0</ele><time>2026-03-28T09:35:40Z</time></trkpt><trkpt lat="44.998876827208655" lon="7.32235931005071"><ele>909.0</ele><time>2026-03-28T09:35:43Z</time></trkpt><trkpt lat="44.99891269969266" lon="7.322262124537121"><ele>909.0</ele><time>2026-03-28T09:35:46Z</time></trkpt><trkpt lat="44.99896019088763" lon="7.322196682235348"><ele>909.0</ele><time>2026-03-28T09:35:49Z</time></trkpt><trkpt lat="44.998980805626516" lon="7.322093517302854"><ele>909.0</ele><time>2026-03-28T09:36:57.999Z</time></trkpt><trkpt lat="44.99896660800732" lon="7.322194253473173"><ele>909.0</ele><time>2026-03-28T09:37:02.999Z</time></trkpt><trkpt lat="44.99891839663255" lon="7.322269237526872"><ele>909.0</ele><time>2026-03-28T09:37:04.999Z</time></trkpt><trkpt lat="44.998865021341" lon="7.322368374235618"><ele>909.0</ele><time>2026-03-28T09:37:07.999Z</time></trkpt><trkpt lat="44.9987857509511" lon="7.322472316930151"><ele>909.0000000000001</ele><time>2026-03-28T09:37:09.999Z</time></trkpt><trkpt lat="44.99870809956003" lon="7.322587079874679"><ele>909.0000000000001</ele><time>2026-03-28T09:37:11.999Z</time></trkpt><trkpt lat="44.99867480564282" lon="7.322670918599606"><ele>909.0</ele><time>2026-03-28T09:37:12.999Z</time></trkpt><trkpt lat="44.99861887950578" lon="7.322780589412312"><ele>909.0</ele><time>2026-03-28T09:37:14.999Z</time></trkpt><trkpt lat="44.99852824570317" lon="7.322752690184002"><ele>909.0</ele><time>2026-03-28T09:37:16.999Z</time></trkpt><trkpt lat="44.99847705296833" lon="7.322682204898788"><ele>909.0</ele><time>2026-03-28T09:37:18.999Z</time></trkpt><trkpt lat="44.99843182906604" lon="7.322616284522667"><ele>909.0</ele><time>2026-03-28T09:37:27.999Z</time></trkpt><trkpt lat="44.99847385213512" lon="7.322522572251658"><ele>909.0</ele><time>2026-03-28T09:37:30.999Z</time></trkpt><trkpt lat="44.99841010308811" lon="7.322608875316569"><ele>909.0</ele><time>2026-03-28T09:37:48.999Z</time></trkpt><trkpt lat="44.99834562169627" lon="7.322563507660521"><ele>909.0</ele><time>2026-03-28T09:37:53Z</time></trkpt><trkpt lat="44.998291781647765" lon="7.3225064308289225"><ele>909.0</ele><time>2026-03-28T09:37:59Z</time></trkpt><trkpt lat="44.99825631440163" lon="7.322406594303322"><ele>907.8571428571429</ele><time>2026-03-28T09:38:43Z</time></trkpt><trkpt lat="44.99819933175827" lon="7.32235730076396"><ele>906.7142857142858</ele><time>2026-03-28T09:38:47Z</time></trkpt><trkpt lat="44.99812806129097" lon="7.322326805129967"><ele>905.5714285714287</ele><time>2026-03-28T09:38:52Z</time></trkpt><trkpt lat="44.99807879582842" lon="7.322262166777486"><ele>904.4285714285714</ele><time>2026-03-28T09:38:56Z</time></trkpt><trkpt lat="44.99801810262542" lon="7.322203777687873"><ele>903.2857142857144</ele><time>2026-03-28T09:38:59Z</time></trkpt><trkpt lat="44.997958902595784" lon="7.322124087235499"><ele>902.1428571428572</ele><time>2026-03-28T09:39:02Z</time></trkpt><trkpt lat="44.99791685824089" lon="7.322054564649108"><ele>901.0</ele><time>2026-03-28T09:39:06Z</time></trkpt><trkpt lat="44.99788538324107" lon="7.32197607831926"><ele>899.8333333333333</ele><time>2026-03-28T09:39:10Z</time></trkpt><trkpt lat="44.99787602513525" lon="7.321877851213097"><ele>898.6666666666666</ele><time>2026-03-28T09:39:12Z</time></trkpt><trkpt lat="44.99785982615114" lon="7.321740688838352"><ele>897.5</ele><time>2026-03-28T09:39:15Z</time></trkpt><trkpt lat="44.99781985560173" lon="7.321645018580074"><ele>896.3333333333333</ele><time>2026-03-28T09:39:17Z</time></trkpt><trkpt lat="44.99780049809873" lon="7.321559552169705"><ele>895.1666666666666</ele><time>2026-03-28T09:39:20Z</time></trkpt><trkpt lat="44.99776457656502" lon="7.32148187567597"><ele>894.0</ele><time>2026-03-28T09:39:22Z</time></trkpt><trkpt lat="44.99774445131804" lon="7.321380206296571"><ele>894.3333333333334</ele><time>2026-03-28T09:39:25Z</time></trkpt><trkpt lat="44.99770422108822" lon="7.321278894314183"><ele>894.6666666666667</ele><time>2026-03-28T09:39:33.999Z</time></trkpt><trkpt lat="44.99764787976586" lon="7.321211307045866"><ele>895.0</ele><time>2026-03-28T09:39:35.999Z</time></trkpt><trkpt lat="44.99761458833954" lon="7.321094328364349"><ele>895.3333333333334</ele><time>2026-03-28T09:39:37.999Z</time></trkpt><trkpt lat="44.99758027057749" lon="7.321001462339101"><ele>895.6666666666667</ele><time>2026-03-28T09:39:38.999Z</time></trkpt><trkpt lat="44.997536084906805" lon="7.320931067377466"><ele>896.0</ele><time>2026-03-28T09:39:39.999Z</time></trkpt><trkpt lat="44.9974728145567" lon="7.320824038447917"><ele>896.0</ele><time>2026-03-28T09:39:41.999Z</time></trkpt><trkpt lat="44.99745600735025" lon="7.320715347167945"><ele>895.9999999999999</ele><time>2026-03-28T09:39:43.999Z</time></trkpt><trkpt lat="44.99746488784198" lon="7.3206005141384445"><ele>895.9999999999999</ele><time>2026-03-28T09:39:45.999Z</time></trkpt><trkpt lat="44.99747370065023" lon="7.32043303879297"><ele>896.0</ele><time>2026-03-28T09:39:47.999Z</time></trkpt><trkpt lat="44.99748955956461" lon="7.320291495925091"><ele>896.0</ele><time>2026-03-28T09:39:49.999Z</time></trkpt><trkpt lat="44.997511851388474" lon="7.320161923816663"><ele>892.3333333333334</ele><time>2026-03-28T09:39:51.999Z</time></trkpt><trkpt lat="44.99753997848372" lon="7.320042768584835"><ele>888.6666666666667</ele><time>2026-03-28T09:39:53.999Z</time></trkpt><trkpt lat="44.99756486405847" lon="7.319930511417526"><ele>885.0</ele><time>2026-03-28T09:39:55.999Z</time></trkpt><trkpt lat="44.9975955888662" lon="7.319828143480885"><ele>881.3333333333333</ele><time>2026-03-28T09:39:58Z</time></trkpt><trkpt lat="44.99762461989679" lon="7.3197350974524955"><ele>877.6666666666666</ele><time>2026-03-28T09:40:00Z</time></trkpt><trkpt lat="44.997651606379506" lon="7.31961180655816"><ele>874.0</ele><time>2026-03-28T09:40:02Z</time></trkpt><trkpt lat="44.997700762544675" lon="7.319506975477901"><ele>872.3333333333333</ele><time>2026-03-28T09:40:04Z</time></trkpt><trkpt lat="44.997761861164115" lon="7.31941441088962"><ele>870.6666666666666</ele><time>2026-03-28T09:40:06Z</time></trkpt><trkpt lat="44.997810247130936" lon="7.319331985656554"><ele>869.0</ele><time>2026-03-28T09:40:08Z</time></trkpt><trkpt lat="44.997856487234216" lon="7.31925300829222"><ele>867.3333333333333</ele><time>2026-03-28T09:40:10Z</time></trkpt><trkpt lat="44.99790253236141" lon="7.319167515048616"><ele>865.6666666666666</ele><time>2026-03-28T09:40:12Z</time></trkpt><trkpt lat="44.997959147546986" lon="7.319054955143143"><ele>864.0</ele><time>2026-03-28T09:40:14Z</time></trkpt><trkpt lat="44.998024668292324" lon="7.318955379295205"><ele>862.4000000000001</ele><time>2026-03-28T09:40:16Z</time></trkpt><trkpt lat="44.99809857461923" lon="7.318870633935232"><ele>860.8000000000001</ele><time>2026-03-28T09:40:18Z</time></trkpt><trkpt lat="44.99814554886755" lon="7.318750571180717"><ele>859.1999999999999</ele><time>2026-03-28T09:40:20Z</time></trkpt><trkpt lat="44.998222993285836" lon="7.318624993690102"><ele>857.5999999999999</ele><time>2026-03-28T09:40:22Z</time></trkpt><trkpt lat="44.99830408865452" lon="7.318517389591051"><ele>856.0</ele><time>2026-03-28T09:40:24Z</time></trkpt><trkpt lat="44.99839188877047" lon="7.318441800621344"><ele>852.4999999999999</ele><time>2026-03-28T09:40:26Z</time></trkpt><trkpt lat="44.99844919598587" lon="7.318352640238202"><ele>849.0</ele><time>2026-03-28T09:40:28Z</time></trkpt><trkpt lat="44.99848820264848" lon="7.318275710187767"><ele>845.5</ele><time>2026-03-28T09:40:31Z</time></trkpt><trkpt lat="44.998548441112064" lon="7.318225300767233"><ele>842.0</ele><time>2026-03-28T09:40:34Z</time></trkpt><trkpt lat="44.998630643064544" lon="7.318190199995686"><ele>838.4999999999999</ele><time>2026-03-28T09:40:38Z</time></trkpt><trkpt lat="44.998694709587795" lon="7.318197134875896"><ele>835.0</ele><time>2026-03-28T09:40:41Z</time></trkpt><trkpt lat="44.998783503867976" lon="7.318208830519989"><ele>835.0000000000001</ele><time>2026-03-28T09:40:58Z</time></trkpt><trkpt lat="44.998839901892836" lon="7.318161576786655"><ele>835.0</ele><time>2026-03-28T09:41:06Z</time></trkpt><trkpt lat="44.99888591123229" lon="7.318082093061597"><ele>835.0</ele><time>2026-03-28T09:43:22.999Z</time></trkpt><trkpt lat="44.99895259213848" lon="7.3180733780868765"><ele>835.0</ele><time>2026-03-28T09:43:26.999Z</time></trkpt><trkpt lat="44.99901862846589" lon="7.318034754720566"><ele>835.0</ele><time>2026-03-28T09:43:32.999Z</time></trkpt><trkpt lat="44.999090669755006" lon="7.317981197623391"><ele>835.0000000000001</ele><time>2026-03-28T09:43:39.999Z</time></trkpt><trkpt lat="44.99915905982845" lon="7.317927531042651"><ele>835.0</ele><time>2026-03-28T09:43:45.999Z</time></trkpt><trkpt lat="44.999215464024985" lon="7.317870145982581"><ele>829.5714285714287</ele><time>2026-03-28T09:43:49.999Z</time></trkpt><trkpt lat="44.99927666824205" lon="7.317842194040918"><ele>824.1428571428571</ele><time>2026-03-28T09:43:54.999Z</time></trkpt><trkpt lat="44.99934909192369" lon="7.317822119724608"><ele>818.7142857142858</ele><time>2026-03-28T09:44:00.999Z</time></trkpt><trkpt lat="44.9994045527123" lon="7.317756785835396"><ele>813.2857142857143</ele><time>2026-03-28T09:44:06.999Z</time></trkpt><trkpt lat="44.999457311057185" lon="7.3177028677909455"><ele>807.8571428571429</ele><time>2026-03-28T09:44:12Z</time></trkpt><trkpt lat="44.99952014367619" lon="7.317665350450564"><ele>802.4285714285714</ele><time>2026-03-28T09:44:34Z</time></trkpt><trkpt lat="44.99957543727214" lon="7.317596539732529"><ele>797.0</ele><time>2026-03-28T09:44:46Z</time></trkpt><trkpt lat="44.99964776051135" lon="7.317586220413252"><ele>797.0</ele><time>2026-03-28T09:46:27Z</time></trkpt><trkpt lat="44.9996969254419" lon="7.3176445187263575"><ele>797.0</ele><time>2026-03-28T09:46:30Z</time></trkpt><trkpt lat="44.99975693713619" lon="7.317682268290423"><ele>797.0</ele><time>2026-03-28T09:46:33Z</time></trkpt><trkpt lat="44.999815075117745" lon="7.317721115508284"><ele>797.0</ele><time>2026-03-28T09:46:47Z</time></trkpt><trkpt lat="44.999839825049804" lon="7.317633062136866"><ele>797.0</ele><time>2026-03-28T09:46:52Z</time></trkpt><trkpt lat="44.99984965242461" lon="7.317544047166232"><ele>797.0</ele><time>2026-03-28T09:46:59Z</time></trkpt><trkpt lat="44.99984039240187" lon="7.317448599324103"><ele>797.0</ele><time>2026-03-28T09:47:02Z</time></trkpt><trkpt lat="44.99986432550425" lon="7.317343399672926"><ele>797.0</ele><time>2026-03-28T09:47:06Z</time></trkpt><trkpt lat="44.99990273966755" lon="7.317250385031362"><ele>797.0</ele><time>2026-03-28T09:47:15Z</time></trkpt><trkpt lat="44.99997447787389" lon="7.317283372311048"><ele>797.0</ele><time>2026-03-28T09:47:34Z</time></trkpt><trkpt lat="45.00005339748869" lon="7.317334439452275"><ele>797.0</ele><time>2026-03-28T09:48:08Z</time></trkpt><trkpt lat="45.0001178660153" lon="7.317359542297927"><ele>797.0</ele><time>2026-03-28T09:48:14Z</time></trkpt><trkpt lat="45.00018342129095" lon="7.317412052020127"><ele>797.0</ele><time>2026-03-28T09:48:26Z</time></trkpt><trkpt lat="45.00024714528443" lon="7.31741070205614"><ele>797.0</ele><time>2026-03-28T09:48:38Z</time></trkpt><trkpt lat="45.00030944706904" lon="7.317391484306413"><ele>797.0000000000001</ele><time>2026-03-28T09:49:58.999Z</time></trkpt><trkpt lat="45.00038306979886" lon="7.317410424796154"><ele>797.0</ele><time>2026-03-28T09:50:02.999Z</time></trkpt><trkpt lat="45.00049156230939" lon="7.31747141144815"><ele>797.0</ele><time>2026-03-28T09:50:36.999Z</time></trkpt><trkpt lat="45.000568474262764" lon="7.317506740438606"><ele>797.0</ele><time>2026-03-28T09:50:40.999Z</time></trkpt><trkpt lat="45.00061754513055" lon="7.317596115164718"><ele>797.0000000000001</ele><time>2026-03-28T09:52:25.999Z</time></trkpt><trkpt lat="45.00068538302642" lon="7.317610749888627"><ele>797.0</ele><time>2026-03-28T09:52:31.999Z</time></trkpt><trkpt lat="45.00076404148077" lon="7.317566695028917"><ele>791.1428571428571</ele><time>2026-03-28T09:52:35.999Z</time></trkpt><trkpt lat="45.00083299261801" lon="7.31753362952038"><ele>785.2857142857143</ele><time>2026-03-28T09:52:41Z</time></trkpt><trkpt lat="45.0008547646049" lon="7.317625483838461"><ele>779.4285714285714</ele><time>2026-03-28T09:52:45Z</time></trkpt><trkpt lat="45.00091765634102" lon="7.317667978708883"><ele>773.5714285714286</ele><time>2026-03-28T09:52:53Z</time></trkpt><trkpt lat="45.000972070337454" lon="7.317612371951156"><ele>767.7142857142858</ele><time>2026-03-28T09:53:00Z</time></trkpt><trkpt lat="45.00104300147782" lon="7.317628132602838"><ele>761.8571428571429</ele><time>2026-03-28T09:53:11Z</time></trkpt><trkpt lat="45.00110598634589" lon="7.317600868870906"><ele>756.0</ele><time>2026-03-28T09:53:22Z</time></trkpt><trkpt lat="45.00116728618831" lon="7.317570305291522"><ele>756.0</ele><time>2026-03-28T09:53:27Z</time></trkpt><trkpt lat="45.001224880651044" lon="7.3175336982671295"><ele>756.0</ele><time>2026-03-28T09:53:31Z</time></trkpt><trkpt lat="45.0013035955311" lon="7.317473814352358"><ele>756.0</ele><time>2026-03-28T09:54:01Z</time></trkpt><trkpt lat="45.00135608246563" lon="7.317547420823408"><ele>756.0</ele><time>2026-03-28T09:54:06Z</time></trkpt><trkpt lat="45.0014202194566" lon="7.317554468039295"><ele>756.0</ele><time>2026-03-28T09:54:17Z</time></trkpt><trkpt lat="45.0014739059047" lon="7.317500259193901"><ele>756.0</ele><time>2026-03-28T09:54:23Z</time></trkpt><trkpt lat="45.0015398226655" lon="7.317506107773472"><ele>756.0</ele><time>2026-03-28T09:54:28Z</time></trkpt><trkpt lat="45.00160848974088" lon="7.317507239877304"><ele>749.3333333333334</ele><time>2026-03-28T09:54:32Z</time></trkpt><trkpt lat="45.001680800586705" lon="7.317519690889547"><ele>742.6666666666666</ele><time>2026-03-28T09:54:37Z</time></trkpt><trkpt lat="45.001750868479014" lon="7.317513674139977"><ele>736.0</ele><time>2026-03-28T09:54:41Z</time></trkpt><trkpt lat="45.001832921727605" lon="7.317513383980956"><ele>729.3333333333333</ele><time>2026-03-28T09:54:45Z</time></trkpt><trkpt lat="45.001902497232635" lon="7.3174506024448425"><ele>722.6666666666666</ele><time>2026-03-28T09:54:47Z</time></trkpt><trkpt lat="45.00196922784948" lon="7.3174386972385825"><ele>716.0</ele><time>2026-03-28T09:54:49Z</time></trkpt><trkpt lat="45.0020416745388" lon="7.317359231371301"><ele>716.0</ele><time>2026-03-28T09:54:52Z</time></trkpt><trkpt lat="45.00210735656081" lon="7.317356619810549"><ele>716.0</ele><time>2026-03-28T09:54:57Z</time></trkpt><trkpt lat="45.00216584584807" lon="7.317392925475747"><ele>716.0</ele><time>2026-03-28T09:56:04Z</time></trkpt><trkpt lat="45.00219845147502" lon="7.3174800335690104"><ele>716.0</ele><time>2026-03-28T09:56:08Z</time></trkpt><trkpt lat="45.002180262713715" lon="7.317577526247003"><ele>716.0</ele><time>2026-03-28T09:56:10Z</time></trkpt><trkpt lat="45.00208270531854" lon="7.317671195038935"><ele>716.0</ele><time>2026-03-28T09:56:13Z</time></trkpt><trkpt lat="45.00199626087649" lon="7.317791958956217"><ele>716.0</ele><time>2026-03-28T09:56:15Z</time></trkpt><trkpt lat="45.00192454077964" lon="7.317832268468372"><ele>716.0</ele><time>2026-03-28T09:56:17Z</time></trkpt><trkpt lat="45.00187408012885" lon="7.317906589910574"><ele>716.0</ele><time>2026-03-28T09:56:19Z</time></trkpt><trkpt lat="45.001917540644975" lon="7.317993864476065"><ele>716.0</ele><time>2026-03-28T09:56:22Z</time></trkpt><trkpt lat="45.00199322215779" lon="7.3180220592701595"><ele>716.0</ele><time>2026-03-28T09:56:25Z</time></trkpt><trkpt lat="45.00206776703912" lon="7.31801108870071"><ele>716.0</ele><time>2026-03-28T09:56:27Z</time></trkpt><trkpt lat="45.00214778578277" lon="7.317985672243489"><ele>716.0</ele><time>2026-03-28T09:56:30Z</time></trkpt><trkpt lat="45.00223526677634" lon="7.318032271079043"><ele>716.0</ele><time>2026-03-28T09:56:32.999Z</time></trkpt><trkpt lat="45.002343371287985" lon="7.318023931056192"><ele>716.0</ele><time>2026-03-28T09:56:34.999Z</time></trkpt><trkpt lat="45.00243363096789" lon="7.318008979229873"><ele>716.0</ele><time>2026-03-28T09:56:36.999Z</time></trkpt><trkpt lat="45.00252006975234" lon="7.317995927144877"><ele>716.0</ele><time>2026-03-28T09:56:38.999Z</time></trkpt><trkpt lat="45.00259884639468" lon="7.3179676763902135"><ele>712.5</ele><time>2026-03-28T09:56:40.999Z</time></trkpt><trkpt lat="45.002674033693424" lon="7.3179371882733815"><ele>709.0</ele><time>2026-03-28T09:56:42.999Z</time></trkpt><trkpt lat="45.00275248641528" lon="7.31787988155547"><ele>705.5</ele><time>2026-03-28T09:56:44.999Z</time></trkpt><trkpt lat="45.00281348028328" lon="7.317834575879069"><ele>702.0</ele><time>2026-03-28T09:56:46.999Z</time></trkpt><trkpt lat="45.00287521604633" lon="7.317805345788269"><ele>698.5</ele><time>2026-03-28T09:56:48.999Z</time></trkpt><trkpt lat="45.00295004150326" lon="7.317849070291322"><ele>695.0</ele><time>2026-03-28T09:56:51.999Z</time></trkpt><trkpt lat="45.00296354892471" lon="7.317950716957417"><ele>699.0</ele><time>2026-03-28T09:56:53.999Z</time></trkpt><trkpt lat="45.00297470315355" lon="7.318090221647825"><ele>703.0</ele><time>2026-03-28T09:56:55.999Z</time></trkpt><trkpt lat="45.00299750298776" lon="7.318215478680947"><ele>707.0</ele><time>2026-03-28T09:56:57.999Z</time></trkpt><trkpt lat="45.00298819176268" lon="7.318303926103455"><ele>711.0</ele><time>2026-03-28T09:57:00.999Z</time></trkpt><trkpt lat="45.00304128937209" lon="7.318442307852621"><ele>715.0</ele><time>2026-03-28T09:57:41.999Z</time></trkpt><trkpt lat="45.003078592156676" lon="7.318531771787635"><ele>719.0</ele><time>2026-03-28T09:57:45.999Z</time></trkpt><trkpt lat="45.00309984125939" lon="7.318440142798093"><ele>719.0</ele><time>2026-03-28T09:58:09.999Z</time></trkpt><trkpt lat="45.00312078836016" lon="7.318348195310531"><ele>719.0</ele><time>2026-03-28T09:58:44.999Z</time></trkpt><trkpt lat="45.0031668230965" lon="7.318271170118697"><ele>719.0</ele><time>2026-03-28T09:58:48.999Z</time></trkpt><trkpt lat="45.003184728234345" lon="7.318136014405844"><ele>719.0</ele><time>2026-03-28T09:59:39Z</time></trkpt><trkpt lat="45.00322523897439" lon="7.318067750197495"><ele>719.0</ele><time>2026-03-28T09:59:42Z</time></trkpt><trkpt lat="45.00327409579252" lon="7.317967052167773"><ele>719.0</ele><time>2026-03-28T09:59:45Z</time></trkpt><trkpt lat="45.00331737555636" lon="7.317871124285569"><ele>712.6666666666666</ele><time>2026-03-28T09:59:48Z</time></trkpt><trkpt lat="45.00338597415332" lon="7.317815747024271"><ele>706.3333333333333</ele><time>2026-03-28T09:59:52Z</time></trkpt><trkpt lat="45.003446143496674" lon="7.317785627184487"><ele>700.0</ele><time>2026-03-28T09:59:55Z</time></trkpt><trkpt lat="45.00352329664282" lon="7.317688750645753"><ele>693.6666666666666</ele><time>2026-03-28T09:59:58Z</time></trkpt><trkpt lat="45.00358805373035" lon="7.317666948015974"><ele>687.3333333333334</ele><time>2026-03-28T10:00:01Z</time></trkpt><trkpt lat="45.003657140292376" lon="7.317635302248754"><ele>681.0</ele><time>2026-03-28T10:00:18Z</time></trkpt><trkpt lat="45.00372486398043" lon="7.317642293191579"><ele>681.0000000000001</ele><time>2026-03-28T10:00:28Z</time></trkpt><trkpt lat="45.00378302034818" lon="7.317696646184054"><ele>681.0</ele><time>2026-03-28T10:00:37Z</time></trkpt><trkpt lat="45.00383643363436" lon="7.317764598583928"><ele>681.0</ele><time>2026-03-28T10:00:40Z</time></trkpt><trkpt lat="45.00390235156777" lon="7.317819747241433"><ele>681.0</ele><time>2026-03-28T10:00:42Z</time></trkpt><trkpt lat="45.00391643325565" lon="7.317924652959639"><ele>681.0</ele><time>2026-03-28T10:00:46Z</time></trkpt><trkpt lat="45.0039607876028" lon="7.318006133156013"><ele>681.0000000000001</ele><time>2026-03-28T10:00:48Z</time></trkpt><trkpt lat="45.00403341676019" lon="7.318059463943702"><ele>681.0</ele><time>2026-03-28T10:00:50Z</time></trkpt><trkpt lat="45.004135552558324" lon="7.3180589916313465"><ele>680.4285714285714</ele><time>2026-03-28T10:00:52Z</time></trkpt><trkpt lat="45.004199142829876" lon="7.318058876716064"><ele>679.8571428571429</ele><time>2026-03-28T10:00:54Z</time></trkpt><trkpt lat="45.004265078324046" lon="7.318080448949491"><ele>679.2857142857142</ele><time>2026-03-28T10:01:01Z</time></trkpt><trkpt lat="45.00432722310946" lon="7.318122902056989"><ele>678.7142857142858</ele><time>2026-03-28T10:01:21Z</time></trkpt><trkpt lat="45.004398426324634" lon="7.318063323044758"><ele>678.1428571428571</ele><time>2026-03-28T10:01:24Z</time></trkpt><trkpt lat="45.00446852169057" lon="7.318017368642787"><ele>677.5714285714286</ele><time>2026-03-28T10:01:27Z</time></trkpt><trkpt lat="45.00451269466916" lon="7.3179154567872695"><ele>677.0</ele><time>2026-03-28T10:01:30Z</time></trkpt><trkpt lat="45.00454872873006" lon="7.317838988714341"><ele>676.8333333333333</ele><time>2026-03-28T10:01:32Z</time></trkpt><trkpt lat="45.004593736479194" lon="7.317765032049624"><ele>676.6666666666666</ele><time>2026-03-28T10:01:35Z</time></trkpt><trkpt lat="45.00459334938339" lon="7.317661038746403"><ele>676.5</ele><time>2026-03-28T10:01:38Z</time></trkpt><trkpt lat="45.00458361633201" lon="7.317537637592206"><ele>676.3333333333334</ele><time>2026-03-28T10:01:40Z</time></trkpt><trkpt lat="45.004566170802896" lon="7.31738126352406"><ele>676.1666666666667</ele><time>2026-03-28T10:01:42Z</time></trkpt><trkpt lat="45.00451120839223" lon="7.317284041140743"><ele>676.0</ele><time>2026-03-28T10:01:44Z</time></trkpt><trkpt lat="45.004437559417795" lon="7.3172142708981"><ele>676.0</ele><time>2026-03-28T10:01:46Z</time></trkpt><trkpt lat="45.00436217995375" lon="7.31714912723885"><ele>676.0</ele><time>2026-03-28T10:01:48Z</time></trkpt><trkpt lat="45.004272309014766" lon="7.317144989106135"><ele>676.0</ele><time>2026-03-28T10:01:50Z</time></trkpt><trkpt lat="45.00420478328254" lon="7.317168799708695"><ele>676.0</ele><time>2026-03-28T10:01:52Z</time></trkpt><trkpt lat="45.00412933926313" lon="7.317173836521908"><ele>676.0</ele><time>2026-03-28T10:01:54Z</time></trkpt><trkpt lat="45.00404831038168" lon="7.3171117909331285"><ele>676.0</ele><time>2026-03-28T10:01:57Z</time></trkpt><trkpt lat="45.00399405044717" lon="7.317012830654963"><ele>677.0</ele><time>2026-03-28T10:02:01Z</time></trkpt><trkpt lat="45.00395063131008" lon="7.316946049997735"><ele>678.0</ele><time>2026-03-28T10:02:04Z</time></trkpt><trkpt lat="45.003887988753476" lon="7.3168706708547"><ele>679.0</ele><time>2026-03-28T10:02:08Z</time></trkpt><trkpt lat="45.00384296753414" lon="7.316799015869266"><ele>680.0</ele><time>2026-03-28T10:02:11Z</time></trkpt><trkpt lat="45.00375916156787" lon="7.31670498650509"><ele>681.0</ele><time>2026-03-28T10:02:27Z</time></trkpt><trkpt lat="45.003682045087466" lon="7.3166536219265"><ele>682.0</ele><time>2026-03-28T10:02:32Z</time></trkpt><trkpt lat="45.003642026874886" lon="7.316569798241672"><ele>682.0</ele><time>2026-03-28T10:02:36Z</time></trkpt><trkpt lat="45.003610133293186" lon="7.316490677237861"><ele>682.0</ele><time>2026-03-28T10:02:40Z</time></trkpt><trkpt lat="45.00355778976842" lon="7.316428646811125"><ele>682.0</ele><time>2026-03-28T10:03:36Z</time></trkpt><trkpt lat="45.003597550277824" lon="7.316354440647193"><ele>682.0</ele><time>2026-03-28T10:03:49.999Z</time></trkpt><trkpt lat="45.00354463863981" lon="7.3163042081557235"><ele>682.0</ele><time>2026-03-28T10:06:16Z</time></trkpt><trkpt lat="45.003512292940236" lon="7.316212866495021"><ele>682.0</ele><time>2026-03-28T10:06:29Z</time></trkpt><trkpt lat="45.00345720556925" lon="7.316141134479052"><ele>682.0</ele><time>2026-03-28T10:06:34Z</time></trkpt><trkpt lat="45.00340175306189" lon="7.316075265403165"><ele>684.8333333333334</ele><time>2026-03-28T10:06:37Z</time></trkpt><trkpt lat="45.00337404557356" lon="7.315975563920284"><ele>687.6666666666667</ele><time>2026-03-28T10:06:40Z</time></trkpt><trkpt lat="45.00332986264784" lon="7.3159044166383485"><ele>690.5</ele><time>2026-03-28T10:06:43Z</time></trkpt><trkpt lat="45.003228186731555" lon="7.315917836168648"><ele>693.3333333333334</ele><time>2026-03-28T10:07:03Z</time></trkpt><trkpt lat="45.00316247633833" lon="7.315843297984519"><ele>696.1666666666666</ele><time>2026-03-28T10:07:07Z</time></trkpt><trkpt lat="45.00309986079395" lon="7.315802991801272"><ele>699.0</ele><time>2026-03-28T10:07:10Z</time></trkpt><trkpt lat="45.003034630024324" lon="7.315738420796988"><ele>699.0</ele><time>2026-03-28T10:07:13Z</time></trkpt><trkpt lat="45.003007045770744" lon="7.315642584815629"><ele>699.0</ele><time>2026-03-28T10:07:15Z</time></trkpt><trkpt lat="45.002989336279704" lon="7.31555026662679"><ele>699.0</ele><time>2026-03-28T10:07:18Z</time></trkpt><trkpt lat="45.00293578028363" lon="7.315492601117337"><ele>699.0</ele><time>2026-03-28T10:07:28Z</time></trkpt><trkpt lat="45.002949718188525" lon="7.31537643695383"><ele>699.0</ele><time>2026-03-28T10:07:31Z</time></trkpt><trkpt lat="45.00298465573333" lon="7.3154634221505255"><ele>699.0</ele><time>2026-03-28T10:09:13Z</time></trkpt><trkpt lat="45.00301884755149" lon="7.315555794814072"><ele>699.0</ele><time>2026-03-28T10:09:18Z</time></trkpt><trkpt lat="45.00304536530384" lon="7.315639536536279"><ele>699.0</ele><time>2026-03-28T10:09:24Z</time></trkpt><trkpt lat="45.00308008755393" lon="7.315724262164422"><ele>699.0</ele><time>2026-03-28T10:09:29Z</time></trkpt><trkpt lat="45.00312539671434" lon="7.315803247480689"><ele>699.0</ele><time>2026-03-28T10:09:34Z</time></trkpt><trkpt lat="45.00318387901152" lon="7.315839331524559"><ele>699.0</ele><time>2026-03-28T10:09:39Z</time></trkpt><trkpt lat="45.003234609268745" lon="7.3159096062906075"><ele>699.0</ele><time>2026-03-28T10:09:44Z</time></trkpt><trkpt lat="45.0032990877836" lon="7.315933032683974"><ele>699.0</ele><time>2026-03-28T10:11:20.999Z</time></trkpt><trkpt lat="45.00320893925988" lon="7.315944683725068"><ele>699.0</ele><time>2026-03-28T10:12:12Z</time></trkpt><trkpt lat="45.00315823128863" lon="7.315867626564687"><ele>699.0</ele><time>2026-03-28T10:13:07Z</time></trkpt><trkpt lat="45.00309535538313" lon="7.315820121074596"><ele>699.0</ele><time>2026-03-28T10:13:14Z</time></trkpt><trkpt lat="45.00303899929309" lon="7.315775266149451"><ele>699.0</ele><time>2026-03-28T10:13:24Z</time></trkpt><trkpt lat="45.00303464548173" lon="7.315651479097041"><ele>699.0</ele><time>2026-03-28T10:13:50Z</time></trkpt><trkpt lat="45.0030164191736" lon="7.315561692892415"><ele>699.0</ele><time>2026-03-28T10:14:00Z</time></trkpt><trkpt lat="45.00299448905016" lon="7.3154683004811405"><ele>699.0</ele><time>2026-03-28T10:14:08Z</time></trkpt><trkpt lat="45.0029770589439" lon="7.315343402971751"><ele>699.0</ele><time>2026-03-28T10:14:26Z</time></trkpt><trkpt lat="45.00295951540532" lon="7.315234256791908"><ele>703.4285714285714</ele><time>2026-03-28T10:15:03Z</time></trkpt><trkpt lat="45.00292649737889" lon="7.315135893031602"><ele>707.8571428571429</ele><time>2026-03-28T10:15:24Z</time></trkpt><trkpt lat="45.002942169439045" lon="7.315222840954729"><ele>712.2857142857143</ele><time>2026-03-28T10:17:44.999Z</time></trkpt><trkpt lat="45.00296536993593" lon="7.315313027183449"><ele>716.7142857142858</ele><time>2026-03-28T10:18:16Z</time></trkpt><trkpt lat="45.00294167703424" lon="7.31522562189947"><ele>721.1428571428571</ele><time>2026-03-28T10:20:23Z</time></trkpt><trkpt lat="45.002963764502034" lon="7.315310112047008"><ele>725.5714285714287</ele><time>2026-03-28T10:22:06Z</time></trkpt><trkpt lat="45.00293868343391" lon="7.315222314809859"><ele>730.0</ele><time>2026-03-28T10:24:25Z</time></trkpt><trkpt lat="45.0029421891282" lon="7.315122806444617"><ele>730.0</ele><time>2026-03-28T10:29:12Z</time></trkpt><trkpt lat="45.003000856326274" lon="7.315188359157621"><ele>730.0</ele><time>2026-03-28T10:30:32Z</time></trkpt><trkpt lat="45.00305775231615" lon="7.315134754097359"><ele>730.0</ele><time>2026-03-28T10:31:13Z</time></trkpt><trkpt lat="45.0030193982049" lon="7.314999775790417"><ele>730.0</ele><time>2026-03-28T10:31:15Z</time></trkpt><trkpt lat="45.0029978891567" lon="7.31490756107629"><ele>730.0</ele><time>2026-03-28T10:31:16Z</time></trkpt><trkpt lat="45.002973507065725" lon="7.314820875431976"><ele>730.0</ele><time>2026-03-28T10:31:17Z</time></trkpt><trkpt lat="45.00290657978509" lon="7.314702984546091"><ele>734.2</ele><time>2026-03-28T10:31:19Z</time></trkpt><trkpt lat="45.00285916683958" lon="7.314643069796656"><ele>738.4</ele><time>2026-03-28T10:31:20Z</time></trkpt><trkpt lat="45.002836521779614" lon="7.314515657856002"><ele>742.5999999999999</ele><time>2026-03-28T10:31:22Z</time></trkpt><trkpt lat="45.002827609365696" lon="7.31435070889498"><ele>746.8</ele><time>2026-03-28T10:31:24Z</time></trkpt><trkpt lat="45.00280725436236" lon="7.314221057134658"><ele>751.0</ele><time>2026-03-28T10:31:26Z</time></trkpt><trkpt lat="45.00275543636361" lon="7.3141263604349165"><ele>751.0</ele><time>2026-03-28T10:31:29Z</time></trkpt><trkpt lat="45.00273064956338" lon="7.314021476183666"><ele>751.0</ele><time>2026-03-28T10:31:32Z</time></trkpt><trkpt lat="45.002698132257244" lon="7.313925034371008"><ele>751.0</ele><time>2026-03-28T10:32:33Z</time></trkpt><trkpt lat="45.00269619426917" lon="7.313825979089464"><ele>751.0</ele><time>2026-03-28T10:32:36Z</time></trkpt><trkpt lat="45.002621971838" lon="7.31378366100835"><ele>751.0</ele><time>2026-03-28T10:32:49Z</time></trkpt><trkpt lat="45.00254240287381" lon="7.313689330054727"><ele>751.0</ele><time>2026-03-28T10:32:51Z</time></trkpt><trkpt lat="45.00252827166534" lon="7.313593813387145"><ele>754.1666666666667</ele><time>2026-03-28T10:32:53Z</time></trkpt><trkpt lat="45.00248836768005" lon="7.3134827006338226"><ele>757.3333333333334</ele><time>2026-03-28T10:32:55Z</time></trkpt><trkpt lat="45.002449160470086" lon="7.313410986426114"><ele>760.5</ele><time>2026-03-28T10:32:56Z</time></trkpt><trkpt lat="45.00239982039607" lon="7.313341275189776"><ele>763.6666666666667</ele><time>2026-03-28T10:32:57Z</time></trkpt><trkpt lat="45.00231849230612" lon="7.313249638682798"><ele>766.8333333333334</ele><time>2026-03-28T10:32:59Z</time></trkpt><trkpt lat="45.00224318928763" lon="7.313194533437197"><ele>770.0</ele><time>2026-03-28T10:33:01Z</time></trkpt><trkpt lat="45.002167535793255" lon="7.31313780604242"><ele>770.0</ele><time>2026-03-28T10:33:03Z</time></trkpt><trkpt lat="45.002065186437086" lon="7.313073012642005"><ele>770.0</ele><time>2026-03-28T10:33:05Z</time></trkpt><trkpt lat="45.001975976828405" lon="7.313014854101224"><ele>770.0</ele><time>2026-03-28T10:33:07Z</time></trkpt><trkpt lat="45.001900563703266" lon="7.31293824202657"><ele>770.0</ele><time>2026-03-28T10:33:09Z</time></trkpt><trkpt lat="45.00182309402383" lon="7.312853490101788"><ele>770.0</ele><time>2026-03-28T10:33:11Z</time></trkpt><trkpt lat="45.001732235765964" lon="7.312776458041662"><ele>774.75</ele><time>2026-03-28T10:33:13Z</time></trkpt><trkpt lat="45.00169484520936" lon="7.312651585593557"><ele>779.5</ele><time>2026-03-28T10:33:15Z</time></trkpt><trkpt lat="45.00159644160229" lon="7.31247316089378"><ele>784.25</ele><time>2026-03-28T10:33:18Z</time></trkpt><trkpt lat="45.00153709785348" lon="7.3123058745337515"><ele>789.0</ele><time>2026-03-28T10:33:20Z</time></trkpt><trkpt lat="45.00150738685912" lon="7.31222005786127"><ele>794.3333333333334</ele><time>2026-03-28T10:33:21Z</time></trkpt><trkpt lat="45.00144057787497" lon="7.312076709106822"><ele>799.6666666666667</ele><time>2026-03-28T10:33:23Z</time></trkpt><trkpt lat="45.00138649586909" lon="7.312000098726834"><ele>805.0</ele><time>2026-03-28T10:33:24Z</time></trkpt><trkpt lat="45.00132562467614" lon="7.311905023788098"><ele>810.3333333333334</ele><time>2026-03-28T10:33:25Z</time></trkpt><trkpt lat="45.00126502839593" lon="7.311835354511724"><ele>815.6666666666667</ele><time>2026-03-28T10:33:26Z</time></trkpt><trkpt lat="45.00120191769749" lon="7.3117772113979145"><ele>821.0</ele><time>2026-03-28T10:33:27Z</time></trkpt><trkpt lat="45.00115248769249" lon="7.31171774021551"><ele>821.0000000000001</ele><time>2026-03-28T10:33:28Z</time></trkpt><trkpt lat="45.00117779578946" lon="7.311593220274251"><ele>821.0</ele><time>2026-03-28T10:33:56Z</time></trkpt><trkpt lat="45.001101581305676" lon="7.311570896440303"><ele>821.0</ele><time>2026-03-28T10:34:00Z</time></trkpt><trkpt lat="45.001038872518414" lon="7.31161005050513"><ele>821.0</ele><time>2026-03-28T10:34:01Z</time></trkpt><trkpt lat="45.00096929755921" lon="7.311572835861732"><ele>821.0000000000001</ele><time>2026-03-28T10:34:03Z</time></trkpt><trkpt lat="45.000865041985264" lon="7.311530715639964"><ele>821.0</ele><time>2026-03-28T10:34:05Z</time></trkpt><trkpt lat="45.000874226041525" lon="7.311425481892719"><ele>823.1999999999999</ele><time>2026-03-28T10:34:08Z</time></trkpt><trkpt lat="45.00086733838835" lon="7.311333175675683"><ele>825.4</ele><time>2026-03-28T10:34:12Z</time></trkpt><trkpt lat="45.00081111815507" lon="7.311374243656282"><ele>827.6</ele><time>2026-03-28T10:34:14Z</time></trkpt><trkpt lat="45.000632926392164" lon="7.311381977888448"><ele>829.8</ele><time>2026-03-28T10:34:45Z</time></trkpt><trkpt lat="45.0005138226859" lon="7.3113427949365715"><ele>832.0</ele><time>2026-03-28T10:34:47Z</time></trkpt><trkpt lat="45.00044478831858" lon="7.311321665515709"><ele>836.9999999999999</ele><time>2026-03-28T10:34:48Z</time></trkpt><trkpt lat="45.00033313363678" lon="7.311318077977484"><ele>842.0</ele><time>2026-03-28T10:34:50Z</time></trkpt><trkpt lat="45.0002661313249" lon="7.311323233960291"><ele>847.0</ele><time>2026-03-28T10:34:51Z</time></trkpt><trkpt lat="45.000199338282435" lon="7.311307796202819"><ele>852.0</ele><time>2026-03-28T10:34:52Z</time></trkpt><trkpt lat="45.000107972902946" lon="7.311238878005589"><ele>856.9999999999999</ele><time>2026-03-28T10:34:54Z</time></trkpt><trkpt lat="45.0000337926131" lon="7.311203822718017"><ele>862.0</ele><time>2026-03-28T10:34:56Z</time></trkpt><trkpt lat="44.99996653898128" lon="7.311156791256284"><ele>862.0</ele><time>2026-03-28T10:35:06Z</time></trkpt><trkpt lat="44.99988761089995" lon="7.311117840294761"><ele>862.0</ele><time>2026-03-28T10:37:18Z</time></trkpt><trkpt lat="44.999801567590985" lon="7.311125774633832"><ele>862.0</ele><time>2026-03-28T10:37:20Z</time></trkpt><trkpt lat="44.99972342799052" lon="7.3110799394280415"><ele>862.0</ele><time>2026-03-28T10:37:22Z</time></trkpt><trkpt lat="44.9996502131919" lon="7.3110168651895"><ele>862.0</ele><time>2026-03-28T10:37:24Z</time></trkpt><trkpt lat="44.99957218518697" lon="7.310901470925054"><ele>861.9999999999999</ele><time>2026-03-28T10:37:26Z</time></trkpt><trkpt lat="44.99951522095503" lon="7.310847944669819"><ele>862.0</ele><time>2026-03-28T10:37:27Z</time></trkpt><trkpt lat="44.99944906460769" lon="7.3108100367592765"><ele>862.0</ele><time>2026-03-28T10:37:28Z</time></trkpt><trkpt lat="44.99938464627378" lon="7.310775030434282"><ele>862.0</ele><time>2026-03-28T10:37:29Z</time></trkpt><trkpt lat="44.99929120535312" lon="7.31066903347624"><ele>861.9999999999999</ele><time>2026-03-28T10:37:31Z</time></trkpt><trkpt lat="44.99923820852646" lon="7.310592367179132"><ele>862.0</ele><time>2026-03-28T10:37:32Z</time></trkpt><trkpt lat="44.999169773561114" lon="7.310537444464827"><ele>866.4999999999999</ele><time>2026-03-28T10:37:33Z</time></trkpt><trkpt lat="44.9990946353131" lon="7.310499562676566"><ele>871.0</ele><time>2026-03-28T10:37:34Z</time></trkpt><trkpt lat="44.99901603785599" lon="7.310456348257825"><ele>875.5</ele><time>2026-03-28T10:37:35Z</time></trkpt><trkpt lat="44.99893310148945" lon="7.310406192296922"><ele>880.0</ele><time>2026-03-28T10:37:36Z</time></trkpt><trkpt lat="44.998857805202086" lon="7.310332223189513"><ele>884.4999999999999</ele><time>2026-03-28T10:37:37Z</time></trkpt><trkpt lat="44.99878359264138" lon="7.310282930363135"><ele>889.0</ele><time>2026-03-28T10:37:38Z</time></trkpt><trkpt lat="44.998704856884586" lon="7.3102585434084615"><ele>888.9999999999999</ele><time>2026-03-28T10:37:39Z</time></trkpt><trkpt lat="44.998627373741876" lon="7.310250776049652"><ele>889.0</ele><time>2026-03-28T10:37:40Z</time></trkpt><trkpt lat="44.998553555806545" lon="7.31025262317773"><ele>889.0</ele><time>2026-03-28T10:37:41Z</time></trkpt><trkpt lat="44.99848820421823" lon="7.310256609724998"><ele>889.0</ele><time>2026-03-28T10:37:42Z</time></trkpt><trkpt lat="44.99836865345522" lon="7.310244925144383"><ele>888.9999999999999</ele><time>2026-03-28T10:37:44Z</time></trkpt><trkpt lat="44.99832633753437" lon="7.310369714091166"><ele>889.0</ele><time>2026-03-28T10:37:46Z</time></trkpt><trkpt lat="44.99830717001682" lon="7.310480923803477"><ele>888.9999999999999</ele><time>2026-03-28T10:37:47Z</time></trkpt><trkpt lat="44.99827051197941" lon="7.310569140734576"><ele>889.0</ele><time>2026-03-28T10:37:48Z</time></trkpt><trkpt lat="44.9982212653628" lon="7.310636428689403"><ele>889.0</ele><time>2026-03-28T10:37:49Z</time></trkpt><trkpt lat="44.99816989839459" lon="7.31070455936567"><ele>889.0</ele><time>2026-03-28T10:37:50Z</time></trkpt><trkpt lat="44.998111033252876" lon="7.310752289961983"><ele>888.9999999999999</ele><time>2026-03-28T10:37:51Z</time></trkpt><trkpt lat="44.99803926991794" lon="7.3107573207117"><ele>889.0</ele><time>2026-03-28T10:37:52Z</time></trkpt><trkpt lat="44.99791707338491" lon="7.310735127347678"><ele>888.2</ele><time>2026-03-28T10:37:54Z</time></trkpt><trkpt lat="44.99780912987021" lon="7.310711726279292"><ele>887.4000000000001</ele><time>2026-03-28T10:37:56Z</time></trkpt><trkpt lat="44.99774112979966" lon="7.310696212054189"><ele>886.6</ele><time>2026-03-28T10:37:57Z</time></trkpt><trkpt lat="44.9976229114391" lon="7.31066163387555"><ele>885.8</ele><time>2026-03-28T10:37:59Z</time></trkpt><trkpt lat="44.99754084850776" lon="7.310576682243152"><ele>885.0</ele><time>2026-03-28T10:38:01Z</time></trkpt><trkpt lat="44.99748667282399" lon="7.310493738714614"><ele>885.0</ele><time>2026-03-28T10:38:02Z</time></trkpt><trkpt lat="44.997435711354534" lon="7.310403716396064"><ele>885.0</ele><time>2026-03-28T10:38:03Z</time></trkpt><trkpt lat="44.99737509616493" lon="7.3103222764337685"><ele>885.0</ele><time>2026-03-28T10:38:04Z</time></trkpt><trkpt lat="44.99731302573847" lon="7.310282673914105"><ele>885.0</ele><time>2026-03-28T10:38:05Z</time></trkpt><trkpt lat="44.99724885143639" lon="7.310257488986457"><ele>885.0</ele><time>2026-03-28T10:38:06Z</time></trkpt><trkpt lat="44.997180880588964" lon="7.3102183722455605"><ele>885.0</ele><time>2026-03-28T10:38:07Z</time></trkpt><trkpt lat="44.997100894082514" lon="7.310170527723199"><ele>885.0</ele><time>2026-03-28T10:38:08Z</time></trkpt><trkpt lat="44.997030840835485" lon="7.310137930907122"><ele>885.0</ele><time>2026-03-28T10:38:09Z</time></trkpt><trkpt lat="44.996958014158146" lon="7.3101070364935525"><ele>885.0</ele><time>2026-03-28T10:38:10Z</time></trkpt><trkpt lat="44.996886364342615" lon="7.310086301031127"><ele>885.0</ele><time>2026-03-28T10:38:11Z</time></trkpt><trkpt lat="44.996825629957705" lon="7.310058375572624"><ele>885.0</ele><time>2026-03-28T10:38:12Z</time></trkpt><trkpt lat="44.99675484590338" lon="7.3100429599473165"><ele>885.0</ele><time>2026-03-28T10:38:13Z</time></trkpt><trkpt lat="44.99664949272716" lon="7.310065135842128"><ele>888.2</ele><time>2026-03-28T10:38:15Z</time></trkpt><trkpt lat="44.99658271153972" lon="7.309993030572412"><ele>891.4</ele><time>2026-03-28T10:38:17Z</time></trkpt><trkpt lat="44.996531396772525" lon="7.309861099713373"><ele>894.5999999999999</ele><time>2026-03-28T10:38:19Z</time></trkpt><trkpt lat="44.99650188445174" lon="7.309709478560065"><ele>897.8</ele><time>2026-03-28T10:38:21Z</time></trkpt><trkpt lat="44.99648245387482" lon="7.3095833229913145"><ele>901.0</ele><time>2026-03-28T10:38:23Z</time></trkpt><trkpt lat="44.99640294710218" lon="7.30947383915642"><ele>901.0</ele><time>2026-03-28T10:38:25Z</time></trkpt><trkpt lat="44.99636998815442" lon="7.3093347537407025"><ele>900.9999999999999</ele><time>2026-03-28T10:38:27Z</time></trkpt><trkpt lat="44.99631949089783" lon="7.309231887737401"><ele>900.9999999999999</ele><time>2026-03-28T10:38:29Z</time></trkpt><trkpt lat="44.99625628278641" lon="7.309198883715415"><ele>901.0</ele><time>2026-03-28T10:38:30Z</time></trkpt><trkpt lat="44.99618055274818" lon="7.3091521117528595"><ele>901.0</ele><time>2026-03-28T10:38:32Z</time></trkpt><trkpt lat="44.996049221725265" lon="7.309145757599912"><ele>900.9999999999999</ele><time>2026-03-28T10:38:34Z</time></trkpt><trkpt lat="44.99597030264167" lon="7.30913613356133"><ele>901.0</ele><time>2026-03-28T10:38:35Z</time></trkpt><trkpt lat="44.99590670820691" lon="7.309123214720154"><ele>901.0</ele><time>2026-03-28T10:38:36Z</time></trkpt><trkpt lat="44.99580208958026" lon="7.309121745245443"><ele>901.0</ele><time>2026-03-28T10:38:38Z</time></trkpt><trkpt lat="44.99572717863578" lon="7.309122502806177"><ele>900.9999999999999</ele><time>2026-03-28T10:38:40Z</time></trkpt><trkpt lat="44.99568104032143" lon="7.309236243178245"><ele>901.0</ele><time>2026-03-28T10:38:44Z</time></trkpt><trkpt lat="44.99561907121301" lon="7.309260829231006"><ele>898.9999999999999</ele><time>2026-03-28T10:38:46Z</time></trkpt><trkpt lat="44.995526226867895" lon="7.309315502111618"><ele>897.0</ele><time>2026-03-28T10:38:48Z</time></trkpt><trkpt lat="44.99542226441355" lon="7.3093404143405705"><ele>895.0</ele><time>2026-03-28T10:38:50Z</time></trkpt><trkpt lat="44.995359864742035" lon="7.309367105387511"><ele>893.0</ele><time>2026-03-28T10:38:51Z</time></trkpt><trkpt lat="44.99527342693193" lon="7.3093078913214935"><ele>890.9999999999999</ele><time>2026-03-28T10:38:53Z</time></trkpt><trkpt lat="44.99524192717145" lon="7.30921702768833"><ele>889.0</ele><time>2026-03-28T10:38:54Z</time></trkpt><trkpt lat="44.995214498813255" lon="7.309121983027002"><ele>889.0</ele><time>2026-03-28T10:38:55Z</time></trkpt><trkpt lat="44.99511731279335" lon="7.309036554041306"><ele>889.0000000000001</ele><time>2026-03-28T10:38:57Z</time></trkpt><trkpt lat="44.995029743850374" lon="7.308972682946517"><ele>889.0000000000001</ele><time>2026-03-28T10:38:59Z</time></trkpt><trkpt lat="44.99499524651049" lon="7.308882399898214"><ele>889.0</ele><time>2026-03-28T10:39:00Z</time></trkpt><trkpt lat="44.994965231536064" lon="7.30876766164673"><ele>889.0</ele><time>2026-03-28T10:39:01Z</time></trkpt><trkpt lat="44.994945758118504" lon="7.3086583996426455"><ele>889.3333333333333</ele><time>2026-03-28T10:39:02Z</time></trkpt><trkpt lat="44.99494398729838" lon="7.30855606583105"><ele>889.6666666666666</ele><time>2026-03-28T10:39:03Z</time></trkpt><trkpt lat="44.994948130056386" lon="7.308452166317013"><ele>890.0</ele><time>2026-03-28T10:39:04Z</time></trkpt><trkpt lat="44.994972395685515" lon="7.308326740325196"><ele>890.3333333333333</ele><time>2026-03-28T10:39:06Z</time></trkpt><trkpt lat="44.994953759098614" lon="7.30823600210705"><ele>890.6666666666666</ele><time>2026-03-28T10:39:08Z</time></trkpt><trkpt lat="44.994874991608484" lon="7.30820225355476"><ele>891.0</ele><time>2026-03-28T10:39:10Z</time></trkpt><trkpt lat="44.994791854642514" lon="7.308187389117799"><ele>891.0</ele><time>2026-03-28T10:39:12Z</time></trkpt><trkpt lat="44.99471738614134" lon="7.308170425748924"><ele>891.0</ele><time>2026-03-28T10:39:14Z</time></trkpt><trkpt lat="44.994645632461705" lon="7.30817356850361"><ele>891.0</ele><time>2026-03-28T10:39:20Z</time></trkpt><trkpt lat="44.99458033350379" lon="7.308183815397392"><ele>891.0</ele><time>2026-03-28T10:39:25Z</time></trkpt><trkpt lat="44.99451336565386" lon="7.30823189370703"><ele>891.0</ele><time>2026-03-28T10:39:28Z</time></trkpt><trkpt lat="44.994441732966735" lon="7.308263448551151"><ele>891.0</ele><time>2026-03-28T10:39:30Z</time></trkpt><trkpt lat="44.99435254932501" lon="7.308293688713362"><ele>891.0000000000001</ele><time>2026-03-28T10:39:32Z</time></trkpt><trkpt lat="44.99428704174978" lon="7.308318153144075"><ele>891.0</ele><time>2026-03-28T10:39:33Z</time></trkpt><trkpt lat="44.99421868499969" lon="7.30834351373609"><ele>891.0</ele><time>2026-03-28T10:39:34Z</time></trkpt><trkpt lat="44.99415355664706" lon="7.308379915683723"><ele>891.0</ele><time>2026-03-28T10:39:35Z</time></trkpt><trkpt lat="44.99407821707795" lon="7.30843616172734"><ele>891.0</ele><time>2026-03-28T10:39:36Z</time></trkpt><trkpt lat="44.99402565946727" lon="7.308492933150884"><ele>891.0000000000001</ele><time>2026-03-28T10:39:37Z</time></trkpt><trkpt lat="44.99397477368157" lon="7.3085604354894045"><ele>891.0</ele><time>2026-03-28T10:39:38Z</time></trkpt><trkpt lat="44.9939132846482" lon="7.308702829320292"><ele>889.8333333333334</ele><time>2026-03-28T10:39:40Z</time></trkpt><trkpt lat="44.99382888279075" lon="7.308853083851456"><ele>888.6666666666667</ele><time>2026-03-28T10:39:42Z</time></trkpt><trkpt lat="44.99374134750651" lon="7.308941731719323"><ele>887.5</ele><time>2026-03-28T10:39:43Z</time></trkpt><trkpt lat="44.99367736449304" lon="7.3089785376033785"><ele>886.3333333333334</ele><time>2026-03-28T10:39:44Z</time></trkpt><trkpt lat="44.993608830631516" lon="7.308997700172514"><ele>885.1666666666667</ele><time>2026-03-28T10:39:46Z</time></trkpt><trkpt lat="44.993545170588554" lon="7.309022199716402"><ele>884.0</ele><time>2026-03-28T10:40:49Z</time></trkpt><trkpt lat="44.99345649348048" lon="7.309049489067169"><ele>881.5000000000001</ele><time>2026-03-28T10:40:52Z</time></trkpt><trkpt lat="44.99335314218257" lon="7.309027342438359"><ele>879.0</ele><time>2026-03-28T10:40:54Z</time></trkpt><trkpt lat="44.99326364870717" lon="7.309031331106274"><ele>876.5</ele><time>2026-03-28T10:40:56Z</time></trkpt><trkpt lat="44.993194013448395" lon="7.309015706955155"><ele>874.0</ele><time>2026-03-28T10:40:58Z</time></trkpt><trkpt lat="44.993103982025005" lon="7.309049454262542"><ele>871.5000000000001</ele><time>2026-03-28T10:41:00Z</time></trkpt><trkpt lat="44.993055575435214" lon="7.30911356409101"><ele>869.0</ele><time>2026-03-28T10:41:01Z</time></trkpt><trkpt lat="44.993011404392576" lon="7.309184007145342"><ele>869.0</ele><time>2026-03-28T10:41:02Z</time></trkpt><trkpt lat="44.99294559454623" lon="7.309322238836172"><ele>869.0000000000001</ele><time>2026-03-28T10:41:04Z</time></trkpt><trkpt lat="44.99291156884505" lon="7.309397819734995"><ele>869.0000000000001</ele><time>2026-03-28T10:41:05Z</time></trkpt><trkpt lat="44.99288406443664" lon="7.3095609780120085"><ele>869.0</ele><time>2026-03-28T10:41:07Z</time></trkpt><trkpt lat="44.992873648498275" lon="7.309737407875387"><ele>869.0</ele><time>2026-03-28T10:41:09Z</time></trkpt><trkpt lat="44.99285913860479" lon="7.309899359292753"><ele>867.2</ele><time>2026-03-28T10:41:11Z</time></trkpt><trkpt lat="44.992814321279155" lon="7.31004799861231"><ele>865.4000000000001</ele><time>2026-03-28T10:41:13Z</time></trkpt><trkpt lat="44.99279142898355" lon="7.310230684031218"><ele>863.6</ele><time>2026-03-28T10:41:15Z</time></trkpt><trkpt lat="44.99279348188981" lon="7.310374807059943"><ele>861.8</ele><time>2026-03-28T10:41:17Z</time></trkpt><trkpt lat="44.99279612445869" lon="7.3104644526489535"><ele>860.0</ele><time>2026-03-28T10:41:18Z</time></trkpt><trkpt lat="44.99277587800669" lon="7.310555418877122"><ele>855.3333333333334</ele><time>2026-03-28T10:41:19Z</time></trkpt><trkpt lat="44.992730506283515" lon="7.310642121625751"><ele>850.6666666666667</ele><time>2026-03-28T10:41:20Z</time></trkpt><trkpt lat="44.9926842118552" lon="7.310724179769747"><ele>846.0</ele><time>2026-03-28T10:41:21Z</time></trkpt><trkpt lat="44.992662217545316" lon="7.310833871241081"><ele>841.3333333333333</ele><time>2026-03-28T10:41:22Z</time></trkpt><trkpt lat="44.992652546563455" lon="7.3109853130923605"><ele>836.6666666666666</ele><time>2026-03-28T10:41:23Z</time></trkpt><trkpt lat="44.992639307766154" lon="7.311122180754025"><ele>832.0</ele><time>2026-03-28T10:41:24Z</time></trkpt><trkpt lat="44.99261301612393" lon="7.311268048051499"><ele>831.9999999999999</ele><time>2026-03-28T10:41:26Z</time></trkpt><trkpt lat="44.99258337633416" lon="7.311406528836611"><ele>832.0</ele><time>2026-03-28T10:41:28Z</time></trkpt><trkpt lat="44.9925599269673" lon="7.31157483854878"><ele>832.0</ele><time>2026-03-28T10:41:30Z</time></trkpt><trkpt lat="44.99254731347717" lon="7.311673847439574"><ele>832.0</ele><time>2026-03-28T10:41:31Z</time></trkpt><trkpt lat="44.99253857081518" lon="7.311774745150891"><ele>831.9999999999999</ele><time>2026-03-28T10:41:32Z</time></trkpt><trkpt lat="44.99253898022563" lon="7.311871291687507"><ele>832.0</ele><time>2026-03-28T10:41:33Z</time></trkpt><trkpt lat="44.992558286736106" lon="7.312037144547062"><ele>828.6666666666666</ele><time>2026-03-28T10:41:35Z</time></trkpt><trkpt lat="44.99258100395641" lon="7.312146932243197"><ele>825.3333333333333</ele><time>2026-03-28T10:41:37Z</time></trkpt><trkpt lat="44.99253932086432" lon="7.312265334615355"><ele>822.0</ele><time>2026-03-28T10:41:39Z</time></trkpt><trkpt lat="44.9925046186544" lon="7.312377753267405"><ele>818.6666666666667</ele><time>2026-03-28T10:41:41Z</time></trkpt><trkpt lat="44.99249217372875" lon="7.312501968040573"><ele>815.3333333333334</ele><time>2026-03-28T10:41:43Z</time></trkpt><trkpt lat="44.992505397279324" lon="7.312609868658758"><ele>812.0</ele><time>2026-03-28T10:41:45Z</time></trkpt><trkpt lat="44.99257429899051" lon="7.312672916831229"><ele>808.6666666666667</ele><time>2026-03-28T10:41:47Z</time></trkpt><trkpt lat="44.99266047031957" lon="7.312745115463569"><ele>805.3333333333334</ele><time>2026-03-28T10:41:49Z</time></trkpt><trkpt lat="44.99269430837263" lon="7.312840902494751"><ele>802.0</ele><time>2026-03-28T10:41:51Z</time></trkpt><trkpt lat="44.99274668743712" lon="7.312939742052857"><ele>798.6666666666667</ele><time>2026-03-28T10:41:54Z</time></trkpt><trkpt lat="44.9927525623473" lon="7.31304608204884"><ele>795.3333333333334</ele><time>2026-03-28T10:41:58Z</time></trkpt><trkpt lat="44.992733464008104" lon="7.313165932246033"><ele>792.0</ele><time>2026-03-28T10:42:02Z</time></trkpt><trkpt lat="44.99268275822065" lon="7.313259736905847"><ele>791.5</ele><time>2026-03-28T10:42:05Z</time></trkpt><trkpt lat="44.992612760769674" lon="7.313330557839334"><ele>791.0</ele><time>2026-03-28T10:42:07Z</time></trkpt><trkpt lat="44.99254468020164" lon="7.313431529409389"><ele>790.5</ele><time>2026-03-28T10:42:10Z</time></trkpt><trkpt lat="44.992479446860195" lon="7.313456122029386"><ele>790.0</ele><time>2026-03-28T10:42:12Z</time></trkpt><trkpt lat="44.992403999961425" lon="7.313382473612905"><ele>789.5</ele><time>2026-03-28T10:42:14Z</time></trkpt><trkpt lat="44.992301384012706" lon="7.313367534434712"><ele>789.0</ele><time>2026-03-28T10:42:16Z</time></trkpt><trkpt lat="44.992232257184895" lon="7.313337067338785"><ele>789.0</ele><time>2026-03-28T10:42:18Z</time></trkpt><trkpt lat="44.9921380671307" lon="7.313301454981497"><ele>789.0</ele><time>2026-03-28T10:42:20Z</time></trkpt><trkpt lat="44.992058554861316" lon="7.313270918641441"><ele>789.0</ele><time>2026-03-28T10:42:22Z</time></trkpt><trkpt lat="44.991976620604405" lon="7.313237785552698"><ele>789.0</ele><time>2026-03-28T10:42:24Z</time></trkpt><trkpt lat="44.99190036854027" lon="7.313205491276434"><ele>789.0</ele><time>2026-03-28T10:42:26Z</time></trkpt><trkpt lat="44.991843692707924" lon="7.313150325286948"><ele>789.0</ele><time>2026-03-28T10:42:29Z</time></trkpt><trkpt lat="44.99176212680934" lon="7.313102469182938"><ele>788.25</ele><time>2026-03-28T10:42:32Z</time></trkpt><trkpt lat="44.99171929129261" lon="7.313026456216003"><ele>787.5</ele><time>2026-03-28T10:42:35Z</time></trkpt><trkpt lat="44.9915062577656" lon="7.312848900332884"><ele>786.75</ele><time>2026-03-28T10:42:37Z</time></trkpt><trkpt lat="44.99142545525697" lon="7.312801713049502"><ele>786.0</ele><time>2026-03-28T10:42:39Z</time></trkpt><trkpt lat="44.991349374834336" lon="7.312830992093745"><ele>786.0</ele><time>2026-03-28T10:42:42Z</time></trkpt><trkpt lat="44.99138136485755" lon="7.312938362092096"><ele>786.0</ele><time>2026-03-28T10:42:53Z</time></trkpt><trkpt lat="44.991404938620285" lon="7.313042109102826"><ele>786.0</ele><time>2026-03-28T10:42:54.001Z</time></trkpt><trkpt lat="44.99141339858333" lon="7.313179233734611"><ele>786.0</ele><time>2026-03-28T10:42:56.001Z</time></trkpt><trkpt lat="44.991445861359665" lon="7.313274256166755"><ele>786.0</ele><time>2026-03-28T10:42:58.001Z</time></trkpt><trkpt lat="44.99151015343746" lon="7.3133382508613"><ele>786.0</ele><time>2026-03-28T10:43:01Z</time></trkpt><trkpt lat="44.99152945003053" lon="7.3134595671237435"><ele>783.3333333333334</ele><time>2026-03-28T10:43:46Z</time></trkpt><trkpt lat="44.9915311691507" lon="7.313557625053728"><ele>780.6666666666667</ele><time>2026-03-28T10:43:50Z</time></trkpt><trkpt lat="44.99157591516945" lon="7.313669257903152"><ele>778.0</ele><time>2026-03-28T10:43:54Z</time></trkpt><trkpt lat="44.99158694509989" lon="7.313761731171018"><ele>775.3333333333334</ele><time>2026-03-28T10:43:56Z</time></trkpt><trkpt lat="44.991550368687854" lon="7.313861750643825"><ele>772.6666666666667</ele><time>2026-03-28T10:43:58Z</time></trkpt><trkpt lat="44.99152195452301" lon="7.313954848713436"><ele>770.0</ele><time>2026-03-28T10:44:00Z</time></trkpt><trkpt lat="44.9915164676179" lon="7.314086012204606"><ele>769.5000000000001</ele><time>2026-03-28T10:44:03Z</time></trkpt><trkpt lat="44.991557916646535" lon="7.314166357112342"><ele>769.0</ele><time>2026-03-28T10:44:06Z</time></trkpt><trkpt lat="44.99160289592838" lon="7.314272187824088"><ele>768.5</ele><time>2026-03-28T10:44:10Z</time></trkpt><trkpt lat="44.99162388613027" lon="7.3143746663693285"><ele>768.0</ele><time>2026-03-28T10:44:12Z</time></trkpt><trkpt lat="44.99166968918336" lon="7.314491666455775"><ele>767.5</ele><time>2026-03-28T10:44:15Z</time></trkpt><trkpt lat="44.99167748141946" lon="7.314619909770305"><ele>767.0</ele><time>2026-03-28T10:44:18Z</time></trkpt><trkpt lat="44.99171450201563" lon="7.314718336062746"><ele>767.0</ele><time>2026-03-28T10:44:21Z</time></trkpt><trkpt lat="44.99173910276241" lon="7.314802555362137"><ele>767.0</ele><time>2026-03-28T10:44:23Z</time></trkpt><trkpt lat="44.991777139241236" lon="7.31493398988768"><ele>767.0</ele><time>2026-03-28T10:44:25Z</time></trkpt><trkpt lat="44.99185793359192" lon="7.314966889129224"><ele>767.0</ele><time>2026-03-28T10:44:28Z</time></trkpt><trkpt lat="44.99192662669039" lon="7.315059829034278"><ele>767.0</ele><time>2026-03-28T10:44:30Z</time></trkpt><trkpt lat="44.991978391401815" lon="7.3151109381495925"><ele>767.0</ele><time>2026-03-28T10:44:31Z</time></trkpt><trkpt lat="44.99207554182827" lon="7.315183832409709"><ele>767.0</ele><time>2026-03-28T10:44:33Z</time></trkpt><trkpt lat="44.99216256642037" lon="7.315279258158543"><ele>767.0</ele><time>2026-03-28T10:44:35Z</time></trkpt><trkpt lat="44.99221094196984" lon="7.315339677482534"><ele>767.0</ele><time>2026-03-28T10:44:36Z</time></trkpt><trkpt lat="44.99226363150039" lon="7.315410618318106"><ele>767.0</ele><time>2026-03-28T10:44:37Z</time></trkpt><trkpt lat="44.99230719891327" lon="7.315483379015657"><ele>767.0</ele><time>2026-03-28T10:44:38Z</time></trkpt><trkpt lat="44.992357845964236" lon="7.315546075976694"><ele>767.0</ele><time>2026-03-28T10:44:39Z</time></trkpt><trkpt lat="44.99242965085245" lon="7.315675260189204"><ele>767.75</ele><time>2026-03-28T10:44:41Z</time></trkpt><trkpt lat="44.99261980560006" lon="7.3158783446822895"><ele>768.5</ele><time>2026-03-28T10:44:44Z</time></trkpt><trkpt lat="44.992670066725935" lon="7.31593399727162"><ele>769.25</ele><time>2026-03-28T10:44:45Z</time></trkpt><trkpt lat="44.9927532592676" lon="7.315997971950943"><ele>770.0</ele><time>2026-03-28T10:44:47Z</time></trkpt><trkpt lat="44.99281470252706" lon="7.316085134486222"><ele>770.0000000000001</ele><time>2026-03-28T10:44:49Z</time></trkpt><trkpt lat="44.99283193080892" lon="7.316215297677937"><ele>770.0</ele><time>2026-03-28T10:44:52Z</time></trkpt><trkpt lat="44.99281529994084" lon="7.316362456485372"><ele>770.0</ele><time>2026-03-28T10:44:54Z</time></trkpt><trkpt lat="44.99280389356048" lon="7.316454089026615"><ele>770.0</ele><time>2026-03-28T10:44:55Z</time></trkpt><trkpt lat="44.992774505858556" lon="7.316552750936234"><ele>770.0000000000001</ele><time>2026-03-28T10:44:56Z</time></trkpt><trkpt lat="44.99276698916398" lon="7.3166466512269155"><ele>770.0</ele><time>2026-03-28T10:44:57Z</time></trkpt><trkpt lat="44.99282510330636" lon="7.316782406104932"><ele>775.0000000000001</ele><time>2026-03-28T10:44:59Z</time></trkpt><trkpt lat="44.99291422299646" lon="7.316798936280705"><ele>780.0</ele><time>2026-03-28T10:45:01Z</time></trkpt><trkpt lat="44.99294060350375" lon="7.316881062584444"><ele>785.0</ele><time>2026-03-28T10:45:04Z</time></trkpt><trkpt lat="44.99296913889185" lon="7.31703445509528"><ele>790.0</ele><time>2026-03-28T10:45:06Z</time></trkpt><trkpt lat="44.992967338648555" lon="7.317143427565978"><ele>795.0000000000001</ele><time>2026-03-28T10:45:07Z</time></trkpt><trkpt lat="44.99299404626616" lon="7.317267385464554"><ele>800.0</ele><time>2026-03-28T10:45:08Z</time></trkpt><trkpt lat="44.99301648043412" lon="7.317399793795585"><ele>804.3333333333334</ele><time>2026-03-28T10:45:09Z</time></trkpt><trkpt lat="44.993036541730184" lon="7.317493405771715"><ele>808.6666666666667</ele><time>2026-03-28T10:45:10Z</time></trkpt><trkpt lat="44.99304393254089" lon="7.3176506934283765"><ele>813.0</ele><time>2026-03-28T10:45:12Z</time></trkpt><trkpt lat="44.99306137202732" lon="7.317740845595056"><ele>817.3333333333333</ele><time>2026-03-28T10:45:13Z</time></trkpt><trkpt lat="44.99310211844283" lon="7.3178320829248"><ele>821.6666666666666</ele><time>2026-03-28T10:45:14Z</time></trkpt><trkpt lat="44.99312399164393" lon="7.317926363796606"><ele>826.0</ele><time>2026-03-28T10:45:15Z</time></trkpt><trkpt lat="44.99312214203657" lon="7.318025910230434"><ele>828.3333333333333</ele><time>2026-03-28T10:45:16Z</time></trkpt><trkpt lat="44.993082760347015" lon="7.3181679843879825"><ele>830.6666666666666</ele><time>2026-03-28T10:45:18Z</time></trkpt><trkpt lat="44.99300937081714" lon="7.318201949326169"><ele>833.0</ele><time>2026-03-28T10:45:19Z</time></trkpt><trkpt lat="44.99293950086573" lon="7.318209517036658"><ele>835.3333333333333</ele><time>2026-03-28T10:45:20Z</time></trkpt><trkpt lat="44.993024098481456" lon="7.318238843479466"><ele>837.6666666666666</ele><time>2026-03-28T10:47:34.001Z</time></trkpt><trkpt lat="44.9930814720253" lon="7.318177277872622"><ele>840.0</ele><time>2026-03-28T10:47:35.001Z</time></trkpt><trkpt lat="44.993162680618575" lon="7.318106960614857"><ele>837.25</ele><time>2026-03-28T10:47:36.001Z</time></trkpt><trkpt lat="44.99326790773263" lon="7.318026348933609"><ele>834.5</ele><time>2026-03-28T10:47:37.001Z</time></trkpt><trkpt lat="44.993391144855735" lon="7.317945093798616"><ele>831.75</ele><time>2026-03-28T10:47:38.001Z</time></trkpt><trkpt lat="44.99353631661307" lon="7.317888650816906"><ele>829.0</ele><time>2026-03-28T10:47:39.001Z</time></trkpt><trkpt lat="44.99369038940984" lon="7.317858989700142"><ele>829.0</ele><time>2026-03-28T10:47:40.001Z</time></trkpt><trkpt lat="44.993849215691434" lon="7.31783651514036"><ele>829.0</ele><time>2026-03-28T10:47:41.001Z</time></trkpt><trkpt lat="44.993965627816834" lon="7.317816927245653"><ele>829.0</ele><time>2026-03-28T10:47:42.001Z</time></trkpt><trkpt lat="44.994048417850756" lon="7.317824340893658"><ele>829.0</ele><time>2026-03-28T10:47:43.001Z</time></trkpt><trkpt lat="44.994129803273324" lon="7.3178672448352575"><ele>829.0</ele><time>2026-03-28T10:47:44.001Z</time></trkpt><trkpt lat="44.99419914962036" lon="7.3179510067610405"><ele>833.6</ele><time>2026-03-28T10:47:45.001Z</time></trkpt><trkpt lat="44.994266258139255" lon="7.31806855824729"><ele>838.2</ele><time>2026-03-28T10:47:46.001Z</time></trkpt><trkpt lat="44.99432928716301" lon="7.318198822176089"><ele>842.8000000000001</ele><time>2026-03-28T10:47:47.001Z</time></trkpt><trkpt lat="44.99439189901218" lon="7.318307648062332"><ele>847.4000000000001</ele><time>2026-03-28T10:47:48.001Z</time></trkpt><trkpt lat="44.99444942173345" lon="7.318400741685568"><ele>852.0</ele><time>2026-03-28T10:47:49.001Z</time></trkpt><trkpt lat="44.99449858763701" lon="7.318470336419582"><ele>851.9999999999999</ele><time>2026-03-28T10:47:50.001Z</time></trkpt><trkpt lat="44.99456126118227" lon="7.318531058289377"><ele>852.0</ele><time>2026-03-28T10:47:51.001Z</time></trkpt><trkpt lat="44.9946095830039" lon="7.318612101120382"><ele>852.0</ele><time>2026-03-28T10:47:52.001Z</time></trkpt><trkpt lat="44.9946462434891" lon="7.31870468271553"><ele>852.0</ele><time>2026-03-28T10:47:53.001Z</time></trkpt><trkpt lat="44.994688281479355" lon="7.318788039809323"><ele>852.0</ele><time>2026-03-28T10:47:54.001Z</time></trkpt><trkpt lat="44.9947135646124" lon="7.318890963020014"><ele>851.9999999999999</ele><time>2026-03-28T10:47:55.001Z</time></trkpt><trkpt lat="44.994742355780126" lon="7.318979694381076"><ele>852.0</ele><time>2026-03-28T10:47:57Z</time></trkpt><trkpt lat="44.994806606182635" lon="7.318989042574569"><ele>852.6666666666666</ele><time>2026-03-28T10:48:01Z</time></trkpt><trkpt lat="44.99486887599498" lon="7.319003716131953"><ele>853.3333333333333</ele><time>2026-03-28T10:48:03Z</time></trkpt><trkpt lat="44.99493376953041" lon="7.319067171378955"><ele>854.0</ele><time>2026-03-28T10:48:05Z</time></trkpt><trkpt lat="44.994978024918495" lon="7.319149728317263"><ele>854.6666666666666</ele><time>2026-03-28T10:48:07Z</time></trkpt><trkpt lat="44.99504298247374" lon="7.319257947331765"><ele>855.3333333333333</ele><time>2026-03-28T10:48:09Z</time></trkpt><trkpt lat="44.99506927896398" lon="7.319339032912049"><ele>856.0</ele><time>2026-03-28T10:48:10Z</time></trkpt><trkpt lat="44.995105753137736" lon="7.319429076198423"><ele>855.9999999999999</ele><time>2026-03-28T10:48:11Z</time></trkpt><trkpt lat="44.99514876784233" lon="7.319512926216897"><ele>856.0</ele><time>2026-03-28T10:48:12Z</time></trkpt><trkpt lat="44.995200094056756" lon="7.3195887748655135"><ele>856.0</ele><time>2026-03-28T10:48:13Z</time></trkpt><trkpt lat="44.995274667940656" lon="7.319654688738999"><ele>856.0</ele><time>2026-03-28T10:48:14Z</time></trkpt><trkpt lat="44.99534239262382" lon="7.319721429678877"><ele>855.9999999999999</ele><time>2026-03-28T10:48:15Z</time></trkpt><trkpt lat="44.995409425429756" lon="7.319785091130008"><ele>856.0</ele><time>2026-03-28T10:48:16Z</time></trkpt><trkpt lat="44.9954882690619" lon="7.319808498586424"><ele>858.8333333333333</ele><time>2026-03-28T10:48:17Z</time></trkpt><trkpt lat="44.99556725408217" lon="7.319847554999178"><ele>861.6666666666666</ele><time>2026-03-28T10:48:18Z</time></trkpt><trkpt lat="44.99564538458742" lon="7.319883833375685"><ele>864.5</ele><time>2026-03-28T10:48:19Z</time></trkpt><trkpt lat="44.99571777894101" lon="7.319926857002966"><ele>867.3333333333333</ele><time>2026-03-28T10:48:20Z</time></trkpt><trkpt lat="44.99578334020163" lon="7.319985804623987"><ele>870.1666666666666</ele><time>2026-03-28T10:48:21Z</time></trkpt><trkpt lat="44.99584853869793" lon="7.3200449503359435"><ele>873.0</ele><time>2026-03-28T10:48:22Z</time></trkpt><trkpt lat="44.995911426480454" lon="7.3201056913479645"><ele>873.5</ele><time>2026-03-28T10:48:23Z</time></trkpt><trkpt lat="44.99597637229692" lon="7.320166262920825"><ele>874.0</ele><time>2026-03-28T10:48:24Z</time></trkpt><trkpt lat="44.99604142482411" lon="7.32023095538899"><ele>874.5</ele><time>2026-03-28T10:48:25Z</time></trkpt><trkpt lat="44.996109634169265" lon="7.320296922062512"><ele>875.0</ele><time>2026-03-28T10:48:26Z</time></trkpt><trkpt lat="44.99618296972823" lon="7.320362614185121"><ele>875.5</ele><time>2026-03-28T10:48:27Z</time></trkpt><trkpt lat="44.9962558057157" lon="7.320436025646901"><ele>876.0</ele><time>2026-03-28T10:48:28Z</time></trkpt><trkpt lat="44.99632881307365" lon="7.320510099767335"><ele>877.4</ele><time>2026-03-28T10:48:29Z</time></trkpt><trkpt lat="44.99639796939123" lon="7.320578820610217"><ele>878.8</ele><time>2026-03-28T10:48:30Z</time></trkpt><trkpt lat="44.99647467806396" lon="7.320648789773585"><ele>880.1999999999999</ele><time>2026-03-28T10:48:31Z</time></trkpt><trkpt lat="44.996551128816904" lon="7.320724075389927"><ele>881.5999999999999</ele><time>2026-03-28T10:48:32Z</time></trkpt><trkpt lat="44.996629700558394" lon="7.320786425957881"><ele>883.0</ele><time>2026-03-28T10:48:33Z</time></trkpt><trkpt lat="44.996708734860285" lon="7.320859373284292"><ele>885.5999999999999</ele><time>2026-03-28T10:48:34Z</time></trkpt><trkpt lat="44.996785271772275" lon="7.32094190934406"><ele>888.1999999999999</ele><time>2026-03-28T10:48:35Z</time></trkpt><trkpt lat="44.99687435790908" lon="7.321021127629284"><ele>890.8</ele><time>2026-03-28T10:48:36Z</time></trkpt><trkpt lat="44.99697384798234" lon="7.3210994347030605"><ele>893.4</ele><time>2026-03-28T10:48:37Z</time></trkpt><trkpt lat="44.99706663138293" lon="7.321187045749029"><ele>896.0</ele><time>2026-03-28T10:48:38Z</time></trkpt><trkpt lat="44.99717508966296" lon="7.321272231732436"><ele>896.0</ele><time>2026-03-28T10:48:39Z</time></trkpt><trkpt lat="44.99727937139517" lon="7.321362005469923"><ele>896.0</ele><time>2026-03-28T10:48:40Z</time></trkpt><trkpt lat="44.997364470209824" lon="7.321456904933398"><ele>896.0</ele><time>2026-03-28T10:48:41Z</time></trkpt><trkpt lat="44.997438105523976" lon="7.321574448156582"><ele>896.0</ele><time>2026-03-28T10:48:42Z</time></trkpt><trkpt lat="44.99749396653552" lon="7.321710586404648"><ele>895.5999999999999</ele><time>2026-03-28T10:48:43Z</time></trkpt><trkpt lat="44.99754688374366" lon="7.321837527986054"><ele>895.1999999999999</ele><time>2026-03-28T10:48:44Z</time></trkpt><trkpt lat="44.99759669164132" lon="7.321961488280953"><ele>894.8000000000001</ele><time>2026-03-28T10:48:45Z</time></trkpt><trkpt lat="44.99766214230758" lon="7.3220786787227565"><ele>894.4000000000001</ele><time>2026-03-28T10:48:46Z</time></trkpt><trkpt lat="44.99773937743299" lon="7.322177400867953"><ele>894.0</ele><time>2026-03-28T10:48:47Z</time></trkpt><trkpt lat="44.99780584663262" lon="7.322286930493311"><ele>895.4000000000001</ele><time>2026-03-28T10:48:48Z</time></trkpt><trkpt lat="44.997882870184014" lon="7.322401617224563"><ele>896.8000000000001</ele><time>2026-03-28T10:48:49Z</time></trkpt><trkpt lat="44.99795147592546" lon="7.322526167557769"><ele>898.1999999999999</ele><time>2026-03-28T10:48:50Z</time></trkpt><trkpt lat="44.99802456720096" lon="7.322630455550423"><ele>899.5999999999999</ele><time>2026-03-28T10:48:51Z</time></trkpt><trkpt lat="44.99809405777997" lon="7.322756735239651"><ele>901.0</ele><time>2026-03-28T10:48:52Z</time></trkpt><trkpt lat="44.99818181722768" lon="7.322857642934615"><ele>901.0</ele><time>2026-03-28T10:48:53Z</time></trkpt><trkpt lat="44.998254849923825" lon="7.322990931037798"><ele>900.9999999999999</ele><time>2026-03-28T10:48:54Z</time></trkpt><trkpt lat="44.99830766547906" lon="7.323138909781221"><ele>900.9999999999999</ele><time>2026-03-28T10:48:55Z</time></trkpt><trkpt lat="44.99834464831197" lon="7.323281534360335"><ele>901.0</ele><time>2026-03-28T10:48:56Z</time></trkpt><trkpt lat="44.998362788883966" lon="7.323426674958929"><ele>901.0</ele><time>2026-03-28T10:48:57Z</time></trkpt><trkpt lat="44.998374154245184" lon="7.323571300206042"><ele>904.8</ele><time>2026-03-28T10:48:58Z</time></trkpt><trkpt lat="44.99839435199075" lon="7.323708191810384"><ele>908.5999999999999</ele><time>2026-03-28T10:48:59Z</time></trkpt><trkpt lat="44.998412608961566" lon="7.323843835625829"><ele>912.4</ele><time>2026-03-28T10:49:00Z</time></trkpt><trkpt lat="44.99842857155821" lon="7.3239863163739285"><ele>916.2</ele><time>2026-03-28T10:49:01Z</time></trkpt><trkpt lat="44.99844392289243" lon="7.324118843907762"><ele>920.0</ele><time>2026-03-28T10:49:02Z</time></trkpt><trkpt lat="44.99845135070838" lon="7.3242371554838765"><ele>920.6666666666667</ele><time>2026-03-28T10:49:03Z</time></trkpt><trkpt lat="44.99846320352528" lon="7.324342306455749"><ele>921.3333333333334</ele><time>2026-03-28T10:49:04Z</time></trkpt><trkpt lat="44.99850655745906" lon="7.324416988774178"><ele>922.0</ele><time>2026-03-28T10:49:05Z</time></trkpt><trkpt lat="44.99856627045566" lon="7.324478854909076"><ele>922.6666666666667</ele><time>2026-03-28T10:49:06Z</time></trkpt><trkpt lat="44.99864561667178" lon="7.3245371399669805"><ele>923.3333333333334</ele><time>2026-03-28T10:49:07Z</time></trkpt><trkpt lat="44.99872830777394" lon="7.324589531824604"><ele>924.0</ele><time>2026-03-28T10:49:08Z</time></trkpt><trkpt lat="44.99881538368322" lon="7.324637460453093"><ele>924.0</ele><time>2026-03-28T10:49:09Z</time></trkpt><trkpt lat="44.99890381307842" lon="7.324690897903933"><ele>924.0000000000001</ele><time>2026-03-28T10:49:10Z</time></trkpt><trkpt lat="44.998990430652235" lon="7.324721461824074"><ele>924.0000000000001</ele><time>2026-03-28T10:49:11Z</time></trkpt><trkpt lat="44.999073665534596" lon="7.3247654456072855"><ele>924.0</ele><time>2026-03-28T10:49:12.001Z</time></trkpt><trkpt lat="44.99914864664733" lon="7.3248451236266"><ele>924.0</ele><time>2026-03-28T10:49:13.001Z</time></trkpt><trkpt lat="44.99920914424135" lon="7.324957532810617"><ele>922.6</ele><time>2026-03-28T10:49:14.001Z</time></trkpt><trkpt lat="44.99925839126549" lon="7.325098974801805"><ele>921.2</ele><time>2026-03-28T10:49:15.001Z</time></trkpt><trkpt lat="44.9993058121849" lon="7.325226702729779"><ele>919.8000000000001</ele><time>2026-03-28T10:49:16.001Z</time></trkpt><trkpt lat="44.999339567436415" lon="7.325355553491907"><ele>918.4000000000001</ele><time>2026-03-28T10:49:17.001Z</time></trkpt><trkpt lat="44.99938121161936" lon="7.325480257147967"><ele>917.0</ele><time>2026-03-28T10:49:18.001Z</time></trkpt><trkpt lat="44.9994234378205" lon="7.325607368275278"><ele>914.8</ele><time>2026-03-28T10:49:19.001Z</time></trkpt><trkpt lat="44.99945723759749" lon="7.325736556620233"><ele>912.6</ele><time>2026-03-28T10:49:20.001Z</time></trkpt><trkpt lat="44.999480982237195" lon="7.325883382362286"><ele>910.3999999999999</ele><time>2026-03-28T10:49:21.001Z</time></trkpt><trkpt lat="44.99948609109957" lon="7.326028800214704"><ele>908.1999999999999</ele><time>2026-03-28T10:49:22.001Z</time></trkpt><trkpt lat="44.999506412443395" lon="7.326159650352573"><ele>906.0</ele><time>2026-03-28T10:49:23.001Z</time></trkpt><trkpt lat="44.99955475800432" lon="7.326291607209752"><ele>904.5</ele><time>2026-03-28T10:49:24.001Z</time></trkpt><trkpt lat="44.99961844671194" lon="7.326416050400285"><ele>903.0</ele><time>2026-03-28T10:49:25.001Z</time></trkpt><trkpt lat="44.99969262917405" lon="7.326539933588742"><ele>901.5</ele><time>2026-03-28T10:49:26.001Z</time></trkpt><trkpt lat="44.99977446539464" lon="7.3266695648438205"><ele>900.0</ele><time>2026-03-28T10:49:27.001Z</time></trkpt><trkpt lat="44.999863974078764" lon="7.32678649208571"><ele>900.0</ele><time>2026-03-28T10:49:28.001Z</time></trkpt><trkpt lat="44.99995434290659" lon="7.326897226300918"><ele>900.0</ele><time>2026-03-28T10:49:29.001Z</time></trkpt><trkpt lat="45.00002712178689" lon="7.327028748679663"><ele>900.0</ele><time>2026-03-28T10:49:30.001Z</time></trkpt><trkpt lat="45.000090213300474" lon="7.327168218371641"><ele>900.0</ele><time>2026-03-28T10:49:31.001Z</time></trkpt><trkpt lat="45.000153251440864" lon="7.327309962881607"><ele>897.5</ele><time>2026-03-28T10:49:32.001Z</time></trkpt><trkpt lat="45.000216707768885" lon="7.327469808660974"><ele>895.0</ele><time>2026-03-28T10:49:33.001Z</time></trkpt><trkpt lat="45.00028155045573" lon="7.327636895189205"><ele>892.5</ele><time>2026-03-28T10:49:34.001Z</time></trkpt><trkpt lat="45.00035863053886" lon="7.327803043782897"><ele>890.0</ele><time>2026-03-28T10:49:35Z</time></trkpt><trkpt lat="45.000446642375394" lon="7.327972861119072"><ele>891.0</ele><time>2026-03-28T10:49:36Z</time></trkpt><trkpt lat="45.0005476290253" lon="7.328145551285868"><ele>892.0</ele><time>2026-03-28T10:49:37Z</time></trkpt><trkpt lat="45.00064797233691" lon="7.328322773519351"><ele>893.0</ele><time>2026-03-28T10:49:38Z</time></trkpt><trkpt lat="45.000742710011735" lon="7.32847472407942"><ele>895.0</ele><time>2026-03-28T10:49:39Z</time></trkpt><trkpt lat="45.000839580813164" lon="7.328608241160518"><ele>897.0</ele><time>2026-03-28T10:49:40Z</time></trkpt><trkpt lat="45.00093345564204" lon="7.328724300974752"><ele>899.0</ele><time>2026-03-28T10:49:41Z</time></trkpt><trkpt lat="45.00102527405003" lon="7.328825937214412"><ele>901.0</ele><time>2026-03-28T10:49:42Z</time></trkpt><trkpt lat="45.00109578268186" lon="7.3289341289597125"><ele>901.0</ele><time>2026-03-28T10:49:43Z</time></trkpt><trkpt lat="45.001152826205775" lon="7.329073208122725"><ele>901.0</ele><time>2026-03-28T10:49:44Z</time></trkpt><trkpt lat="45.00120149447246" lon="7.329231108835953"><ele>901.0</ele><time>2026-03-28T10:49:45Z</time></trkpt><trkpt lat="45.00123290906559" lon="7.329405546434677"><ele>901.0</ele><time>2026-03-28T10:49:46Z</time></trkpt><trkpt lat="45.00124124460702" lon="7.3295877988645985"><ele>897.25</ele><time>2026-03-28T10:49:47Z</time></trkpt><trkpt lat="45.00123964137739" lon="7.3297634797105315"><ele>893.5</ele><time>2026-03-28T10:49:48Z</time></trkpt><trkpt lat="45.001239886726225" lon="7.3299268997551295"><ele>889.75</ele><time>2026-03-28T10:49:49Z</time></trkpt><trkpt lat="45.00124103177868" lon="7.330079084766309"><ele>886.0</ele><time>2026-03-28T10:49:50Z</time></trkpt><trkpt lat="45.00123908006738" lon="7.330228639633692"><ele>885.9999999999999</ele><time>2026-03-28T10:49:51Z</time></trkpt><trkpt lat="45.00123835283522" lon="7.330362199191754"><ele>886.0</ele><time>2026-03-28T10:49:52Z</time></trkpt><trkpt lat="45.00123808859684" lon="7.330467001678722"><ele>886.0</ele><time>2026-03-28T10:49:53Z</time></trkpt><trkpt lat="45.00123279192381" lon="7.330580488242889"><ele>886.0</ele><time>2026-03-28T10:49:55Z</time></trkpt><trkpt lat="45.00123111296196" lon="7.330675734359857"><ele>885.9999999999999</ele><time>2026-03-28T10:49:57Z</time></trkpt><trkpt lat="45.001229917469026" lon="7.330823360707634"><ele>886.0</ele><time>2026-03-28T10:49:59Z</time></trkpt><trkpt lat="45.00122943244909" lon="7.33093900814526"><ele>883.5</ele><time>2026-03-28T10:50:03Z</time></trkpt><trkpt lat="45.00121369096111" lon="7.33108835375549"><ele>881.0</ele><time>2026-03-28T10:50:05Z</time></trkpt><trkpt lat="45.00120205004793" lon="7.331182891032336"><ele>878.5</ele><time>2026-03-28T10:50:06Z</time></trkpt><trkpt lat="45.001199907081606" lon="7.331280167048904"><ele>876.0</ele><time>2026-03-28T10:50:07Z</time></trkpt><trkpt lat="45.00160687905827" lon="7.331472262189461"><ele>876.0</ele><time>2026-03-28T10:50:08Z</time></trkpt><trkpt lat="45.00161887989501" lon="7.33157032720327"><ele>876.0</ele><time>2026-03-28T10:50:09Z</time></trkpt><trkpt lat="45.001605055443335" lon="7.331659967839958"><ele>876.0</ele><time>2026-03-28T10:50:10Z</time></trkpt><trkpt lat="45.00161491077955" lon="7.33175926367071"><ele>876.0</ele><time>2026-03-28T10:50:12Z</time></trkpt><trkpt lat="45.00170935371584" lon="7.331769414250266"><ele>876.0</ele><time>2026-03-28T10:50:14Z</time></trkpt><trkpt lat="45.0018207601392" lon="7.3317522914875894"><ele>876.0</ele><time>2026-03-28T10:50:16Z</time></trkpt><trkpt lat="45.00188472685429" lon="7.331704976433091"><ele>878.1999999999999</ele><time>2026-03-28T10:50:17Z</time></trkpt><trkpt lat="45.00199537047411" lon="7.3316038882045005"><ele>880.3999999999999</ele><time>2026-03-28T10:50:19Z</time></trkpt><trkpt lat="45.00207954768318" lon="7.331569480248338"><ele>882.6</ele><time>2026-03-28T10:50:20Z</time></trkpt><trkpt lat="45.00220100580602" lon="7.331490668803621"><ele>884.8</ele><time>2026-03-28T10:50:22Z</time></trkpt><trkpt lat="45.002272342516655" lon="7.331449069742877"><ele>887.0</ele><time>2026-03-28T10:50:23Z</time></trkpt><trkpt lat="45.002347820681756" lon="7.33136886683345"><ele>887.0000000000001</ele><time>2026-03-28T10:50:25Z</time></trkpt><trkpt lat="45.002441650352196" lon="7.331363809384397"><ele>887.0</ele><time>2026-03-28T10:50:27Z</time></trkpt><trkpt lat="45.002485396203944" lon="7.331440909348039"><ele>887.0</ele><time>2026-03-28T10:50:28Z</time></trkpt><trkpt lat="45.0025199187013" lon="7.331610062354985"><ele>887.0</ele><time>2026-03-28T10:50:30Z</time></trkpt><trkpt lat="45.002551931875544" lon="7.3317111489825795"><ele>887.0000000000001</ele><time>2026-03-28T10:50:31Z</time></trkpt><trkpt lat="45.00258129384169" lon="7.331815543307163"><ele>887.0</ele><time>2026-03-28T10:50:32Z</time></trkpt><trkpt lat="45.002614911633685" lon="7.331915290793728"><ele>890.3333333333334</ele><time>2026-03-28T10:50:33Z</time></trkpt><trkpt lat="45.00264909640574" lon="7.332009543828218"><ele>893.6666666666667</ele><time>2026-03-28T10:50:34Z</time></trkpt><trkpt lat="45.00267991323153" lon="7.332157267466277"><ele>897.0</ele><time>2026-03-28T10:50:36Z</time></trkpt><trkpt lat="45.00274045074778" lon="7.3322482504870194"><ele>900.3333333333333</ele><time>2026-03-28T10:50:38Z</time></trkpt><trkpt lat="45.00276956816198" lon="7.332341492356154"><ele>903.6666666666666</ele><time>2026-03-28T10:50:39Z</time></trkpt><trkpt lat="45.00278547984388" lon="7.332464545220242"><ele>907.0</ele><time>2026-03-28T10:50:41Z</time></trkpt><trkpt lat="45.002755577235334" lon="7.332608633728276"><ele>909.3333333333333</ele><time>2026-03-28T10:50:43Z</time></trkpt><trkpt lat="45.00274334315922" lon="7.332780414329318"><ele>911.6666666666666</ele><time>2026-03-28T10:50:45Z</time></trkpt><trkpt lat="45.00273751602726" lon="7.332875817525352"><ele>914.0</ele><time>2026-03-28T10:50:46Z</time></trkpt><trkpt lat="45.002721705534704" lon="7.332978005740877"><ele>916.3333333333333</ele><time>2026-03-28T10:50:47Z</time></trkpt><trkpt lat="45.00271898100856" lon="7.333073720879493"><ele>918.6666666666666</ele><time>2026-03-28T10:50:48Z</time></trkpt><trkpt lat="45.00272723797826" lon="7.333177695406673"><ele>921.0</ele><time>2026-03-28T10:50:49Z</time></trkpt><trkpt lat="45.00273453258282" lon="7.333284710852087"><ele>921.1999999999999</ele><time>2026-03-28T10:50:50Z</time></trkpt><trkpt lat="45.00273653126758" lon="7.333382593351612"><ele>921.3999999999999</ele><time>2026-03-28T10:50:51Z</time></trkpt><trkpt lat="45.00276481070789" lon="7.333541679227414"><ele>921.6</ele><time>2026-03-28T10:50:53Z</time></trkpt><trkpt lat="45.00280774334411" lon="7.33366380414918"><ele>921.8</ele><time>2026-03-28T10:50:55Z</time></trkpt><trkpt lat="45.002820964169345" lon="7.333789581332885"><ele>922.0</ele><time>2026-03-28T10:50:57Z</time></trkpt><trkpt lat="45.00286145751229" lon="7.333935489171971"><ele>921.9999999999999</ele><time>2026-03-28T10:50:59Z</time></trkpt><trkpt lat="45.00291811454163" lon="7.33399739873464"><ele>922.0</ele><time>2026-03-28T10:51:00Z</time></trkpt><trkpt lat="45.00296544208344" lon="7.33405665316969"><ele>922.0</ele><time>2026-03-28T10:51:01Z</time></trkpt><trkpt lat="45.00303413190591" lon="7.3341110247097125"><ele>922.0</ele><time>2026-03-28T10:51:03Z</time></trkpt><trkpt lat="45.00315171292128" lon="7.334131668236007"><ele>921.9999999999999</ele><time>2026-03-28T10:51:05Z</time></trkpt><trkpt lat="45.003199720042325" lon="7.334207969356529"><ele>922.0</ele><time>2026-03-28T10:51:09Z</time></trkpt><trkpt lat="45.00318763723461" lon="7.334373566417315"><ele>922.0</ele><time>2026-03-28T10:51:12Z</time></trkpt><trkpt lat="45.003201359921285" lon="7.334510151806406"><ele>922.0</ele><time>2026-03-28T10:51:14Z</time></trkpt><trkpt lat="45.00318613677759" lon="7.33465701328383"><ele>922.0</ele><time>2026-03-28T10:51:16Z</time></trkpt><trkpt lat="45.00317577117591" lon="7.334793279428049"><ele>922.0</ele><time>2026-03-28T10:51:18Z</time></trkpt><trkpt lat="45.00317259832975" lon="7.334923613831853"><ele>922.0</ele><time>2026-03-28T10:51:20Z</time></trkpt><trkpt lat="45.003187267145776" lon="7.3350985973247615"><ele>920.3333333333333</ele><time>2026-03-28T10:51:22Z</time></trkpt><trkpt lat="45.003200685688356" lon="7.335193084962886"><ele>918.6666666666666</ele><time>2026-03-28T10:51:23Z</time></trkpt><trkpt lat="45.00323352149999" lon="7.335303701646169"><ele>917.0</ele><time>2026-03-28T10:51:24Z</time></trkpt><trkpt lat="45.00326163963793" lon="7.335410493587383"><ele>915.3333333333333</ele><time>2026-03-28T10:51:25Z</time></trkpt><trkpt lat="45.003264412530044" lon="7.335502313083433"><ele>913.6666666666666</ele><time>2026-03-28T10:51:26Z</time></trkpt><trkpt lat="45.003308299764996" lon="7.335637400249942"><ele>912.0</ele><time>2026-03-28T10:51:28Z</time></trkpt><trkpt lat="45.00336339382208" lon="7.335702828562158"><ele>910.6666666666666</ele><time>2026-03-28T10:51:29Z</time></trkpt><trkpt lat="45.0034223692422" lon="7.335764981120988"><ele>909.3333333333333</ele><time>2026-03-28T10:51:30Z</time></trkpt><trkpt lat="45.003469963361944" lon="7.335855843807022"><ele>908.0</ele><time>2026-03-28T10:51:31Z</time></trkpt><trkpt lat="45.00351152934022" lon="7.336033311150763"><ele>906.6666666666666</ele><time>2026-03-28T10:51:33Z</time></trkpt><trkpt lat="45.00354039057814" lon="7.336127371355686"><ele>905.3333333333333</ele><time>2026-03-28T10:51:34Z</time></trkpt><trkpt lat="45.00356500828852" lon="7.336221432440755"><ele>904.0</ele><time>2026-03-28T10:51:35Z</time></trkpt><trkpt lat="45.00363552086575" lon="7.336312154069919"><ele>903.9999999999999</ele><time>2026-03-28T10:51:37Z</time></trkpt><trkpt lat="45.003735282097466" lon="7.3362897160642895"><ele>904.0</ele><time>2026-03-28T10:51:38Z</time></trkpt><trkpt lat="45.00381807112277" lon="7.336309775763255"><ele>904.0</ele><time>2026-03-28T10:51:39Z</time></trkpt><trkpt lat="45.003903411932924" lon="7.336373591200833"><ele>904.0</ele><time>2026-03-28T10:51:40Z</time></trkpt><trkpt lat="45.003965466530026" lon="7.336411236580058"><ele>903.9999999999999</ele><time>2026-03-28T10:51:41Z</time></trkpt><trkpt lat="45.0040366362807" lon="7.336442406241759"><ele>904.0</ele><time>2026-03-28T10:51:42Z</time></trkpt><trkpt lat="45.004100585276426" lon="7.336489442676841"><ele>903.6666666666666</ele><time>2026-03-28T10:51:43Z</time></trkpt><trkpt lat="45.00414644590706" lon="7.336559310594152"><ele>903.3333333333333</ele><time>2026-03-28T10:51:44Z</time></trkpt><trkpt lat="45.004193426438135" lon="7.336639462203514"><ele>903.0</ele><time>2026-03-28T10:51:45Z</time></trkpt><trkpt lat="45.00425167187772" lon="7.3367402999554825"><ele>902.6666666666667</ele><time>2026-03-28T10:51:46Z</time></trkpt><trkpt lat="45.00432153855689" lon="7.336865659067081"><ele>902.3333333333334</ele><time>2026-03-28T10:51:47Z</time></trkpt><trkpt lat="45.0043670457642" lon="7.336975090166866"><ele>902.0</ele><time>2026-03-28T10:51:48Z</time></trkpt><trkpt lat="45.00440482215104" lon="7.33707829273446"><ele>902.0000000000001</ele><time>2026-03-28T10:51:49Z</time></trkpt><trkpt lat="45.00443188207424" lon="7.33718967864336"><ele>902.0</ele><time>2026-03-28T10:51:50Z</time></trkpt><trkpt lat="45.00444175604108" lon="7.3373035823922725"><ele>902.0</ele><time>2026-03-28T10:51:51Z</time></trkpt><trkpt lat="45.00443984371627" lon="7.3374142736029055"><ele>902.0</ele><time>2026-03-28T10:51:52Z</time></trkpt><trkpt lat="45.00443554633209" lon="7.337531865904864"><ele>902.0000000000001</ele><time>2026-03-28T10:51:53Z</time></trkpt><trkpt lat="45.00443236095263" lon="7.337659513378303"><ele>902.0</ele><time>2026-03-28T10:51:54Z</time></trkpt><trkpt lat="45.00444219173998" lon="7.337774749436013"><ele>902.4000000000001</ele><time>2026-03-28T10:51:55Z</time></trkpt><trkpt lat="45.00443554571022" lon="7.3379374840605625"><ele>902.8000000000001</ele><time>2026-03-28T10:51:57Z</time></trkpt><trkpt lat="45.0044767607817" lon="7.338111240793347"><ele>903.2</ele><time>2026-03-28T10:51:59Z</time></trkpt><trkpt lat="45.00450799478093" lon="7.3381912533142915"><ele>903.6</ele><time>2026-03-28T10:52:00Z</time></trkpt><trkpt lat="45.00455988759659" lon="7.33826871149025"><ele>904.0</ele><time>2026-03-28T10:52:01Z</time></trkpt><trkpt lat="45.004574515850514" lon="7.338380845191988"><ele>901.6666666666666</ele><time>2026-03-28T10:52:02Z</time></trkpt><trkpt lat="45.004610868944155" lon="7.338509075554517"><ele>899.3333333333333</ele><time>2026-03-28T10:52:03Z</time></trkpt><trkpt lat="45.00466630224682" lon="7.338604308594353"><ele>897.0</ele><time>2026-03-28T10:52:04Z</time></trkpt><trkpt lat="45.00471053331062" lon="7.338675169299764"><ele>894.6666666666667</ele><time>2026-03-28T10:52:05Z</time></trkpt><trkpt lat="45.004748392556365" lon="7.338754392204743"><ele>892.3333333333334</ele><time>2026-03-28T10:52:06Z</time></trkpt><trkpt lat="45.004809916554656" lon="7.338897646418639"><ele>890.0</ele><time>2026-03-28T10:52:08Z</time></trkpt><trkpt lat="45.004858730953686" lon="7.3390452772928025"><ele>891.4</ele><time>2026-03-28T10:52:10Z</time></trkpt><trkpt lat="45.00487740825645" lon="7.339134460528456"><ele>892.8</ele><time>2026-03-28T10:52:11Z</time></trkpt><trkpt lat="45.00490877378116" lon="7.339217799308473"><ele>894.2</ele><time>2026-03-28T10:52:12Z</time></trkpt><trkpt lat="45.00499921688809" lon="7.339321190408854"><ele>895.6</ele><time>2026-03-28T10:52:14Z</time></trkpt><trkpt lat="45.00506243549117" lon="7.3394287250549235"><ele>897.0</ele><time>2026-03-28T10:52:16Z</time></trkpt><trkpt lat="45.0051099459998" lon="7.339567039128266"><ele>894.8</ele><time>2026-03-28T10:52:18Z</time></trkpt><trkpt lat="45.005125958403795" lon="7.339745679171671"><ele>892.6</ele><time>2026-03-28T10:52:20Z</time></trkpt><trkpt lat="45.005112659921465" lon="7.339868908095442"><ele>890.3999999999999</ele><time>2026-03-28T10:52:21Z</time></trkpt><trkpt lat="45.005074607524406" lon="7.339996455647078"><ele>888.1999999999999</ele><time>2026-03-28T10:52:22Z</time></trkpt><trkpt lat="45.005041186140886" lon="7.340095666744419"><ele>886.0</ele><time>2026-03-28T10:52:23Z</time></trkpt><trkpt lat="45.00500365690569" lon="7.3401674199506095"><ele>881.1999999999999</ele><time>2026-03-28T10:52:24Z</time></trkpt><trkpt lat="45.00497653942545" lon="7.340248319318369"><ele>876.3999999999999</ele><time>2026-03-28T10:52:25Z</time></trkpt><trkpt lat="45.00493720505628" lon="7.340387024486406"><ele>871.6</ele><time>2026-03-28T10:52:27Z</time></trkpt><trkpt lat="45.00490217794834" lon="7.340544334556142"><ele>866.8</ele><time>2026-03-28T10:52:29Z</time></trkpt><trkpt lat="45.0048644054768" lon="7.340691238567722"><ele>862.0</ele><time>2026-03-28T10:52:31Z</time></trkpt><trkpt lat="45.00483243112955" lon="7.340797936882717"><ele>861.5714285714286</ele><time>2026-03-28T10:52:33Z</time></trkpt><trkpt lat="45.00479576081044" lon="7.340880524994875"><ele>861.1428571428571</ele><time>2026-03-28T10:52:35Z</time></trkpt><trkpt lat="45.004778234484135" lon="7.3409870903364896"><ele>860.7142857142857</ele><time>2026-03-28T10:52:51Z</time></trkpt><trkpt lat="45.00480672581942" lon="7.341071430762715"><ele>860.2857142857142</ele><time>2026-03-28T10:52:55Z</time></trkpt><trkpt lat="45.00473511525959" lon="7.341112587822548"><ele>859.8571428571429</ele><time>2026-03-28T10:53:01Z</time></trkpt><trkpt lat="45.00468934950333" lon="7.341043629456884"><ele>859.4285714285713</ele><time>2026-03-28T10:53:03Z</time></trkpt><trkpt lat="45.00467716647506" lon="7.340925226207621"><ele>859.0</ele><time>2026-03-28T10:53:05Z</time></trkpt><trkpt lat="45.00457991593184" lon="7.340891775939291"><ele>859.0</ele><time>2026-03-28T10:53:07Z</time></trkpt><trkpt lat="45.00452134838602" lon="7.340852677257186"><ele>859.0000000000001</ele><time>2026-03-28T10:53:09Z</time></trkpt><trkpt lat="45.00448129195333" lon="7.340999697945143"><ele>859.0000000000001</ele><time>2026-03-28T10:53:15Z</time></trkpt><trkpt lat="45.00454024252246" lon="7.341135487739424"><ele>859.0</ele><time>2026-03-28T10:53:17Z</time></trkpt><trkpt lat="45.004605370791" lon="7.341220460421708"><ele>859.0</ele><time>2026-03-28T10:53:20Z</time></trkpt><trkpt lat="45.00467369939147" lon="7.341351248614273"><ele>857.1666666666666</ele><time>2026-03-28T10:53:22Z</time></trkpt><trkpt lat="45.004740704516436" lon="7.341476470135481"><ele>855.3333333333333</ele><time>2026-03-28T10:53:24.001Z</time></trkpt><trkpt lat="45.004810035621986" lon="7.341562104605415"><ele>853.5</ele><time>2026-03-28T10:53:26.001Z</time></trkpt><trkpt lat="45.00485130027063" lon="7.341636892875915"><ele>851.6666666666667</ele><time>2026-03-28T10:53:28.001Z</time></trkpt><trkpt lat="45.004902687720765" lon="7.341697521396313"><ele>849.8333333333334</ele><time>2026-03-28T10:53:30.001Z</time></trkpt><trkpt lat="45.0049687708553" lon="7.341796867473598"><ele>848.0</ele><time>2026-03-28T10:53:32.001Z</time></trkpt><trkpt lat="45.00504652279863" lon="7.3418954480725604"><ele>853.0</ele><time>2026-03-28T10:53:34.001Z</time></trkpt><trkpt lat="45.00513814464766" lon="7.34196779338481"><ele>858.0</ele><time>2026-03-28T10:53:36.001Z</time></trkpt><trkpt lat="45.00523780091493" lon="7.341985936742957"><ele>863.0</ele><time>2026-03-28T10:53:38.001Z</time></trkpt><trkpt lat="45.0053311012866" lon="7.341952610251364"><ele>868.0</ele><time>2026-03-28T10:53:40Z</time></trkpt><trkpt lat="45.00540213274256" lon="7.341887058282743"><ele>873.0</ele><time>2026-03-28T10:53:42Z</time></trkpt><trkpt lat="45.00545738623765" lon="7.341813219989735"><ele>873.0</ele><time>2026-03-28T10:53:45Z</time></trkpt><trkpt lat="45.005573114936844" lon="7.3417720541926945"><ele>873.0</ele><time>2026-03-28T10:53:47Z</time></trkpt><trkpt lat="45.0056543290904" lon="7.341728877430858"><ele>873.0</ele><time>2026-03-28T10:53:49Z</time></trkpt><trkpt lat="45.00572168764944" lon="7.341720463453109"><ele>873.0</ele><time>2026-03-28T10:53:51Z</time></trkpt><trkpt lat="45.005787781595224" lon="7.341870862195746"><ele>873.0</ele><time>2026-03-28T10:53:53Z</time></trkpt><trkpt lat="45.005821049195426" lon="7.341963883811707"><ele>871.1666666666666</ele><time>2026-03-28T10:53:54Z</time></trkpt><trkpt lat="45.00585359399403" lon="7.3420565855122915"><ele>869.3333333333333</ele><time>2026-03-28T10:53:55Z</time></trkpt><trkpt lat="45.00589907419453" lon="7.342140013054659"><ele>867.5</ele><time>2026-03-28T10:53:56Z</time></trkpt><trkpt lat="45.00594276923107" lon="7.3422164700527475"><ele>865.6666666666666</ele><time>2026-03-28T10:53:57Z</time></trkpt><trkpt lat="45.00599632255528" lon="7.342318350284111"><ele>863.8333333333333</ele><time>2026-03-28T10:53:59Z</time></trkpt><trkpt lat="45.00607059444683" lon="7.342351281382797"><ele>862.0</ele><time>2026-03-28T10:54:01Z</time></trkpt><trkpt lat="45.00617699371856" lon="7.342357290861448"><ele>860.8</ele><time>2026-03-28T10:54:03Z</time></trkpt><trkpt lat="45.006280013861264" lon="7.342359828169838"><ele>859.6</ele><time>2026-03-28T10:54:05Z</time></trkpt><trkpt lat="45.006381602903005" lon="7.342363404631693"><ele>858.3999999999999</ele><time>2026-03-28T10:54:07Z</time></trkpt><trkpt lat="45.00646823056304" lon="7.342387970883217"><ele>857.1999999999999</ele><time>2026-03-28T10:54:09Z</time></trkpt><trkpt lat="45.00656247606993" lon="7.342439826190133"><ele>856.0</ele><time>2026-03-28T10:54:11Z</time></trkpt><trkpt lat="45.006690982374856" lon="7.342478399747842"><ele>852.1999999999999</ele><time>2026-03-28T10:54:13Z</time></trkpt><trkpt lat="45.00679126325138" lon="7.342448895900892"><ele>848.3999999999999</ele><time>2026-03-28T10:54:15Z</time></trkpt><trkpt lat="45.006849177972306" lon="7.342541082101014"><ele>844.6</ele><time>2026-03-28T10:54:18Z</time></trkpt><trkpt lat="45.006799759888644" lon="7.342664095269559"><ele>840.8</ele><time>2026-03-28T10:54:20Z</time></trkpt><trkpt lat="45.00675595085847" lon="7.342782420301036"><ele>837.0</ele><time>2026-03-28T10:54:22Z</time></trkpt><trkpt lat="45.00671591797084" lon="7.3429218411381605"><ele>836.5</ele><time>2026-03-28T10:54:24Z</time></trkpt><trkpt lat="45.00665217356827" lon="7.343028944046914"><ele>836.0</ele><time>2026-03-28T10:54:26Z</time></trkpt><trkpt lat="45.006594864498986" lon="7.343093798304964"><ele>835.5</ele><time>2026-03-28T10:54:28Z</time></trkpt><trkpt lat="45.006519124313755" lon="7.3431302139908725"><ele>835.0</ele><time>2026-03-28T10:54:30Z</time></trkpt><trkpt lat="45.00647816750934" lon="7.343199796988576"><ele>834.5</ele><time>2026-03-28T10:54:32Z</time></trkpt><trkpt lat="45.00643168223395" lon="7.343273562345524"><ele>834.0</ele><time>2026-03-28T10:54:34Z</time></trkpt><trkpt lat="45.0063895096491" lon="7.343354181050116"><ele>834.0</ele><time>2026-03-28T10:54:36Z</time></trkpt><trkpt lat="45.006334358691305" lon="7.343449730514289"><ele>834.0</ele><time>2026-03-28T10:54:39Z</time></trkpt><trkpt lat="45.006297766906464" lon="7.343579621744611"><ele>834.0</ele><time>2026-03-28T10:54:42Z</time></trkpt><trkpt lat="45.00627650963783" lon="7.343712506899216"><ele>834.0</ele><time>2026-03-28T10:54:44Z</time></trkpt><trkpt lat="45.00624667328961" lon="7.3438369846162805"><ele>834.0</ele><time>2026-03-28T10:54:46Z</time></trkpt><trkpt lat="45.00622673039818" lon="7.3439222207315815"><ele>834.0</ele><time>2026-03-28T10:54:48Z</time></trkpt><trkpt lat="45.00619605172038" lon="7.344067668130512"><ele>826.25</ele><time>2026-03-28T10:54:50Z</time></trkpt><trkpt lat="45.006171850797564" lon="7.344172877206561"><ele>818.5</ele><time>2026-03-28T10:54:51Z</time></trkpt><trkpt lat="45.00606527453259" lon="7.3444448373257085"><ele>810.75</ele><time>2026-03-28T10:54:53Z</time></trkpt><trkpt lat="45.00603653119498" lon="7.344529599509011"><ele>803.0</ele><time>2026-03-28T10:54:54Z</time></trkpt><trkpt lat="45.005991358941756" lon="7.344676621207372"><ele>798.8</ele><time>2026-03-28T10:54:56Z</time></trkpt><trkpt lat="45.00593359331373" lon="7.344786846534415"><ele>794.5999999999999</ele><time>2026-03-28T10:54:58Z</time></trkpt><trkpt lat="45.0058990771701" lon="7.344924173845014"><ele>790.4000000000001</ele><time>2026-03-28T10:55:00Z</time></trkpt><trkpt lat="45.00583531986225" lon="7.345066803504947"><ele>786.2</ele><time>2026-03-28T10:55:02Z</time></trkpt><trkpt lat="45.00579419207297" lon="7.345206213037697"><ele>782.0</ele><time>2026-03-28T10:55:04Z</time></trkpt><trkpt lat="45.00574465463506" lon="7.345264633722189"><ele>780.2857142857142</ele><time>2026-03-28T10:55:06Z</time></trkpt><trkpt lat="45.00570243506748" lon="7.345339217106115"><ele>778.5714285714286</ele><time>2026-03-28T10:55:09Z</time></trkpt><trkpt lat="45.005747599540676" lon="7.34540947091809"><ele>776.8571428571429</ele><time>2026-03-28T10:55:13Z</time></trkpt><trkpt lat="45.00576037026659" lon="7.345521850214924"><ele>775.1428571428571</ele><time>2026-03-28T10:55:18Z</time></trkpt><trkpt lat="45.005730134322945" lon="7.345623177936482"><ele>773.4285714285714</ele><time>2026-03-28T10:55:23Z</time></trkpt><trkpt lat="45.00571947305203" lon="7.345731477094656"><ele>771.7142857142857</ele><time>2026-03-28T10:55:26Z</time></trkpt><trkpt lat="45.005769415835424" lon="7.345787952556534"><ele>770.0</ele><time>2026-03-28T10:55:28Z</time></trkpt><trkpt lat="45.00581697653636" lon="7.345858331159032"><ele>769.3333333333334</ele><time>2026-03-28T10:55:32.001Z</time></trkpt><trkpt lat="45.0058026133193" lon="7.34595398754913"><ele>768.6666666666667</ele><time>2026-03-28T10:55:36.001Z</time></trkpt><trkpt lat="45.00585418698919" lon="7.346027045670486"><ele>768.0</ele><time>2026-03-28T10:55:39.001Z</time></trkpt><trkpt lat="45.00592055701768" lon="7.346073182976445"><ele>767.3333333333334</ele><time>2026-03-28T10:55:43.001Z</time></trkpt><trkpt lat="45.00600446817583" lon="7.346083051175323"><ele>766.6666666666667</ele><time>2026-03-28T10:55:49.001Z</time></trkpt><trkpt lat="45.006069370631195" lon="7.346164763697176"><ele>766.0</ele><time>2026-03-28T10:55:53.001Z</time></trkpt><trkpt lat="45.00614269370864" lon="7.346200371901679"><ele>766.0</ele><time>2026-03-28T10:55:57.001Z</time></trkpt><trkpt lat="45.006192713080935" lon="7.346281813702801"><ele>766.0</ele><time>2026-03-28T10:56:01.001Z</time></trkpt><trkpt lat="45.00626359413478" lon="7.34631997559522"><ele>766.0</ele><time>2026-03-28T10:56:04.001Z</time></trkpt><trkpt lat="45.00633175194296" lon="7.346336024515391"><ele>766.0</ele><time>2026-03-28T10:56:07.001Z</time></trkpt><trkpt lat="45.006401920884905" lon="7.346349950417911"><ele>766.0</ele><time>2026-03-28T10:56:11Z</time></trkpt><trkpt lat="45.00645480176931" lon="7.346422064898136"><ele>766.0</ele><time>2026-03-28T10:56:30Z</time></trkpt><trkpt lat="45.00645753521819" lon="7.346550459239576"><ele>763.5999999999999</ele><time>2026-03-28T10:56:32.999Z</time></trkpt><trkpt lat="45.00646969986893" lon="7.346697253999304"><ele>761.2</ele><time>2026-03-28T10:56:34.999Z</time></trkpt><trkpt lat="45.0065135240893" lon="7.346820221052305"><ele>758.8</ele><time>2026-03-28T10:56:36.999Z</time></trkpt><trkpt lat="45.00654304952041" lon="7.346984748179372"><ele>756.4000000000001</ele><time>2026-03-28T10:56:38.999Z</time></trkpt><trkpt lat="45.00655629371436" lon="7.347082750314767"><ele>754.0</ele><time>2026-03-28T10:56:39.999Z</time></trkpt><trkpt lat="45.00658604771343" lon="7.3471612182030155"><ele>751.0</ele><time>2026-03-28T10:56:40.999Z</time></trkpt><trkpt lat="45.00660746719659" lon="7.347327677700144"><ele>748.0</ele><time>2026-03-28T10:56:42.999Z</time></trkpt><trkpt lat="45.00664352798968" lon="7.347482521022229"><ele>745.0</ele><time>2026-03-28T10:56:44.999Z</time></trkpt><trkpt lat="45.006631296223574" lon="7.3476228002251025"><ele>742.0</ele><time>2026-03-28T10:56:46.999Z</time></trkpt><trkpt lat="45.00663183202125" lon="7.34777305593335"><ele>739.0</ele><time>2026-03-28T10:56:48.999Z</time></trkpt><trkpt lat="45.006646057811935" lon="7.347860693992605"><ele>739.0</ele><time>2026-03-28T10:56:49.999Z</time></trkpt><trkpt lat="45.00664107555321" lon="7.348030380423972"><ele>739.0</ele><time>2026-03-28T10:56:51.999Z</time></trkpt><trkpt lat="45.00659457779654" lon="7.34814922869572"><ele>739.0</ele><time>2026-03-28T10:56:53.999Z</time></trkpt><trkpt lat="45.00663970743639" lon="7.348319570247081"><ele>739.0</ele><time>2026-03-28T10:56:55.999Z</time></trkpt><trkpt lat="45.00669757826658" lon="7.348373050252219"><ele>739.0</ele><time>2026-03-28T10:56:56.999Z</time></trkpt><trkpt lat="45.00669581895826" lon="7.3485173593107165"><ele>735.6</ele><time>2026-03-28T10:56:58.999Z</time></trkpt><trkpt lat="45.00664410174817" lon="7.3485790230678"><ele>732.2</ele><time>2026-03-28T10:56:59.999Z</time></trkpt><trkpt lat="45.0065849508677" lon="7.348629302378082"><ele>728.8000000000001</ele><time>2026-03-28T10:57:00.999Z</time></trkpt><trkpt lat="45.006511148928716" lon="7.348750526632963"><ele>725.4000000000001</ele><time>2026-03-28T10:57:02.999Z</time></trkpt><trkpt lat="45.006428197081796" lon="7.348900465949595"><ele>722.0</ele><time>2026-03-28T10:57:04.999Z</time></trkpt><trkpt lat="45.00630554383557" lon="7.348947692304406"><ele>718.0</ele><time>2026-03-28T10:57:06.999Z</time></trkpt><trkpt lat="45.00624307804866" lon="7.3489896523877425"><ele>714.0</ele><time>2026-03-28T10:57:07.999Z</time></trkpt><trkpt lat="45.00619140238443" lon="7.349102486264967"><ele>710.0</ele><time>2026-03-28T10:57:09.999Z</time></trkpt><trkpt lat="45.00613797586065" lon="7.349222715969469"><ele>706.0</ele><time>2026-03-28T10:57:11.999Z</time></trkpt><trkpt lat="45.006066102090855" lon="7.349353909305573"><ele>702.0</ele><time>2026-03-28T10:57:13.999Z</time></trkpt><trkpt lat="45.00602342427892" lon="7.349492051531336"><ele>702.0</ele><time>2026-03-28T10:57:15.999Z</time></trkpt><trkpt lat="45.005978291760805" lon="7.349599831365744"><ele>702.0</ele><time>2026-03-28T10:57:17.999Z</time></trkpt><trkpt lat="45.00591847162801" lon="7.349724536253095"><ele>702.0</ele><time>2026-03-28T10:57:19.999Z</time></trkpt><trkpt lat="45.00588041529743" lon="7.34984229398773"><ele>702.0</ele><time>2026-03-28T10:57:21.999Z</time></trkpt><trkpt lat="45.00584488701302" lon="7.3499807415378555"><ele>702.0</ele><time>2026-03-28T10:57:23.999Z</time></trkpt><trkpt lat="45.00579092704701" lon="7.350084965000871"><ele>697.2</ele><time>2026-03-28T10:57:25.999Z</time></trkpt><trkpt lat="45.00579126849278" lon="7.350231092670672"><ele>692.4000000000001</ele><time>2026-03-28T10:57:27.999Z</time></trkpt><trkpt lat="45.00576077465311" lon="7.350348418841907"><ele>687.5999999999999</ele><time>2026-03-28T10:57:29.999Z</time></trkpt><trkpt lat="45.00571919848094" lon="7.3504544515877415"><ele>682.8</ele><time>2026-03-28T10:57:31.999Z</time></trkpt><trkpt lat="45.00567390258728" lon="7.350630926784155"><ele>678.0</ele><time>2026-03-28T10:57:33.999Z</time></trkpt><trkpt lat="45.00565354056379" lon="7.3507391809316704"><ele>676.2</ele><time>2026-03-28T10:57:34.999Z</time></trkpt><trkpt lat="45.005627710806316" lon="7.350825256295955"><ele>674.4</ele><time>2026-03-28T10:57:36Z</time></trkpt><trkpt lat="45.00554218032457" lon="7.350910335506432"><ele>672.6</ele><time>2026-03-28T10:57:38Z</time></trkpt><trkpt lat="45.00556732923928" lon="7.351018052532591"><ele>670.8000000000001</ele><time>2026-03-28T10:57:40Z</time></trkpt><trkpt lat="45.00560059412796" lon="7.351120942000471"><ele>669.0</ele><time>2026-03-28T10:57:42Z</time></trkpt><trkpt lat="45.00565461553341" lon="7.351274977581171"><ele>669.0</ele><time>2026-03-28T10:57:44Z</time></trkpt><trkpt lat="45.005688655063025" lon="7.351372318999189"><ele>669.0</ele><time>2026-03-28T10:57:45Z</time></trkpt><trkpt lat="45.005723710457985" lon="7.351467129860987"><ele>669.0</ele><time>2026-03-28T10:57:46Z</time></trkpt><trkpt lat="45.00575443580967" lon="7.35156138576216"><ele>669.0</ele><time>2026-03-28T10:57:47Z</time></trkpt><trkpt lat="45.00578883560072" lon="7.3516518500866495"><ele>669.0</ele><time>2026-03-28T10:57:48Z</time></trkpt><trkpt lat="45.00582057717234" lon="7.35174377269595"><ele>669.0</ele><time>2026-03-28T10:57:49Z</time></trkpt><trkpt lat="45.005854948407645" lon="7.351835776244716"><ele>669.0</ele><time>2026-03-28T10:57:50Z</time></trkpt><trkpt lat="45.00588795133463" lon="7.351926476650862"><ele>669.6</ele><time>2026-03-28T10:57:51Z</time></trkpt><trkpt lat="45.00592633000755" lon="7.35202686836922"><ele>670.2</ele><time>2026-03-28T10:57:52Z</time></trkpt><trkpt lat="45.005973210089174" lon="7.352141320898826"><ele>670.8000000000001</ele><time>2026-03-28T10:57:53Z</time></trkpt><trkpt lat="45.00601706193065" lon="7.352265048377658"><ele>671.4000000000001</ele><time>2026-03-28T10:57:54Z</time></trkpt><trkpt lat="45.00606176984184" lon="7.35239393106846"><ele>672.0</ele><time>2026-03-28T10:57:55Z</time></trkpt><trkpt lat="45.00610614759379" lon="7.352524908003926"><ele>672.0</ele><time>2026-03-28T10:57:56Z</time></trkpt><trkpt lat="45.006161683479455" lon="7.35266812367557"><ele>672.0</ele><time>2026-03-28T10:57:57Z</time></trkpt><trkpt lat="45.00621241494496" lon="7.352814672265629"><ele>672.0</ele><time>2026-03-28T10:57:58Z</time></trkpt><trkpt lat="45.006264816491615" lon="7.352954257224027"><ele>672.0</ele><time>2026-03-28T10:57:59Z</time></trkpt><trkpt lat="45.00631659420627" lon="7.3530907103291545"><ele>670.0</ele><time>2026-03-28T10:58:00Z</time></trkpt><trkpt lat="45.00636689157251" lon="7.353227963311642"><ele>668.0</ele><time>2026-03-28T10:58:01Z</time></trkpt><trkpt lat="45.00641342403733" lon="7.353371959609502"><ele>666.0</ele><time>2026-03-28T10:58:02Z</time></trkpt><trkpt lat="45.00644622720115" lon="7.3535160017977885"><ele>664.0</ele><time>2026-03-28T10:58:03Z</time></trkpt><trkpt lat="45.006441372585236" lon="7.353654656883138"><ele>662.0</ele><time>2026-03-28T10:58:04Z</time></trkpt><trkpt lat="45.00641703335592" lon="7.353784513953638"><ele>659.4000000000001</ele><time>2026-03-28T10:58:05Z</time></trkpt><trkpt lat="45.00642366856255" lon="7.353950067057534"><ele>656.8000000000001</ele><time>2026-03-28T10:58:06Z</time></trkpt><trkpt lat="45.00642162275365" lon="7.35410379157227"><ele>654.2</ele><time>2026-03-28T10:58:07Z</time></trkpt><trkpt lat="45.00642443726738" lon="7.354254914048776"><ele>651.6</ele><time>2026-03-28T10:58:08Z</time></trkpt><trkpt lat="45.0064451306113" lon="7.354400982010299"><ele>649.0</ele><time>2026-03-28T10:58:09Z</time></trkpt><trkpt lat="45.00648286120645" lon="7.354537551138616"><ele>649.0</ele><time>2026-03-28T10:58:10Z</time></trkpt><trkpt lat="45.00651484254487" lon="7.354663785821085"><ele>649.0</ele><time>2026-03-28T10:58:11Z</time></trkpt><trkpt lat="45.00654221871416" lon="7.354791086629438"><ele>649.0</ele><time>2026-03-28T10:58:12Z</time></trkpt><trkpt lat="45.006550821886606" lon="7.3549310869761575"><ele>649.0</ele><time>2026-03-28T10:58:13Z</time></trkpt><trkpt lat="45.006542443730126" lon="7.355076270894927"><ele>649.0</ele><time>2026-03-28T10:58:14Z</time></trkpt><trkpt lat="45.006525222656805" lon="7.35521413307906"><ele>646.6</ele><time>2026-03-28T10:58:15Z</time></trkpt><trkpt lat="45.006511704326044" lon="7.355357766889828"><ele>644.2</ele><time>2026-03-28T10:58:16Z</time></trkpt><trkpt lat="45.00650201113016" lon="7.355499257189667"><ele>641.8000000000001</ele><time>2026-03-28T10:58:17Z</time></trkpt><trkpt lat="45.006488551869765" lon="7.3556369016419625"><ele>639.4000000000001</ele><time>2026-03-28T10:58:18Z</time></trkpt><trkpt lat="45.006476475454" lon="7.355771129496232"><ele>637.0</ele><time>2026-03-28T10:58:19Z</time></trkpt><trkpt lat="45.00645929129596" lon="7.355901955964564"><ele>637.1666666666667</ele><time>2026-03-28T10:58:20Z</time></trkpt><trkpt lat="45.00644685624518" lon="7.356032629907974"><ele>637.3333333333334</ele><time>2026-03-28T10:58:21Z</time></trkpt><trkpt lat="45.00643320333902" lon="7.3561561820526"><ele>637.5</ele><time>2026-03-28T10:58:22Z</time></trkpt><trkpt lat="45.00641532984675" lon="7.35627969126946"><ele>637.6666666666666</ele><time>2026-03-28T10:58:23Z</time></trkpt><trkpt lat="45.0063985747432" lon="7.356403643215104"><ele>637.8333333333333</ele><time>2026-03-28T10:58:24Z</time></trkpt><trkpt lat="45.0063842631177" lon="7.356517399922175"><ele>638.0</ele><time>2026-03-28T10:58:25Z</time></trkpt><trkpt lat="45.0063747317375" lon="7.356633433834948"><ele>638.0</ele><time>2026-03-28T10:58:26Z</time></trkpt><trkpt lat="45.00636189169467" lon="7.356770873448854"><ele>638.0</ele><time>2026-03-28T10:58:27Z</time></trkpt><trkpt lat="45.006336938197116" lon="7.356928500491083"><ele>638.0</ele><time>2026-03-28T10:58:28Z</time></trkpt><trkpt lat="45.00629610147231" lon="7.357085830789268"><ele>638.0</ele><time>2026-03-28T10:58:29Z</time></trkpt><trkpt lat="45.00624185280914" lon="7.357215372848662"><ele>638.0</ele><time>2026-03-28T10:58:30Z</time></trkpt><trkpt lat="45.00616448309106" lon="7.357341280609629"><ele>638.1999999999999</ele><time>2026-03-28T10:58:31Z</time></trkpt><trkpt lat="45.006081137967286" lon="7.357451437600303"><ele>638.4</ele><time>2026-03-28T10:58:32Z</time></trkpt><trkpt lat="45.006011931128235" lon="7.357566195684292"><ele>638.5999999999999</ele><time>2026-03-28T10:58:33Z</time></trkpt><trkpt lat="45.005962012701524" lon="7.357695673398217"><ele>638.8</ele><time>2026-03-28T10:58:34Z</time></trkpt><trkpt lat="45.005933044669305" lon="7.3578254937330705"><ele>639.0</ele><time>2026-03-28T10:58:35Z</time></trkpt><trkpt lat="45.00591688047926" lon="7.357954267581195"><ele>638.5</ele><time>2026-03-28T10:58:36Z</time></trkpt><trkpt lat="45.00592620395461" lon="7.358084796920337"><ele>638.0</ele><time>2026-03-28T10:58:37Z</time></trkpt><trkpt lat="45.00595995093118" lon="7.358207168655731"><ele>637.5</ele><time>2026-03-28T10:58:38Z</time></trkpt><trkpt lat="45.006006922102735" lon="7.358308456354073"><ele>637.0</ele><time>2026-03-28T10:58:39Z</time></trkpt><trkpt lat="45.00607062459849" lon="7.358393953749689"><ele>636.5</ele><time>2026-03-28T10:58:40Z</time></trkpt><trkpt lat="45.006139943524246" lon="7.358454994465848"><ele>636.0</ele><time>2026-03-28T10:58:41Z</time></trkpt><trkpt lat="45.006217333011854" lon="7.358474665305525"><ele>636.0</ele><time>2026-03-28T10:58:42Z</time></trkpt><trkpt lat="45.00629898925903" lon="7.35845428769806"><ele>636.0</ele><time>2026-03-28T10:58:43Z</time></trkpt><trkpt lat="45.00637633212935" lon="7.358392959635496"><ele>636.0</ele><time>2026-03-28T10:58:44Z</time></trkpt><trkpt lat="45.00644994959098" lon="7.358360406267732"><ele>636.0</ele><time>2026-03-28T10:58:45Z</time></trkpt><trkpt lat="45.00654093683772" lon="7.358295643410369"><ele>636.0</ele><time>2026-03-28T10:58:47Z</time></trkpt><trkpt lat="45.00661938375669" lon="7.358386848345427"><ele>636.0</ele><time>2026-03-28T10:58:49Z</time></trkpt><trkpt lat="45.00661079893992" lon="7.358488530305929"><ele>636.0</ele><time>2026-03-28T10:58:50Z</time></trkpt><trkpt lat="45.006568883528395" lon="7.3586020892057205"><ele>636.0</ele><time>2026-03-28T10:58:51Z</time></trkpt><trkpt lat="45.00650846559313" lon="7.358716992697771"><ele>636.0</ele><time>2026-03-28T10:58:52Z</time></trkpt><trkpt lat="45.00642136463999" lon="7.358834892315847"><ele>636.0</ele><time>2026-03-28T10:58:53Z</time></trkpt><trkpt lat="45.006300260173795" lon="7.358922052611597"><ele>633.8333333333334</ele><time>2026-03-28T10:58:54Z</time></trkpt><trkpt lat="45.006196477282884" lon="7.3589982349067755"><ele>631.6666666666666</ele><time>2026-03-28T10:58:55Z</time></trkpt><trkpt lat="45.006108707043666" lon="7.359039627071848"><ele>629.5</ele><time>2026-03-28T10:58:56Z</time></trkpt><trkpt lat="45.00603740456047" lon="7.358986089342099"><ele>627.3333333333333</ele><time>2026-03-28T10:58:57Z</time></trkpt><trkpt lat="45.00596591119004" lon="7.358976762989574"><ele>625.1666666666666</ele><time>2026-03-28T10:58:58Z</time></trkpt><trkpt lat="45.00589253140038" lon="7.358957550537833"><ele>623.0</ele><time>2026-03-28T10:58:59Z</time></trkpt><trkpt lat="45.00582467122479" lon="7.358952773962614"><ele>623.0</ele><time>2026-03-28T10:59:00Z</time></trkpt><trkpt lat="45.005758329592304" lon="7.358997962028335"><ele>623.0</ele><time>2026-03-28T10:59:01Z</time></trkpt><trkpt lat="45.00574013351042" lon="7.359108460114226"><ele>623.0</ele><time>2026-03-28T10:59:02Z</time></trkpt><trkpt lat="45.00577948643992" lon="7.3591940369207185"><ele>623.0</ele><time>2026-03-28T10:59:03Z</time></trkpt><trkpt lat="45.00589252157114" lon="7.359244598585862"><ele>623.0</ele><time>2026-03-28T10:59:05Z</time></trkpt><trkpt lat="45.00595929343691" lon="7.359268018123402"><ele>623.0</ele><time>2026-03-28T10:59:06Z</time></trkpt><trkpt lat="45.006040055107796" lon="7.359295631460208"><ele>623.0</ele><time>2026-03-28T10:59:07Z</time></trkpt><trkpt lat="45.00613746027358" lon="7.3593355885165685"><ele>623.0</ele><time>2026-03-28T10:59:08Z</time></trkpt><trkpt lat="45.006232885861564" lon="7.359333366284045"><ele>623.0</ele><time>2026-03-28T10:59:09Z</time></trkpt><trkpt lat="45.006338096537256" lon="7.359295263788255"><ele>623.0</ele><time>2026-03-28T10:59:10Z</time></trkpt><trkpt lat="45.006403731098956" lon="7.3592671629126585"><ele>623.0</ele><time>2026-03-28T10:59:11Z</time></trkpt><trkpt lat="45.006463062531445" lon="7.359227213086903"><ele>623.0</ele><time>2026-03-28T10:59:12Z</time></trkpt><trkpt lat="45.006517439615614" lon="7.359182215103255"><ele>623.0</ele><time>2026-03-28T10:59:13Z</time></trkpt><trkpt lat="45.00660700195672" lon="7.359106117708681"><ele>623.0</ele><time>2026-03-28T10:59:15Z</time></trkpt><trkpt lat="45.00667840072687" lon="7.3591003039511635"><ele>623.0</ele><time>2026-03-28T10:59:18Z</time></trkpt><trkpt lat="45.00677803759708" lon="7.3590990554641635"><ele>623.0</ele><time>2026-03-28T10:59:21Z</time></trkpt><trkpt lat="45.00684016579515" lon="7.359060352491181"><ele>623.0</ele><time>2026-03-28T10:59:22Z</time></trkpt><trkpt lat="45.00692519533658" lon="7.358982629513272"><ele>623.0</ele><time>2026-03-28T10:59:23Z</time></trkpt><trkpt lat="45.00698140959827" lon="7.358928929262716"><ele>623.75</ele><time>2026-03-28T10:59:24Z</time></trkpt><trkpt lat="45.00708544767183" lon="7.358907456162415"><ele>624.5</ele><time>2026-03-28T10:59:26Z</time></trkpt><trkpt lat="45.007166810864206" lon="7.358835762273277"><ele>625.25</ele><time>2026-03-28T10:59:28Z</time></trkpt><trkpt lat="45.007249933929" lon="7.35873923508741"><ele>626.0</ele><time>2026-03-28T10:59:30Z</time></trkpt><trkpt lat="45.00744753642759" lon="7.358957236639187"><ele>624.8</ele><time>2026-03-28T10:59:31Z</time></trkpt><trkpt lat="45.0075204877158" lon="7.358992554857104"><ele>623.6</ele><time>2026-03-28T10:59:31.999Z</time></trkpt><trkpt lat="45.00763817879376" lon="7.359035316528121"><ele>622.4</ele><time>2026-03-28T10:59:33.999Z</time></trkpt><trkpt lat="45.007711702352125" lon="7.359059009254658"><ele>621.2</ele><time>2026-03-28T10:59:34.999Z</time></trkpt><trkpt lat="45.00781392996911" lon="7.359133472821182"><ele>620.0</ele><time>2026-03-28T10:59:36.999Z</time></trkpt><trkpt lat="45.00786222099685" lon="7.359202089331189"><ele>620.0</ele><time>2026-03-28T10:59:37.999Z</time></trkpt><trkpt lat="45.00790281680345" lon="7.359336288502904"><ele>620.0</ele><time>2026-03-28T10:59:39.999Z</time></trkpt><trkpt lat="45.007954408289464" lon="7.359442915106039"><ele>620.0</ele><time>2026-03-28T10:59:42Z</time></trkpt><trkpt lat="45.00796440493294" lon="7.359632081749651"><ele>620.0</ele><time>2026-03-28T10:59:44Z</time></trkpt><trkpt lat="45.00798534020053" lon="7.359742511615904"><ele>620.0</ele><time>2026-03-28T10:59:45Z</time></trkpt><trkpt lat="45.00801031994983" lon="7.3598398878256885"><ele>622.3333333333333</ele><time>2026-03-28T10:59:46Z</time></trkpt><trkpt lat="45.00803454926645" lon="7.359932309972084"><ele>624.6666666666666</ele><time>2026-03-28T10:59:47Z</time></trkpt><trkpt lat="45.008066145839514" lon="7.360024585987065"><ele>627.0</ele><time>2026-03-28T10:59:48Z</time></trkpt><trkpt lat="45.00808796040496" lon="7.360121285768939"><ele>629.3333333333334</ele><time>2026-03-28T10:59:49Z</time></trkpt><trkpt lat="45.008121915153545" lon="7.360293900995107"><ele>631.6666666666667</ele><time>2026-03-28T10:59:51Z</time></trkpt><trkpt lat="45.00813517259852" lon="7.360442070207701"><ele>634.0</ele><time>2026-03-28T10:59:53Z</time></trkpt><trkpt lat="45.008087618701" lon="7.36052943902862"><ele>634.0</ele><time>2026-03-28T10:59:56Z</time></trkpt><trkpt lat="45.008010103980006" lon="7.360454274799726"><ele>634.0</ele><time>2026-03-28T10:59:58Z</time></trkpt><trkpt lat="45.007937294527494" lon="7.360357338249021"><ele>634.0</ele><time>2026-03-28T11:00:00Z</time></trkpt><trkpt lat="45.00788283969212" lon="7.360297517826339"><ele>634.0</ele><time>2026-03-28T11:00:01Z</time></trkpt><trkpt lat="45.00780517948715" lon="7.360184767956204"><ele>634.0</ele><time>2026-03-28T11:00:03Z</time></trkpt><trkpt lat="45.007705178781976" lon="7.360122681426253"><ele>634.0</ele><time>2026-03-28T11:00:05Z</time></trkpt><trkpt lat="45.00760298777955" lon="7.360220929961826"><ele>634.0</ele><time>2026-03-28T11:00:07Z</time></trkpt><trkpt lat="45.007556923205016" lon="7.360284500972869"><ele>634.0</ele><time>2026-03-28T11:00:08Z</time></trkpt><trkpt lat="45.0075490782197" lon="7.360413328681592"><ele>634.0</ele><time>2026-03-28T11:00:10Z</time></trkpt><trkpt lat="45.00758895545093" lon="7.360500000246145"><ele>634.0</ele><time>2026-03-28T11:00:11Z</time></trkpt><trkpt lat="45.00763578411552" lon="7.360598620766708"><ele>634.0</ele><time>2026-03-28T11:00:12Z</time></trkpt><trkpt lat="45.00770421842733" lon="7.360689022296687"><ele>635.3333333333334</ele><time>2026-03-28T11:00:13Z</time></trkpt><trkpt lat="45.00775821159471" lon="7.360764103190789"><ele>636.6666666666667</ele><time>2026-03-28T11:00:14Z</time></trkpt><trkpt lat="45.007824486930126" lon="7.360836133237742"><ele>638.0</ele><time>2026-03-28T11:00:15Z</time></trkpt><trkpt lat="45.00789859637432" lon="7.3608911864878905"><ele>639.3333333333334</ele><time>2026-03-28T11:00:16Z</time></trkpt><trkpt lat="45.007975375293505" lon="7.36093914464347"><ele>640.6666666666666</ele><time>2026-03-28T11:00:17Z</time></trkpt><trkpt lat="45.008051410514625" lon="7.360997554340994"><ele>642.0</ele><time>2026-03-28T11:00:18Z</time></trkpt><trkpt lat="45.00810999288158" lon="7.361081439044414"><ele>641.9999999999999</ele><time>2026-03-28T11:00:19Z</time></trkpt><trkpt lat="45.00818370688318" lon="7.361130606376771"><ele>642.0</ele><time>2026-03-28T11:00:20Z</time></trkpt><trkpt lat="45.0082641204897" lon="7.361173061928537"><ele>642.0</ele><time>2026-03-28T11:00:21Z</time></trkpt><trkpt lat="45.00832624368712" lon="7.361224639820327"><ele>642.0</ele><time>2026-03-28T11:00:22Z</time></trkpt><trkpt lat="45.00838323315508" lon="7.361275556443078"><ele>642.0</ele><time>2026-03-28T11:00:23Z</time></trkpt><trkpt lat="45.00843268846337" lon="7.3613351950862205"><ele>641.9999999999999</ele><time>2026-03-28T11:00:24Z</time></trkpt><trkpt lat="45.00848262852071" lon="7.361392017800038"><ele>642.0</ele><time>2026-03-28T11:00:25Z</time></trkpt><trkpt lat="45.00860964169501" lon="7.361440913223766"><ele>644.5</ele><time>2026-03-28T11:00:27Z</time></trkpt><trkpt lat="45.008683164700464" lon="7.361464567018933"><ele>647.0</ele><time>2026-03-28T11:00:28Z</time></trkpt><trkpt lat="45.008769301534066" lon="7.361482167384274"><ele>649.5</ele><time>2026-03-28T11:00:29Z</time></trkpt><trkpt lat="45.00884904760059" lon="7.3615240712109085"><ele>652.0</ele><time>2026-03-28T11:00:30Z</time></trkpt><trkpt lat="45.008916719800354" lon="7.361552805256953"><ele>654.5</ele><time>2026-03-28T11:00:31Z</time></trkpt><trkpt lat="45.00898337980964" lon="7.361572394153077"><ele>657.0</ele><time>2026-03-28T11:00:32Z</time></trkpt><trkpt lat="45.009058023850464" lon="7.361574984695603"><ele>657.0</ele><time>2026-03-28T11:00:33Z</time></trkpt><trkpt lat="45.009122096720716" lon="7.361595455161394"><ele>657.0</ele><time>2026-03-28T11:00:34Z</time></trkpt><trkpt lat="45.00919174669169" lon="7.361619335694135"><ele>657.0</ele><time>2026-03-28T11:00:35Z</time></trkpt><trkpt lat="45.009257857696" lon="7.3616569576471935"><ele>657.0</ele><time>2026-03-28T11:00:36Z</time></trkpt><trkpt lat="45.00932096546289" lon="7.361700307986994"><ele>657.0</ele><time>2026-03-28T11:00:37Z</time></trkpt><trkpt lat="45.00937293819854" lon="7.361750882416356"><ele>657.0</ele><time>2026-03-28T11:00:38Z</time></trkpt><trkpt lat="45.0094246624795" lon="7.361814100324043"><ele>657.0</ele><time>2026-03-28T11:00:39Z</time></trkpt><trkpt lat="45.009533899599006" lon="7.361879915664318"><ele>655.0</ele><time>2026-03-28T11:00:41Z</time></trkpt><trkpt lat="45.009619470036235" lon="7.361882899547325"><ele>653.0</ele><time>2026-03-28T11:00:42Z</time></trkpt><trkpt lat="45.0097022693115" lon="7.3619018762729915"><ele>651.0</ele><time>2026-03-28T11:00:43Z</time></trkpt><trkpt lat="45.00977186395424" lon="7.361953770063934"><ele>649.0</ele><time>2026-03-28T11:00:44Z</time></trkpt><trkpt lat="45.009837870660434" lon="7.362010332571354"><ele>647.0</ele><time>2026-03-28T11:00:45Z</time></trkpt><trkpt lat="45.00989187066478" lon="7.362081170996639"><ele>645.0</ele><time>2026-03-28T11:00:46Z</time></trkpt><trkpt lat="45.00996036299726" lon="7.3621311315762945"><ele>643.6666666666666</ele><time>2026-03-28T11:00:47Z</time></trkpt><trkpt lat="45.01003434923079" lon="7.362133768617849"><ele>642.3333333333334</ele><time>2026-03-28T11:00:48Z</time></trkpt><trkpt lat="45.0101067093544" lon="7.36212246049328"><ele>641.0</ele><time>2026-03-28T11:00:49Z</time></trkpt><trkpt lat="45.01016454332866" lon="7.362158232793952"><ele>639.6666666666667</ele><time>2026-03-28T11:00:50Z</time></trkpt><trkpt lat="45.01019011320298" lon="7.362334472964866"><ele>638.3333333333334</ele><time>2026-03-28T11:00:52Z</time></trkpt><trkpt lat="45.01016481648064" lon="7.362437323172415"><ele>637.0</ele><time>2026-03-28T11:00:53Z</time></trkpt><trkpt lat="45.010146926391315" lon="7.362525994474614"><ele>640.0</ele><time>2026-03-28T11:00:54Z</time></trkpt><trkpt lat="45.01011976020784" lon="7.362628171867562"><ele>643.0</ele><time>2026-03-28T11:00:55Z</time></trkpt><trkpt lat="45.01011202159254" lon="7.362735171969209"><ele>646.0</ele><time>2026-03-28T11:00:56Z</time></trkpt><trkpt lat="45.010114414391" lon="7.36283269664659"><ele>649.0</ele><time>2026-03-28T11:00:57Z</time></trkpt><trkpt lat="45.01013143308385" lon="7.363002263637436"><ele>652.0</ele><time>2026-03-28T11:00:59Z</time></trkpt><trkpt lat="45.01016035629224" lon="7.363095271174148"><ele>655.0</ele><time>2026-03-28T11:01:00Z</time></trkpt><trkpt lat="45.01018202559721" lon="7.363190585616464"><ele>657.6</ele><time>2026-03-28T11:01:01Z</time></trkpt><trkpt lat="45.01024400540544" lon="7.363343115683703"><ele>660.2</ele><time>2026-03-28T11:01:03Z</time></trkpt><trkpt lat="45.010319324108636" lon="7.3634727895606975"><ele>662.8</ele><time>2026-03-28T11:01:05Z</time></trkpt><trkpt lat="45.01039691485705" lon="7.363593572948495"><ele>665.4</ele><time>2026-03-28T11:01:07Z</time></trkpt><trkpt lat="45.010439534796035" lon="7.363676757901566"><ele>668.0</ele><time>2026-03-28T11:01:08Z</time></trkpt><trkpt lat="45.010487818380724" lon="7.363746069031263"><ele>668.0</ele><time>2026-03-28T11:01:09Z</time></trkpt><trkpt lat="45.01052492379226" lon="7.363833228085738"><ele>668.0</ele><time>2026-03-28T11:01:10Z</time></trkpt><trkpt lat="45.01060860596088" lon="7.363965850304745"><ele>668.0</ele><time>2026-03-28T11:01:12Z</time></trkpt><trkpt lat="45.01067055195133" lon="7.364044100631624"><ele>668.0</ele><time>2026-03-28T11:01:13Z</time></trkpt><trkpt lat="45.01070568553276" lon="7.364150576471326"><ele>668.0</ele><time>2026-03-28T11:01:14Z</time></trkpt><trkpt lat="45.010747065500965" lon="7.364243704590476"><ele>668.0</ele><time>2026-03-28T11:01:15Z</time></trkpt><trkpt lat="45.01079046276738" lon="7.364318825265032"><ele>668.0</ele><time>2026-03-28T11:01:16Z</time></trkpt><trkpt lat="45.01088270571909" lon="7.364436364042419"><ele>668.0</ele><time>2026-03-28T11:01:18Z</time></trkpt><trkpt lat="45.010939911928766" lon="7.364476370575256"><ele>668.0</ele><time>2026-03-28T11:01:19Z</time></trkpt><trkpt lat="45.0110419772872" lon="7.364565598580427"><ele>668.0</ele><time>2026-03-28T11:01:21Z</time></trkpt><trkpt lat="45.01113579894594" lon="7.364676936034339"><ele>668.0</ele><time>2026-03-28T11:01:23Z</time></trkpt><trkpt lat="45.01123308730694" lon="7.364763448477482"><ele>668.0</ele><time>2026-03-28T11:01:25Z</time></trkpt><trkpt lat="45.01124107548755" lon="7.364881902397516"><ele>668.0</ele><time>2026-03-28T11:01:38Z</time></trkpt><trkpt lat="45.0111637786011" lon="7.364865217436647"><ele>668.0</ele><time>2026-03-28T11:01:49Z</time></trkpt><trkpt lat="45.0110917785342" lon="7.364933473572581"><ele>668.0</ele><time>2026-03-28T11:01:51Z</time></trkpt><trkpt lat="45.0110001323607" lon="7.364897702600859"><ele>668.0</ele><time>2026-03-28T11:01:53Z</time></trkpt><trkpt lat="45.01089669678262" lon="7.36494808626499"><ele>668.0</ele><time>2026-03-28T11:01:55Z</time></trkpt><trkpt lat="45.010836044993766" lon="7.364984042282464"><ele>668.0</ele><time>2026-03-28T11:01:56Z</time></trkpt><trkpt lat="45.01072239831709" lon="7.3650316039283235"><ele>668.0</ele><time>2026-03-28T11:01:58Z</time></trkpt><trkpt lat="45.010596362715006" lon="7.36504543710303"><ele>668.0</ele><time>2026-03-28T11:02:00Z</time></trkpt><trkpt lat="45.010512550867254" lon="7.364988178996149"><ele>668.0</ele><time>2026-03-28T11:02:02Z</time></trkpt><trkpt lat="45.01043664157506" lon="7.364999368640333"><ele>673.5999999999999</ele><time>2026-03-28T11:02:04Z</time></trkpt><trkpt lat="45.01025938495031" lon="7.364895371912575"><ele>679.1999999999999</ele><time>2026-03-28T11:02:07Z</time></trkpt><trkpt lat="45.01018186976667" lon="7.364871034011341"><ele>684.8</ele><time>2026-03-28T11:02:09Z</time></trkpt><trkpt lat="45.010119408104586" lon="7.36489412972687"><ele>690.4</ele><time>2026-03-28T11:02:11Z</time></trkpt><trkpt lat="45.010044738277784" lon="7.36488797883894"><ele>696.0</ele><time>2026-03-28T11:02:13Z</time></trkpt><trkpt lat="45.00994556791311" lon="7.364924252593395"><ele>700.3333333333334</ele><time>2026-03-28T11:02:15Z</time></trkpt><trkpt lat="45.00983458957707" lon="7.364942876242293"><ele>704.6666666666666</ele><time>2026-03-28T11:02:17Z</time></trkpt><trkpt lat="45.00975704976423" lon="7.364990715446311"><ele>709.0</ele><time>2026-03-28T11:02:19Z</time></trkpt><trkpt lat="45.00968706797513" lon="7.365010262286376"><ele>713.3333333333333</ele><time>2026-03-28T11:02:21Z</time></trkpt><trkpt lat="45.009610487069686" lon="7.365081564146315"><ele>717.6666666666666</ele><time>2026-03-28T11:02:24Z</time></trkpt><trkpt lat="45.009531863596315" lon="7.365129792411362"><ele>722.0</ele><time>2026-03-28T11:02:27Z</time></trkpt><trkpt lat="45.00947016094802" lon="7.365161680775528"><ele>722.0</ele><time>2026-03-28T11:02:28Z</time></trkpt><trkpt lat="45.00936830875273" lon="7.365132551335853"><ele>722.0</ele><time>2026-03-28T11:02:30Z</time></trkpt><trkpt lat="45.00927362557555" lon="7.365134525028366"><ele>722.0</ele><time>2026-03-28T11:02:34.999Z</time></trkpt><trkpt lat="45.00919773861484" lon="7.3650851726629645"><ele>722.0</ele><time>2026-03-28T11:02:37.999Z</time></trkpt><trkpt lat="45.00913086413826" lon="7.365057305369514"><ele>722.0</ele><time>2026-03-28T11:02:39.999Z</time></trkpt><trkpt lat="45.009062154844116" lon="7.365067481229622"><ele>722.0</ele><time>2026-03-28T11:02:41.999Z</time></trkpt><trkpt lat="45.009019564368856" lon="7.364993641013654"><ele>726.25</ele><time>2026-03-28T11:02:43.999Z</time></trkpt><trkpt lat="45.008927471309455" lon="7.365016280510836"><ele>730.5</ele><time>2026-03-28T11:02:45.999Z</time></trkpt><trkpt lat="45.00884037172687" lon="7.364982187839177"><ele>734.75</ele><time>2026-03-28T11:02:47.999Z</time></trkpt><trkpt lat="45.00876776518115" lon="7.364962208507241"><ele>739.0</ele><time>2026-03-28T11:02:49.999Z</time></trkpt><trkpt lat="45.008358412659355" lon="7.364894067571584"><ele>737.1666666666667</ele><time>2026-03-28T11:02:51.999Z</time></trkpt><trkpt lat="45.00826679263581" lon="7.364911545970945"><ele>735.3333333333334</ele><time>2026-03-28T11:02:53.999Z</time></trkpt><trkpt lat="45.008150596404214" lon="7.364961264007254"><ele>733.5</ele><time>2026-03-28T11:02:55.999Z</time></trkpt><trkpt lat="45.008202053988896" lon="7.365032702792846"><ele>731.6666666666666</ele><time>2026-03-28T11:06:27Z</time></trkpt><trkpt lat="45.00815476046029" lon="7.365119552480498"><ele>729.8333333333333</ele><time>2026-03-28T11:06:30Z</time></trkpt><trkpt lat="45.00809818514582" lon="7.365171450704188"><ele>728.0</ele><time>2026-03-28T11:06:32Z</time></trkpt><trkpt lat="45.00805410507725" lon="7.365241738203236"><ele>728.0</ele><time>2026-03-28T11:06:34Z</time></trkpt><trkpt lat="45.00796855918245" lon="7.365283183558879"><ele>728.0</ele><time>2026-03-28T11:06:36Z</time></trkpt><trkpt lat="45.007901261912814" lon="7.365382017550322"><ele>728.0</ele><time>2026-03-28T11:06:38Z</time></trkpt><trkpt lat="45.00785012444334" lon="7.365442535081501"><ele>728.0</ele><time>2026-03-28T11:06:40Z</time></trkpt><trkpt lat="45.007751442398764" lon="7.365503546199201"><ele>728.0</ele><time>2026-03-28T11:06:42Z</time></trkpt><trkpt lat="45.007664499281915" lon="7.365576078958678"><ele>726.8</ele><time>2026-03-28T11:06:44Z</time></trkpt><trkpt lat="45.007581786301714" lon="7.365672752722752"><ele>725.5999999999999</ele><time>2026-03-28T11:06:46Z</time></trkpt><trkpt lat="45.00750401570902" lon="7.365765985741789"><ele>724.4000000000001</ele><time>2026-03-28T11:06:48Z</time></trkpt><trkpt lat="45.00742855567257" lon="7.3658277940463694"><ele>723.2</ele><time>2026-03-28T11:06:50Z</time></trkpt><trkpt lat="45.00737049037463" lon="7.365900568685785"><ele>722.0</ele><time>2026-03-28T11:06:52Z</time></trkpt><trkpt lat="45.00730892133438" lon="7.366001967528509"><ele>722.0</ele><time>2026-03-28T11:06:55Z</time></trkpt><trkpt lat="45.007265326123864" lon="7.366136669574388"><ele>722.0</ele><time>2026-03-28T11:06:57Z</time></trkpt><trkpt lat="45.00720569543599" lon="7.366223608278137"><ele>722.0</ele><time>2026-03-28T11:06:59Z</time></trkpt><trkpt lat="45.00714563870972" lon="7.366345107495913"><ele>722.0</ele><time>2026-03-28T11:07:01Z</time></trkpt><trkpt lat="45.00707675464683" lon="7.3664451284961325"><ele>722.0</ele><time>2026-03-28T11:07:03Z</time></trkpt><trkpt lat="45.00706579081514" lon="7.366579286885809"><ele>724.6</ele><time>2026-03-28T11:07:05Z</time></trkpt><trkpt lat="45.00705572003323" lon="7.36671237885288"><ele>727.2</ele><time>2026-03-28T11:07:07Z</time></trkpt><trkpt lat="45.00704289958078" lon="7.36685277962974"><ele>729.8</ele><time>2026-03-28T11:07:09Z</time></trkpt><trkpt lat="45.0070853676117" lon="7.3669730820844315"><ele>732.4</ele><time>2026-03-28T11:07:11Z</time></trkpt><trkpt lat="45.007133565065644" lon="7.367068405118634"><ele>735.0</ele><time>2026-03-28T11:07:13Z</time></trkpt><trkpt lat="45.00709647593914" lon="7.367169697068448"><ele>737.6666666666666</ele><time>2026-03-28T11:07:15Z</time></trkpt><trkpt lat="45.007091906568995" lon="7.367313943619157"><ele>740.3333333333334</ele><time>2026-03-28T11:07:18Z</time></trkpt><trkpt lat="45.00710618023155" lon="7.367420048978276"><ele>743.0</ele><time>2026-03-28T11:07:20Z</time></trkpt><trkpt lat="45.00715928927435" lon="7.367480848029218"><ele>745.6666666666667</ele><time>2026-03-28T11:07:23Z</time></trkpt><trkpt lat="45.007185441774006" lon="7.367562623182393"><ele>748.3333333333334</ele><time>2026-03-28T11:07:57Z</time></trkpt><trkpt lat="45.00715817366905" lon="7.367653424385233"><ele>751.0</ele><time>2026-03-28T11:07:59Z</time></trkpt><trkpt lat="45.007142139728096" lon="7.367798649160942"><ele>751.0</ele><time>2026-03-28T11:08:02Z</time></trkpt><trkpt lat="45.007094501723515" lon="7.367907993168118"><ele>751.0</ele><time>2026-03-28T11:08:04Z</time></trkpt><trkpt lat="45.007046835654435" lon="7.367986587084356"><ele>751.0</ele><time>2026-03-28T11:08:06Z</time></trkpt><trkpt lat="45.00703753365275" lon="7.368099743942972"><ele>751.0</ele><time>2026-03-28T11:08:08Z</time></trkpt><trkpt lat="45.00702135489218" lon="7.368223164725179"><ele>751.0</ele><time>2026-03-28T11:08:10Z</time></trkpt><trkpt lat="45.00705860960877" lon="7.368318941112797"><ele>751.0</ele><time>2026-03-28T11:08:13Z</time></trkpt><trkpt lat="45.007115162932635" lon="7.368410827225861"><ele>754.4</ele><time>2026-03-28T11:08:16Z</time></trkpt><trkpt lat="45.0071004701591" lon="7.368519104892326"><ele>757.8</ele><time>2026-03-28T11:08:18Z</time></trkpt><trkpt lat="45.00701224832719" lon="7.36862524435996"><ele>761.1999999999999</ele><time>2026-03-28T11:08:20Z</time></trkpt><trkpt lat="45.00695893308105" lon="7.368758032393647"><ele>764.5999999999999</ele><time>2026-03-28T11:08:22Z</time></trkpt><trkpt lat="45.00691744761881" lon="7.3688519639480345"><ele>768.0</ele><time>2026-03-28T11:08:24Z</time></trkpt><trkpt lat="45.00684590747847" lon="7.368896738074115"><ele>767.8333333333334</ele><time>2026-03-28T11:08:26Z</time></trkpt><trkpt lat="45.006809090483245" lon="7.368984880645498"><ele>767.6666666666666</ele><time>2026-03-28T11:08:28Z</time></trkpt><trkpt lat="45.006744583222904" lon="7.36907301766138"><ele>767.5</ele><time>2026-03-28T11:08:30Z</time></trkpt><trkpt lat="45.00667682450806" lon="7.36912633496401"><ele>767.3333333333333</ele><time>2026-03-28T11:08:31Z</time></trkpt><trkpt lat="45.00661730468332" lon="7.369171419393898"><ele>767.1666666666666</ele><time>2026-03-28T11:08:32Z</time></trkpt><trkpt lat="45.0065541400524" lon="7.369240121550207"><ele>767.0</ele><time>2026-03-28T11:08:34Z</time></trkpt><trkpt lat="45.00651358664908" lon="7.369317316283647"><ele>767.0</ele><time>2026-03-28T11:08:36Z</time></trkpt><trkpt lat="45.00645643818145" lon="7.369384249329642"><ele>767.0</ele><time>2026-03-28T11:08:38Z</time></trkpt><trkpt lat="45.00636702066199" lon="7.369442450129147"><ele>767.0</ele><time>2026-03-28T11:08:40Z</time></trkpt><trkpt lat="45.00629796416832" lon="7.369518423802853"><ele>767.0</ele><time>2026-03-28T11:08:42Z</time></trkpt><trkpt lat="45.00627776013532" lon="7.369658468609416"><ele>767.0</ele><time>2026-03-28T11:08:44Z</time></trkpt><trkpt lat="45.0062715687001" lon="7.369761194572512"><ele>767.0</ele><time>2026-03-28T11:08:47Z</time></trkpt><trkpt lat="45.00626551934487" lon="7.369872135025121"><ele>771.0</ele><time>2026-03-28T11:08:50Z</time></trkpt><trkpt lat="45.00623315897635" lon="7.3700037798435805"><ele>775.0</ele><time>2026-03-28T11:08:52Z</time></trkpt><trkpt lat="45.00622272076117" lon="7.370092917273854"><ele>779.0</ele><time>2026-03-28T11:08:53Z</time></trkpt><trkpt lat="45.006209708243" lon="7.370204326530751"><ele>783.0</ele><time>2026-03-28T11:08:55Z</time></trkpt><trkpt lat="45.006232908016074" lon="7.370340440127835"><ele>787.0000000000001</ele><time>2026-03-28T11:08:57Z</time></trkpt><trkpt lat="45.00623256111392" lon="7.370442448053411"><ele>791.0</ele><time>2026-03-28T11:08:59Z</time></trkpt><trkpt lat="45.00622029220263" lon="7.370538354156294"><ele>794.0000000000001</ele><time>2026-03-28T11:09:01Z</time></trkpt><trkpt lat="45.00619057272294" lon="7.370633564900059"><ele>797.0</ele><time>2026-03-28T11:09:02.999Z</time></trkpt><trkpt lat="45.006162021547766" lon="7.370738185544983"><ele>800.0</ele><time>2026-03-28T11:09:03.999Z</time></trkpt><trkpt lat="45.00611139155219" lon="7.370859308089414"><ele>803.0</ele><time>2026-03-28T11:09:05.999Z</time></trkpt><trkpt lat="45.00602020850085" lon="7.370897823294299"><ele>806.0000000000001</ele><time>2026-03-28T11:09:08.999Z</time></trkpt><trkpt lat="45.00599876325825" lon="7.370983861305021"><ele>809.0</ele><time>2026-03-28T11:09:11.999Z</time></trkpt><trkpt lat="45.005945319369424" lon="7.371090772300917"><ele>809.0000000000001</ele><time>2026-03-28T11:10:04.999Z</time></trkpt><trkpt lat="45.00587497586908" lon="7.371210303556328"><ele>809.0</ele><time>2026-03-28T11:10:06.999Z</time></trkpt><trkpt lat="45.00581546285304" lon="7.371246626256773"><ele>809.0</ele><time>2026-03-28T11:10:08.999Z</time></trkpt><trkpt lat="45.00572516225768" lon="7.371329928865593"><ele>809.0</ele><time>2026-03-28T11:10:10.999Z</time></trkpt><trkpt lat="45.005696502532615" lon="7.3714289869924725"><ele>809.0000000000001</ele><time>2026-03-28T11:10:14Z</time></trkpt><trkpt lat="45.00566686201879" lon="7.371512380273414"><ele>809.0</ele><time>2026-03-28T11:10:16Z</time></trkpt><trkpt lat="45.00561817243181" lon="7.3715944702557294"><ele>807.0000000000001</ele><time>2026-03-28T11:10:19Z</time></trkpt><trkpt lat="45.005556394401935" lon="7.37165610823443"><ele>805.0</ele><time>2026-03-28T11:10:21Z</time></trkpt><trkpt lat="45.0055488848019" lon="7.371797699695458"><ele>803.0</ele><time>2026-03-28T11:10:24Z</time></trkpt><trkpt lat="45.005473796003905" lon="7.371877461287072"><ele>801.0</ele><time>2026-03-28T11:10:27Z</time></trkpt><trkpt lat="45.00540935916742" lon="7.371905581163092"><ele>799.0000000000001</ele><time>2026-03-28T11:10:30Z</time></trkpt><trkpt lat="45.00534767370649" lon="7.37198930113787"><ele>797.0</ele><time>2026-03-28T11:10:32Z</time></trkpt><trkpt lat="45.00529830497818" lon="7.372089616935273"><ele>797.0000000000001</ele><time>2026-03-28T11:10:34Z</time></trkpt><trkpt lat="45.005233410121704" lon="7.372122875825299"><ele>797.0</ele><time>2026-03-28T11:10:37Z</time></trkpt><trkpt lat="45.00520623990568" lon="7.372246128889752"><ele>797.0</ele><time>2026-03-28T11:11:05Z</time></trkpt><trkpt lat="45.00514013061124" lon="7.372378794257358"><ele>797.0</ele><time>2026-03-28T11:13:29Z</time></trkpt><trkpt lat="45.00504686023903" lon="7.372407732968493"><ele>797.0000000000001</ele><time>2026-03-28T11:13:33Z</time></trkpt><trkpt lat="45.00497150477535" lon="7.372415272749874"><ele>797.0</ele><time>2026-03-28T11:13:35Z</time></trkpt><trkpt lat="45.004898997829905" lon="7.3724196253992815"><ele>795.5000000000001</ele><time>2026-03-28T11:13:37Z</time></trkpt><trkpt lat="45.00481344659502" lon="7.372372602197"><ele>794.0</ele><time>2026-03-28T11:13:39Z</time></trkpt><trkpt lat="45.00475044406981" lon="7.372405618864848"><ele>792.5</ele><time>2026-03-28T11:13:44Z</time></trkpt><trkpt lat="45.00475074504654" lon="7.372511297662512"><ele>791.0</ele><time>2026-03-28T11:13:46Z</time></trkpt><trkpt lat="45.00467592022723" lon="7.372559709571703"><ele>789.5000000000001</ele><time>2026-03-28T11:13:48Z</time></trkpt><trkpt lat="45.00460205647019" lon="7.372614973078611"><ele>788.0</ele><time>2026-03-28T11:13:50Z</time></trkpt><trkpt lat="45.0045106374979" lon="7.372690541345056"><ele>788.0000000000001</ele><time>2026-03-28T11:13:52Z</time></trkpt><trkpt lat="45.00442988285195" lon="7.372740995137577"><ele>788.0</ele><time>2026-03-28T11:13:54Z</time></trkpt><trkpt lat="45.00433287187998" lon="7.372772249260412"><ele>788.0</ele><time>2026-03-28T11:13:56Z</time></trkpt><trkpt lat="45.004275566780784" lon="7.372834500663251"><ele>788.0</ele><time>2026-03-28T11:13:59Z</time></trkpt><trkpt lat="45.00423752817887" lon="7.3729188748739105"><ele>788.0000000000001</ele><time>2026-03-28T11:14:01Z</time></trkpt><trkpt lat="45.0041856078688" lon="7.372997414410716"><ele>788.0</ele><time>2026-03-28T11:14:04Z</time></trkpt><trkpt lat="45.00419917821587" lon="7.373111354944177"><ele>784.5000000000001</ele><time>2026-03-28T11:14:06Z</time></trkpt><trkpt lat="45.00412433717312" lon="7.373202867490022"><ele>781.0</ele><time>2026-03-28T11:14:08Z</time></trkpt><trkpt lat="45.004049718814635" lon="7.373278230738998"><ele>777.5</ele><time>2026-03-28T11:14:10Z</time></trkpt><trkpt lat="45.00395666352563" lon="7.373308772973323"><ele>774.0</ele><time>2026-03-28T11:14:13Z</time></trkpt><trkpt lat="45.00387650461549" lon="7.37337674875621"><ele>770.5</ele><time>2026-03-28T11:14:15Z</time></trkpt><trkpt lat="45.0038323002466" lon="7.37344808608235"><ele>767.0</ele><time>2026-03-28T11:14:17Z</time></trkpt><trkpt lat="45.003813980818265" lon="7.373576949057974"><ele>767.0</ele><time>2026-03-28T11:14:20Z</time></trkpt><trkpt lat="45.003742633752324" lon="7.373648092394566"><ele>767.0</ele><time>2026-03-28T11:14:23Z</time></trkpt><trkpt lat="45.003703233935056" lon="7.373736563790865"><ele>767.0</ele><time>2026-03-28T11:14:29Z</time></trkpt><trkpt lat="45.003711055907345" lon="7.373837167408032"><ele>767.0</ele><time>2026-03-28T11:14:32Z</time></trkpt><trkpt lat="45.00370682116376" lon="7.373934453868582"><ele>767.0</ele><time>2026-03-28T11:14:37Z</time></trkpt><trkpt lat="45.00372385864921" lon="7.374037675189747"><ele>767.0</ele><time>2026-03-28T11:14:41Z</time></trkpt><trkpt lat="45.003744021216896" lon="7.37416917543565"><ele>767.8333333333333</ele><time>2026-03-28T11:14:44Z</time></trkpt><trkpt lat="45.00369679117142" lon="7.374232643309937"><ele>768.6666666666666</ele><time>2026-03-28T11:14:47Z</time></trkpt><trkpt lat="45.00364815503914" lon="7.3743163412891555"><ele>769.5</ele><time>2026-03-28T11:14:50Z</time></trkpt><trkpt lat="45.003593565096295" lon="7.374427887296422"><ele>770.3333333333333</ele><time>2026-03-28T11:14:53Z</time></trkpt><trkpt lat="45.003564511225115" lon="7.374535832722233"><ele>771.1666666666666</ele><time>2026-03-28T11:14:56Z</time></trkpt><trkpt lat="45.00353065223792" lon="7.374620903857336"><ele>772.0</ele><time>2026-03-28T11:15:02Z</time></trkpt><trkpt lat="45.00349003357105" lon="7.374714920146919"><ele>770.6666666666666</ele><time>2026-03-28T11:15:06Z</time></trkpt><trkpt lat="45.00346804935343" lon="7.374803902156161"><ele>769.3333333333333</ele><time>2026-03-28T11:15:08Z</time></trkpt><trkpt lat="45.00344275694074" lon="7.37493974772995"><ele>768.0</ele><time>2026-03-28T11:15:11Z</time></trkpt><trkpt lat="45.003395446322365" lon="7.3750133594277365"><ele>766.6666666666666</ele><time>2026-03-28T11:15:12Z</time></trkpt><trkpt lat="45.00333892365831" lon="7.375069286952597"><ele>765.3333333333333</ele><time>2026-03-28T11:15:13Z</time></trkpt><trkpt lat="45.00326969609793" lon="7.375108629172467"><ele>764.0</ele><time>2026-03-28T11:15:14Z</time></trkpt><trkpt lat="45.003186637704616" lon="7.375182494097692"><ele>764.0</ele><time>2026-03-28T11:15:16Z</time></trkpt><trkpt lat="45.003152493804905" lon="7.375337510064933"><ele>764.0</ele><time>2026-03-28T11:15:18Z</time></trkpt><trkpt lat="45.00311101895717" lon="7.375409720934699"><ele>764.0</ele><time>2026-03-28T11:15:19Z</time></trkpt><trkpt lat="45.00306213439518" lon="7.375479589829945"><ele>764.0</ele><time>2026-03-28T11:15:20Z</time></trkpt><trkpt lat="45.00301473395565" lon="7.375540957155691"><ele>764.0</ele><time>2026-03-28T11:15:21Z</time></trkpt><trkpt lat="45.00294276813023" lon="7.375656958802733"><ele>764.0</ele><time>2026-03-28T11:15:23Z</time></trkpt><trkpt lat="45.002885890852504" lon="7.375700518981528"><ele>762.1666666666666</ele><time>2026-03-28T11:15:25Z</time></trkpt><trkpt lat="45.00281356036868" lon="7.375761903783824"><ele>760.3333333333333</ele><time>2026-03-28T11:15:27Z</time></trkpt><trkpt lat="45.00275285514688" lon="7.375840042929675"><ele>758.5</ele><time>2026-03-28T11:15:28Z</time></trkpt><trkpt lat="45.00267748896625" lon="7.375918582826757"><ele>756.6666666666666</ele><time>2026-03-28T11:15:30Z</time></trkpt><trkpt lat="45.00259276481688" lon="7.376037887077538"><ele>754.8333333333334</ele><time>2026-03-28T11:15:32Z</time></trkpt><trkpt lat="45.00254187061903" lon="7.376101263039513"><ele>753.0</ele><time>2026-03-28T11:15:32.999Z</time></trkpt><trkpt lat="45.00246544348954" lon="7.37623133569608"><ele>752.5999999999999</ele><time>2026-03-28T11:15:34.999Z</time></trkpt><trkpt lat="45.00243680426118" lon="7.376314951354302"><ele>752.1999999999999</ele><time>2026-03-28T11:15:35.999Z</time></trkpt><trkpt lat="45.002370489176286" lon="7.3764509003230625"><ele>751.8</ele><time>2026-03-28T11:15:37.999Z</time></trkpt><trkpt lat="45.00232857394334" lon="7.376520771117609"><ele>751.4</ele><time>2026-03-28T11:15:38.999Z</time></trkpt><trkpt lat="45.00223930647701" lon="7.376616241804467"><ele>751.0</ele><time>2026-03-28T11:15:40.999Z</time></trkpt><trkpt lat="45.002132961526144" lon="7.376720724311172"><ele>749.8</ele><time>2026-03-28T11:15:42.999Z</time></trkpt><trkpt lat="45.0020694139114" lon="7.3767720138738"><ele>748.5999999999999</ele><time>2026-03-28T11:15:43.999Z</time></trkpt><trkpt lat="45.00195878547168" lon="7.3768619291383315"><ele>747.4</ele><time>2026-03-28T11:15:45.999Z</time></trkpt><trkpt lat="45.00190435087821" lon="7.37691307242081"><ele>746.2</ele><time>2026-03-28T11:15:46.999Z</time></trkpt><trkpt lat="45.00179500720698" lon="7.376975424231321"><ele>745.0</ele><time>2026-03-28T11:15:48.999Z</time></trkpt><trkpt lat="45.001734129965946" lon="7.377073840044756"><ele>742.8</ele><time>2026-03-28T11:15:50.999Z</time></trkpt><trkpt lat="45.001620464842176" lon="7.377128064215241"><ele>740.6</ele><time>2026-03-28T11:15:52.999Z</time></trkpt><trkpt lat="45.00149073892103" lon="7.377219545839708"><ele>738.4000000000001</ele><time>2026-03-28T11:15:54.999Z</time></trkpt><trkpt lat="45.001415589962775" lon="7.37726471618205"><ele>736.2</ele><time>2026-03-28T11:15:55.999Z</time></trkpt><trkpt lat="45.00134308229856" lon="7.377296732697232"><ele>734.0</ele><time>2026-03-28T11:15:56.999Z</time></trkpt><trkpt lat="45.001268492430526" lon="7.377333440236274"><ele>731.4000000000001</ele><time>2026-03-28T11:15:57.999Z</time></trkpt><trkpt lat="45.00119937452442" lon="7.377362805857391"><ele>728.8</ele><time>2026-03-28T11:15:58.999Z</time></trkpt><trkpt lat="45.001128430692766" lon="7.377414839018262"><ele>726.2</ele><time>2026-03-28T11:15:59.999Z</time></trkpt><trkpt lat="45.000992634938974" lon="7.37747507499471"><ele>723.5999999999999</ele><time>2026-03-28T11:16:01.999Z</time></trkpt><trkpt lat="45.00090065462479" lon="7.377554158176404"><ele>721.0</ele><time>2026-03-28T11:16:03.999Z</time></trkpt><trkpt lat="45.00084853957955" lon="7.377649175468917"><ele>715.6666666666667</ele><time>2026-03-28T11:16:05.999Z</time></trkpt><trkpt lat="45.000790733642596" lon="7.377739541085075"><ele>710.3333333333334</ele><time>2026-03-28T11:16:07.999Z</time></trkpt><trkpt lat="45.00073608648659" lon="7.377800451783492"><ele>705.0</ele><time>2026-03-28T11:16:08.999Z</time></trkpt><trkpt lat="45.00065032846067" lon="7.377879509769185"><ele>699.6666666666666</ele><time>2026-03-28T11:16:10.999Z</time></trkpt><trkpt lat="45.00058014610479" lon="7.377905530569268"><ele>694.3333333333333</ele><time>2026-03-28T11:16:12.999Z</time></trkpt><trkpt lat="45.000481316991454" lon="7.377954140857694"><ele>689.0</ele><time>2026-03-28T11:16:14.999Z</time></trkpt><trkpt lat="45.0003854233833" lon="7.3780061062354525"><ele>688.0</ele><time>2026-03-28T11:16:16.999Z</time></trkpt><trkpt lat="45.000275305738754" lon="7.378060306690487"><ele>687.0</ele><time>2026-03-28T11:16:18.999Z</time></trkpt><trkpt lat="45.000194433902536" lon="7.3781205051488685"><ele>686.0</ele><time>2026-03-28T11:16:21.999Z</time></trkpt><trkpt lat="45.00015757664283" lon="7.378215795987182"><ele>685.0</ele><time>2026-03-28T11:16:23.999Z</time></trkpt><trkpt lat="45.000140307527644" lon="7.3783287170867835"><ele>684.0</ele><time>2026-03-28T11:16:25.999Z</time></trkpt><trkpt lat="45.00010202171188" lon="7.378468696041696"><ele>684.0</ele><time>2026-03-28T11:16:27.999Z</time></trkpt><trkpt lat="45.00006743527149" lon="7.378603579882225"><ele>684.0</ele><time>2026-03-28T11:16:30Z</time></trkpt><trkpt lat="45.00006596112132" lon="7.378699403777329"><ele>684.0</ele><time>2026-03-28T11:16:32Z</time></trkpt><trkpt lat="45.000074982293924" lon="7.378797586364487"><ele>684.0</ele><time>2026-03-28T11:16:35Z</time></trkpt><trkpt lat="45.00003646455954" lon="7.37889560318002"><ele>684.0</ele><time>2026-03-28T11:16:45Z</time></trkpt><trkpt lat="44.99997850677284" lon="7.378853576463507"><ele>684.0</ele><time>2026-03-28T11:16:48Z</time></trkpt><trkpt lat="44.999968101180364" lon="7.379037339079603"><ele>682.5714285714286</ele><time>2026-03-28T11:16:49Z</time></trkpt><trkpt lat="44.99989718843244" lon="7.37910865568935"><ele>681.1428571428571</ele><time>2026-03-28T11:16:52Z</time></trkpt><trkpt lat="44.999864078326844" lon="7.379198937240849"><ele>679.7142857142858</ele><time>2026-03-28T11:16:54Z</time></trkpt><trkpt lat="44.999812751628625" lon="7.379270941466526"><ele>678.2857142857142</ele><time>2026-03-28T11:16:56Z</time></trkpt><trkpt lat="44.99974745886511" lon="7.37927121592107"><ele>676.8571428571429</ele><time>2026-03-28T11:16:59Z</time></trkpt><trkpt lat="44.999704983801415" lon="7.379354373350369"><ele>675.4285714285714</ele><time>2026-03-28T11:17:03Z</time></trkpt><trkpt lat="44.99966687409677" lon="7.3794484835306156"><ele>674.0</ele><time>2026-03-28T11:17:07Z</time></trkpt><trkpt lat="44.999594791854676" lon="7.379458976755001"><ele>674.0</ele><time>2026-03-28T11:17:10Z</time></trkpt><trkpt lat="44.99951041402524" lon="7.379435438254999"><ele>674.0</ele><time>2026-03-28T11:17:28.999Z</time></trkpt><trkpt lat="44.99944593269515" lon="7.379399427395076"><ele>674.0</ele><time>2026-03-28T11:17:31.999Z</time></trkpt><trkpt lat="44.99937937761814" lon="7.37944833212336"><ele>674.0</ele><time>2026-03-28T11:17:34.999Z</time></trkpt><trkpt lat="44.99933468676805" lon="7.379315526122226"><ele>674.0</ele><time>2026-03-28T11:17:37.999Z</time></trkpt><trkpt lat="44.999289242828105" lon="7.379210987741149"><ele>674.0</ele><time>2026-03-28T11:17:39.999Z</time></trkpt><trkpt lat="44.99928355734813" lon="7.37907824911595"><ele>674.0</ele><time>2026-03-28T11:17:41.999Z</time></trkpt><trkpt lat="44.99926468060428" lon="7.378956731267564"><ele>674.0</ele><time>2026-03-28T11:17:43.999Z</time></trkpt><trkpt lat="44.9992428550059" lon="7.378866497248846"><ele>674.0</ele><time>2026-03-28T11:17:47.999Z</time></trkpt><trkpt lat="44.99923402621014" lon="7.378766571708602"><ele>674.0</ele><time>2026-03-28T11:18:25.999Z</time></trkpt><trkpt lat="44.99923886408625" lon="7.378664661094558"><ele>674.0</ele><time>2026-03-28T11:18:39Z</time></trkpt><trkpt lat="44.999247083737316" lon="7.378544323592372"><ele>674.0</ele><time>2026-03-28T11:18:43Z</time></trkpt><trkpt lat="44.99926519425253" lon="7.37845151380846"><ele>675.6666666666666</ele><time>2026-03-28T11:18:46Z</time></trkpt><trkpt lat="44.99929900144984" lon="7.3783538574653385"><ele>677.3333333333333</ele><time>2026-03-28T11:19:09Z</time></trkpt><trkpt lat="44.99931939279474" lon="7.378251687445665"><ele>679.0</ele><time>2026-03-28T11:19:14Z</time></trkpt><trkpt lat="44.999330929653645" lon="7.378154999379373"><ele>680.6666666666666</ele><time>2026-03-28T11:19:17Z</time></trkpt><trkpt lat="44.99929206452406" lon="7.37805547377074"><ele>682.3333333333334</ele><time>2026-03-28T11:19:20Z</time></trkpt><trkpt lat="44.999282494335695" lon="7.37794227537424"><ele>684.0</ele><time>2026-03-28T11:19:23Z</time></trkpt><trkpt lat="44.99925686578145" lon="7.377813092953192"><ele>685.0</ele><time>2026-03-28T11:19:26Z</time></trkpt><trkpt lat="44.99922293575981" lon="7.3777151316613745"><ele>686.0</ele><time>2026-03-28T11:19:28Z</time></trkpt><trkpt lat="44.99917857399553" lon="7.377566116080005"><ele>687.0</ele><time>2026-03-28T11:19:30Z</time></trkpt><trkpt lat="44.999179494557005" lon="7.377429911891022"><ele>688.0</ele><time>2026-03-28T11:19:32Z</time></trkpt><trkpt lat="44.99914729587895" lon="7.377317353307379"><ele>689.0</ele><time>2026-03-28T11:19:35Z</time></trkpt><trkpt lat="44.99908165025776" lon="7.3772198245428156"><ele>681.3333333333333</ele><time>2026-03-28T11:19:38Z</time></trkpt><trkpt lat="44.99902290616651" lon="7.37711907779364"><ele>673.6666666666666</ele><time>2026-03-28T11:19:41Z</time></trkpt><trkpt lat="44.99898118818976" lon="7.376999040489405"><ele>666.0</ele><time>2026-03-28T11:19:44Z</time></trkpt><trkpt lat="44.99896676042262" lon="7.3768639020591715"><ele>658.3333333333334</ele><time>2026-03-28T11:19:46Z</time></trkpt><trkpt lat="44.99894227147011" lon="7.376751168966303"><ele>650.6666666666667</ele><time>2026-03-28T11:19:47Z</time></trkpt><trkpt lat="44.99890108894093" lon="7.376657807892917"><ele>643.0</ele><time>2026-03-28T11:19:48Z</time></trkpt><trkpt lat="44.998874851897135" lon="7.3765340605497505"><ele>643.0</ele><time>2026-03-28T11:19:50Z</time></trkpt><trkpt lat="44.99883308395743" lon="7.376444307367521"><ele>643.0</ele><time>2026-03-28T11:19:52Z</time></trkpt><trkpt lat="44.99878889432666" lon="7.376377633002897"><ele>643.0</ele><time>2026-03-28T11:19:53Z</time></trkpt><trkpt lat="44.99871995522551" lon="7.376282585267914"><ele>643.0</ele><time>2026-03-28T11:19:55Z</time></trkpt><trkpt lat="44.99867713550882" lon="7.376168492821919"><ele>643.0</ele><time>2026-03-28T11:19:57Z</time></trkpt><trkpt lat="44.998647214556954" lon="7.376076600091123"><ele>643.0</ele><time>2026-03-28T11:19:59Z</time></trkpt><trkpt lat="44.9985818820745" lon="7.376007327851453"><ele>643.0</ele><time>2026-03-28T11:20:01Z</time></trkpt><trkpt lat="44.9985330171846" lon="7.375942896204904"><ele>643.0</ele><time>2026-03-28T11:20:03Z</time></trkpt><trkpt lat="44.99849206235727" lon="7.375857191697117"><ele>643.0</ele><time>2026-03-28T11:20:05Z</time></trkpt><trkpt lat="44.99848999329649" lon="7.375745272530942"><ele>643.0</ele><time>2026-03-28T11:20:08Z</time></trkpt><trkpt lat="44.998491307781904" lon="7.3756390841301265"><ele>643.0</ele><time>2026-03-28T11:20:10Z</time></trkpt><trkpt lat="44.99847906155813" lon="7.375527299266281"><ele>643.0</ele><time>2026-03-28T11:20:12Z</time></trkpt><trkpt lat="44.99844314562529" lon="7.375437670141375"><ele>643.0</ele><time>2026-03-28T11:20:14Z</time></trkpt><trkpt lat="44.99836543943568" lon="7.375385252640771"><ele>636.5</ele><time>2026-03-28T11:20:16Z</time></trkpt><trkpt lat="44.998288085721114" lon="7.375323103476827"><ele>630.0</ele><time>2026-03-28T11:20:19Z</time></trkpt><trkpt lat="44.998209797437696" lon="7.375234708484476"><ele>623.5</ele><time>2026-03-28T11:20:21Z</time></trkpt><trkpt lat="44.99814042144268" lon="7.3752094244486734"><ele>617.0</ele><time>2026-03-28T11:20:24Z</time></trkpt><trkpt lat="44.99804796455688" lon="7.375207517888631"><ele>610.5</ele><time>2026-03-28T11:20:27Z</time></trkpt><trkpt lat="44.997962915717586" lon="7.375158514344314"><ele>604.0</ele><time>2026-03-28T11:20:30Z</time></trkpt><trkpt lat="44.9977407956814" lon="7.375055329051501"><ele>604.0</ele><time>2026-03-28T11:20:32Z</time></trkpt><trkpt lat="44.99764889970776" lon="7.37501075907964"><ele>604.0</ele><time>2026-03-28T11:20:34Z</time></trkpt><trkpt lat="44.99759849282418" lon="7.374951849619272"><ele>604.0</ele><time>2026-03-28T11:20:36Z</time></trkpt><trkpt lat="44.997586932527526" lon="7.374862187544014"><ele>604.0</ele><time>2026-03-28T11:20:37.999Z</time></trkpt><trkpt lat="44.997538988879754" lon="7.37475826368324"><ele>604.0</ele><time>2026-03-28T11:20:40Z</time></trkpt><trkpt lat="44.99745170716589" lon="7.374679996707391"><ele>604.0</ele><time>2026-03-28T11:20:42Z</time></trkpt><trkpt lat="44.99737581203865" lon="7.3746076829013765"><ele>599.5</ele><time>2026-03-28T11:20:44Z</time></trkpt><trkpt lat="44.997326083861125" lon="7.374539087026995"><ele>595.0</ele><time>2026-03-28T11:20:46Z</time></trkpt><trkpt lat="44.99727627023177" lon="7.374473446126988"><ele>590.5</ele><time>2026-03-28T11:20:48Z</time></trkpt><trkpt lat="44.997217724535275" lon="7.374421132570332"><ele>586.0</ele><time>2026-03-28T11:20:50Z</time></trkpt><trkpt lat="44.99713667503751" lon="7.3743604514244865"><ele>581.5</ele><time>2026-03-28T11:20:52Z</time></trkpt><trkpt lat="44.997088267314666" lon="7.37425281315345"><ele>577.0</ele><time>2026-03-28T11:20:54Z</time></trkpt><trkpt lat="44.99700019580142" lon="7.374142902732144"><ele>577.0</ele><time>2026-03-28T11:20:56Z</time></trkpt><trkpt lat="44.99692607427682" lon="7.37403068078585"><ele>577.0</ele><time>2026-03-28T11:20:58Z</time></trkpt><trkpt lat="44.99683318742921" lon="7.3739844800073495"><ele>577.0</ele><time>2026-03-28T11:21:00Z</time></trkpt><trkpt lat="44.99675909253699" lon="7.3739134359596985"><ele>577.0</ele><time>2026-03-28T11:21:02Z</time></trkpt><trkpt lat="44.99674551928837" lon="7.373794163151163"><ele>577.0</ele><time>2026-03-28T11:21:04Z</time></trkpt><trkpt lat="44.996744590087545" lon="7.373663106452293"><ele>574.1666666666667</ele><time>2026-03-28T11:21:07Z</time></trkpt><trkpt lat="44.996687481923026" lon="7.37355264174894"><ele>571.3333333333334</ele><time>2026-03-28T11:21:11Z</time></trkpt><trkpt lat="44.99667804568344" lon="7.373460342983357"><ele>568.5</ele><time>2026-03-28T11:21:14Z</time></trkpt><trkpt lat="44.99663348651401" lon="7.373360574393017"><ele>565.6666666666666</ele><time>2026-03-28T11:21:17Z</time></trkpt><trkpt lat="44.996579262884225" lon="7.3732968908653"><ele>562.8333333333333</ele><time>2026-03-28T11:21:19Z</time></trkpt><trkpt lat="44.996527946048936" lon="7.373225731177166"><ele>560.0</ele><time>2026-03-28T11:21:20Z</time></trkpt><trkpt lat="44.99648663691217" lon="7.373131911757099"><ele>560.0</ele><time>2026-03-28T11:21:22Z</time></trkpt><trkpt lat="44.996422530027935" lon="7.373070354738353"><ele>560.0</ele><time>2026-03-28T11:21:24Z</time></trkpt><trkpt lat="44.99634469618884" lon="7.373009437489956"><ele>560.0</ele><time>2026-03-28T11:21:26Z</time></trkpt><trkpt lat="44.99628810136386" lon="7.372931950041669"><ele>560.0</ele><time>2026-03-28T11:21:29Z</time></trkpt><trkpt lat="44.99623833838163" lon="7.372849308438359"><ele>560.0</ele><time>2026-03-28T11:21:31Z</time></trkpt><trkpt lat="44.99618168813472" lon="7.372754923208139"><ele>560.0</ele><time>2026-03-28T11:21:34Z</time></trkpt><trkpt lat="44.996112320683956" lon="7.3726600485796165"><ele>556.3333333333333</ele><time>2026-03-28T11:21:37Z</time></trkpt><trkpt lat="44.996052510149354" lon="7.372552278106196"><ele>552.6666666666666</ele><time>2026-03-28T11:21:39Z</time></trkpt><trkpt lat="44.99593667592364" lon="7.372475883251971"><ele>549.0</ele><time>2026-03-28T11:21:41Z</time></trkpt><trkpt lat="44.99574393674084" lon="7.37231202080911"><ele>549.0</ele><time>2026-03-28T11:21:44Z</time></trkpt><trkpt lat="44.99567668770787" lon="7.3722673656790665"><ele>549.0</ele><time>2026-03-28T11:21:45Z</time></trkpt><trkpt lat="44.995576079861614" lon="7.372159495808762"><ele>549.0</ele><time>2026-03-28T11:21:47Z</time></trkpt><trkpt lat="44.99549828822304" lon="7.372051063678905"><ele>549.0</ele><time>2026-03-28T11:21:49Z</time></trkpt><trkpt lat="44.99544506572078" lon="7.372001879254085"><ele>549.0</ele><time>2026-03-28T11:21:50Z</time></trkpt><trkpt lat="44.995346292474" lon="7.371924322061909"><ele>546.6666666666666</ele><time>2026-03-28T11:21:52Z</time></trkpt><trkpt lat="44.995253310641694" lon="7.371873350715095"><ele>544.3333333333334</ele><time>2026-03-28T11:21:54Z</time></trkpt><trkpt lat="44.99514979129551" lon="7.371830437299869"><ele>542.0</ele><time>2026-03-28T11:21:56Z</time></trkpt><trkpt lat="44.99508488916496" lon="7.371815574337067"><ele>539.6666666666667</ele><time>2026-03-28T11:21:58Z</time></trkpt><trkpt lat="44.99500582862845" lon="7.371826165641573"><ele>537.3333333333334</ele><time>2026-03-28T11:22:00Z</time></trkpt><trkpt lat="44.99495399190523" lon="7.371884421031522"><ele>535.0</ele><time>2026-03-28T11:22:01Z</time></trkpt><trkpt lat="44.99488598518105" lon="7.371943076103458"><ele>535.0</ele><time>2026-03-28T11:22:01.999Z</time></trkpt><trkpt lat="44.994825657561414" lon="7.372023204426901"><ele>535.0</ele><time>2026-03-28T11:22:02.999Z</time></trkpt><trkpt lat="44.99474522913339" lon="7.372093330781318"><ele>535.0</ele><time>2026-03-28T11:22:03.999Z</time></trkpt><trkpt lat="44.994698826650925" lon="7.37219689384574"><ele>535.0</ele><time>2026-03-28T11:22:04.999Z</time></trkpt><trkpt lat="44.994657859235744" lon="7.372328552352355"><ele>535.0</ele><time>2026-03-28T11:22:05.999Z</time></trkpt><trkpt lat="44.9946088590575" lon="7.3724325937054465"><ele>538.0</ele><time>2026-03-28T11:22:06.999Z</time></trkpt><trkpt lat="44.99457241140383" lon="7.372547759270335"><ele>541.0</ele><time>2026-03-28T11:22:07.999Z</time></trkpt><trkpt lat="44.994537009307415" lon="7.3726735376243875"><ele>544.0</ele><time>2026-03-28T11:22:08.999Z</time></trkpt><trkpt lat="44.994504846542206" lon="7.372792947064696"><ele>547.0</ele><time>2026-03-28T11:22:09.999Z</time></trkpt><trkpt lat="44.994473648621245" lon="7.372916881566136"><ele>550.0</ele><time>2026-03-28T11:22:10.999Z</time></trkpt><trkpt lat="44.994445020119734" lon="7.373046541637876"><ele>552.8</ele><time>2026-03-28T11:22:11.999Z</time></trkpt><trkpt lat="44.99441726012419" lon="7.373174004511355"><ele>555.6</ele><time>2026-03-28T11:22:12.999Z</time></trkpt><trkpt lat="44.99437982311761" lon="7.373289880548895"><ele>558.4</ele><time>2026-03-28T11:22:13.999Z</time></trkpt><trkpt lat="44.99434347998789" lon="7.373399779202512"><ele>561.2</ele><time>2026-03-28T11:22:14.999Z</time></trkpt><trkpt lat="44.994292312760344" lon="7.373500901638803"><ele>564.0</ele><time>2026-03-28T11:22:15.999Z</time></trkpt><trkpt lat="44.99423316033811" lon="7.373600033109219"><ele>564.0</ele><time>2026-03-28T11:22:16.999Z</time></trkpt><trkpt lat="44.99418087231614" lon="7.373709682312711"><ele>564.0</ele><time>2026-03-28T11:22:17.999Z</time></trkpt><trkpt lat="44.99414780573776" lon="7.373810279290389"><ele>564.0</ele><time>2026-03-28T11:22:18.999Z</time></trkpt><trkpt lat="44.99410062346843" lon="7.373912648668434"><ele>564.0</ele><time>2026-03-28T11:22:19.999Z</time></trkpt><trkpt lat="44.99403919806225" lon="7.374001689856461"><ele>564.0</ele><time>2026-03-28T11:22:20.999Z</time></trkpt><trkpt lat="44.99397163236326" lon="7.3740719261591865"><ele>564.0</ele><time>2026-03-28T11:22:21.999Z</time></trkpt><trkpt lat="44.99390587322966" lon="7.374149199303168"><ele>559.6666666666666</ele><time>2026-03-28T11:22:22.999Z</time></trkpt><trkpt lat="44.99382288221715" lon="7.374180560129377"><ele>555.3333333333334</ele><time>2026-03-28T11:22:23.999Z</time></trkpt><trkpt lat="44.99377305754178" lon="7.374243768394896"><ele>551.0</ele><time>2026-03-28T11:22:24.999Z</time></trkpt><trkpt lat="44.99372763182195" lon="7.374309670975854"><ele>546.6666666666667</ele><time>2026-03-28T11:22:25.999Z</time></trkpt><trkpt lat="44.993691811928954" lon="7.374384871289762"><ele>542.3333333333334</ele><time>2026-03-28T11:22:26.999Z</time></trkpt><trkpt lat="44.9936660963064" lon="7.374475530142656"><ele>538.0</ele><time>2026-03-28T11:22:27.999Z</time></trkpt><trkpt lat="44.993668254477825" lon="7.374654636758351"><ele>537.6</ele><time>2026-03-28T11:22:29.999Z</time></trkpt><trkpt lat="44.99373145292985" lon="7.3747318550879575"><ele>537.1999999999999</ele><time>2026-03-28T11:22:30.999Z</time></trkpt><trkpt lat="44.993756763578446" lon="7.374814951458172"><ele>536.8</ele><time>2026-03-28T11:22:31.999Z</time></trkpt><trkpt lat="44.99379395100186" lon="7.374956768852623"><ele>536.4</ele><time>2026-03-28T11:22:33.999Z</time></trkpt><trkpt lat="44.99385741173258" lon="7.375083887573967"><ele>536.0</ele><time>2026-03-28T11:22:35.999Z</time></trkpt><trkpt lat="44.99391617759614" lon="7.375203068336215"><ele>536.0</ele><time>2026-03-28T11:22:37.999Z</time></trkpt><trkpt lat="44.993968137016225" lon="7.375324412479736"><ele>536.0</ele><time>2026-03-28T11:22:39.999Z</time></trkpt><trkpt lat="44.99406548323493" lon="7.375380202910908"><ele>536.0</ele><time>2026-03-28T11:22:41.999Z</time></trkpt><trkpt lat="44.99417069049293" lon="7.375446247219554"><ele>536.0</ele><time>2026-03-28T11:22:43.999Z</time></trkpt><trkpt lat="44.99427956413011" lon="7.375500257959822"><ele>536.0</ele><time>2026-03-28T11:22:46Z</time></trkpt><trkpt lat="44.99431138991803" lon="7.375624476894683"><ele>535.8</ele><time>2026-03-28T11:22:48Z</time></trkpt><trkpt lat="44.99432263047328" lon="7.375754845462275"><ele>535.6</ele><time>2026-03-28T11:22:50Z</time></trkpt><trkpt lat="44.99435420635094" lon="7.37584446016593"><ele>535.4</ele><time>2026-03-28T11:22:52Z</time></trkpt><trkpt lat="44.99442697969341" lon="7.3758991963485885"><ele>535.2</ele><time>2026-03-28T11:22:54Z</time></trkpt><trkpt lat="44.9945367678881" lon="7.375912076351014"><ele>535.0</ele><time>2026-03-28T11:22:56Z</time></trkpt><trkpt lat="44.99463871895339" lon="7.375945952118393"><ele>535.0</ele><time>2026-03-28T11:22:58Z</time></trkpt><trkpt lat="44.99471086781647" lon="7.375958394066655"><ele>535.0</ele><time>2026-03-28T11:23:00Z</time></trkpt><trkpt lat="44.99476577150473" lon="7.376069340295065"><ele>535.0</ele><time>2026-03-28T11:23:02Z</time></trkpt><trkpt lat="44.99480205980617" lon="7.3762261608641895"><ele>535.0</ele><time>2026-03-28T11:23:04Z</time></trkpt><trkpt lat="44.99481155643289" lon="7.376410110900599"><ele>535.0</ele><time>2026-03-28T11:23:06Z</time></trkpt><trkpt lat="44.99485400671666" lon="7.376558064134865"><ele>534.8</ele><time>2026-03-28T11:23:08Z</time></trkpt><trkpt lat="44.99495328957307" lon="7.376630389586644"><ele>534.6</ele><time>2026-03-28T11:23:10Z</time></trkpt><trkpt lat="44.99508216016513" lon="7.376663291008402"><ele>534.4</ele><time>2026-03-28T11:23:12Z</time></trkpt><trkpt lat="44.99514051002215" lon="7.376738265023618"><ele>534.2</ele><time>2026-03-28T11:23:13Z</time></trkpt><trkpt lat="44.995190376777906" lon="7.376811600313382"><ele>534.0</ele><time>2026-03-28T11:23:14Z</time></trkpt><trkpt lat="44.995250399081684" lon="7.376872898048204"><ele>534.0</ele><time>2026-03-28T11:23:15Z</time></trkpt><trkpt lat="44.995316968758544" lon="7.376913065700607"><ele>534.0</ele><time>2026-03-28T11:23:16Z</time></trkpt><trkpt lat="44.99541723538996" lon="7.376951046854738"><ele>534.0</ele><time>2026-03-28T11:23:17Z</time></trkpt><trkpt lat="44.995507004800785" lon="7.376996606671166"><ele>534.0</ele><time>2026-03-28T11:23:18Z</time></trkpt><trkpt lat="44.995570568149574" lon="7.37704222768129"><ele>534.0</ele><time>2026-03-28T11:23:19Z</time></trkpt><trkpt lat="44.995635455348484" lon="7.37704495492455"><ele>534.0</ele><time>2026-03-28T11:23:20Z</time></trkpt><trkpt lat="44.99571488138484" lon="7.37701578195518"><ele>534.0</ele><time>2026-03-28T11:23:21Z</time></trkpt><trkpt lat="44.99578998111084" lon="7.376983493566719"><ele>534.0</ele><time>2026-03-28T11:23:22Z</time></trkpt><trkpt lat="44.99586654194058" lon="7.376930057965542"><ele>534.0</ele><time>2026-03-28T11:23:23Z</time></trkpt><trkpt lat="44.9959156505177" lon="7.376861844258916"><ele>534.0</ele><time>2026-03-28T11:23:24Z</time></trkpt><trkpt lat="44.99604030886" lon="7.376837094015101"><ele>534.0</ele><time>2026-03-28T11:23:26Z</time></trkpt><trkpt lat="44.99611875673075" lon="7.37688647413003"><ele>534.0</ele><time>2026-03-28T11:23:27Z</time></trkpt><trkpt lat="44.99618471500644" lon="7.376911233045471"><ele>533.0</ele><time>2026-03-28T11:23:28Z</time></trkpt><trkpt lat="44.99626031542434" lon="7.377020690404088"><ele>532.0</ele><time>2026-03-28T11:23:30Z</time></trkpt><trkpt lat="44.996265896307555" lon="7.37713799297444"><ele>531.0</ele><time>2026-03-28T11:23:31Z</time></trkpt><trkpt lat="44.99627882979808" lon="7.377236268715536"><ele>530.0</ele><time>2026-03-28T11:23:31.999Z</time></trkpt><trkpt lat="44.99632676224584" lon="7.377311208625588"><ele>529.0</ele><time>2026-03-28T11:23:32.999Z</time></trkpt><trkpt lat="44.99640260519474" lon="7.3774089191273085"><ele>528.0</ele><time>2026-03-28T11:23:33.999Z</time></trkpt><trkpt lat="44.996439415914914" lon="7.377513612342442"><ele>528.0</ele><time>2026-03-28T11:23:34.999Z</time></trkpt><trkpt lat="44.99651891387304" lon="7.377609023333972"><ele>528.0</ele><time>2026-03-28T11:23:36.999Z</time></trkpt><trkpt lat="44.99659329509343" lon="7.377606261865859"><ele>528.0</ele><time>2026-03-28T11:23:37.999Z</time></trkpt><trkpt lat="44.996674489811625" lon="7.377605210274774"><ele>528.0</ele><time>2026-03-28T11:23:38.999Z</time></trkpt><trkpt lat="44.99676441804012" lon="7.377670432201544"><ele>528.0</ele><time>2026-03-28T11:23:40.999Z</time></trkpt><trkpt lat="44.99676646893393" lon="7.377869171999275"><ele>533.0</ele><time>2026-03-28T11:23:42.999Z</time></trkpt><trkpt lat="44.996705439359275" lon="7.378005056443213"><ele>538.0</ele><time>2026-03-28T11:23:44.999Z</time></trkpt><trkpt lat="44.996721536599956" lon="7.378128968934661"><ele>543.0</ele><time>2026-03-28T11:23:46.999Z</time></trkpt><trkpt lat="44.99678290653006" lon="7.378270604239118"><ele>548.0</ele><time>2026-03-28T11:23:48.999Z</time></trkpt><trkpt lat="44.99684454105501" lon="7.378383915131301"><ele>553.0</ele><time>2026-03-28T11:23:50.999Z</time></trkpt><trkpt lat="44.99685112997353" lon="7.378496242679056"><ele>553.0</ele><time>2026-03-28T11:23:51.999Z</time></trkpt><trkpt lat="44.9968468358189" lon="7.378649163207076"><ele>553.0</ele><time>2026-03-28T11:23:53.999Z</time></trkpt><trkpt lat="44.9968378025713" lon="7.378757465939446"><ele>553.0</ele><time>2026-03-28T11:23:54.999Z</time></trkpt><trkpt lat="44.996803810420076" lon="7.378841549922654"><ele>553.0</ele><time>2026-03-28T11:23:55.999Z</time></trkpt><trkpt lat="44.996799683363335" lon="7.379004505423383"><ele>553.0</ele><time>2026-03-28T11:23:57.999Z</time></trkpt><trkpt lat="44.99682108865923" lon="7.379151770212365"><ele>553.8333333333334</ele><time>2026-03-28T11:23:59.999Z</time></trkpt><trkpt lat="44.996847585712516" lon="7.379239072065777"><ele>554.6666666666667</ele><time>2026-03-28T11:24:00.999Z</time></trkpt><trkpt lat="44.996845157246085" lon="7.379346923737748"><ele>555.5</ele><time>2026-03-28T11:24:01.999Z</time></trkpt><trkpt lat="44.9968513729446" lon="7.379467604171176"><ele>556.3333333333334</ele><time>2026-03-28T11:24:02.999Z</time></trkpt><trkpt lat="44.996835733919866" lon="7.379574139456622"><ele>557.1666666666666</ele><time>2026-03-28T11:24:03.999Z</time></trkpt><trkpt lat="44.996812036934216" lon="7.379670507639578"><ele>558.0</ele><time>2026-03-28T11:24:04.999Z</time></trkpt><trkpt lat="44.99677915128403" lon="7.379765969614602"><ele>559.0</ele><time>2026-03-28T11:24:05.999Z</time></trkpt><trkpt lat="44.996759612919455" lon="7.379867860426629"><ele>560.0</ele><time>2026-03-28T11:24:06.999Z</time></trkpt><trkpt lat="44.996743655565155" lon="7.3799876035337455"><ele>561.0</ele><time>2026-03-28T11:24:07.999Z</time></trkpt><trkpt lat="44.99672607017618" lon="7.380110645700896"><ele>562.0</ele><time>2026-03-28T11:24:08.999Z</time></trkpt><trkpt lat="44.996706167295805" lon="7.380218495526244"><ele>563.0</ele><time>2026-03-28T11:24:09.999Z</time></trkpt><trkpt lat="44.99675882382108" lon="7.380388610551398"><ele>563.0</ele><time>2026-03-28T11:24:11.999Z</time></trkpt><trkpt lat="44.99684033246818" lon="7.380494038583286"><ele>563.0</ele><time>2026-03-28T11:24:13.999Z</time></trkpt><trkpt lat="44.99683096856142" lon="7.3806295242844975"><ele>563.0</ele><time>2026-03-28T11:24:15.999Z</time></trkpt><trkpt lat="44.99680973563632" lon="7.380721580823763"><ele>563.0</ele><time>2026-03-28T11:24:16.999Z</time></trkpt><trkpt lat="44.99678594614219" lon="7.380806677038488"><ele>563.0</ele><time>2026-03-28T11:24:17.999Z</time></trkpt><trkpt lat="44.9967704556188" lon="7.380926870082385"><ele>563.0</ele><time>2026-03-28T11:24:18.999Z</time></trkpt><trkpt lat="44.99677849528534" lon="7.381053838160875"><ele>563.3333333333333</ele><time>2026-03-28T11:24:19.999Z</time></trkpt><trkpt lat="44.996784420472075" lon="7.381178765814235"><ele>563.6666666666666</ele><time>2026-03-28T11:24:20.999Z</time></trkpt><trkpt lat="44.99679247882318" lon="7.381345299701189"><ele>564.0</ele><time>2026-03-28T11:24:21.999Z</time></trkpt><trkpt lat="44.99678077802891" lon="7.381462227216841"><ele>564.3333333333334</ele><time>2026-03-28T11:24:22.999Z</time></trkpt><trkpt lat="44.996765790751404" lon="7.381572757383024"><ele>564.6666666666667</ele><time>2026-03-28T11:24:23.999Z</time></trkpt><trkpt lat="44.99677052779716" lon="7.381683942241904"><ele>565.0</ele><time>2026-03-28T11:24:24.999Z</time></trkpt><trkpt lat="44.99679942006715" lon="7.3817974392293015"><ele>565.0</ele><time>2026-03-28T11:24:25.999Z</time></trkpt><trkpt lat="44.9968350579789" lon="7.381911843395558"><ele>565.0</ele><time>2026-03-28T11:24:26.999Z</time></trkpt><trkpt lat="44.99685740286743" lon="7.3820335761899285"><ele>565.0</ele><time>2026-03-28T11:24:27.999Z</time></trkpt><trkpt lat="44.99687044696014" lon="7.382159463354095"><ele>565.0</ele><time>2026-03-28T11:24:28.999Z</time></trkpt><trkpt lat="44.99687081157166" lon="7.382257433556363"><ele>565.0</ele><time>2026-03-28T11:24:29.999Z</time></trkpt><trkpt lat="44.996841136734595" lon="7.382384043100577"><ele>565.0</ele><time>2026-03-28T11:24:31.999Z</time></trkpt><trkpt lat="44.99688339740726" lon="7.3825664725157685"><ele>565.5</ele><time>2026-03-28T11:24:33.999Z</time></trkpt><trkpt lat="44.99690834048058" lon="7.382667241449874"><ele>566.0</ele><time>2026-03-28T11:24:34.999Z</time></trkpt><trkpt lat="44.996913878144696" lon="7.382760690776772"><ele>566.5</ele><time>2026-03-28T11:24:35.999Z</time></trkpt><trkpt lat="44.996900466952134" lon="7.382909126496217"><ele>567.0</ele><time>2026-03-28T11:24:37.999Z</time></trkpt><trkpt lat="44.99686863662626" lon="7.38307060614618"><ele>567.5</ele><time>2026-03-28T11:24:39.999Z</time></trkpt><trkpt lat="44.99680839775131" lon="7.383141188038515"><ele>568.0</ele><time>2026-03-28T11:24:40.999Z</time></trkpt><trkpt lat="44.99674147038699" lon="7.383199286839034"><ele>566.5</ele><time>2026-03-28T11:24:41.999Z</time></trkpt><trkpt lat="44.99668529753275" lon="7.383345480086933"><ele>565.0</ele><time>2026-03-28T11:24:43.999Z</time></trkpt><trkpt lat="44.99666632168853" lon="7.383435951655112"><ele>563.5</ele><time>2026-03-28T11:24:44.999Z</time></trkpt><trkpt lat="44.99666846124373" lon="7.383531344953255"><ele>562.0</ele><time>2026-03-28T11:24:45.999Z</time></trkpt><trkpt lat="44.99668188392417" lon="7.383648305549851"><ele>560.5</ele><time>2026-03-28T11:24:46.999Z</time></trkpt><trkpt lat="44.99666433635845" lon="7.383736527128798"><ele>559.0</ele><time>2026-03-28T11:24:47.999Z</time></trkpt><trkpt lat="44.996637427472734" lon="7.383844928627393"><ele>553.8333333333334</ele><time>2026-03-28T11:24:48.999Z</time></trkpt><trkpt lat="44.996612197129835" lon="7.3839530439736665"><ele>548.6666666666667</ele><time>2026-03-28T11:24:49.999Z</time></trkpt><trkpt lat="44.99659149375879" lon="7.384101442263221"><ele>543.5</ele><time>2026-03-28T11:24:52Z</time></trkpt><trkpt lat="44.996597006513895" lon="7.384200535457392"><ele>538.3333333333334</ele><time>2026-03-28T11:24:53Z</time></trkpt><trkpt lat="44.99659104353772" lon="7.384300055229147"><ele>533.1666666666666</ele><time>2026-03-28T11:24:54Z</time></trkpt><trkpt lat="44.996583955011424" lon="7.384401138182522"><ele>528.0</ele><time>2026-03-28T11:24:55Z</time></trkpt><trkpt lat="44.99658844133025" lon="7.384506102854008"><ele>528.0</ele><time>2026-03-28T11:24:56Z</time></trkpt><trkpt lat="44.99660218946388" lon="7.38460206976533"><ele>528.0</ele><time>2026-03-28T11:24:57Z</time></trkpt><trkpt lat="44.99660491408675" lon="7.38475866042841"><ele>528.0</ele><time>2026-03-28T11:24:59Z</time></trkpt><trkpt lat="44.99662272980922" lon="7.384919073409878"><ele>528.0</ele><time>2026-03-28T11:25:01Z</time></trkpt><trkpt lat="44.99664196055192" lon="7.385040602663474"><ele>528.0</ele><time>2026-03-28T11:25:03Z</time></trkpt><trkpt lat="44.99674114106744" lon="7.385085821269929"><ele>527.8333333333334</ele><time>2026-03-28T11:25:05Z</time></trkpt><trkpt lat="44.996819173808404" lon="7.385026675774212"><ele>527.6666666666666</ele><time>2026-03-28T11:25:07Z</time></trkpt><trkpt lat="44.99691274232176" lon="7.384945888563623"><ele>527.5</ele><time>2026-03-28T11:25:09Z</time></trkpt><trkpt lat="44.99696548895898" lon="7.3848970728313486"><ele>527.3333333333333</ele><time>2026-03-28T11:25:10Z</time></trkpt><trkpt lat="44.99703063817275" lon="7.384874406767164"><ele>527.1666666666666</ele><time>2026-03-28T11:25:11Z</time></trkpt><trkpt lat="44.9971040732825" lon="7.384838490507978"><ele>527.0</ele><time>2026-03-28T11:25:12Z</time></trkpt><trkpt lat="44.99720964875685" lon="7.384758975303486"><ele>527.0</ele><time>2026-03-28T11:25:14Z</time></trkpt><trkpt lat="44.99725323190178" lon="7.3846927413669965"><ele>527.0</ele><time>2026-03-28T11:25:15Z</time></trkpt><trkpt lat="44.99735238033383" lon="7.384582296053795"><ele>527.0</ele><time>2026-03-28T11:25:17Z</time></trkpt><trkpt lat="44.9974245938488" lon="7.384522339059678"><ele>527.0</ele><time>2026-03-28T11:25:18Z</time></trkpt><trkpt lat="44.99749505311173" lon="7.38446814771453"><ele>527.0</ele><time>2026-03-28T11:25:19Z</time></trkpt><trkpt lat="44.99758559672757" lon="7.384429235716041"><ele>527.0</ele><time>2026-03-28T11:25:20Z</time></trkpt><trkpt lat="44.99767674018809" lon="7.38436373284422"><ele>529.4</ele><time>2026-03-28T11:25:21Z</time></trkpt><trkpt lat="44.99775273958598" lon="7.384304328598275"><ele>531.8000000000001</ele><time>2026-03-28T11:25:22Z</time></trkpt><trkpt lat="44.997822593556016" lon="7.38426792922039"><ele>534.2</ele><time>2026-03-28T11:25:23Z</time></trkpt><trkpt lat="44.99793612956529" lon="7.38427117580077"><ele>536.6</ele><time>2026-03-28T11:25:25Z</time></trkpt><trkpt lat="44.997995899035395" lon="7.384319917198626"><ele>539.0</ele><time>2026-03-28T11:25:28Z</time></trkpt><trkpt lat="44.998098297301006" lon="7.384390679820546"><ele>539.0</ele><time>2026-03-28T11:25:30Z</time></trkpt><trkpt lat="44.998158867740536" lon="7.384451752826069"><ele>539.0</ele><time>2026-03-28T11:25:31Z</time></trkpt><trkpt lat="44.99824201120618" lon="7.384530114911536"><ele>539.0</ele><time>2026-03-28T11:25:33Z</time></trkpt><trkpt lat="44.99830503988893" lon="7.3845479143890405"><ele>539.0</ele><time>2026-03-28T11:25:40Z</time></trkpt><trkpt lat="44.9983244941449" lon="7.384656862091654"><ele>539.0</ele><time>2026-03-28T11:26:20Z</time></trkpt><trkpt lat="44.99830542074061" lon="7.384766739253501"><ele>539.0</ele><time>2026-03-28T11:26:23Z</time></trkpt><trkpt lat="44.99831694410654" lon="7.384879063467161"><ele>535.0</ele><time>2026-03-28T11:26:27Z</time></trkpt><trkpt lat="44.99824950318547" lon="7.3849451658089285"><ele>531.0</ele><time>2026-03-28T11:26:30Z</time></trkpt><trkpt lat="44.99816492269432" lon="7.384954306637962"><ele>527.0</ele><time>2026-03-28T11:26:33Z</time></trkpt><trkpt lat="44.998047820803556" lon="7.3849777241306676"><ele>523.0</ele><time>2026-03-28T11:26:36Z</time></trkpt><trkpt lat="44.997964701399205" lon="7.38503362672002"><ele>519.0</ele><time>2026-03-28T11:26:39Z</time></trkpt><trkpt lat="44.99782658939617" lon="7.385125047906977"><ele>519.0</ele><time>2026-03-28T11:26:40Z</time></trkpt><trkpt lat="44.997764625510406" lon="7.385158406389885"><ele>519.0</ele><time>2026-03-28T11:26:41Z</time></trkpt><trkpt lat="44.997680497805526" lon="7.3851707197139245"><ele>519.0</ele><time>2026-03-28T11:26:42.999Z</time></trkpt><trkpt lat="44.997600540182205" lon="7.385211338216561"><ele>519.0</ele><time>2026-03-28T11:26:45.999Z</time></trkpt><trkpt lat="44.997528728501756" lon="7.385199824709542"><ele>519.0</ele><time>2026-03-28T11:26:48.999Z</time></trkpt><trkpt lat="44.99745578723309" lon="7.385236198100559"><ele>519.0</ele><time>2026-03-28T11:26:51.999Z</time></trkpt><trkpt lat="44.99736806968577" lon="7.385251717138293"><ele>520.6</ele><time>2026-03-28T11:26:53.999Z</time></trkpt><trkpt lat="44.99726609079614" lon="7.385232241331094"><ele>522.2</ele><time>2026-03-28T11:26:55.999Z</time></trkpt><trkpt lat="44.997171035406176" lon="7.385199099556927"><ele>523.8000000000001</ele><time>2026-03-28T11:26:58Z</time></trkpt><trkpt lat="44.99709202666919" lon="7.385310205214948"><ele>525.4</ele><time>2026-03-28T11:27:00Z</time></trkpt><trkpt lat="44.99698799177923" lon="7.385423755913724"><ele>527.0</ele><time>2026-03-28T11:27:02Z</time></trkpt><trkpt lat="44.9969408155144" lon="7.385501225379032"><ele>524.3333333333333</ele><time>2026-03-28T11:27:03Z</time></trkpt><trkpt lat="44.99690581179283" lon="7.385607981967473"><ele>521.6666666666666</ele><time>2026-03-28T11:27:04Z</time></trkpt><trkpt lat="44.99686403910375" lon="7.385706951954515"><ele>519.0</ele><time>2026-03-28T11:27:05Z</time></trkpt><trkpt lat="44.996819279936" lon="7.385789979381599"><ele>516.3333333333334</ele><time>2026-03-28T11:27:06Z</time></trkpt><trkpt lat="44.9967600084991" lon="7.385852375015908"><ele>513.6666666666667</ele><time>2026-03-28T11:27:07Z</time></trkpt><trkpt lat="44.99669586056492" lon="7.385906457366816"><ele>511.0</ele><time>2026-03-28T11:27:08Z</time></trkpt><trkpt lat="44.996631019584484" lon="7.385960660325431"><ele>511.0</ele><time>2026-03-28T11:27:09Z</time></trkpt><trkpt lat="44.99650991907006" lon="7.386026695314821"><ele>511.0</ele><time>2026-03-28T11:27:11Z</time></trkpt><trkpt lat="44.99639783012942" lon="7.386107273225433"><ele>511.0</ele><time>2026-03-28T11:27:13Z</time></trkpt><trkpt lat="44.99631620254915" lon="7.386135819786557"><ele>511.0</ele><time>2026-03-28T11:27:14Z</time></trkpt><trkpt lat="44.99623317035187" lon="7.38614682480498"><ele>511.0</ele><time>2026-03-28T11:27:15Z</time></trkpt><trkpt lat="44.99611935034918" lon="7.386137171106139"><ele>511.00000000000006</ele><time>2026-03-28T11:27:17Z</time></trkpt><trkpt lat="44.996013663145824" lon="7.3861380272746775"><ele>511.0</ele><time>2026-03-28T11:27:19Z</time></trkpt><trkpt lat="44.995930383264636" lon="7.386143457464949"><ele>511.0</ele><time>2026-03-28T11:27:21Z</time></trkpt><trkpt lat="44.99585095253986" lon="7.386164906577039"><ele>511.0</ele><time>2026-03-28T11:27:23Z</time></trkpt><trkpt lat="44.99576434227286" lon="7.386213442841255"><ele>511.00000000000006</ele><time>2026-03-28T11:27:26Z</time></trkpt><trkpt lat="44.99569609312682" lon="7.386200643636353"><ele>511.0</ele><time>2026-03-28T11:27:28Z</time></trkpt><trkpt lat="44.9956258906483" lon="7.386227674874442"><ele>509.83333333333337</ele><time>2026-03-28T11:27:30Z</time></trkpt><trkpt lat="44.9955574540296" lon="7.386244776543806"><ele>508.6666666666667</ele><time>2026-03-28T11:27:32Z</time></trkpt><trkpt lat="44.99547872559911" lon="7.386278435686008"><ele>507.5</ele><time>2026-03-28T11:27:34Z</time></trkpt><trkpt lat="44.99540234032609" lon="7.386311582866569"><ele>506.33333333333337</ele><time>2026-03-28T11:27:36Z</time></trkpt><trkpt lat="44.995335050967654" lon="7.386406442537181"><ele>505.1666666666667</ele><time>2026-03-28T11:27:38Z</time></trkpt><trkpt lat="44.99524730601738" lon="7.3864002899335395"><ele>504.0</ele><time>2026-03-28T11:27:40Z</time></trkpt><trkpt lat="44.99518982576453" lon="7.386356873162888"><ele>502.2857142857143</ele><time>2026-03-28T11:27:44Z</time></trkpt><trkpt lat="44.99512516738652" lon="7.386350143781993"><ele>500.57142857142856</ele><time>2026-03-28T11:27:46Z</time></trkpt><trkpt lat="44.99508257165133" lon="7.386418932151997"><ele>498.8571428571429</ele><time>2026-03-28T11:27:48Z</time></trkpt><trkpt lat="44.99501935767833" lon="7.386465489204031"><ele>497.14285714285717</ele><time>2026-03-28T11:27:51Z</time></trkpt><trkpt lat="44.99495620198814" lon="7.38648246922584"><ele>495.42857142857144</ele><time>2026-03-28T11:27:53Z</time></trkpt><trkpt lat="44.994906875588185" lon="7.38653889942643"><ele>493.7142857142858</ele><time>2026-03-28T11:27:55Z</time></trkpt><trkpt lat="44.99485354049891" lon="7.386611743755292"><ele>492.00000000000006</ele><time>2026-03-28T11:27:58Z</time></trkpt><trkpt lat="44.99478526101302" lon="7.386657584251449"><ele>491.20000000000005</ele><time>2026-03-28T11:28:01Z</time></trkpt><trkpt lat="44.99474960577447" lon="7.386790350783811"><ele>490.40000000000003</ele><time>2026-03-28T11:28:04Z</time></trkpt><trkpt lat="44.99471458459878" lon="7.386875929545727"><ele>489.59999999999997</ele><time>2026-03-28T11:28:06Z</time></trkpt><trkpt lat="44.99465567243597" lon="7.3869778359918215"><ele>488.79999999999995</ele><time>2026-03-28T11:28:08Z</time></trkpt><trkpt lat="44.994604127265184" lon="7.38710121279152"><ele>488.0</ele><time>2026-03-28T11:28:10Z</time></trkpt><trkpt lat="44.99453357205897" lon="7.3872088149933735"><ele>487.99999999999994</ele><time>2026-03-28T11:28:12Z</time></trkpt><trkpt lat="44.99445497779071" lon="7.387233152610808"><ele>488.0</ele><time>2026-03-28T11:28:14Z</time></trkpt><trkpt lat="44.99438356044857" lon="7.387273928304618"><ele>488.0</ele><time>2026-03-28T11:28:16Z</time></trkpt><trkpt lat="44.99431463156154" lon="7.387221474866178"><ele>488.0</ele><time>2026-03-28T11:28:19Z</time></trkpt><trkpt lat="44.99422716268452" lon="7.3871749435348315"><ele>487.99999999999994</ele><time>2026-03-28T11:28:21Z</time></trkpt><trkpt lat="44.994144425998385" lon="7.3871733188188475"><ele>488.0</ele><time>2026-03-28T11:28:23Z</time></trkpt><trkpt lat="44.99407652740413" lon="7.387222680153376"><ele>484.1428571428571</ele><time>2026-03-28T11:28:27Z</time></trkpt><trkpt lat="44.99401731086227" lon="7.387282457138575"><ele>480.2857142857143</ele><time>2026-03-28T11:28:29Z</time></trkpt><trkpt lat="44.99394046809475" lon="7.3872635700876526"><ele>476.42857142857144</ele><time>2026-03-28T11:28:30.999Z</time></trkpt><trkpt lat="44.99387336425853" lon="7.387239650032089"><ele>472.57142857142856</ele><time>2026-03-28T11:28:35.999Z</time></trkpt><trkpt lat="44.99379764813417" lon="7.387266914683856"><ele>468.7142857142858</ele><time>2026-03-28T11:28:39.999Z</time></trkpt><trkpt lat="44.9937277866469" lon="7.38727688946644"><ele>464.8571428571429</ele><time>2026-03-28T11:28:42.999Z</time></trkpt><trkpt lat="44.993652383503715" lon="7.387290822910962"><ele>461.0</ele><time>2026-03-28T11:28:45.999Z</time></trkpt><trkpt lat="44.99358816706458" lon="7.387288819761634"><ele>460.99999999999994</ele><time>2026-03-28T11:28:48.999Z</time></trkpt><trkpt lat="44.99350988101011" lon="7.387273906170849"><ele>461.0</ele><time>2026-03-28T11:28:51.999Z</time></trkpt><trkpt lat="44.99340883142493" lon="7.387247745697246"><ele>461.0</ele><time>2026-03-28T11:28:54.999Z</time></trkpt><trkpt lat="44.99331498911696" lon="7.387255684724105"><ele>461.0</ele><time>2026-03-28T11:28:56.999Z</time></trkpt><trkpt lat="44.99325366921408" lon="7.387288767198469"><ele>460.99999999999994</ele><time>2026-03-28T11:29:02.999Z</time></trkpt><trkpt lat="44.993182541871256" lon="7.3873232694343685"><ele>461.0</ele><time>2026-03-28T11:29:06Z</time></trkpt><trkpt lat="44.99311920123423" lon="7.387344041623905"><ele>458.7142857142857</ele><time>2026-03-28T11:29:09Z</time></trkpt><trkpt lat="44.99305349852558" lon="7.387375405216276"><ele>456.42857142857144</ele><time>2026-03-28T11:29:12Z</time></trkpt><trkpt lat="44.993014144382705" lon="7.38744848492151"><ele>454.14285714285717</ele><time>2026-03-28T11:29:15Z</time></trkpt><trkpt lat="44.992962688540196" lon="7.387512496078604"><ele>451.8571428571429</ele><time>2026-03-28T11:29:19Z</time></trkpt><trkpt lat="44.992903908304854" lon="7.387560765934991"><ele>449.57142857142856</ele><time>2026-03-28T11:29:22Z</time></trkpt><trkpt lat="44.9928328545697" lon="7.38759726119372"><ele>447.28571428571433</ele><time>2026-03-28T11:29:24Z</time></trkpt><trkpt lat="44.99276601733562" lon="7.387616054992179"><ele>445.0</ele><time>2026-03-28T11:29:26Z</time></trkpt><trkpt lat="44.99271940178429" lon="7.387680534830349"><ele>445.0</ele><time>2026-03-28T11:29:28Z</time></trkpt><trkpt lat="44.99263948946848" lon="7.387701764521344"><ele>445.0</ele><time>2026-03-28T11:29:31Z</time></trkpt><trkpt lat="44.9925596877924" lon="7.387691672683177"><ele>445.0</ele><time>2026-03-28T11:29:34Z</time></trkpt><trkpt lat="44.99249171434775" lon="7.387715122235271"><ele>445.0</ele><time>2026-03-28T11:29:37Z</time></trkpt><trkpt lat="44.9923560235565" lon="7.387770090831191"><ele>445.0</ele><time>2026-03-28T11:29:38Z</time></trkpt><trkpt lat="44.99229444080793" lon="7.387845487448426"><ele>442.8571428571429</ele><time>2026-03-28T11:29:40Z</time></trkpt><trkpt lat="44.99224618524274" lon="7.387923378134119"><ele>440.71428571428567</ele><time>2026-03-28T11:29:42Z</time></trkpt><trkpt lat="44.99219355239029" lon="7.38800208119809"><ele>438.57142857142856</ele><time>2026-03-28T11:29:44Z</time></trkpt><trkpt lat="44.9921570902473" lon="7.3880789445795845"><ele>436.42857142857144</ele><time>2026-03-28T11:29:46Z</time></trkpt><trkpt lat="44.99213060778994" lon="7.388185117024687"><ele>434.28571428571433</ele><time>2026-03-28T11:29:48.999Z</time></trkpt><trkpt lat="44.992082301093994" lon="7.388245353943008"><ele>432.1428571428571</ele><time>2026-03-28T11:29:50.999Z</time></trkpt><trkpt lat="44.99205134293934" lon="7.388362041207092"><ele>430.0</ele><time>2026-03-28T11:29:53.999Z</time></trkpt><trkpt lat="44.992009632625745" lon="7.388462168398401"><ele>427.50000000000006</ele><time>2026-03-28T11:29:55.999Z</time></trkpt><trkpt lat="44.99194530717045" lon="7.388554374919151"><ele>425.0</ele><time>2026-03-28T11:29:58.999Z</time></trkpt><trkpt lat="44.99184778398278" lon="7.388561754840056"><ele>422.5</ele><time>2026-03-28T11:30:01.999Z</time></trkpt><trkpt lat="44.99178634757192" lon="7.388505960889441"><ele>420.0</ele><time>2026-03-28T11:30:03.999Z</time></trkpt><trkpt lat="44.99167857257595" lon="7.388524381711333"><ele>417.50000000000006</ele><time>2026-03-28T11:30:06.999Z</time></trkpt><trkpt lat="44.99160573397606" lon="7.388562289920104"><ele>415.0</ele><time>2026-03-28T11:30:10.999Z</time></trkpt><trkpt lat="44.99153431092462" lon="7.388634939231327"><ele>415.0</ele><time>2026-03-28T11:30:12.999Z</time></trkpt><trkpt lat="44.99147034994906" lon="7.388657685199897"><ele>415.0</ele><time>2026-03-28T11:30:14.999Z</time></trkpt><trkpt lat="44.99151284307932" lon="7.3885785707311715"><ele>415.0</ele><time>2026-03-28T11:36:48.999Z</time></trkpt><trkpt lat="44.99149794914971" lon="7.388489539184121"><ele>415.0</ele><time>2026-03-28T11:47:14Z</time></trkpt><trkpt lat="44.99151535308154" lon="7.38839522139105"><ele>415.0</ele><time>2026-03-28T11:47:16Z</time></trkpt><trkpt lat="44.991539360186714" lon="7.388301014914243"><ele>415.0</ele><time>2026-03-28T11:47:18Z</time></trkpt><trkpt lat="44.99160361456141" lon="7.388190185832804"><ele>415.0</ele><time>2026-03-28T11:47:20Z</time></trkpt><trkpt lat="44.99168098890736" lon="7.388065238367057"><ele>417.50000000000006</ele><time>2026-03-28T11:47:22Z</time></trkpt><trkpt lat="44.991715257193064" lon="7.3879683022288445"><ele>420.0</ele><time>2026-03-28T11:47:23Z</time></trkpt><trkpt lat="44.99173091769175" lon="7.387868628707193"><ele>422.5</ele><time>2026-03-28T11:47:24Z</time></trkpt><trkpt lat="44.99172164969637" lon="7.3877641194393515"><ele>425.0</ele><time>2026-03-28T11:47:25Z</time></trkpt><trkpt lat="44.99172145230622" lon="7.387657621270399"><ele>427.50000000000006</ele><time>2026-03-28T11:47:26Z</time></trkpt><trkpt lat="44.99173830157607" lon="7.3875498642548365"><ele>430.0</ele><time>2026-03-28T11:47:27Z</time></trkpt><trkpt lat="44.99176149694042" lon="7.387431184255476"><ele>430.0</ele><time>2026-03-28T11:47:28Z</time></trkpt><trkpt lat="44.991805680634606" lon="7.387325054614418"><ele>430.0</ele><time>2026-03-28T11:47:29Z</time></trkpt><trkpt lat="44.991851033065096" lon="7.387221073890049"><ele>430.0</ele><time>2026-03-28T11:47:30Z</time></trkpt><trkpt lat="44.99190945888866" lon="7.38713156720607"><ele>430.0</ele><time>2026-03-28T11:47:31Z</time></trkpt><trkpt lat="44.99198122417036" lon="7.387041533764167"><ele>430.0</ele><time>2026-03-28T11:47:32Z</time></trkpt><trkpt lat="44.992069987832096" lon="7.386947452558526"><ele>426.5</ele><time>2026-03-28T11:47:33Z</time></trkpt><trkpt lat="44.99216144260659" lon="7.386836776673461"><ele>423.0</ele><time>2026-03-28T11:47:34Z</time></trkpt><trkpt lat="44.992238683688804" lon="7.386696396445579"><ele>419.5</ele><time>2026-03-28T11:47:35Z</time></trkpt><trkpt lat="44.99233501345537" lon="7.386557995900985"><ele>416.0</ele><time>2026-03-28T11:47:36Z</time></trkpt><trkpt lat="44.992431883712676" lon="7.386412402293668"><ele>418.75</ele><time>2026-03-28T11:47:37Z</time></trkpt><trkpt lat="44.992524072737496" lon="7.38625434131929"><ele>421.5</ele><time>2026-03-28T11:47:38Z</time></trkpt><trkpt lat="44.99260071841084" lon="7.386118575111686"><ele>424.25</ele><time>2026-03-28T11:47:39Z</time></trkpt><trkpt lat="44.992676965621726" lon="7.386020985740197"><ele>427.0</ele><time>2026-03-28T11:47:40Z</time></trkpt><trkpt lat="44.99272426524716" lon="7.385900811873784"><ele>427.0</ele><time>2026-03-28T11:47:41Z</time></trkpt><trkpt lat="44.99278916949857" lon="7.385810009132911"><ele>427.0</ele><time>2026-03-28T11:47:42Z</time></trkpt><trkpt lat="44.99286215198968" lon="7.385687420661106"><ele>427.0</ele><time>2026-03-28T11:47:43Z</time></trkpt><trkpt lat="44.99295286711248" lon="7.385558736618864"><ele>427.0</ele><time>2026-03-28T11:47:44Z</time></trkpt><trkpt lat="44.99305423429912" lon="7.3854283481265774"><ele>424.25</ele><time>2026-03-28T11:47:45Z</time></trkpt><trkpt lat="44.993169367442384" lon="7.385311181351285"><ele>421.5</ele><time>2026-03-28T11:47:46Z</time></trkpt><trkpt lat="44.9932837469687" lon="7.385194851878248"><ele>418.75</ele><time>2026-03-28T11:47:47Z</time></trkpt><trkpt lat="44.9933919843999" lon="7.385079992944548"><ele>416.0</ele><time>2026-03-28T11:47:48Z</time></trkpt><trkpt lat="44.99349622096047" lon="7.384947562575492"><ele>417.75</ele><time>2026-03-28T11:47:49Z</time></trkpt><trkpt lat="44.99359222677958" lon="7.384807561464191"><ele>419.5</ele><time>2026-03-28T11:47:50Z</time></trkpt><trkpt lat="44.99367994010049" lon="7.3846796033292454"><ele>421.25</ele><time>2026-03-28T11:47:51Z</time></trkpt><trkpt lat="44.99376800634276" lon="7.384563671852221"><ele>423.0</ele><time>2026-03-28T11:47:52Z</time></trkpt><trkpt lat="44.99385909570836" lon="7.384453168366507"><ele>423.0</ele><time>2026-03-28T11:47:53Z</time></trkpt><trkpt lat="44.99395579626917" lon="7.384343122338207"><ele>423.0</ele><time>2026-03-28T11:47:54Z</time></trkpt><trkpt lat="44.99405798739925" lon="7.384238149269647"><ele>423.0</ele><time>2026-03-28T11:47:55Z</time></trkpt><trkpt lat="44.99415497225771" lon="7.384157267154456"><ele>423.0</ele><time>2026-03-28T11:47:56Z</time></trkpt><trkpt lat="44.994247607972454" lon="7.384084202747433"><ele>427.0</ele><time>2026-03-28T11:47:57Z</time></trkpt><trkpt lat="44.994327359560515" lon="7.384013407256287"><ele>431.0</ele><time>2026-03-28T11:47:58Z</time></trkpt><trkpt lat="44.994393789718906" lon="7.383926111923781"><ele>434.99999999999994</ele><time>2026-03-28T11:47:59Z</time></trkpt><trkpt lat="44.99445439544756" lon="7.383816771850131"><ele>439.0</ele><time>2026-03-28T11:48:00Z</time></trkpt><trkpt lat="44.99448394986036" lon="7.38367874603465"><ele>443.0</ele><time>2026-03-28T11:48:01Z</time></trkpt><trkpt lat="44.99450738340788" lon="7.383528437152521"><ele>443.0</ele><time>2026-03-28T11:48:02Z</time></trkpt><trkpt lat="44.9945247435741" lon="7.383365731431174"><ele>442.99999999999994</ele><time>2026-03-28T11:48:03Z</time></trkpt><trkpt lat="44.99454015485109" lon="7.383207891225378"><ele>442.99999999999994</ele><time>2026-03-28T11:48:04Z</time></trkpt><trkpt lat="44.994568625678724" lon="7.38305480001125"><ele>443.0</ele><time>2026-03-28T11:48:05Z</time></trkpt><trkpt lat="44.994589576152386" lon="7.382911412270839"><ele>443.0</ele><time>2026-03-28T11:48:06Z</time></trkpt><trkpt lat="44.99456915461597" lon="7.382763198835167"><ele>443.59999999999997</ele><time>2026-03-28T11:48:07Z</time></trkpt><trkpt lat="44.99452733006672" lon="7.38261401774558"><ele>444.19999999999993</ele><time>2026-03-28T11:48:08Z</time></trkpt><trkpt lat="44.9944784023198" lon="7.382486056892592"><ele>444.8</ele><time>2026-03-28T11:48:09Z</time></trkpt><trkpt lat="44.99442722060258" lon="7.382379640213167"><ele>445.4</ele><time>2026-03-28T11:48:09.999Z</time></trkpt><trkpt lat="44.994385718672746" lon="7.382271690229239"><ele>446.0</ele><time>2026-03-28T11:48:10.999Z</time></trkpt><trkpt lat="44.99429265961308" lon="7.382191850458132"><ele>447.66666666666663</ele><time>2026-03-28T11:48:11.999Z</time></trkpt><trkpt lat="44.9941844288039" lon="7.382175835117524"><ele>449.3333333333333</ele><time>2026-03-28T11:48:12.999Z</time></trkpt><trkpt lat="44.994112114366" lon="7.382166135206925"><ele>451.0</ele><time>2026-03-28T11:48:13.999Z</time></trkpt><trkpt lat="44.99404132354558" lon="7.38213583396231"><ele>452.66666666666663</ele><time>2026-03-28T11:48:14.999Z</time></trkpt><trkpt lat="44.993980522507485" lon="7.38206821805358"><ele>454.3333333333333</ele><time>2026-03-28T11:48:15.999Z</time></trkpt><trkpt lat="44.9939154255412" lon="7.381976096023373"><ele>456.0</ele><time>2026-03-28T11:48:16.999Z</time></trkpt><trkpt lat="44.993888096459045" lon="7.3818322649541415"><ele>449.5</ele><time>2026-03-28T11:48:17.999Z</time></trkpt><trkpt lat="44.99387039098648" lon="7.381655559549868"><ele>443.0</ele><time>2026-03-28T11:48:18.999Z</time></trkpt><trkpt lat="44.99385419072798" lon="7.381452719585819"><ele>436.5</ele><time>2026-03-28T11:48:19.999Z</time></trkpt><trkpt lat="44.99383525980949" lon="7.38127516600967"><ele>430.0</ele><time>2026-03-28T11:48:20.999Z</time></trkpt><trkpt lat="44.99381989810625" lon="7.3811352677512385"><ele>430.0</ele><time>2026-03-28T11:48:21.999Z</time></trkpt><trkpt lat="44.993801268238975" lon="7.381032466520363"><ele>430.0</ele><time>2026-03-28T11:48:22.999Z</time></trkpt><trkpt lat="44.993779466305256" lon="7.380920465379615"><ele>430.0</ele><time>2026-03-28T11:48:23.999Z</time></trkpt><trkpt lat="44.993681766462515" lon="7.3808276301445614"><ele>430.0</ele><time>2026-03-28T11:48:24.999Z</time></trkpt><trkpt lat="44.99357556721833" lon="7.380773664526434"><ele>430.0</ele><time>2026-03-28T11:48:25.999Z</time></trkpt><trkpt lat="44.99350114753281" lon="7.38072406019716"><ele>430.0</ele><time>2026-03-28T11:48:26.999Z</time></trkpt><trkpt lat="44.993452810636626" lon="7.380645594381716"><ele>430.0</ele><time>2026-03-28T11:48:27.999Z</time></trkpt><trkpt lat="44.9934152307008" lon="7.380527504171996"><ele>430.0</ele><time>2026-03-28T11:48:28.999Z</time></trkpt><trkpt lat="44.99337618263521" lon="7.3803856277850715"><ele>430.0</ele><time>2026-03-28T11:48:29.999Z</time></trkpt><trkpt lat="44.99333457684966" lon="7.3802376765334"><ele>430.0</ele><time>2026-03-28T11:48:30.999Z</time></trkpt><trkpt lat="44.99328117817664" lon="7.380099380018343"><ele>426.25</ele><time>2026-03-28T11:48:31.999Z</time></trkpt><trkpt lat="44.993216726754355" lon="7.379976757588546"><ele>422.5</ele><time>2026-03-28T11:48:32.999Z</time></trkpt><trkpt lat="44.99312450426695" lon="7.379885995413213"><ele>418.75</ele><time>2026-03-28T11:48:33.999Z</time></trkpt><trkpt lat="44.99301448072985" lon="7.37983403130532"><ele>415.0</ele><time>2026-03-28T11:48:34.999Z</time></trkpt><trkpt lat="44.99288170663605" lon="7.379813498533015"><ele>415.0</ele><time>2026-03-28T11:48:35.999Z</time></trkpt><trkpt lat="44.9927494894572" lon="7.379813724565677"><ele>415.0</ele><time>2026-03-28T11:48:36.999Z</time></trkpt><trkpt lat="44.99261702355324" lon="7.3798154405887315"><ele>415.0</ele><time>2026-03-28T11:48:37.999Z</time></trkpt><trkpt lat="44.99250283121354" lon="7.379806641682653"><ele>415.0</ele><time>2026-03-28T11:48:38.999Z</time></trkpt><trkpt lat="44.99239742044521" lon="7.379761263824897"><ele>414.0</ele><time>2026-03-28T11:48:39.999Z</time></trkpt><trkpt lat="44.99230381669266" lon="7.379719375924591"><ele>413.0</ele><time>2026-03-28T11:48:40.999Z</time></trkpt><trkpt lat="44.992211315338224" lon="7.379711745033348"><ele>412.0</ele><time>2026-03-28T11:48:41.999Z</time></trkpt><trkpt lat="44.99211568464069" lon="7.379767742581998"><ele>411.0</ele><time>2026-03-28T11:48:42.999Z</time></trkpt><trkpt lat="44.992069715211535" lon="7.379934832674844"><ele>410.0</ele><time>2026-03-28T11:48:43.999Z</time></trkpt><trkpt lat="44.99202995137073" lon="7.3800481628778165"><ele>410.0</ele><time>2026-03-28T11:48:44.999Z</time></trkpt><trkpt lat="44.99198740549148" lon="7.380165972720142"><ele>410.0</ele><time>2026-03-28T11:48:45.999Z</time></trkpt><trkpt lat="44.991921575339376" lon="7.380294462784273"><ele>410.0</ele><time>2026-03-28T11:48:46.999Z</time></trkpt><trkpt lat="44.991845808976265" lon="7.380416377740617"><ele>410.0</ele><time>2026-03-28T11:48:47.999Z</time></trkpt><trkpt lat="44.99177153524981" lon="7.380503368770337"><ele>410.0</ele><time>2026-03-28T11:48:48.999Z</time></trkpt><trkpt lat="44.99170001648086" lon="7.380576139104653"><ele>409.66666666666663</ele><time>2026-03-28T11:48:49.999Z</time></trkpt><trkpt lat="44.99162778789229" lon="7.3806364191263105"><ele>409.3333333333333</ele><time>2026-03-28T11:48:50.999Z</time></trkpt><trkpt lat="44.99154571787032" lon="7.38067993348755"><ele>409.0</ele><time>2026-03-28T11:48:51.999Z</time></trkpt><trkpt lat="44.991451309397135" lon="7.380707054980907"><ele>408.66666666666663</ele><time>2026-03-28T11:48:52.999Z</time></trkpt><trkpt lat="44.99136009814354" lon="7.3807165649206325"><ele>408.3333333333333</ele><time>2026-03-28T11:48:53.999Z</time></trkpt><trkpt lat="44.99127006959496" lon="7.3807167406007625"><ele>408.0</ele><time>2026-03-28T11:48:54.999Z</time></trkpt><trkpt lat="44.991195927458" lon="7.38069276261106"><ele>408.0</ele><time>2026-03-28T11:48:55.999Z</time></trkpt><trkpt lat="44.99107579809687" lon="7.380552286526894"><ele>408.0</ele><time>2026-03-28T11:48:57.999Z</time></trkpt><trkpt lat="44.991004988134755" lon="7.3804274637967655"><ele>408.0</ele><time>2026-03-28T11:48:58.999Z</time></trkpt><trkpt lat="44.99093219476282" lon="7.380291960995276"><ele>408.0</ele><time>2026-03-28T11:48:59.999Z</time></trkpt><trkpt lat="44.99086623449618" lon="7.380181424099519"><ele>409.59999999999997</ele><time>2026-03-28T11:49:00.999Z</time></trkpt><trkpt lat="44.99076948850275" lon="7.380107094225782"><ele>411.2</ele><time>2026-03-28T11:49:01.999Z</time></trkpt><trkpt lat="44.990657421389166" lon="7.380109140591693"><ele>412.8</ele><time>2026-03-28T11:49:02.999Z</time></trkpt><trkpt lat="44.990560622542354" lon="7.380206596879629"><ele>414.4</ele><time>2026-03-28T11:49:03.999Z</time></trkpt><trkpt lat="44.99048622590833" lon="7.380238280359278"><ele>416.0</ele><time>2026-03-28T11:49:04.999Z</time></trkpt><trkpt lat="44.9904088218885" lon="7.3802471443646045"><ele>415.99999999999994</ele><time>2026-03-28T11:49:05.999Z</time></trkpt><trkpt lat="44.99032303481057" lon="7.380248614576389"><ele>416.0</ele><time>2026-03-28T11:49:06.999Z</time></trkpt><trkpt lat="44.99023822617362" lon="7.380237191918209"><ele>416.0</ele><time>2026-03-28T11:49:07.999Z</time></trkpt><trkpt lat="44.99016471014778" lon="7.380213774000173"><ele>416.0</ele><time>2026-03-28T11:49:08.999Z</time></trkpt><trkpt lat="44.99009470740832" lon="7.380178851819365"><ele>415.99999999999994</ele><time>2026-03-28T11:49:09.999Z</time></trkpt><trkpt lat="44.99000871513355" lon="7.380124618356696"><ele>416.0</ele><time>2026-03-28T11:49:10.999Z</time></trkpt><trkpt lat="44.989910543949904" lon="7.380053176517339"><ele>414.8</ele><time>2026-03-28T11:49:11.999Z</time></trkpt><trkpt lat="44.98981821505612" lon="7.379972880171721"><ele>413.6</ele><time>2026-03-28T11:49:12.999Z</time></trkpt><trkpt lat="44.98974257732087" lon="7.379899721653857"><ele>412.4</ele><time>2026-03-28T11:49:13.999Z</time></trkpt><trkpt lat="44.98967018717614" lon="7.379824446945746"><ele>411.2</ele><time>2026-03-28T11:49:14.999Z</time></trkpt><trkpt lat="44.98960239524018" lon="7.379741175285388"><ele>410.0</ele><time>2026-03-28T11:49:15.999Z</time></trkpt><trkpt lat="44.98954235016091" lon="7.379647263921683"><ele>412.8333333333333</ele><time>2026-03-28T11:49:16.999Z</time></trkpt><trkpt lat="44.98949175633836" lon="7.379554574869711"><ele>415.66666666666663</ele><time>2026-03-28T11:49:17.999Z</time></trkpt><trkpt lat="44.989441580329945" lon="7.379465676569939"><ele>418.5</ele><time>2026-03-28T11:49:18.999Z</time></trkpt><trkpt lat="44.98940033492399" lon="7.379388161301895"><ele>421.33333333333337</ele><time>2026-03-28T11:49:19.999Z</time></trkpt><trkpt lat="44.98936199095429" lon="7.379306370267682"><ele>424.1666666666667</ele><time>2026-03-28T11:49:20.999Z</time></trkpt><trkpt lat="44.989322412559176" lon="7.379216609295028"><ele>427.0</ele><time>2026-03-28T11:49:21.999Z</time></trkpt><trkpt lat="44.989281620818986" lon="7.3791117763427305"><ele>427.0</ele><time>2026-03-28T11:49:22.999Z</time></trkpt><trkpt lat="44.98924073053757" lon="7.378993830732174"><ele>427.00000000000006</ele><time>2026-03-28T11:49:23.999Z</time></trkpt><trkpt lat="44.98920663749673" lon="7.378876001987414"><ele>427.00000000000006</ele><time>2026-03-28T11:49:24.999Z</time></trkpt><trkpt lat="44.98918055691667" lon="7.378745985519031"><ele>427.0</ele><time>2026-03-28T11:49:25.999Z</time></trkpt><trkpt lat="44.98916214562838" lon="7.37861260076235"><ele>427.0</ele><time>2026-03-28T11:49:26.999Z</time></trkpt><trkpt lat="44.98912828302385" lon="7.378499175720986"><ele>423.6</ele><time>2026-03-28T11:49:27.999Z</time></trkpt><trkpt lat="44.98912388866421" lon="7.378380377491022"><ele>420.20000000000005</ele><time>2026-03-28T11:49:28.999Z</time></trkpt><trkpt lat="44.98905917536719" lon="7.3782699118188875"><ele>416.8</ele><time>2026-03-28T11:49:29.999Z</time></trkpt><trkpt lat="44.98892532182861" lon="7.378234280457154"><ele>413.4</ele><time>2026-03-28T11:49:30.999Z</time></trkpt><trkpt lat="44.988812399973696" lon="7.378228659313069"><ele>410.0</ele><time>2026-03-28T11:49:31.999Z</time></trkpt><trkpt lat="44.9886930808159" lon="7.378207476832312"><ele>410.0</ele><time>2026-03-28T11:49:32.999Z</time></trkpt><trkpt lat="44.98858202124253" lon="7.378173141341646"><ele>410.0</ele><time>2026-03-28T11:49:33.999Z</time></trkpt><trkpt lat="44.988475254432075" lon="7.378133752730998"><ele>410.0</ele><time>2026-03-28T11:49:34.999Z</time></trkpt><trkpt lat="44.98838607430072" lon="7.378094291275572"><ele>410.0</ele><time>2026-03-28T11:49:35.999Z</time></trkpt><trkpt lat="44.98830723860169" lon="7.378050053723532"><ele>410.0</ele><time>2026-03-28T11:49:36.999Z</time></trkpt><trkpt lat="44.98823717937335" lon="7.377990589611766"><ele>411.3333333333333</ele><time>2026-03-28T11:49:37.999Z</time></trkpt><trkpt lat="44.988184543470815" lon="7.377922207840866"><ele>412.66666666666663</ele><time>2026-03-28T11:49:38.999Z</time></trkpt><trkpt lat="44.988133641025314" lon="7.377861153642913"><ele>414.0</ele><time>2026-03-28T11:49:39.999Z</time></trkpt><trkpt lat="44.98805517580128" lon="7.377803569071139"><ele>415.33333333333337</ele><time>2026-03-28T11:49:40.999Z</time></trkpt><trkpt lat="44.98796524556891" lon="7.377837497454759"><ele>416.6666666666667</ele><time>2026-03-28T11:49:41.999Z</time></trkpt><trkpt lat="44.98791909669991" lon="7.378000048801513"><ele>418.0</ele><time>2026-03-28T11:49:42.999Z</time></trkpt><trkpt lat="44.98788044495919" lon="7.378077455293653"><ele>414.0</ele><time>2026-03-28T11:49:43.999Z</time></trkpt><trkpt lat="44.987839908303386" lon="7.378153731319644"><ele>410.0</ele><time>2026-03-28T11:49:44.999Z</time></trkpt><trkpt lat="44.98774370152346" lon="7.378256910757764"><ele>406.0</ele><time>2026-03-28T11:49:46.999Z</time></trkpt><trkpt lat="44.98767806894464" lon="7.37829516959579"><ele>402.0</ele><time>2026-03-28T11:49:47.999Z</time></trkpt><trkpt lat="44.98761053776124" lon="7.378324437619929"><ele>398.0</ele><time>2026-03-28T11:49:48.999Z</time></trkpt><trkpt lat="44.98748285100054" lon="7.3783168891154975"><ele>397.3333333333333</ele><time>2026-03-28T11:49:50.999Z</time></trkpt><trkpt lat="44.987415009908794" lon="7.3782941279583465"><ele>396.66666666666663</ele><time>2026-03-28T11:49:51.999Z</time></trkpt><trkpt lat="44.987303084379064" lon="7.378239664915338"><ele>396.0</ele><time>2026-03-28T11:49:53.999Z</time></trkpt><trkpt lat="44.98723509913316" lon="7.37821862338992"><ele>395.33333333333337</ele><time>2026-03-28T11:49:54.999Z</time></trkpt><trkpt lat="44.9871705672153" lon="7.378224156997751"><ele>394.6666666666667</ele><time>2026-03-28T11:49:55.999Z</time></trkpt><trkpt lat="44.9870970596562" lon="7.378296598804269"><ele>394.0</ele><time>2026-03-28T11:49:57.999Z</time></trkpt><trkpt lat="44.98700766507422" lon="7.378350534142331"><ele>394.00000000000006</ele><time>2026-03-28T11:50:00.999Z</time></trkpt><trkpt lat="44.986915483078384" lon="7.37838098883065"><ele>394.0</ele><time>2026-03-28T11:50:03Z</time></trkpt><trkpt lat="44.98679675458882" lon="7.378387054179499"><ele>394.0</ele><time>2026-03-28T11:50:05Z</time></trkpt><trkpt lat="44.98672719494684" lon="7.378388921545133"><ele>394.0</ele><time>2026-03-28T11:50:06Z</time></trkpt><trkpt lat="44.98665502100952" lon="7.378388924333603"><ele>394.00000000000006</ele><time>2026-03-28T11:50:07Z</time></trkpt><trkpt lat="44.98657397720685" lon="7.378387647274271"><ele>394.0</ele><time>2026-03-28T11:50:08Z</time></trkpt><trkpt lat="44.98648668106179" lon="7.378382579310362"><ele>393.1666666666667</ele><time>2026-03-28T11:50:09Z</time></trkpt><trkpt lat="44.98640471436636" lon="7.378375123212399"><ele>392.33333333333337</ele><time>2026-03-28T11:50:10Z</time></trkpt><trkpt lat="44.98632568031693" lon="7.378374377853739"><ele>391.5</ele><time>2026-03-28T11:50:11Z</time></trkpt><trkpt lat="44.98624889315371" lon="7.378387283900073"><ele>390.66666666666663</ele><time>2026-03-28T11:50:12Z</time></trkpt><trkpt lat="44.98617438912118" lon="7.378442337069614"><ele>389.8333333333333</ele><time>2026-03-28T11:50:13Z</time></trkpt><trkpt lat="44.98610763425593" lon="7.3784920770046805"><ele>389.0</ele><time>2026-03-28T11:50:14Z</time></trkpt><trkpt lat="44.986043092272496" lon="7.378550557099832"><ele>389.0</ele><time>2026-03-28T11:50:15Z</time></trkpt><trkpt lat="44.98597910949616" lon="7.378584003928663"><ele>389.0</ele><time>2026-03-28T11:50:16Z</time></trkpt><trkpt lat="44.98591252393806" lon="7.3786114107950365"><ele>389.0</ele><time>2026-03-28T11:50:17Z</time></trkpt><trkpt lat="44.985795940159896" lon="7.3786384740291355"><ele>389.0</ele><time>2026-03-28T11:50:19Z</time></trkpt><trkpt lat="44.985683764574844" lon="7.378632694446063"><ele>389.0</ele><time>2026-03-28T11:50:21Z</time></trkpt><trkpt lat="44.98557342675795" lon="7.378611330410682"><ele>386.79999999999995</ele><time>2026-03-28T11:50:23Z</time></trkpt><trkpt lat="44.985490197839326" lon="7.378584856742066"><ele>384.59999999999997</ele><time>2026-03-28T11:50:25Z</time></trkpt><trkpt lat="44.98541609265902" lon="7.378603719239707"><ele>382.4</ele><time>2026-03-28T11:50:28Z</time></trkpt><trkpt lat="44.98534314230121" lon="7.378556750880952"><ele>380.2</ele><time>2026-03-28T11:50:33Z</time></trkpt><trkpt lat="44.985311628780686" lon="7.378439527976766"><ele>378.0</ele><time>2026-03-28T11:50:35Z</time></trkpt><trkpt lat="44.985293361432355" lon="7.3782487890864745"><ele>378.0</ele><time>2026-03-28T11:50:37Z</time></trkpt><trkpt lat="44.985305640884846" lon="7.378136685131152"><ele>378.0</ele><time>2026-03-28T11:50:38Z</time></trkpt><trkpt lat="44.98530096067388" lon="7.3780232924699805"><ele>378.0</ele><time>2026-03-28T11:50:39Z</time></trkpt><trkpt lat="44.98529957684065" lon="7.3779109826745914"><ele>378.0</ele><time>2026-03-28T11:50:40Z</time></trkpt><trkpt lat="44.985306102989526" lon="7.3777673011925495"><ele>378.0</ele><time>2026-03-28T11:50:41Z</time></trkpt><trkpt lat="44.985303497303995" lon="7.37759878263646"><ele>378.59999999999997</ele><time>2026-03-28T11:50:42Z</time></trkpt><trkpt lat="44.98532397858165" lon="7.377436160212921"><ele>379.2</ele><time>2026-03-28T11:50:43Z</time></trkpt><trkpt lat="44.98533875586964" lon="7.37729491889818"><ele>379.8</ele><time>2026-03-28T11:50:44Z</time></trkpt><trkpt lat="44.98533845357817" lon="7.377159846553041"><ele>380.4</ele><time>2026-03-28T11:50:45Z</time></trkpt><trkpt lat="44.98532747191378" lon="7.377024454680688"><ele>381.0</ele><time>2026-03-28T11:50:46Z</time></trkpt><trkpt lat="44.985307140870674" lon="7.376887853790504"><ele>381.0</ele><time>2026-03-28T11:50:47Z</time></trkpt><trkpt lat="44.98528329137676" lon="7.376751555839592"><ele>381.0</ele><time>2026-03-28T11:50:48Z</time></trkpt><trkpt lat="44.985268909907646" lon="7.376650491010075"><ele>381.0</ele><time>2026-03-28T11:50:49Z</time></trkpt><trkpt lat="44.98525141396939" lon="7.376538479789631"><ele>381.0</ele><time>2026-03-28T11:50:50Z</time></trkpt><trkpt lat="44.98523803941592" lon="7.376414360967051"><ele>381.0</ele><time>2026-03-28T11:50:51Z</time></trkpt><trkpt lat="44.98523973076572" lon="7.376264564100017"><ele>381.0</ele><time>2026-03-28T11:50:52Z</time></trkpt><trkpt lat="44.98525961551639" lon="7.376086365910427"><ele>379.75</ele><time>2026-03-28T11:50:53Z</time></trkpt><trkpt lat="44.98524335152333" lon="7.375905245749776"><ele>378.5</ele><time>2026-03-28T11:50:54Z</time></trkpt><trkpt lat="44.98524173151333" lon="7.37575310417381"><ele>377.25</ele><time>2026-03-28T11:50:55Z</time></trkpt><trkpt lat="44.98519402301668" lon="7.375594026797938"><ele>376.0</ele><time>2026-03-28T11:50:56Z</time></trkpt><trkpt lat="44.985159226846825" lon="7.3754155653161355"><ele>375.25</ele><time>2026-03-28T11:50:57Z</time></trkpt><trkpt lat="44.98512701719597" lon="7.375240852821403"><ele>374.5</ele><time>2026-03-28T11:50:58Z</time></trkpt><trkpt lat="44.98511480143268" lon="7.375072077490553"><ele>373.75</ele><time>2026-03-28T11:50:59Z</time></trkpt><trkpt lat="44.98510191204685" lon="7.374890952880499"><ele>373.0</ele><time>2026-03-28T11:51:00Z</time></trkpt><trkpt lat="44.985087121106275" lon="7.37472993918789"><ele>373.0</ele><time>2026-03-28T11:51:01Z</time></trkpt><trkpt lat="44.9850761537108" lon="7.374590907224713"><ele>373.0</ele><time>2026-03-28T11:51:02Z</time></trkpt><trkpt lat="44.985067341179274" lon="7.374485105784891"><ele>373.0</ele><time>2026-03-28T11:51:03Z</time></trkpt><trkpt lat="44.985052122156155" lon="7.374394492640265"><ele>373.0</ele><time>2026-03-28T11:51:04Z</time></trkpt><trkpt lat="44.985012825378995" lon="7.37431128315572"><ele>373.0</ele><time>2026-03-28T11:51:06Z</time></trkpt><trkpt lat="44.98499124064148" lon="7.374219736487949"><ele>373.0</ele><time>2026-03-28T11:51:10Z</time></trkpt><trkpt lat="44.984845624843636" lon="7.3742349159093346"><ele>373.0</ele><time>2026-03-28T11:51:11Z</time></trkpt><trkpt lat="44.984732374249425" lon="7.374230173672341"><ele>373.0</ele><time>2026-03-28T11:51:13Z</time></trkpt><trkpt lat="44.98466018813845" lon="7.374226822733764"><ele>373.0</ele><time>2026-03-28T11:51:14Z</time></trkpt><trkpt lat="44.98458544478038" lon="7.374223838244586"><ele>373.0</ele><time>2026-03-28T11:51:15Z</time></trkpt><trkpt lat="44.98450836735804" lon="7.374224732893861"><ele>373.0</ele><time>2026-03-28T11:51:16Z</time></trkpt><trkpt lat="44.98443226318233" lon="7.374228440354108"><ele>373.0</ele><time>2026-03-28T11:51:17Z</time></trkpt><trkpt lat="44.984356539539654" lon="7.374237934392301"><ele>373.0</ele><time>2026-03-28T11:51:18Z</time></trkpt><trkpt lat="44.984281693472624" lon="7.374239698724851"><ele>373.0</ele><time>2026-03-28T11:51:19Z</time></trkpt><trkpt lat="44.98420485499262" lon="7.374238844981724"><ele>373.0</ele><time>2026-03-28T11:51:20Z</time></trkpt><trkpt lat="44.984128204935544" lon="7.374237735261918"><ele>373.0</ele><time>2026-03-28T11:51:21Z</time></trkpt><trkpt lat="44.984057889903" lon="7.374236886512442"><ele>373.0</ele><time>2026-03-28T11:51:22Z</time></trkpt><trkpt lat="44.98399084383001" lon="7.374234877356312"><ele>373.0</ele><time>2026-03-28T11:51:23Z</time></trkpt><trkpt lat="44.98392269740824" lon="7.374233964445329"><ele>373.0</ele><time>2026-03-28T11:51:24Z</time></trkpt><trkpt lat="44.9838548166343" lon="7.3742433541121555"><ele>373.0</ele><time>2026-03-28T11:51:25Z</time></trkpt><trkpt lat="44.983793715661974" lon="7.374278548266663"><ele>373.0</ele><time>2026-03-28T11:51:26Z</time></trkpt><trkpt lat="44.98376991724524" lon="7.374406326119844"><ele>373.0</ele><time>2026-03-28T11:51:27Z</time></trkpt><trkpt lat="44.98374715687884" lon="7.374507197652797"><ele>373.0</ele><time>2026-03-28T11:51:28Z</time></trkpt><trkpt lat="44.98370682764695" lon="7.374608517602984"><ele>373.0</ele><time>2026-03-28T11:51:29Z</time></trkpt><trkpt lat="44.98365064778196" lon="7.3746945096985606"><ele>373.0</ele><time>2026-03-28T11:51:30Z</time></trkpt><trkpt lat="44.9836052992509" lon="7.3747909834786745"><ele>373.0</ele><time>2026-03-28T11:51:31Z</time></trkpt><trkpt lat="44.98357304906314" lon="7.374891807886967"><ele>373.0</ele><time>2026-03-28T11:51:32Z</time></trkpt><trkpt lat="44.98347642108463" lon="7.374977628292894"><ele>373.0</ele><time>2026-03-28T11:51:34Z</time></trkpt><trkpt lat="44.983431327935676" lon="7.3749046660363815"><ele>373.0</ele><time>2026-03-28T11:51:35Z</time></trkpt><trkpt lat="44.983328580234534" lon="7.374860252375034"><ele>373.0</ele><time>2026-03-28T11:51:37Z</time></trkpt><trkpt lat="44.98323478249183" lon="7.3748239243858285"><ele>374.2</ele><time>2026-03-28T11:51:39Z</time></trkpt><trkpt lat="44.98310990974799" lon="7.37482652359836"><ele>375.4</ele><time>2026-03-28T11:51:41Z</time></trkpt><trkpt lat="44.98304764898945" lon="7.374765408032275"><ele>376.59999999999997</ele><time>2026-03-28T11:51:42Z</time></trkpt><trkpt lat="44.98297924487975" lon="7.374707887749923"><ele>377.79999999999995</ele><time>2026-03-28T11:51:43Z</time></trkpt><trkpt lat="44.98287960056761" lon="7.374687075580808"><ele>379.0</ele><time>2026-03-28T11:51:44Z</time></trkpt><trkpt lat="44.98277367600878" lon="7.374692526063817"><ele>379.0</ele><time>2026-03-28T11:51:45Z</time></trkpt><trkpt lat="44.982689061112545" lon="7.374709815798501"><ele>379.0</ele><time>2026-03-28T11:51:46Z</time></trkpt><trkpt lat="44.98258949114946" lon="7.374695109482058"><ele>379.0</ele><time>2026-03-28T11:51:48Z</time></trkpt><trkpt lat="44.98261261472224" lon="7.374936231385145"><ele>379.0</ele><time>2026-03-28T11:51:50Z</time></trkpt><trkpt lat="44.98265362131307" lon="7.37506511404188"><ele>379.0</ele><time>2026-03-28T11:51:53Z</time></trkpt><trkpt lat="44.98269649203039" lon="7.375144270398716"><ele>379.0</ele><time>2026-03-28T11:51:54Z</time></trkpt><trkpt lat="44.98274388117752" lon="7.375214546968636"><ele>379.0</ele><time>2026-03-28T11:51:55Z</time></trkpt><trkpt lat="44.98279644589001" lon="7.375281111057307"><ele>379.0</ele><time>2026-03-28T11:51:56Z</time></trkpt><trkpt lat="44.98276864787165" lon="7.375448382358202"><ele>379.0</ele><time>2026-03-28T11:51:57Z</time></trkpt><trkpt lat="44.982761615023676" lon="7.375572319580072"><ele>379.0</ele><time>2026-03-28T11:51:58Z</time></trkpt><trkpt lat="44.98272797575953" lon="7.37570004873197"><ele>379.0</ele><time>2026-03-28T11:51:59Z</time></trkpt><trkpt lat="44.98271780291019" lon="7.375809430128228"><ele>379.0</ele><time>2026-03-28T11:52:00Z</time></trkpt><trkpt lat="44.98267642436886" lon="7.375901227686123"><ele>379.0</ele><time>2026-03-28T11:52:01Z</time></trkpt><trkpt lat="44.98261692507845" lon="7.375959141654043"><ele>379.0</ele><time>2026-03-28T11:52:02Z</time></trkpt><trkpt lat="44.98252804106478" lon="7.375924900140356"><ele>379.0</ele><time>2026-03-28T11:52:03Z</time></trkpt><trkpt lat="44.98242979689573" lon="7.375919427656444"><ele>379.0</ele><time>2026-03-28T11:52:04Z</time></trkpt><trkpt lat="44.98231513253195" lon="7.375920595147361"><ele>377.75</ele><time>2026-03-28T11:52:05Z</time></trkpt><trkpt lat="44.982178208754284" lon="7.3759299672053285"><ele>376.5</ele><time>2026-03-28T11:52:06Z</time></trkpt><trkpt lat="44.98203421489987" lon="7.375957867835743"><ele>375.25</ele><time>2026-03-28T11:52:06.999Z</time></trkpt><trkpt lat="44.981941927290976" lon="7.3760079771805565"><ele>374.0</ele><time>2026-03-28T11:52:07.999Z</time></trkpt><trkpt lat="44.981849429275236" lon="7.376011742096341"><ele>374.0</ele><time>2026-03-28T11:52:09Z</time></trkpt><trkpt lat="44.981738111156744" lon="7.376024446208057"><ele>374.0</ele><time>2026-03-28T11:52:10Z</time></trkpt><trkpt lat="44.981600756069234" lon="7.3760124718805775"><ele>374.0</ele><time>2026-03-28T11:52:11Z</time></trkpt><trkpt lat="44.981453788278635" lon="7.3759682845225925"><ele>374.0</ele><time>2026-03-28T11:52:12Z</time></trkpt><trkpt lat="44.98134056589241" lon="7.375859890685562"><ele>373.4</ele><time>2026-03-28T11:52:13Z</time></trkpt><trkpt lat="44.98123588414914" lon="7.375841518252704"><ele>372.79999999999995</ele><time>2026-03-28T11:52:14Z</time></trkpt><trkpt lat="44.981145574704165" lon="7.375828143857607"><ele>372.20000000000005</ele><time>2026-03-28T11:52:15Z</time></trkpt><trkpt lat="44.98105698429978" lon="7.375823909970741"><ele>371.6</ele><time>2026-03-28T11:52:16Z</time></trkpt><trkpt lat="44.980954239627245" lon="7.375856611515123"><ele>371.0</ele><time>2026-03-28T11:52:17Z</time></trkpt><trkpt lat="44.980847323569044" lon="7.375806540659742"><ele>370.0</ele><time>2026-03-28T11:52:18Z</time></trkpt><trkpt lat="44.98072715810897" lon="7.375755535749322"><ele>369.0</ele><time>2026-03-28T11:52:19Z</time></trkpt><trkpt lat="44.98059979385024" lon="7.375718412306241"><ele>368.0</ele><time>2026-03-28T11:52:20Z</time></trkpt><trkpt lat="44.980469114697435" lon="7.375673270298925"><ele>367.0</ele><time>2026-03-28T11:52:21Z</time></trkpt><trkpt lat="44.98035623613451" lon="7.375527894783066"><ele>367.25</ele><time>2026-03-28T11:52:22Z</time></trkpt><trkpt lat="44.98022125590207" lon="7.3754749642888875"><ele>367.5</ele><time>2026-03-28T11:52:23Z</time></trkpt><trkpt lat="44.980084075623566" lon="7.375421186641556"><ele>367.75</ele><time>2026-03-28T11:52:24Z</time></trkpt><trkpt lat="44.979949052113135" lon="7.3753682544139565"><ele>368.0</ele><time>2026-03-28T11:52:25Z</time></trkpt><trkpt lat="44.97981637788777" lon="7.375316243205651"><ele>368.0</ele><time>2026-03-28T11:52:26Z</time></trkpt><trkpt lat="44.97969485844625" lon="7.375263709329958"><ele>368.0</ele><time>2026-03-28T11:52:27Z</time></trkpt><trkpt lat="44.97956193170427" lon="7.375206982523939"><ele>368.0</ele><time>2026-03-28T11:52:28Z</time></trkpt><trkpt lat="44.97943122507511" lon="7.375177888553558"><ele>368.0</ele><time>2026-03-28T11:52:29Z</time></trkpt><trkpt lat="44.97927743756447" lon="7.375220809836101"><ele>368.0</ele><time>2026-03-28T11:52:30Z</time></trkpt><trkpt lat="44.979159736892456" lon="7.375196057991583"><ele>368.0</ele><time>2026-03-28T11:52:31Z</time></trkpt><trkpt lat="44.979023680774965" lon="7.375161244651806"><ele>368.0</ele><time>2026-03-28T11:52:32Z</time></trkpt><trkpt lat="44.97888546478975" lon="7.375127397210543"><ele>368.0</ele><time>2026-03-28T11:52:33Z</time></trkpt><trkpt lat="44.9787553369021" lon="7.375096008295968"><ele>368.0</ele><time>2026-03-28T11:52:34Z</time></trkpt><trkpt lat="44.97862752219035" lon="7.375068166356008"><ele>368.0</ele><time>2026-03-28T11:52:35Z</time></trkpt><trkpt lat="44.97850448186994" lon="7.375038523878384"><ele>368.0</ele><time>2026-03-28T11:52:36Z</time></trkpt><trkpt lat="44.97839590635481" lon="7.3750008393296795"><ele>368.0</ele><time>2026-03-28T11:52:37Z</time></trkpt><trkpt lat="44.978289607015356" lon="7.374946347267465"><ele>368.0</ele><time>2026-03-28T11:52:38Z</time></trkpt><trkpt lat="44.97817631455717" lon="7.374866393296903"><ele>368.0</ele><time>2026-03-28T11:52:39Z</time></trkpt><trkpt lat="44.978064020855136" lon="7.374779015541443"><ele>368.0</ele><time>2026-03-28T11:52:40Z</time></trkpt><trkpt lat="44.97795722200393" lon="7.374693865108707"><ele>368.0</ele><time>2026-03-28T11:52:41Z</time></trkpt><trkpt lat="44.97784155898171" lon="7.374609694791314"><ele>368.0</ele><time>2026-03-28T11:52:42Z</time></trkpt><trkpt lat="44.977729779167156" lon="7.374545121410891"><ele>368.0</ele><time>2026-03-28T11:52:43Z</time></trkpt><trkpt lat="44.977625346004146" lon="7.374493988129386"><ele>368.0</ele><time>2026-03-28T11:52:44Z</time></trkpt><trkpt lat="44.977545015581406" lon="7.374459875213167"><ele>368.0</ele><time>2026-03-28T11:52:45Z</time></trkpt><trkpt lat="44.9774533027256" lon="7.3743921562966435"><ele>368.0</ele><time>2026-03-28T11:52:47Z</time></trkpt><trkpt lat="44.97740962507627" lon="7.374268413455012"><ele>367.0</ele><time>2026-03-28T11:52:49Z</time></trkpt><trkpt lat="44.977444567302825" lon="7.374174516749008"><ele>366.0</ele><time>2026-03-28T11:52:50Z</time></trkpt><trkpt lat="44.977478670097724" lon="7.37409166570908"><ele>365.0</ele><time>2026-03-28T11:52:51Z</time></trkpt><trkpt lat="44.97751274601083" lon="7.374012841657359"><ele>364.0</ele><time>2026-03-28T11:52:52Z</time></trkpt><trkpt lat="44.977384560706206" lon="7.37383213624187"><ele>363.0</ele><time>2026-03-28T11:52:54Z</time></trkpt><trkpt lat="44.97729926525086" lon="7.373776264394754"><ele>363.0</ele><time>2026-03-28T11:52:55Z</time></trkpt><trkpt lat="44.97720277062304" lon="7.373707019670646"><ele>363.0</ele><time>2026-03-28T11:52:56Z</time></trkpt><trkpt lat="44.977092694192436" lon="7.373629296305752"><ele>363.0</ele><time>2026-03-28T11:52:57Z</time></trkpt><trkpt lat="44.97696917841211" lon="7.373553765795758"><ele>363.0</ele><time>2026-03-28T11:52:58Z</time></trkpt><trkpt lat="44.976828700497045" lon="7.373491311901682"><ele>363.0</ele><time>2026-03-28T11:52:59Z</time></trkpt><trkpt lat="44.97668600382199" lon="7.373433091333676"><ele>363.0</ele><time>2026-03-28T11:53:00Z</time></trkpt><trkpt lat="44.97654027020283" lon="7.373368277407501"><ele>363.0</ele><time>2026-03-28T11:53:01Z</time></trkpt><trkpt lat="44.97639644634345" lon="7.373293756901966"><ele>363.0</ele><time>2026-03-28T11:53:02Z</time></trkpt><trkpt lat="44.97626436156066" lon="7.373211690605495"><ele>363.0</ele><time>2026-03-28T11:53:03Z</time></trkpt><trkpt lat="44.976133276469916" lon="7.373118663424178"><ele>363.0</ele><time>2026-03-28T11:53:04Z</time></trkpt><trkpt lat="44.97600953586565" lon="7.373015211685961"><ele>363.0</ele><time>2026-03-28T11:53:05Z</time></trkpt><trkpt lat="44.97591982851249" lon="7.372872338468402"><ele>365.5</ele><time>2026-03-28T11:53:06Z</time></trkpt><trkpt lat="44.975841586925235" lon="7.3727055105343915"><ele>368.0</ele><time>2026-03-28T11:53:07Z</time></trkpt><trkpt lat="44.975737225272795" lon="7.372553095991243"><ele>370.5</ele><time>2026-03-28T11:53:08Z</time></trkpt><trkpt lat="44.97563255866218" lon="7.372408726354283"><ele>373.0</ele><time>2026-03-28T11:53:09Z</time></trkpt><trkpt lat="44.97553122444597" lon="7.372256400785235"><ele>374.5</ele><time>2026-03-28T11:53:10Z</time></trkpt><trkpt lat="44.97544906563713" lon="7.3720919731971355"><ele>376.0</ele><time>2026-03-28T11:53:11Z</time></trkpt><trkpt lat="44.975377094418675" lon="7.371912207326592"><ele>377.5</ele><time>2026-03-28T11:53:12Z</time></trkpt><trkpt lat="44.975292578693725" lon="7.371730456733255"><ele>379.0</ele><time>2026-03-28T11:53:13Z</time></trkpt><trkpt lat="44.975199010755404" lon="7.37156226423916"><ele>379.0</ele><time>2026-03-28T11:53:14Z</time></trkpt><trkpt lat="44.97510456098105" lon="7.371395504108243"><ele>379.0</ele><time>2026-03-28T11:53:15Z</time></trkpt><trkpt lat="44.975009116500715" lon="7.371239663773743"><ele>379.0</ele><time>2026-03-28T11:53:16Z</time></trkpt><trkpt lat="44.97490442625714" lon="7.371088615347083"><ele>379.0</ele><time>2026-03-28T11:53:17Z</time></trkpt><trkpt lat="44.97478622052531" lon="7.370957539924738"><ele>379.3333333333333</ele><time>2026-03-28T11:53:18Z</time></trkpt><trkpt lat="44.97465608855436" lon="7.370843234165335"><ele>379.6666666666667</ele><time>2026-03-28T11:53:19Z</time></trkpt><trkpt lat="44.97450628787578" lon="7.3707601605366975"><ele>380.0</ele><time>2026-03-28T11:53:20Z</time></trkpt><trkpt lat="44.974356538876194" lon="7.370680876776782"><ele>380.0</ele><time>2026-03-28T11:53:21Z</time></trkpt><trkpt lat="44.97421096801795" lon="7.370604681943244"><ele>380.0</ele><time>2026-03-28T11:53:22Z</time></trkpt><trkpt lat="44.97406095623953" lon="7.370527579482193"><ele>380.0</ele><time>2026-03-28T11:53:23Z</time></trkpt><trkpt lat="44.9739115903975" lon="7.370451281415989"><ele>385.6666666666667</ele><time>2026-03-28T11:53:24Z</time></trkpt><trkpt lat="44.97376054004311" lon="7.370380319889873"><ele>391.33333333333337</ele><time>2026-03-28T11:53:25Z</time></trkpt><trkpt lat="44.97360828729146" lon="7.370319226796827"><ele>397.0</ele><time>2026-03-28T11:53:26Z</time></trkpt><trkpt lat="44.97346076829666" lon="7.370250414546439"><ele>399.25</ele><time>2026-03-28T11:53:27Z</time></trkpt><trkpt lat="44.97331544152112" lon="7.370183461820948"><ele>401.5</ele><time>2026-03-28T11:53:28Z</time></trkpt><trkpt lat="44.97317277950158" lon="7.370117736776734"><ele>403.75</ele><time>2026-03-28T11:53:29Z</time></trkpt><trkpt lat="44.973040945986135" lon="7.370060528795337"><ele>406.0</ele><time>2026-03-28T11:53:30Z</time></trkpt><trkpt lat="44.97291343759695" lon="7.370033387285413"><ele>406.0</ele><time>2026-03-28T11:53:31Z</time></trkpt><trkpt lat="44.97278286635867" lon="7.370037201485513"><ele>406.0</ele><time>2026-03-28T11:53:32Z</time></trkpt><trkpt lat="44.9726618860454" lon="7.370049474602941"><ele>406.0</ele><time>2026-03-28T11:53:33Z</time></trkpt><trkpt lat="44.972554093323446" lon="7.37005415350117"><ele>406.0</ele><time>2026-03-28T11:53:34Z</time></trkpt><trkpt lat="44.97245139552586" lon="7.370044657134355"><ele>406.0</ele><time>2026-03-28T11:53:35Z</time></trkpt><trkpt lat="44.97234892679917" lon="7.370037436311898"><ele>406.0</ele><time>2026-03-28T11:53:36Z</time></trkpt><trkpt lat="44.97225922166463" lon="7.370056753042786"><ele>406.0</ele><time>2026-03-28T11:53:37Z</time></trkpt><trkpt lat="44.9721967128407" lon="7.370085391357117"><ele>406.0</ele><time>2026-03-28T11:53:38Z</time></trkpt><trkpt lat="44.972127951233105" lon="7.370129911829719"><ele>406.0</ele><time>2026-03-28T11:53:40Z</time></trkpt><trkpt lat="44.97206037253508" lon="7.3699886223823805"><ele>406.0</ele><time>2026-03-28T11:53:42Z</time></trkpt><trkpt lat="44.97200646769468" lon="7.3699115022323545"><ele>406.0</ele><time>2026-03-28T11:53:44Z</time></trkpt><trkpt lat="44.97187993283174" lon="7.370028657249109"><ele>406.0</ele><time>2026-03-28T11:53:45Z</time></trkpt><trkpt lat="44.97182084929931" lon="7.370087823318409"><ele>406.0</ele><time>2026-03-28T11:53:46Z</time></trkpt><trkpt lat="44.971758777345705" lon="7.37014941338893"><ele>406.0</ele><time>2026-03-28T11:53:47Z</time></trkpt><trkpt lat="44.97169084814467" lon="7.370214448924461"><ele>406.2857142857143</ele><time>2026-03-28T11:53:48Z</time></trkpt><trkpt lat="44.97162366726246" lon="7.370271828560356"><ele>406.57142857142856</ele><time>2026-03-28T11:53:49Z</time></trkpt><trkpt lat="44.97156482588555" lon="7.37030951442642"><ele>406.8571428571429</ele><time>2026-03-28T11:53:50Z</time></trkpt><trkpt lat="44.971475380857015" lon="7.370278244207184"><ele>407.1428571428571</ele><time>2026-03-28T11:53:52Z</time></trkpt><trkpt lat="44.97144077977142" lon="7.370199847671109"><ele>407.42857142857144</ele><time>2026-03-28T11:53:53Z</time></trkpt><trkpt lat="44.97139327160005" lon="7.3701182178522044"><ele>407.7142857142857</ele><time>2026-03-28T11:53:54Z</time></trkpt><trkpt lat="44.97134415218347" lon="7.3700439178754955"><ele>408.0</ele><time>2026-03-28T11:53:55Z</time></trkpt><trkpt lat="44.9711654149402" lon="7.370060429333404"><ele>408.0</ele><time>2026-03-28T11:53:57Z</time></trkpt><trkpt lat="44.97108766814364" lon="7.370159468678905"><ele>408.0</ele><time>2026-03-28T11:53:58Z</time></trkpt><trkpt lat="44.971024291032315" lon="7.3702735581750085"><ele>408.0</ele><time>2026-03-28T11:53:59Z</time></trkpt><trkpt lat="44.97095612718208" lon="7.3703872066325555"><ele>408.0</ele><time>2026-03-28T11:54:00Z</time></trkpt><trkpt lat="44.970885119241856" lon="7.370505596985075"><ele>408.0</ele><time>2026-03-28T11:54:01Z</time></trkpt><trkpt lat="44.970815300615484" lon="7.3706139318148285"><ele>408.0</ele><time>2026-03-28T11:54:02Z</time></trkpt><trkpt lat="44.97073990438345" lon="7.370710078088254"><ele>408.0</ele><time>2026-03-28T11:54:03Z</time></trkpt><trkpt lat="44.97066072371044" lon="7.370781684195869"><ele>408.0</ele><time>2026-03-28T11:54:04Z</time></trkpt><trkpt lat="44.97056850281377" lon="7.37083455546866"><ele>408.0</ele><time>2026-03-28T11:54:05Z</time></trkpt><trkpt lat="44.97047498404882" lon="7.370860110710544"><ele>408.0</ele><time>2026-03-28T11:54:06Z</time></trkpt><trkpt lat="44.970397150906756" lon="7.370876719398223"><ele>408.0</ele><time>2026-03-28T11:54:07Z</time></trkpt><trkpt lat="44.97032417641602" lon="7.370886245305538"><ele>408.0</ele><time>2026-03-28T11:54:08Z</time></trkpt><trkpt lat="44.97026358826487" lon="7.370820169375119"><ele>408.0</ele><time>2026-03-28T11:54:09Z</time></trkpt><trkpt lat="44.97023659924411" lon="7.370701023505616"><ele>408.0</ele><time>2026-03-28T11:54:10Z</time></trkpt><trkpt lat="44.97020227140164" lon="7.370579305703301"><ele>408.0</ele><time>2026-03-28T11:54:11Z</time></trkpt><trkpt lat="44.970167089617775" lon="7.370440203273616"><ele>408.0</ele><time>2026-03-28T11:54:12Z</time></trkpt><trkpt lat="44.970128979000386" lon="7.370292945453201"><ele>408.75</ele><time>2026-03-28T11:54:13Z</time></trkpt><trkpt lat="44.970091136127685" lon="7.370123855771996"><ele>409.5</ele><time>2026-03-28T11:54:14Z</time></trkpt><trkpt lat="44.970046354941154" lon="7.369935031356349"><ele>410.25</ele><time>2026-03-28T11:54:15.001Z</time></trkpt><trkpt lat="44.96999800665178" lon="7.369739371983368"><ele>411.0</ele><time>2026-03-28T11:54:16.001Z</time></trkpt><trkpt lat="44.969935689897326" lon="7.369543803860843"><ele>414.0</ele><time>2026-03-28T11:54:17.001Z</time></trkpt><trkpt lat="44.96987343105389" lon="7.369360291088077"><ele>417.0</ele><time>2026-03-28T11:54:18.001Z</time></trkpt><trkpt lat="44.969784919597274" lon="7.369192791174719"><ele>420.0</ele><time>2026-03-28T11:54:19.001Z</time></trkpt><trkpt lat="44.96965484662082" lon="7.3690866187054604"><ele>423.0</ele><time>2026-03-28T11:54:20.001Z</time></trkpt><trkpt lat="44.96955833874484" lon="7.368935350448687"><ele>424.0</ele><time>2026-03-28T11:54:21.001Z</time></trkpt><trkpt lat="44.96947173264872" lon="7.36877094571571"><ele>425.0</ele><time>2026-03-28T11:54:22.001Z</time></trkpt><trkpt lat="44.96940082321935" lon="7.368591041004438"><ele>426.0</ele><time>2026-03-28T11:54:23.001Z</time></trkpt><trkpt lat="44.9693132603764" lon="7.368421486025009"><ele>427.0</ele><time>2026-03-28T11:54:24.001Z</time></trkpt><trkpt lat="44.969215273655664" lon="7.368270462551935"><ele>428.5</ele><time>2026-03-28T11:54:25.001Z</time></trkpt><trkpt lat="44.969098251713476" lon="7.368157784471099"><ele>430.0</ele><time>2026-03-28T11:54:26.001Z</time></trkpt><trkpt lat="44.96897763294255" lon="7.368063550437615"><ele>431.5</ele><time>2026-03-28T11:54:27.001Z</time></trkpt><trkpt lat="44.96884867426251" lon="7.367987247162326"><ele>433.0</ele><time>2026-03-28T11:54:28.001Z</time></trkpt><trkpt lat="44.968716450803214" lon="7.3679029060377745"><ele>433.75</ele><time>2026-03-28T11:54:29.001Z</time></trkpt><trkpt lat="44.968599037057636" lon="7.367778844598085"><ele>434.5</ele><time>2026-03-28T11:54:30.001Z</time></trkpt><trkpt lat="44.968469468418334" lon="7.367696941201036"><ele>435.25</ele><time>2026-03-28T11:54:31.001Z</time></trkpt><trkpt lat="44.96836134848975" lon="7.3675806129534696"><ele>436.0</ele><time>2026-03-28T11:54:32.001Z</time></trkpt><trkpt lat="44.96826930496075" lon="7.367447702054646"><ele>437.75</ele><time>2026-03-28T11:54:33.001Z</time></trkpt><trkpt lat="44.96819446685424" lon="7.367306509435768"><ele>439.5</ele><time>2026-03-28T11:54:34.001Z</time></trkpt><trkpt lat="44.96813110204347" lon="7.367154486362201"><ele>441.25</ele><time>2026-03-28T11:54:35.001Z</time></trkpt><trkpt lat="44.96806752879008" lon="7.367008073120953"><ele>443.0</ele><time>2026-03-28T11:54:36.001Z</time></trkpt><trkpt lat="44.96800545530975" lon="7.366878223746329"><ele>444.2</ele><time>2026-03-28T11:54:37.001Z</time></trkpt><trkpt lat="44.967955972248674" lon="7.366763384650584"><ele>445.4</ele><time>2026-03-28T11:54:38.001Z</time></trkpt><trkpt lat="44.96791791164166" lon="7.366648353288294"><ele>446.59999999999997</ele><time>2026-03-28T11:54:39.001Z</time></trkpt><trkpt lat="44.967895832380925" lon="7.366521128554435"><ele>447.79999999999995</ele><time>2026-03-28T11:54:40.001Z</time></trkpt><trkpt lat="44.967892509458906" lon="7.366380034833252"><ele>449.0</ele><time>2026-03-28T11:54:41.001Z</time></trkpt><trkpt lat="44.96789316581565" lon="7.366250440364692"><ele>450.16666666666663</ele><time>2026-03-28T11:54:42.001Z</time></trkpt><trkpt lat="44.96788449641052" lon="7.36615139092115"><ele>451.3333333333333</ele><time>2026-03-28T11:54:43.001Z</time></trkpt><trkpt lat="44.96792738156637" lon="7.366021344003261"><ele>452.5</ele><time>2026-03-28T11:54:45.001Z</time></trkpt><trkpt lat="44.96798487568957" lon="7.365978306062336"><ele>453.66666666666663</ele><time>2026-03-28T11:54:46Z</time></trkpt><trkpt lat="44.96806091962498" lon="7.365963302074339"><ele>454.8333333333333</ele><time>2026-03-28T11:54:47Z</time></trkpt><trkpt lat="44.9681252084226" lon="7.365936452971437"><ele>456.0</ele><time>2026-03-28T11:54:48Z</time></trkpt><trkpt lat="44.968193444372176" lon="7.3659000426038475"><ele>456.0</ele><time>2026-03-28T11:54:49Z</time></trkpt><trkpt lat="44.96826119666379" lon="7.365847734757756"><ele>456.0</ele><time>2026-03-28T11:54:50Z</time></trkpt><trkpt lat="44.96832163840424" lon="7.365793041348713"><ele>456.0</ele><time>2026-03-28T11:54:51Z</time></trkpt><trkpt lat="44.96839087669526" lon="7.365772656233911"><ele>456.0</ele><time>2026-03-28T11:54:52Z</time></trkpt><trkpt lat="44.968414232752274" lon="7.365638093672081"><ele>456.0</ele><time>2026-03-28T11:54:53Z</time></trkpt><trkpt lat="44.9684479559345" lon="7.365542818655245"><ele>456.0</ele><time>2026-03-28T11:54:54Z</time></trkpt><trkpt lat="44.968473958386596" lon="7.365447262941567"><ele>455.8333333333333</ele><time>2026-03-28T11:54:55Z</time></trkpt><trkpt lat="44.968474560964985" lon="7.365338537081309"><ele>455.66666666666663</ele><time>2026-03-28T11:54:56Z</time></trkpt><trkpt lat="44.96845670198103" lon="7.365228495638459"><ele>455.5</ele><time>2026-03-28T11:54:57Z</time></trkpt><trkpt lat="44.9684158900709" lon="7.365116853456143"><ele>455.3333333333333</ele><time>2026-03-28T11:54:58Z</time></trkpt><trkpt lat="44.96832582011247" lon="7.365043057211271"><ele>455.16666666666663</ele><time>2026-03-28T11:54:59Z</time></trkpt><trkpt lat="44.96826349860841" lon="7.364976621160584"><ele>455.0</ele><time>2026-03-28T11:55:00Z</time></trkpt><trkpt lat="44.96822000463713" lon="7.364907124495934"><ele>456.6</ele><time>2026-03-28T11:55:01Z</time></trkpt><trkpt lat="44.96819275748893" lon="7.364811223710809"><ele>458.2</ele><time>2026-03-28T11:55:02Z</time></trkpt><trkpt lat="44.96817303355744" lon="7.364688030107614"><ele>459.79999999999995</ele><time>2026-03-28T11:55:03Z</time></trkpt><trkpt lat="44.968132051577825" lon="7.364573080833338"><ele>461.4</ele><time>2026-03-28T11:55:04Z</time></trkpt><trkpt lat="44.968080180414816" lon="7.3644554674770255"><ele>463.0</ele><time>2026-03-28T11:55:04.999Z</time></trkpt><trkpt lat="44.9680254911905" lon="7.364334110481792"><ele>464.0</ele><time>2026-03-28T11:55:05.999Z</time></trkpt><trkpt lat="44.96797388582556" lon="7.364207974527077"><ele>464.99999999999994</ele><time>2026-03-28T11:55:06.999Z</time></trkpt><trkpt lat="44.96793499984092" lon="7.364078240584402"><ele>465.99999999999994</ele><time>2026-03-28T11:55:07.999Z</time></trkpt><trkpt lat="44.967906544071205" lon="7.363938064246649"><ele>467.0</ele><time>2026-03-28T11:55:08.999Z</time></trkpt><trkpt lat="44.96787995527195" lon="7.363791626829176"><ele>468.0</ele><time>2026-03-28T11:55:09.999Z</time></trkpt><trkpt lat="44.96785243270215" lon="7.3636516964826075"><ele>470.59999999999997</ele><time>2026-03-28T11:55:10.999Z</time></trkpt><trkpt lat="44.967819496047845" lon="7.363512845043597"><ele>473.19999999999993</ele><time>2026-03-28T11:55:11.999Z</time></trkpt><trkpt lat="44.96779428608886" lon="7.36337062684549"><ele>475.8</ele><time>2026-03-28T11:55:12.999Z</time></trkpt><trkpt lat="44.967746041456806" lon="7.363238431406896"><ele>478.4</ele><time>2026-03-28T11:55:13.999Z</time></trkpt><trkpt lat="44.9676733046435" lon="7.363139476882024"><ele>481.0</ele><time>2026-03-28T11:55:14.999Z</time></trkpt><trkpt lat="44.96761909271348" lon="7.3630286356094485"><ele>482.20000000000005</ele><time>2026-03-28T11:55:15.999Z</time></trkpt><trkpt lat="44.96755009790124" lon="7.362937545996846"><ele>483.40000000000003</ele><time>2026-03-28T11:55:16.999Z</time></trkpt><trkpt lat="44.967483862557266" lon="7.362841936902336"><ele>484.6</ele><time>2026-03-28T11:55:17.999Z</time></trkpt><trkpt lat="44.967393973152625" lon="7.362767630248478"><ele>485.8</ele><time>2026-03-28T11:55:18.999Z</time></trkpt><trkpt lat="44.96730246920905" lon="7.362724149959008"><ele>487.0</ele><time>2026-03-28T11:55:19.999Z</time></trkpt><trkpt lat="44.96721960493552" lon="7.362676684154898"><ele>487.0</ele><time>2026-03-28T11:55:20.999Z</time></trkpt><trkpt lat="44.96713679843516" lon="7.362605645029129"><ele>487.00000000000006</ele><time>2026-03-28T11:55:21.999Z</time></trkpt><trkpt lat="44.96707544829477" lon="7.362482138585356"><ele>487.00000000000006</ele><time>2026-03-28T11:55:22.999Z</time></trkpt><trkpt lat="44.96701784152548" lon="7.362360405131711"><ele>487.0</ele><time>2026-03-28T11:55:23.999Z</time></trkpt><trkpt lat="44.96696608785329" lon="7.362236351333706"><ele>487.0</ele><time>2026-03-28T11:55:24.999Z</time></trkpt><trkpt lat="44.96692530131669" lon="7.362118995360039"><ele>488.0</ele><time>2026-03-28T11:55:25.999Z</time></trkpt><trkpt lat="44.96689776732423" lon="7.3620212069759585"><ele>489.0</ele><time>2026-03-28T11:55:26.999Z</time></trkpt><trkpt lat="44.96688630657558" lon="7.3619301519719595"><ele>490.0</ele><time>2026-03-28T11:55:27.999Z</time></trkpt><trkpt lat="44.96689510670551" lon="7.361833038213707"><ele>491.0</ele><time>2026-03-28T11:55:28.999Z</time></trkpt><trkpt lat="44.966915069197796" lon="7.361722094173691"><ele>492.0</ele><time>2026-03-28T11:55:29.999Z</time></trkpt><trkpt lat="44.966942005855415" lon="7.3616091831623915"><ele>493.0</ele><time>2026-03-28T11:55:30.999Z</time></trkpt><trkpt lat="44.96696606496789" lon="7.361514798279356"><ele>494.0</ele><time>2026-03-28T11:55:31.999Z</time></trkpt><trkpt lat="44.96703609468532" lon="7.361402983116758"><ele>494.0</ele><time>2026-03-28T11:55:33.999Z</time></trkpt><trkpt lat="44.96711900134958" lon="7.3614670528472645"><ele>494.0</ele><time>2026-03-28T11:55:35.999Z</time></trkpt><trkpt lat="44.967188206702666" lon="7.361520873830081"><ele>494.0</ele><time>2026-03-28T11:55:36.999Z</time></trkpt><trkpt lat="44.967259838514714" lon="7.361577471979872"><ele>494.0</ele><time>2026-03-28T11:55:37.999Z</time></trkpt><trkpt lat="44.9673498152821" lon="7.361631335205279"><ele>494.0</ele><time>2026-03-28T11:55:38.999Z</time></trkpt><trkpt lat="44.96744413803428" lon="7.361666366442798"><ele>495.79999999999995</ele><time>2026-03-28T11:55:39.999Z</time></trkpt><trkpt lat="44.96753998160803" lon="7.361675227318736"><ele>497.59999999999997</ele><time>2026-03-28T11:55:40.999Z</time></trkpt><trkpt lat="44.967641699086144" lon="7.361609303472542"><ele>499.4</ele><time>2026-03-28T11:55:41.999Z</time></trkpt><trkpt lat="44.96775063135067" lon="7.361590245761384"><ele>501.2</ele><time>2026-03-28T11:55:42.999Z</time></trkpt><trkpt lat="44.9678582380565" lon="7.361597044603518"><ele>503.0</ele><time>2026-03-28T11:55:43.999Z</time></trkpt><trkpt lat="44.96797402550794" lon="7.3616146956628485"><ele>503.0</ele><time>2026-03-28T11:55:44.999Z</time></trkpt><trkpt lat="44.96809042216236" lon="7.361627553175466"><ele>502.99999999999994</ele><time>2026-03-28T11:55:45.999Z</time></trkpt><trkpt lat="44.968188786611194" lon="7.361628437950684"><ele>502.99999999999994</ele><time>2026-03-28T11:55:46.999Z</time></trkpt><trkpt lat="44.968266931255755" lon="7.361677693803157"><ele>503.0</ele><time>2026-03-28T11:55:47.999Z</time></trkpt><trkpt lat="44.968345953016126" lon="7.361743848096774"><ele>503.0</ele><time>2026-03-28T11:55:48.999Z</time></trkpt><trkpt lat="44.9684316237385" lon="7.361799079672086"><ele>506.2</ele><time>2026-03-28T11:55:49.999Z</time></trkpt><trkpt lat="44.9685225000907" lon="7.361857667321168"><ele>509.4</ele><time>2026-03-28T11:55:50.999Z</time></trkpt><trkpt lat="44.96862149323306" lon="7.361921310866985"><ele>512.5999999999999</ele><time>2026-03-28T11:55:51.999Z</time></trkpt><trkpt lat="44.96872004269403" lon="7.361981400064668"><ele>515.8</ele><time>2026-03-28T11:55:52.999Z</time></trkpt><trkpt lat="44.96880345731079" lon="7.362038335291469"><ele>519.0</ele><time>2026-03-28T11:55:53.999Z</time></trkpt><trkpt lat="44.96888144212436" lon="7.3621129516575365"><ele>519.0</ele><time>2026-03-28T11:55:54.999Z</time></trkpt><trkpt lat="44.968961171210324" lon="7.3621971979618"><ele>519.0</ele><time>2026-03-28T11:55:55.999Z</time></trkpt><trkpt lat="44.96903774192499" lon="7.362290525101451"><ele>519.0</ele><time>2026-03-28T11:55:56.999Z</time></trkpt><trkpt lat="44.969116367001014" lon="7.362347336914264"><ele>519.0</ele><time>2026-03-28T11:55:57.999Z</time></trkpt><trkpt lat="44.96919000068423" lon="7.362390558688673"><ele>519.0</ele><time>2026-03-28T11:55:58.999Z</time></trkpt><trkpt lat="44.9692596705545" lon="7.3624009510626625"><ele>519.0</ele><time>2026-03-28T11:55:59.999Z</time></trkpt><trkpt lat="44.969325022484995" lon="7.3623856498516895"><ele>520.5</ele><time>2026-03-28T11:56:00.999Z</time></trkpt><trkpt lat="44.969417241250824" lon="7.3623435179240335"><ele>522.0</ele><time>2026-03-28T11:56:02.999Z</time></trkpt><trkpt lat="44.96945731112148" lon="7.36226454675374"><ele>523.5</ele><time>2026-03-28T11:56:05.999Z</time></trkpt><trkpt lat="44.96937920666566" lon="7.362185923344395"><ele>525.0</ele><time>2026-03-28T11:56:06.999Z</time></trkpt><trkpt lat="44.96934970514729" lon="7.362084877179343"><ele>526.5</ele><time>2026-03-28T11:56:09.999Z</time></trkpt><trkpt lat="44.96933354882335" lon="7.361976055898026"><ele>528.0</ele><time>2026-03-28T11:56:23Z</time></trkpt><trkpt lat="44.96930799251965" lon="7.361881176033068"><ele>528.0</ele><time>2026-03-28T11:56:27Z</time></trkpt><trkpt lat="44.96958305707903" lon="7.361634288615699"><ele>528.0</ele><time>2026-03-28T11:56:28.063Z</time></trkpt><trkpt lat="44.96952669174438" lon="7.361678756929051"><ele>528.0</ele><time>2026-03-28T11:56:55.025Z</time></trkpt><trkpt lat="44.96950250693584" lon="7.3617959193486575"><ele>528.0</ele><time>2026-03-28T11:56:58.025Z</time></trkpt><trkpt lat="44.96949534305408" lon="7.361885990775166"><ele>528.0</ele><time>2026-03-28T11:57:00.024Z</time></trkpt><trkpt lat="44.969444150050826" lon="7.361752751220864"><ele>528.0</ele><time>2026-03-28T11:57:06.026Z</time></trkpt><trkpt lat="44.96953218505065" lon="7.361948426153048"><ele>528.0</ele><time>2026-03-28T11:58:41.014Z</time></trkpt><trkpt lat="44.96950090462042" lon="7.361869194504969"><ele>528.0</ele><time>2026-03-28T11:58:42.014Z</time></trkpt><trkpt lat="44.96941776531076" lon="7.361792429045595"><ele>528.0</ele><time>2026-03-28T11:59:04.011Z</time></trkpt><trkpt lat="44.96959878289319" lon="7.362152651081614"><ele>528.0</ele><time>2026-03-28T11:59:09.015Z</time></trkpt><trkpt lat="44.969637273833975" lon="7.362233948426736"><ele>528.0</ele><time>2026-03-28T11:59:11.011Z</time></trkpt><trkpt lat="44.96953388522691" lon="7.362105743327743"><ele>528.0</ele><time>2026-03-28T11:59:26.013Z</time></trkpt></trkseg></trk></gpx>